<?xml version='1.0' encoding='UTF-8'?><gpx version="1.1" creator="JPX - https://github.com/jenetics/jpx" xmlns="http://www.topografix.com/GPX/1/1"><trk><trkseg><trkpt lat="46.2053617" lon="12.8187317"><ele>261.0</ele><time>2026-04-25T12:09:49.562Z</time></trkpt><trkpt lat="46.2053583" lon="12.818825"><ele>261.0</ele><time>2026-04-25T12:09:52.562Z</time></trkpt><trkpt lat="46.205415" lon="12.818905"><ele>261.0</ele><time>2026-04-25T12:10:28.561Z</time></trkpt><trkpt lat="46.2055117" lon="12.8189083"><ele>261.0</ele><time>2026-04-25T12:10:32.56Z</time></trkpt><trkpt lat="46.2055783" lon="12.8188283"><ele>261.0</ele><time>2026-04-25T12:10:35.56Z</time></trkpt><trkpt lat="46.20566" lon="12.8187767"><ele>261.0</ele><time>2026-04-25T12:10:38.56Z</time></trkpt><trkpt lat="46.2057" lon="12.8186817"><ele>261.3333333333333</ele><time>2026-04-25T12:10:40.56Z</time></trkpt><trkpt lat="46.2057" lon="12.8185767"><ele>261.6666666666667</ele><time>2026-04-25T12:10:41.561Z</time></trkpt><trkpt lat="46.205705" lon="12.81846"><ele>262.0</ele><time>2026-04-25T12:10:42.561Z</time></trkpt><trkpt lat="46.205715" lon="12.8183367"><ele>262.33333333333337</ele><time>2026-04-25T12:10:43.561Z</time></trkpt><trkpt lat="46.205735" lon="12.818235"><ele>262.6666666666667</ele><time>2026-04-25T12:10:44.561Z</time></trkpt><trkpt lat="46.2057733" lon="12.81807"><ele>263.0</ele><time>2026-04-25T12:10:46.56Z</time></trkpt><trkpt lat="46.205815" lon="12.8179483"><ele>263.0</ele><time>2026-04-25T12:10:48.56Z</time></trkpt><trkpt lat="46.2058967" lon="12.8178883"><ele>263.0</ele><time>2026-04-25T12:10:50.56Z</time></trkpt><trkpt lat="46.20603" lon="12.8179633"><ele>263.0</ele><time>2026-04-25T12:10:52.56Z</time></trkpt><trkpt lat="46.2061133" lon="12.818055"><ele>263.0</ele><time>2026-04-25T12:10:53.56Z</time></trkpt><trkpt lat="46.2062017" lon="12.818165"><ele>263.0</ele><time>2026-04-25T12:10:54.56Z</time></trkpt><trkpt lat="46.2062933" lon="12.8182833"><ele>263.0</ele><time>2026-04-25T12:10:55.561Z</time></trkpt><trkpt lat="46.2063883" lon="12.8184067"><ele>263.0</ele><time>2026-04-25T12:10:56.561Z</time></trkpt><trkpt lat="46.2064817" lon="12.8185233"><ele>263.0</ele><time>2026-04-25T12:10:57.56Z</time></trkpt><trkpt lat="46.20657" lon="12.8186317"><ele>263.6</ele><time>2026-04-25T12:10:58.561Z</time></trkpt><trkpt lat="46.206655" lon="12.8187383"><ele>264.20000000000005</ele><time>2026-04-25T12:10:59.561Z</time></trkpt><trkpt lat="46.2067383" lon="12.8188383"><ele>264.8</ele><time>2026-04-25T12:11:00.561Z</time></trkpt><trkpt lat="46.2068233" lon="12.8189333"><ele>265.40000000000003</ele><time>2026-04-25T12:11:01.561Z</time></trkpt><trkpt lat="46.2069017" lon="12.819025"><ele>266.0</ele><time>2026-04-25T12:11:02.561Z</time></trkpt><trkpt lat="46.20698" lon="12.8191117"><ele>266.0</ele><time>2026-04-25T12:11:03.56Z</time></trkpt><trkpt lat="46.207055" lon="12.8191933"><ele>266.0</ele><time>2026-04-25T12:11:04.561Z</time></trkpt><trkpt lat="46.2071283" lon="12.8192717"><ele>266.0</ele><time>2026-04-25T12:11:05.561Z</time></trkpt><trkpt lat="46.2071983" lon="12.819345"><ele>266.0</ele><time>2026-04-25T12:11:06.561Z</time></trkpt><trkpt lat="46.20726" lon="12.8194167"><ele>266.0</ele><time>2026-04-25T12:11:07.561Z</time></trkpt><trkpt lat="46.2073067" lon="12.819485"><ele>266.0</ele><time>2026-04-25T12:11:08.56Z</time></trkpt><trkpt lat="46.20735" lon="12.8196133"><ele>266.6666666666667</ele><time>2026-04-25T12:11:10.561Z</time></trkpt><trkpt lat="46.2073217" lon="12.8197367"><ele>267.33333333333337</ele><time>2026-04-25T12:11:12.56Z</time></trkpt><trkpt lat="46.2072383" lon="12.8198517"><ele>268.0</ele><time>2026-04-25T12:11:14.561Z</time></trkpt><trkpt lat="46.2072017" lon="12.8199517"><ele>268.6666666666667</ele><time>2026-04-25T12:11:16.561Z</time></trkpt><trkpt lat="46.2072417" lon="12.8200233"><ele>269.3333333333333</ele><time>2026-04-25T12:11:18.561Z</time></trkpt><trkpt lat="46.207325" lon="12.8200883"><ele>270.0</ele><time>2026-04-25T12:11:20.56Z</time></trkpt><trkpt lat="46.2074133" lon="12.8200783"><ele>271.8</ele><time>2026-04-25T12:11:22.561Z</time></trkpt><trkpt lat="46.20753" lon="12.8199717"><ele>273.6</ele><time>2026-04-25T12:11:24.561Z</time></trkpt><trkpt lat="46.20761" lon="12.8198833"><ele>275.4</ele><time>2026-04-25T12:11:25.56Z</time></trkpt><trkpt lat="46.20768" lon="12.819785"><ele>277.2</ele><time>2026-04-25T12:11:26.561Z</time></trkpt><trkpt lat="46.207745" lon="12.8196833"><ele>279.0</ele><time>2026-04-25T12:11:27.561Z</time></trkpt><trkpt lat="46.2078033" lon="12.819585"><ele>279.0</ele><time>2026-04-25T12:11:28.56Z</time></trkpt><trkpt lat="46.207865" lon="12.8194867"><ele>279.0</ele><time>2026-04-25T12:11:29.561Z</time></trkpt><trkpt lat="46.207925" lon="12.8194067"><ele>279.0</ele><time>2026-04-25T12:11:30.56Z</time></trkpt><trkpt lat="46.207995" lon="12.8193417"><ele>279.0</ele><time>2026-04-25T12:11:31.56Z</time></trkpt><trkpt lat="46.2080733" lon="12.81927"><ele>279.0</ele><time>2026-04-25T12:11:32.561Z</time></trkpt><trkpt lat="46.2081367" lon="12.81919"><ele>279.0</ele><time>2026-04-25T12:11:33.561Z</time></trkpt><trkpt lat="46.2081983" lon="12.819105"><ele>279.1666666666667</ele><time>2026-04-25T12:11:34.561Z</time></trkpt><trkpt lat="46.2082617" lon="12.81902"><ele>279.3333333333333</ele><time>2026-04-25T12:11:35.561Z</time></trkpt><trkpt lat="46.2083217" lon="12.8189433"><ele>279.5</ele><time>2026-04-25T12:11:36.561Z</time></trkpt><trkpt lat="46.208395" lon="12.818885"><ele>279.66666666666663</ele><time>2026-04-25T12:11:37.561Z</time></trkpt><trkpt lat="46.2084683" lon="12.8188167"><ele>279.8333333333333</ele><time>2026-04-25T12:11:38.561Z</time></trkpt><trkpt lat="46.20854" lon="12.8187467"><ele>280.0</ele><time>2026-04-25T12:11:39.561Z</time></trkpt><trkpt lat="46.2086183" lon="12.8186717"><ele>280.0</ele><time>2026-04-25T12:11:40.561Z</time></trkpt><trkpt lat="46.208685" lon="12.8185883"><ele>280.0</ele><time>2026-04-25T12:11:41.561Z</time></trkpt><trkpt lat="46.2087633" lon="12.8184867"><ele>280.0</ele><time>2026-04-25T12:11:42.56Z</time></trkpt><trkpt lat="46.20884" lon="12.81837"><ele>280.0</ele><time>2026-04-25T12:11:43.56Z</time></trkpt><trkpt lat="46.208905" lon="12.8182733"><ele>280.0</ele><time>2026-04-25T12:11:44.56Z</time></trkpt><trkpt lat="46.2089633" lon="12.8181867"><ele>279.5</ele><time>2026-04-25T12:11:45.561Z</time></trkpt><trkpt lat="46.2090183" lon="12.8181083"><ele>279.0</ele><time>2026-04-25T12:11:46.56Z</time></trkpt><trkpt lat="46.2090667" lon="12.8180317"><ele>278.5</ele><time>2026-04-25T12:11:47.56Z</time></trkpt><trkpt lat="46.2090967" lon="12.8179417"><ele>278.0</ele><time>2026-04-25T12:11:48.56Z</time></trkpt><trkpt lat="46.2091267" lon="12.8178433"><ele>277.5</ele><time>2026-04-25T12:11:49.561Z</time></trkpt><trkpt lat="46.2091683" lon="12.8177433"><ele>277.0</ele><time>2026-04-25T12:11:50.56Z</time></trkpt><trkpt lat="46.209225" lon="12.817655"><ele>275.3333333333333</ele><time>2026-04-25T12:11:51.561Z</time></trkpt><trkpt lat="46.209285" lon="12.8175733"><ele>273.66666666666663</ele><time>2026-04-25T12:11:52.561Z</time></trkpt><trkpt lat="46.20935" lon="12.8174933"><ele>272.0</ele><time>2026-04-25T12:11:53.561Z</time></trkpt><trkpt lat="46.20942" lon="12.8174217"><ele>270.3333333333333</ele><time>2026-04-25T12:11:54.561Z</time></trkpt><trkpt lat="46.2094933" lon="12.8173517"><ele>268.6666666666667</ele><time>2026-04-25T12:11:55.561Z</time></trkpt><trkpt lat="46.2095783" lon="12.8172867"><ele>267.0</ele><time>2026-04-25T12:11:56.561Z</time></trkpt><trkpt lat="46.2096533" lon="12.8172117"><ele>267.0</ele><time>2026-04-25T12:11:57.56Z</time></trkpt><trkpt lat="46.2097233" lon="12.8171283"><ele>267.0</ele><time>2026-04-25T12:11:58.561Z</time></trkpt><trkpt lat="46.2097833" lon="12.8170417"><ele>267.0</ele><time>2026-04-25T12:11:59.56Z</time></trkpt><trkpt lat="46.2098383" lon="12.8169567"><ele>267.0</ele><time>2026-04-25T12:12:00.561Z</time></trkpt><trkpt lat="46.20989" lon="12.8168783"><ele>267.0</ele><time>2026-04-25T12:12:01.561Z</time></trkpt><trkpt lat="46.2099383" lon="12.81681"><ele>267.0</ele><time>2026-04-25T12:12:02.56Z</time></trkpt><trkpt lat="46.2099883" lon="12.8167383"><ele>267.3333333333333</ele><time>2026-04-25T12:12:03.561Z</time></trkpt><trkpt lat="46.210035" lon="12.816665"><ele>267.6666666666667</ele><time>2026-04-25T12:12:04.56Z</time></trkpt><trkpt lat="46.2100867" lon="12.816595"><ele>268.0</ele><time>2026-04-25T12:12:05.56Z</time></trkpt><trkpt lat="46.210145" lon="12.8165283"><ele>268.33333333333337</ele><time>2026-04-25T12:12:06.561Z</time></trkpt><trkpt lat="46.2102017" lon="12.8164517"><ele>268.6666666666667</ele><time>2026-04-25T12:12:07.561Z</time></trkpt><trkpt lat="46.2102617" lon="12.81636"><ele>269.0</ele><time>2026-04-25T12:12:08.56Z</time></trkpt><trkpt lat="46.2103283" lon="12.8162533"><ele>269.0</ele><time>2026-04-25T12:12:09.56Z</time></trkpt><trkpt lat="46.2104067" lon="12.8161383"><ele>269.0</ele><time>2026-04-25T12:12:10.56Z</time></trkpt><trkpt lat="46.2104767" lon="12.8160233"><ele>269.0</ele><time>2026-04-25T12:12:11.56Z</time></trkpt><trkpt lat="46.2105467" lon="12.8159183"><ele>269.0</ele><time>2026-04-25T12:12:12.561Z</time></trkpt><trkpt lat="46.2106217" lon="12.81581"><ele>269.0</ele><time>2026-04-25T12:12:13.561Z</time></trkpt><trkpt lat="46.210705" lon="12.815705"><ele>269.4</ele><time>2026-04-25T12:12:14.561Z</time></trkpt><trkpt lat="46.2107967" lon="12.8156033"><ele>269.79999999999995</ele><time>2026-04-25T12:12:15.561Z</time></trkpt><trkpt lat="46.2108883" lon="12.81551"><ele>270.20000000000005</ele><time>2026-04-25T12:12:16.56Z</time></trkpt><trkpt lat="46.210975" lon="12.8154233"><ele>270.6</ele><time>2026-04-25T12:12:17.561Z</time></trkpt><trkpt lat="46.21106" lon="12.81533"><ele>271.0</ele><time>2026-04-25T12:12:18.561Z</time></trkpt><trkpt lat="46.211145" lon="12.8152383"><ele>270.40000000000003</ele><time>2026-04-25T12:12:19.561Z</time></trkpt><trkpt lat="46.2112267" lon="12.8151533"><ele>269.8</ele><time>2026-04-25T12:12:20.561Z</time></trkpt><trkpt lat="46.2113117" lon="12.8150783"><ele>269.20000000000005</ele><time>2026-04-25T12:12:21.561Z</time></trkpt><trkpt lat="46.2114" lon="12.815015"><ele>268.6</ele><time>2026-04-25T12:12:22.561Z</time></trkpt><trkpt lat="46.211485" lon="12.8149467"><ele>268.0</ele><time>2026-04-25T12:12:23.56Z</time></trkpt><trkpt lat="46.21158" lon="12.8148667"><ele>270.0</ele><time>2026-04-25T12:12:24.561Z</time></trkpt><trkpt lat="46.2116717" lon="12.8147533"><ele>272.0</ele><time>2026-04-25T12:12:25.56Z</time></trkpt><trkpt lat="46.2117633" lon="12.8146283"><ele>274.0</ele><time>2026-04-25T12:12:26.561Z</time></trkpt><trkpt lat="46.21185" lon="12.8145083"><ele>276.0</ele><time>2026-04-25T12:12:27.56Z</time></trkpt><trkpt lat="46.2119317" lon="12.8144083"><ele>274.8</ele><time>2026-04-25T12:12:28.561Z</time></trkpt><trkpt lat="46.212015" lon="12.814315"><ele>273.6</ele><time>2026-04-25T12:12:29.561Z</time></trkpt><trkpt lat="46.21209" lon="12.814225"><ele>272.4</ele><time>2026-04-25T12:12:30.56Z</time></trkpt><trkpt lat="46.2121667" lon="12.814125"><ele>271.2</ele><time>2026-04-25T12:12:31.561Z</time></trkpt><trkpt lat="46.212245" lon="12.8140133"><ele>270.0</ele><time>2026-04-25T12:12:32.561Z</time></trkpt><trkpt lat="46.21232" lon="12.813905"><ele>270.4</ele><time>2026-04-25T12:12:33.561Z</time></trkpt><trkpt lat="46.21239" lon="12.81381"><ele>270.8</ele><time>2026-04-25T12:12:34.561Z</time></trkpt><trkpt lat="46.2124583" lon="12.8137217"><ele>271.2</ele><time>2026-04-25T12:12:35.56Z</time></trkpt><trkpt lat="46.2125317" lon="12.8136283"><ele>271.6</ele><time>2026-04-25T12:12:36.561Z</time></trkpt><trkpt lat="46.2126033" lon="12.8135367"><ele>272.0</ele><time>2026-04-25T12:12:37.56Z</time></trkpt><trkpt lat="46.21267" lon="12.81346"><ele>272.0</ele><time>2026-04-25T12:12:38.56Z</time></trkpt><trkpt lat="46.2127317" lon="12.8133933"><ele>272.0</ele><time>2026-04-25T12:12:39.56Z</time></trkpt><trkpt lat="46.212785" lon="12.8133267"><ele>272.0</ele><time>2026-04-25T12:12:40.56Z</time></trkpt><trkpt lat="46.212845" lon="12.81319"><ele>272.0</ele><time>2026-04-25T12:12:42.561Z</time></trkpt><trkpt lat="46.2128217" lon="12.8130517"><ele>272.0</ele><time>2026-04-25T12:12:44.561Z</time></trkpt><trkpt lat="46.2127617" lon="12.812975"><ele>272.0</ele><time>2026-04-25T12:12:45.56Z</time></trkpt><trkpt lat="46.2126867" lon="12.8129"><ele>272.0</ele><time>2026-04-25T12:12:46.561Z</time></trkpt><trkpt lat="46.2126183" lon="12.812825"><ele>272.0</ele><time>2026-04-25T12:12:47.56Z</time></trkpt><trkpt lat="46.2125533" lon="12.8127483"><ele>272.0</ele><time>2026-04-25T12:12:48.561Z</time></trkpt><trkpt lat="46.2124933" lon="12.812675"><ele>272.0</ele><time>2026-04-25T12:12:49.561Z</time></trkpt><trkpt lat="46.212425" lon="12.8125967"><ele>272.0</ele><time>2026-04-25T12:12:51.561Z</time></trkpt><trkpt lat="46.2123717" lon="12.8124783"><ele>272.0</ele><time>2026-04-25T12:13:25.562Z</time></trkpt><trkpt lat="46.2123883" lon="12.81229"><ele>271.75</ele><time>2026-04-25T12:13:27.562Z</time></trkpt><trkpt lat="46.2124267" lon="12.8121817"><ele>271.5</ele><time>2026-04-25T12:13:28.562Z</time></trkpt><trkpt lat="46.2125083" lon="12.8120133"><ele>271.25</ele><time>2026-04-25T12:13:29.561Z</time></trkpt><trkpt lat="46.2125983" lon="12.8118333"><ele>271.0</ele><time>2026-04-25T12:13:30.562Z</time></trkpt><trkpt lat="46.2126883" lon="12.8116567"><ele>271.0</ele><time>2026-04-25T12:13:31.562Z</time></trkpt><trkpt lat="46.2127717" lon="12.8114933"><ele>271.0</ele><time>2026-04-25T12:13:32.561Z</time></trkpt><trkpt lat="46.2128483" lon="12.8113433"><ele>271.0</ele><time>2026-04-25T12:13:33.561Z</time></trkpt><trkpt lat="46.212915" lon="12.8112083"><ele>271.0</ele><time>2026-04-25T12:13:34.562Z</time></trkpt><trkpt lat="46.2129767" lon="12.8110967"><ele>271.16666666666663</ele><time>2026-04-25T12:13:35.561Z</time></trkpt><trkpt lat="46.2130283" lon="12.8109883"><ele>271.3333333333333</ele><time>2026-04-25T12:13:36.561Z</time></trkpt><trkpt lat="46.2130733" lon="12.81089"><ele>271.5</ele><time>2026-04-25T12:13:37.561Z</time></trkpt><trkpt lat="46.2131217" lon="12.8107983"><ele>271.6666666666667</ele><time>2026-04-25T12:13:38.562Z</time></trkpt><trkpt lat="46.21318" lon="12.8107017"><ele>271.83333333333337</ele><time>2026-04-25T12:13:39.562Z</time></trkpt><trkpt lat="46.2132517" lon="12.8105883"><ele>272.0</ele><time>2026-04-25T12:13:40.561Z</time></trkpt><trkpt lat="46.21334" lon="12.8104633"><ele>272.4</ele><time>2026-04-25T12:13:41.561Z</time></trkpt><trkpt lat="46.2134267" lon="12.8103267"><ele>272.79999999999995</ele><time>2026-04-25T12:13:42.562Z</time></trkpt><trkpt lat="46.2135083" lon="12.8102017"><ele>273.2</ele><time>2026-04-25T12:13:43.562Z</time></trkpt><trkpt lat="46.21358" lon="12.8101"><ele>273.59999999999997</ele><time>2026-04-25T12:13:44.562Z</time></trkpt><trkpt lat="46.21365" lon="12.8100317"><ele>274.0</ele><time>2026-04-25T12:13:45.562Z</time></trkpt><trkpt lat="46.2137133" lon="12.8099817"><ele>274.0</ele><time>2026-04-25T12:13:46.562Z</time></trkpt><trkpt lat="46.2137783" lon="12.81"><ele>274.0</ele><time>2026-04-25T12:13:47.562Z</time></trkpt><trkpt lat="46.2138417" lon="12.810085"><ele>274.0</ele><time>2026-04-25T12:13:48.562Z</time></trkpt><trkpt lat="46.213915" lon="12.8101983"><ele>274.0</ele><time>2026-04-25T12:13:49.561Z</time></trkpt><trkpt lat="46.2139967" lon="12.8103067"><ele>274.0</ele><time>2026-04-25T12:13:50.562Z</time></trkpt><trkpt lat="46.2140833" lon="12.8104133"><ele>274.8333333333333</ele><time>2026-04-25T12:13:51.562Z</time></trkpt><trkpt lat="46.2141617" lon="12.8105"><ele>275.66666666666663</ele><time>2026-04-25T12:13:52.562Z</time></trkpt><trkpt lat="46.214235" lon="12.8105567"><ele>276.5</ele><time>2026-04-25T12:13:53.561Z</time></trkpt><trkpt lat="46.214305" lon="12.8105883"><ele>277.3333333333333</ele><time>2026-04-25T12:13:54.562Z</time></trkpt><trkpt lat="46.21441" lon="12.8104983"><ele>278.1666666666667</ele><time>2026-04-25T12:13:56.561Z</time></trkpt><trkpt lat="46.2144483" lon="12.8104133"><ele>279.0</ele><time>2026-04-25T12:13:57.561Z</time></trkpt><trkpt lat="46.2144883" lon="12.8103183"><ele>279.0</ele><time>2026-04-25T12:13:58.562Z</time></trkpt><trkpt lat="46.2145433" lon="12.81021"><ele>279.0</ele><time>2026-04-25T12:13:59.562Z</time></trkpt><trkpt lat="46.2146" lon="12.81007"><ele>279.0</ele><time>2026-04-25T12:14:00.562Z</time></trkpt><trkpt lat="46.21466" lon="12.8099183"><ele>279.0</ele><time>2026-04-25T12:14:01.562Z</time></trkpt><trkpt lat="46.2147217" lon="12.8097717"><ele>279.0</ele><time>2026-04-25T12:14:02.561Z</time></trkpt><trkpt lat="46.2147717" lon="12.8096283"><ele>279.59999999999997</ele><time>2026-04-25T12:14:03.562Z</time></trkpt><trkpt lat="46.214825" lon="12.8094967"><ele>280.2</ele><time>2026-04-25T12:14:04.562Z</time></trkpt><trkpt lat="46.2148733" lon="12.8093617"><ele>280.79999999999995</ele><time>2026-04-25T12:14:05.562Z</time></trkpt><trkpt lat="46.214925" lon="12.8092267"><ele>281.4</ele><time>2026-04-25T12:14:06.561Z</time></trkpt><trkpt lat="46.2149817" lon="12.8090983"><ele>282.0</ele><time>2026-04-25T12:14:07.561Z</time></trkpt><trkpt lat="46.215045" lon="12.8089767"><ele>282.0</ele><time>2026-04-25T12:14:08.562Z</time></trkpt><trkpt lat="46.2151083" lon="12.8088533"><ele>282.0</ele><time>2026-04-25T12:14:09.562Z</time></trkpt><trkpt lat="46.21518" lon="12.80872"><ele>282.0</ele><time>2026-04-25T12:14:10.561Z</time></trkpt><trkpt lat="46.2152483" lon="12.8085833"><ele>282.0</ele><time>2026-04-25T12:14:11.561Z</time></trkpt><trkpt lat="46.2153083" lon="12.80846"><ele>282.0</ele><time>2026-04-25T12:14:12.562Z</time></trkpt><trkpt lat="46.2153483" lon="12.8083483"><ele>281.6</ele><time>2026-04-25T12:14:13.562Z</time></trkpt><trkpt lat="46.2153783" lon="12.80824"><ele>281.2</ele><time>2026-04-25T12:14:14.561Z</time></trkpt><trkpt lat="46.2153883" lon="12.80808"><ele>280.8</ele><time>2026-04-25T12:14:16.561Z</time></trkpt><trkpt lat="46.21531" lon="12.807945"><ele>280.4</ele><time>2026-04-25T12:14:18.562Z</time></trkpt><trkpt lat="46.2152367" lon="12.807865"><ele>280.0</ele><time>2026-04-25T12:14:19.562Z</time></trkpt><trkpt lat="46.2151667" lon="12.807785"><ele>280.0</ele><time>2026-04-25T12:14:20.561Z</time></trkpt><trkpt lat="46.2151033" lon="12.8076983"><ele>280.0</ele><time>2026-04-25T12:14:21.561Z</time></trkpt><trkpt lat="46.2150383" lon="12.8075983"><ele>280.0</ele><time>2026-04-25T12:14:22.561Z</time></trkpt><trkpt lat="46.2149767" lon="12.8074883"><ele>280.0</ele><time>2026-04-25T12:14:23.561Z</time></trkpt><trkpt lat="46.2149083" lon="12.8073717"><ele>280.0</ele><time>2026-04-25T12:14:24.562Z</time></trkpt><trkpt lat="46.2148367" lon="12.80725"><ele>280.0</ele><time>2026-04-25T12:14:25.561Z</time></trkpt><trkpt lat="46.2147583" lon="12.8071233"><ele>280.0</ele><time>2026-04-25T12:14:26.561Z</time></trkpt><trkpt lat="46.214675" lon="12.807"><ele>280.0</ele><time>2026-04-25T12:14:27.562Z</time></trkpt><trkpt lat="46.2145967" lon="12.8068833"><ele>280.0</ele><time>2026-04-25T12:14:28.561Z</time></trkpt><trkpt lat="46.2145167" lon="12.80678"><ele>280.0</ele><time>2026-04-25T12:14:29.561Z</time></trkpt><trkpt lat="46.214455" lon="12.8066783"><ele>280.0</ele><time>2026-04-25T12:14:30.562Z</time></trkpt><trkpt lat="46.2144017" lon="12.80656"><ele>280.0</ele><time>2026-04-25T12:14:31.561Z</time></trkpt><trkpt lat="46.214375" lon="12.8064267"><ele>280.0</ele><time>2026-04-25T12:14:32.562Z</time></trkpt><trkpt lat="46.2143767" lon="12.8062817"><ele>280.0</ele><time>2026-04-25T12:14:33.562Z</time></trkpt><trkpt lat="46.214395" lon="12.80614"><ele>280.0</ele><time>2026-04-25T12:14:34.561Z</time></trkpt><trkpt lat="46.21441" lon="12.806"><ele>280.0</ele><time>2026-04-25T12:14:35.562Z</time></trkpt><trkpt lat="46.2144233" lon="12.8058667"><ele>280.0</ele><time>2026-04-25T12:14:36.562Z</time></trkpt><trkpt lat="46.2144367" lon="12.8057383"><ele>280.0</ele><time>2026-04-25T12:14:37.562Z</time></trkpt><trkpt lat="46.2144583" lon="12.8056167"><ele>280.0</ele><time>2026-04-25T12:14:38.562Z</time></trkpt><trkpt lat="46.2144883" lon="12.8054933"><ele>280.0</ele><time>2026-04-25T12:14:39.562Z</time></trkpt><trkpt lat="46.2145283" lon="12.8053633"><ele>280.0</ele><time>2026-04-25T12:14:40.562Z</time></trkpt><trkpt lat="46.2145633" lon="12.8052283"><ele>280.0</ele><time>2026-04-25T12:14:41.562Z</time></trkpt><trkpt lat="46.2145983" lon="12.805105"><ele>280.0</ele><time>2026-04-25T12:14:42.561Z</time></trkpt><trkpt lat="46.2146283" lon="12.804995"><ele>280.0</ele><time>2026-04-25T12:14:43.562Z</time></trkpt><trkpt lat="46.2146517" lon="12.8049083"><ele>280.0</ele><time>2026-04-25T12:14:44.561Z</time></trkpt><trkpt lat="46.2146983" lon="12.8048383"><ele>280.0</ele><time>2026-04-25T12:14:46.561Z</time></trkpt><trkpt lat="46.2147667" lon="12.80488"><ele>280.0</ele><time>2026-04-25T12:14:48.562Z</time></trkpt><trkpt lat="46.2148267" lon="12.8049217"><ele>280.0</ele><time>2026-04-25T12:14:49.561Z</time></trkpt><trkpt lat="46.214905" lon="12.80496"><ele>280.0</ele><time>2026-04-25T12:14:50.561Z</time></trkpt><trkpt lat="46.21499" lon="12.8050067"><ele>280.0</ele><time>2026-04-25T12:14:51.562Z</time></trkpt><trkpt lat="46.2150717" lon="12.8050567"><ele>280.0</ele><time>2026-04-25T12:14:52.562Z</time></trkpt><trkpt lat="46.2151617" lon="12.805105"><ele>280.3333333333333</ele><time>2026-04-25T12:14:53.562Z</time></trkpt><trkpt lat="46.2152483" lon="12.8051517"><ele>280.66666666666663</ele><time>2026-04-25T12:14:54.562Z</time></trkpt><trkpt lat="46.2153267" lon="12.8052117"><ele>281.0</ele><time>2026-04-25T12:14:55.562Z</time></trkpt><trkpt lat="46.2154" lon="12.8052783"><ele>281.3333333333333</ele><time>2026-04-25T12:14:56.561Z</time></trkpt><trkpt lat="46.2154833" lon="12.8053417"><ele>281.6666666666667</ele><time>2026-04-25T12:14:57.561Z</time></trkpt><trkpt lat="46.2155533" lon="12.8054133"><ele>282.0</ele><time>2026-04-25T12:14:58.561Z</time></trkpt><trkpt lat="46.215635" lon="12.8054817"><ele>283.2</ele><time>2026-04-25T12:14:59.562Z</time></trkpt><trkpt lat="46.2157217" lon="12.8055483"><ele>284.4</ele><time>2026-04-25T12:15:00.561Z</time></trkpt><trkpt lat="46.2158067" lon="12.805615"><ele>285.6</ele><time>2026-04-25T12:15:01.562Z</time></trkpt><trkpt lat="46.215895" lon="12.80569"><ele>286.8</ele><time>2026-04-25T12:15:02.56Z</time></trkpt><trkpt lat="46.21598" lon="12.8057517"><ele>288.0</ele><time>2026-04-25T12:15:03.561Z</time></trkpt><trkpt lat="46.2160617" lon="12.8057883"><ele>288.0</ele><time>2026-04-25T12:15:04.561Z</time></trkpt><trkpt lat="46.216135" lon="12.8058033"><ele>288.0</ele><time>2026-04-25T12:15:05.561Z</time></trkpt><trkpt lat="46.216205" lon="12.8058"><ele>288.0</ele><time>2026-04-25T12:15:06.561Z</time></trkpt><trkpt lat="46.2162717" lon="12.8057867"><ele>288.0</ele><time>2026-04-25T12:15:07.56Z</time></trkpt><trkpt lat="46.2163317" lon="12.8057317"><ele>288.0</ele><time>2026-04-25T12:15:09.561Z</time></trkpt><trkpt lat="46.216335" lon="12.80557"><ele>288.0</ele><time>2026-04-25T12:15:17.56Z</time></trkpt><trkpt lat="46.2163467" lon="12.8054567"><ele>288.0</ele><time>2026-04-25T12:15:18.56Z</time></trkpt><trkpt lat="46.2163567" lon="12.8053067"><ele>288.0</ele><time>2026-04-25T12:15:19.56Z</time></trkpt><trkpt lat="46.216375" lon="12.805135"><ele>288.0</ele><time>2026-04-25T12:15:20.56Z</time></trkpt><trkpt lat="46.2163833" lon="12.804955"><ele>288.0</ele><time>2026-04-25T12:15:21.56Z</time></trkpt><trkpt lat="46.21641" lon="12.8047917"><ele>287.5</ele><time>2026-04-25T12:15:22.56Z</time></trkpt><trkpt lat="46.2164633" lon="12.8046383"><ele>287.0</ele><time>2026-04-25T12:15:23.561Z</time></trkpt><trkpt lat="46.21653" lon="12.8044917"><ele>286.5</ele><time>2026-04-25T12:15:24.56Z</time></trkpt><trkpt lat="46.2166117" lon="12.8043433"><ele>286.0</ele><time>2026-04-25T12:15:25.561Z</time></trkpt><trkpt lat="46.2166967" lon="12.8041933"><ele>287.75</ele><time>2026-04-25T12:15:26.561Z</time></trkpt><trkpt lat="46.21678" lon="12.8040467"><ele>289.5</ele><time>2026-04-25T12:15:27.561Z</time></trkpt><trkpt lat="46.2168583" lon="12.803915"><ele>291.25</ele><time>2026-04-25T12:15:28.56Z</time></trkpt><trkpt lat="46.21692" lon="12.803785"><ele>293.0</ele><time>2026-04-25T12:15:29.561Z</time></trkpt><trkpt lat="46.2169683" lon="12.8036533"><ele>293.0</ele><time>2026-04-25T12:15:30.561Z</time></trkpt><trkpt lat="46.2170083" lon="12.803505"><ele>293.0</ele><time>2026-04-25T12:15:31.561Z</time></trkpt><trkpt lat="46.217045" lon="12.803335"><ele>293.0</ele><time>2026-04-25T12:15:32.561Z</time></trkpt><trkpt lat="46.2170767" lon="12.8031567"><ele>293.0</ele><time>2026-04-25T12:15:33.561Z</time></trkpt><trkpt lat="46.21711" lon="12.8029883"><ele>293.0</ele><time>2026-04-25T12:15:34.56Z</time></trkpt><trkpt lat="46.2171383" lon="12.8028467"><ele>293.0</ele><time>2026-04-25T12:15:35.561Z</time></trkpt><trkpt lat="46.21716" lon="12.8027367"><ele>293.0</ele><time>2026-04-25T12:15:36.56Z</time></trkpt><trkpt lat="46.21719" lon="12.8026183"><ele>293.0</ele><time>2026-04-25T12:15:38.561Z</time></trkpt><trkpt lat="46.2173" lon="12.8024683"><ele>293.0</ele><time>2026-04-25T12:15:52.56Z</time></trkpt><trkpt lat="46.2173683" lon="12.8024217"><ele>294.5</ele><time>2026-04-25T12:15:53.561Z</time></trkpt><trkpt lat="46.2174367" lon="12.802375"><ele>296.0</ele><time>2026-04-25T12:15:54.56Z</time></trkpt><trkpt lat="46.21751" lon="12.8023233"><ele>297.5</ele><time>2026-04-25T12:15:55.561Z</time></trkpt><trkpt lat="46.2175783" lon="12.802265"><ele>299.0</ele><time>2026-04-25T12:15:56.561Z</time></trkpt><trkpt lat="46.21764" lon="12.8022033"><ele>300.5</ele><time>2026-04-25T12:15:57.561Z</time></trkpt><trkpt lat="46.2177017" lon="12.8021333"><ele>302.0</ele><time>2026-04-25T12:15:58.561Z</time></trkpt><trkpt lat="46.2177583" lon="12.8020683"><ele>302.0</ele><time>2026-04-25T12:15:59.561Z</time></trkpt><trkpt lat="46.217815" lon="12.802005"><ele>302.0</ele><time>2026-04-25T12:16:00.561Z</time></trkpt><trkpt lat="46.2178917" lon="12.80191"><ele>302.0</ele><time>2026-04-25T12:16:02.561Z</time></trkpt><trkpt lat="46.2180267" lon="12.80183"><ele>302.0</ele><time>2026-04-25T12:18:36.562Z</time></trkpt><trkpt lat="46.2180933" lon="12.8017417"><ele>302.0</ele><time>2026-04-25T12:21:00.561Z</time></trkpt><trkpt lat="46.218175" lon="12.8017"><ele>305.33333333333337</ele><time>2026-04-25T12:21:02.56Z</time></trkpt><trkpt lat="46.218255" lon="12.8017033"><ele>308.6666666666667</ele><time>2026-04-25T12:21:04.561Z</time></trkpt><trkpt lat="46.21833" lon="12.8017017"><ele>312.0</ele><time>2026-04-25T12:21:06.56Z</time></trkpt><trkpt lat="46.218425" lon="12.801665"><ele>315.3333333333333</ele><time>2026-04-25T12:21:08.561Z</time></trkpt><trkpt lat="46.2185133" lon="12.8016283"><ele>318.66666666666663</ele><time>2026-04-25T12:21:10.56Z</time></trkpt><trkpt lat="46.2185867" lon="12.8015883"><ele>322.0</ele><time>2026-04-25T12:21:12.56Z</time></trkpt><trkpt lat="46.2186617" lon="12.8015533"><ele>322.0</ele><time>2026-04-25T12:21:14.56Z</time></trkpt><trkpt lat="46.218745" lon="12.8015283"><ele>322.0</ele><time>2026-04-25T12:21:16.561Z</time></trkpt><trkpt lat="46.2187933" lon="12.80144"><ele>322.0</ele><time>2026-04-25T12:21:19.561Z</time></trkpt><trkpt lat="46.2188217" lon="12.801345"><ele>322.0</ele><time>2026-04-25T12:21:21.56Z</time></trkpt><trkpt lat="46.21885" lon="12.801225"><ele>322.0</ele><time>2026-04-25T12:21:23.561Z</time></trkpt><trkpt lat="46.2188717" lon="12.8011217"><ele>322.0</ele><time>2026-04-25T12:21:25.56Z</time></trkpt><trkpt lat="46.2188783" lon="12.8010183"><ele>321.3333333333333</ele><time>2026-04-25T12:21:27.56Z</time></trkpt><trkpt lat="46.2188683" lon="12.8009217"><ele>320.66666666666663</ele><time>2026-04-25T12:21:29.56Z</time></trkpt><trkpt lat="46.21882" lon="12.8007833"><ele>320.0</ele><time>2026-04-25T12:21:31.561Z</time></trkpt><trkpt lat="46.2187683" lon="12.8006667"><ele>319.3333333333333</ele><time>2026-04-25T12:21:33.561Z</time></trkpt><trkpt lat="46.218725" lon="12.8005767"><ele>318.6666666666667</ele><time>2026-04-25T12:21:35.561Z</time></trkpt><trkpt lat="46.2187" lon="12.80048"><ele>318.0</ele><time>2026-04-25T12:21:37.561Z</time></trkpt><trkpt lat="46.2186767" lon="12.8003483"><ele>318.0</ele><time>2026-04-25T12:21:40.561Z</time></trkpt><trkpt lat="46.2186583" lon="12.8002383"><ele>318.0</ele><time>2026-04-25T12:21:42.561Z</time></trkpt><trkpt lat="46.2186333" lon="12.8001433"><ele>318.0</ele><time>2026-04-25T12:21:44.561Z</time></trkpt><trkpt lat="46.2186083" lon="12.800055"><ele>318.0</ele><time>2026-04-25T12:21:46.561Z</time></trkpt><trkpt lat="46.2185817" lon="12.7999533"><ele>318.0</ele><time>2026-04-25T12:21:49.56Z</time></trkpt><trkpt lat="46.2185367" lon="12.7998667"><ele>318.0</ele><time>2026-04-25T12:21:51.56Z</time></trkpt><trkpt lat="46.2185033" lon="12.7997817"><ele>318.0</ele><time>2026-04-25T12:21:53.561Z</time></trkpt><trkpt lat="46.21847" lon="12.7996983"><ele>316.6666666666667</ele><time>2026-04-25T12:21:58.56Z</time></trkpt><trkpt lat="46.2185583" lon="12.7996867"><ele>315.3333333333333</ele><time>2026-04-25T12:22:24.561Z</time></trkpt><trkpt lat="46.218655" lon="12.79965"><ele>314.0</ele><time>2026-04-25T12:22:26.561Z</time></trkpt><trkpt lat="46.2187333" lon="12.799605"><ele>312.66666666666663</ele><time>2026-04-25T12:22:28.56Z</time></trkpt><trkpt lat="46.2188017" lon="12.7995917"><ele>311.3333333333333</ele><time>2026-04-25T12:22:30.561Z</time></trkpt><trkpt lat="46.2188467" lon="12.799685"><ele>310.0</ele><time>2026-04-25T12:22:32.56Z</time></trkpt><trkpt lat="46.2189067" lon="12.7997767"><ele>310.0</ele><time>2026-04-25T12:22:34.56Z</time></trkpt><trkpt lat="46.2189108" lon="12.7998936"><ele>310.0</ele><time>2026-04-25T12:22:36.906Z</time></trkpt><trkpt lat="46.2190074" lon="12.7999583"><ele>310.0</ele><time>2026-04-25T12:22:38.841Z</time></trkpt><trkpt lat="46.2190983" lon="12.8000369"><ele>310.0</ele><time>2026-04-25T12:22:40.644Z</time></trkpt><trkpt lat="46.2191808" lon="12.800135"><ele>310.0</ele><time>2026-04-25T12:22:42.896Z</time></trkpt><trkpt lat="46.2192761" lon="12.8001902"><ele>314.6</ele><time>2026-04-25T12:22:44.861Z</time></trkpt><trkpt lat="46.2193512" lon="12.8001861"><ele>319.2</ele><time>2026-04-25T12:22:46.899Z</time></trkpt><trkpt lat="46.2194441" lon="12.8002126"><ele>323.79999999999995</ele><time>2026-04-25T12:22:48.901Z</time></trkpt><trkpt lat="46.2195423" lon="12.8002212"><ele>328.4</ele><time>2026-04-25T12:22:50.933Z</time></trkpt><trkpt lat="46.2196526" lon="12.8002192"><ele>333.0</ele><time>2026-04-25T12:22:52.86Z</time></trkpt><trkpt lat="46.2198034" lon="12.8001408"><ele>333.0</ele><time>2026-04-25T12:22:55.562Z</time></trkpt><trkpt lat="46.2198778" lon="12.8000998"><ele>333.0</ele><time>2026-04-25T12:22:57.561Z</time></trkpt><trkpt lat="46.2198133" lon="12.8001383"><ele>333.0</ele><time>2026-04-25T12:25:13.56Z</time></trkpt><trkpt lat="46.2197417" lon="12.800195"><ele>333.0</ele><time>2026-04-25T12:25:15.561Z</time></trkpt><trkpt lat="46.2196567" lon="12.8002467"><ele>333.0</ele><time>2026-04-25T12:25:17.561Z</time></trkpt><trkpt lat="46.2195533" lon="12.8002683"><ele>333.0</ele><time>2026-04-25T12:25:19.561Z</time></trkpt><trkpt lat="46.2194417" lon="12.8002433"><ele>333.0</ele><time>2026-04-25T12:25:21.561Z</time></trkpt><trkpt lat="46.21933" lon="12.800195"><ele>333.0</ele><time>2026-04-25T12:25:23.561Z</time></trkpt><trkpt lat="46.2192367" lon="12.8001317"><ele>333.0</ele><time>2026-04-25T12:25:25.561Z</time></trkpt><trkpt lat="46.2191367" lon="12.80007"><ele>333.0</ele><time>2026-04-25T12:25:27.561Z</time></trkpt><trkpt lat="46.21904" lon="12.7999867"><ele>333.0</ele><time>2026-04-25T12:25:29.561Z</time></trkpt><trkpt lat="46.2189583" lon="12.799875"><ele>329.1666666666667</ele><time>2026-04-25T12:25:31.561Z</time></trkpt><trkpt lat="46.2189" lon="12.7997733"><ele>325.3333333333333</ele><time>2026-04-25T12:25:33.56Z</time></trkpt><trkpt lat="46.21885" lon="12.7996817"><ele>321.5</ele><time>2026-04-25T12:25:35.561Z</time></trkpt><trkpt lat="46.2187967" lon="12.7995817"><ele>317.66666666666663</ele><time>2026-04-25T12:25:37.56Z</time></trkpt><trkpt lat="46.2187333" lon="12.7995817"><ele>313.8333333333333</ele><time>2026-04-25T12:25:39.561Z</time></trkpt><trkpt lat="46.2186467" lon="12.7996317"><ele>310.0</ele><time>2026-04-25T12:25:41.561Z</time></trkpt><trkpt lat="46.2185483" lon="12.7996817"><ele>310.0</ele><time>2026-04-25T12:25:43.56Z</time></trkpt><trkpt lat="46.218495" lon="12.7997433"><ele>310.0</ele><time>2026-04-25T12:25:45.561Z</time></trkpt><trkpt lat="46.2185217" lon="12.7999233"><ele>310.0</ele><time>2026-04-25T12:25:48.561Z</time></trkpt><trkpt lat="46.21854" lon="12.8000117"><ele>310.0</ele><time>2026-04-25T12:25:49.561Z</time></trkpt><trkpt lat="46.218585" lon="12.80015"><ele>310.0</ele><time>2026-04-25T12:25:51.56Z</time></trkpt><trkpt lat="46.2186267" lon="12.8002483"><ele>310.0</ele><time>2026-04-25T12:25:53.561Z</time></trkpt><trkpt lat="46.21866" lon="12.8003567"><ele>311.3333333333333</ele><time>2026-04-25T12:25:55.561Z</time></trkpt><trkpt lat="46.218675" lon="12.8004567"><ele>312.66666666666663</ele><time>2026-04-25T12:25:57.56Z</time></trkpt><trkpt lat="46.218715" lon="12.8005383"><ele>314.0</ele><time>2026-04-25T12:25:59.561Z</time></trkpt><trkpt lat="46.2187467" lon="12.800645"><ele>315.3333333333333</ele><time>2026-04-25T12:26:02.56Z</time></trkpt><trkpt lat="46.2187717" lon="12.800775"><ele>316.6666666666667</ele><time>2026-04-25T12:26:11.561Z</time></trkpt><trkpt lat="46.2187767" lon="12.800875"><ele>318.0</ele><time>2026-04-25T12:26:13.56Z</time></trkpt><trkpt lat="46.2187867" lon="12.800985"><ele>318.6666666666667</ele><time>2026-04-25T12:26:15.561Z</time></trkpt><trkpt lat="46.2188" lon="12.8011033"><ele>319.3333333333333</ele><time>2026-04-25T12:26:17.561Z</time></trkpt><trkpt lat="46.218835" lon="12.801205"><ele>320.0</ele><time>2026-04-25T12:26:19.561Z</time></trkpt><trkpt lat="46.21888" lon="12.80128"><ele>320.66666666666663</ele><time>2026-04-25T12:26:21.561Z</time></trkpt><trkpt lat="46.2189433" lon="12.8012883"><ele>321.3333333333333</ele><time>2026-04-25T12:26:23.561Z</time></trkpt><trkpt lat="46.2190317" lon="12.80131"><ele>322.0</ele><time>2026-04-25T12:26:50.56Z</time></trkpt><trkpt lat="46.21911" lon="12.801355"><ele>327.5</ele><time>2026-04-25T12:26:52.56Z</time></trkpt><trkpt lat="46.2192217" lon="12.8014217"><ele>333.0</ele><time>2026-04-25T12:26:54.561Z</time></trkpt><trkpt lat="46.2193233" lon="12.801505"><ele>338.5</ele><time>2026-04-25T12:26:56.561Z</time></trkpt><trkpt lat="46.2194183" lon="12.8015533"><ele>344.0</ele><time>2026-04-25T12:26:58.561Z</time></trkpt><trkpt lat="46.219535" lon="12.8015817"><ele>344.0</ele><time>2026-04-25T12:27:00.561Z</time></trkpt><trkpt lat="46.219645" lon="12.801615"><ele>344.0</ele><time>2026-04-25T12:27:02.56Z</time></trkpt><trkpt lat="46.21974" lon="12.8016867"><ele>344.0</ele><time>2026-04-25T12:27:04.561Z</time></trkpt><trkpt lat="46.2198183" lon="12.80175"><ele>344.0</ele><time>2026-04-25T12:27:06.561Z</time></trkpt><trkpt lat="46.219904" lon="12.8017872"><ele>344.0</ele><time>2026-04-25T12:27:08.561Z</time></trkpt><trkpt lat="46.2199934" lon="12.8018182"><ele>348.0</ele><time>2026-04-25T12:27:10.561Z</time></trkpt><trkpt lat="46.2200596" lon="12.8018217"><ele>352.0</ele><time>2026-04-25T12:27:12.561Z</time></trkpt><trkpt lat="46.2201221" lon="12.8017526"><ele>356.0</ele><time>2026-04-25T12:27:15.56Z</time></trkpt><trkpt lat="46.2201764" lon="12.801667"><ele>360.0</ele><time>2026-04-25T12:27:18.561Z</time></trkpt><trkpt lat="46.2202564" lon="12.8016695"><ele>364.0</ele><time>2026-04-25T12:27:21.917Z</time></trkpt><trkpt lat="46.2203258" lon="12.8016721"><ele>368.0</ele><time>2026-04-25T12:27:24.732Z</time></trkpt><trkpt lat="46.2204073" lon="12.8017283"><ele>368.0</ele><time>2026-04-25T12:27:27.791Z</time></trkpt><trkpt lat="46.2204742" lon="12.8017521"><ele>368.0</ele><time>2026-04-25T12:27:29.818Z</time></trkpt><trkpt lat="46.2205483" lon="12.8017961"><ele>368.0</ele><time>2026-04-25T12:27:31.828Z</time></trkpt><trkpt lat="46.2206227" lon="12.8018583"><ele>368.0</ele><time>2026-04-25T12:27:33.842Z</time></trkpt><trkpt lat="46.2207367" lon="12.80188"><ele>368.0</ele><time>2026-04-25T12:27:36.562Z</time></trkpt><trkpt lat="46.2208017" lon="12.8019033"><ele>368.0</ele><time>2026-04-25T12:27:38.561Z</time></trkpt><trkpt lat="46.2208667" lon="12.80191"><ele>373.83333333333337</ele><time>2026-04-25T12:27:40.561Z</time></trkpt><trkpt lat="46.2209367" lon="12.8019333"><ele>379.6666666666667</ele><time>2026-04-25T12:27:43.562Z</time></trkpt><trkpt lat="46.2210063" lon="12.8019845"><ele>385.5</ele><time>2026-04-25T12:27:46.876Z</time></trkpt><trkpt lat="46.2210673" lon="12.8020487"><ele>391.33333333333337</ele><time>2026-04-25T12:27:49.818Z</time></trkpt><trkpt lat="46.2211274" lon="12.8020874"><ele>397.1666666666667</ele><time>2026-04-25T12:27:51.813Z</time></trkpt><trkpt lat="46.2212052" lon="12.8021176"><ele>403.0</ele><time>2026-04-25T12:27:54.806Z</time></trkpt><trkpt lat="46.2213017" lon="12.8021317"><ele>403.00000000000006</ele><time>2026-04-25T12:27:56.562Z</time></trkpt><trkpt lat="46.2213733" lon="12.8021433"><ele>403.0</ele><time>2026-04-25T12:28:00.562Z</time></trkpt><trkpt lat="46.2214533" lon="12.80205"><ele>403.0</ele><time>2026-04-25T12:28:49.562Z</time></trkpt><trkpt lat="46.2214933" lon="12.8019783"><ele>403.0</ele><time>2026-04-25T12:28:59.561Z</time></trkpt><trkpt lat="46.2215382" lon="12.8018949"><ele>403.00000000000006</ele><time>2026-04-25T12:29:48.889Z</time></trkpt><trkpt lat="46.221625" lon="12.8018467"><ele>403.0</ele><time>2026-04-25T12:33:17.562Z</time></trkpt><trkpt lat="46.2216869" lon="12.8018707"><ele>407.33333333333337</ele><time>2026-04-25T12:33:24.743Z</time></trkpt><trkpt lat="46.2216967" lon="12.8017667"><ele>411.6666666666667</ele><time>2026-04-25T12:34:08.561Z</time></trkpt><trkpt lat="46.2217083" lon="12.80164"><ele>416.0</ele><time>2026-04-25T12:34:11.562Z</time></trkpt><trkpt lat="46.2217367" lon="12.80154"><ele>420.33333333333337</ele><time>2026-04-25T12:34:13.562Z</time></trkpt><trkpt lat="46.2217617" lon="12.80145"><ele>424.6666666666667</ele><time>2026-04-25T12:34:15.561Z</time></trkpt><trkpt lat="46.2217838" lon="12.8013603"><ele>429.0</ele><time>2026-04-25T12:34:18.89Z</time></trkpt><trkpt lat="46.2218766" lon="12.8013382"><ele>429.0</ele><time>2026-04-25T12:34:21.88Z</time></trkpt><trkpt lat="46.2218965" lon="12.8014288"><ele>429.0</ele><time>2026-04-25T12:34:24.888Z</time></trkpt><trkpt lat="46.2219533" lon="12.8014983"><ele>429.0</ele><time>2026-04-25T12:38:21.561Z</time></trkpt><trkpt lat="46.2220283" lon="12.80145"><ele>429.0</ele><time>2026-04-25T12:38:24.562Z</time></trkpt><trkpt lat="46.2220951" lon="12.8013825"><ele>429.0</ele><time>2026-04-25T12:38:28.815Z</time></trkpt><trkpt lat="46.2221592" lon="12.8013449"><ele>429.0</ele><time>2026-04-25T12:38:30.771Z</time></trkpt><trkpt lat="46.22222" lon="12.8012833"><ele>429.0</ele><time>2026-04-25T12:38:32.562Z</time></trkpt><trkpt lat="46.22228" lon="12.80123"><ele>429.0</ele><time>2026-04-25T12:38:37.562Z</time></trkpt><trkpt lat="46.2222883" lon="12.801095"><ele>429.0</ele><time>2026-04-25T12:38:41.561Z</time></trkpt><trkpt lat="46.2223017" lon="12.8009983"><ele>429.0</ele><time>2026-04-25T12:38:43.561Z</time></trkpt><trkpt lat="46.2223117" lon="12.8008917"><ele>429.0</ele><time>2026-04-25T12:38:46.562Z</time></trkpt><trkpt lat="46.2223167" lon="12.8007867"><ele>429.0</ele><time>2026-04-25T12:38:49.562Z</time></trkpt><trkpt lat="46.2223633" lon="12.800685"><ele>429.0</ele><time>2026-04-25T12:38:51.562Z</time></trkpt><trkpt lat="46.2224117" lon="12.800565"><ele>436.1666666666667</ele><time>2026-04-25T12:38:53.562Z</time></trkpt><trkpt lat="46.222445" lon="12.8004467"><ele>443.33333333333337</ele><time>2026-04-25T12:38:55.562Z</time></trkpt><trkpt lat="46.22246" lon="12.8003233"><ele>450.5</ele><time>2026-04-25T12:38:57.562Z</time></trkpt><trkpt lat="46.2224667" lon="12.8002017"><ele>457.6666666666667</ele><time>2026-04-25T12:38:59.562Z</time></trkpt><trkpt lat="46.2224717" lon="12.800105"><ele>464.83333333333337</ele><time>2026-04-25T12:39:01.562Z</time></trkpt><trkpt lat="46.2224567" lon="12.7999833"><ele>472.0</ele><time>2026-04-25T12:39:04.561Z</time></trkpt><trkpt lat="46.2224533" lon="12.7998669"><ele>473.8</ele><time>2026-04-25T12:39:07.493Z</time></trkpt><trkpt lat="46.2224755" lon="12.7997549"><ele>475.6</ele><time>2026-04-25T12:39:10.807Z</time></trkpt><trkpt lat="46.22251" lon="12.79962"><ele>477.40000000000003</ele><time>2026-04-25T12:39:13.562Z</time></trkpt><trkpt lat="46.2225767" lon="12.7995583"><ele>479.20000000000005</ele><time>2026-04-25T12:39:15.561Z</time></trkpt><trkpt lat="46.2226733" lon="12.7994883"><ele>481.0</ele><time>2026-04-25T12:39:17.562Z</time></trkpt><trkpt lat="46.222755" lon="12.79943"><ele>481.00000000000006</ele><time>2026-04-25T12:39:19.562Z</time></trkpt><trkpt lat="46.2228633" lon="12.7993883"><ele>481.0</ele><time>2026-04-25T12:39:21.562Z</time></trkpt><trkpt lat="46.2229433" lon="12.7993633"><ele>481.0</ele><time>2026-04-25T12:39:23.562Z</time></trkpt><trkpt lat="46.22303" lon="12.7993617"><ele>481.0</ele><time>2026-04-25T12:39:26.561Z</time></trkpt><trkpt lat="46.2231033" lon="12.799325"><ele>481.00000000000006</ele><time>2026-04-25T12:39:28.561Z</time></trkpt><trkpt lat="46.223165" lon="12.7992783"><ele>481.0</ele><time>2026-04-25T12:39:30.562Z</time></trkpt><trkpt lat="46.2232617" lon="12.79928"><ele>484.0</ele><time>2026-04-25T12:39:33.561Z</time></trkpt><trkpt lat="46.2233583" lon="12.7993167"><ele>487.0</ele><time>2026-04-25T12:39:35.562Z</time></trkpt><trkpt lat="46.2234667" lon="12.7993733"><ele>490.0</ele><time>2026-04-25T12:39:37.561Z</time></trkpt><trkpt lat="46.223585" lon="12.7993833"><ele>493.0</ele><time>2026-04-25T12:39:39.562Z</time></trkpt><trkpt lat="46.2237067" lon="12.79937"><ele>495.00000000000006</ele><time>2026-04-25T12:39:41.561Z</time></trkpt><trkpt lat="46.22377" lon="12.79936"><ele>497.0</ele><time>2026-04-25T12:39:42.561Z</time></trkpt><trkpt lat="46.223835" lon="12.7993517"><ele>499.0</ele><time>2026-04-25T12:39:43.562Z</time></trkpt><trkpt lat="46.2239033" lon="12.799335"><ele>501.0</ele><time>2026-04-25T12:39:44.561Z</time></trkpt><trkpt lat="46.2240033" lon="12.799325"><ele>503.00000000000006</ele><time>2026-04-25T12:39:46.561Z</time></trkpt><trkpt lat="46.2240833" lon="12.7993283"><ele>505.0</ele><time>2026-04-25T12:39:48.562Z</time></trkpt><trkpt lat="46.2241617" lon="12.7993183"><ele>505.00000000000006</ele><time>2026-04-25T12:39:50.562Z</time></trkpt><trkpt lat="46.2242333" lon="12.7992917"><ele>505.0</ele><time>2026-04-25T12:39:52.561Z</time></trkpt><trkpt lat="46.2243083" lon="12.799265"><ele>505.0</ele><time>2026-04-25T12:39:54.561Z</time></trkpt><trkpt lat="46.22438" lon="12.7992283"><ele>505.0</ele><time>2026-04-25T12:39:56.561Z</time></trkpt><trkpt lat="46.2244483" lon="12.7992033"><ele>505.00000000000006</ele><time>2026-04-25T12:39:58.561Z</time></trkpt><trkpt lat="46.2245183" lon="12.7991767"><ele>505.0</ele><time>2026-04-25T12:40:01.561Z</time></trkpt><trkpt lat="46.224595" lon="12.799145"><ele>505.00000000000006</ele><time>2026-04-25T12:40:04.561Z</time></trkpt><trkpt lat="46.22466" lon="12.7990933"><ele>505.0</ele><time>2026-04-25T12:40:07.56Z</time></trkpt><trkpt lat="46.2247317" lon="12.7990583"><ele>505.0</ele><time>2026-04-25T12:40:09.561Z</time></trkpt><trkpt lat="46.2248017" lon="12.7990617"><ele>505.0</ele><time>2026-04-25T12:40:11.561Z</time></trkpt><trkpt lat="46.2248817" lon="12.7990367"><ele>505.00000000000006</ele><time>2026-04-25T12:40:14.561Z</time></trkpt><trkpt lat="46.22496" lon="12.79902"><ele>505.0</ele><time>2026-04-25T12:40:16.561Z</time></trkpt><trkpt lat="46.2250333" lon="12.7989983"><ele>508.1666666666667</ele><time>2026-04-25T12:40:18.56Z</time></trkpt><trkpt lat="46.2251017" lon="12.7989983"><ele>511.33333333333337</ele><time>2026-04-25T12:40:20.56Z</time></trkpt><trkpt lat="46.2251767" lon="12.799"><ele>514.5</ele><time>2026-04-25T12:40:22.56Z</time></trkpt><trkpt lat="46.22526" lon="12.7989917"><ele>517.6666666666666</ele><time>2026-04-25T12:40:24.561Z</time></trkpt><trkpt lat="46.2253383" lon="12.7989533"><ele>520.8333333333333</ele><time>2026-04-25T12:40:26.56Z</time></trkpt><trkpt lat="46.2254033" lon="12.798875"><ele>524.0</ele><time>2026-04-25T12:40:28.561Z</time></trkpt><trkpt lat="46.22546" lon="12.79882"><ele>524.0</ele><time>2026-04-25T12:40:30.561Z</time></trkpt><trkpt lat="46.22554" lon="12.7988117"><ele>524.0</ele><time>2026-04-25T12:40:33.56Z</time></trkpt><trkpt lat="46.2256233" lon="12.7988233"><ele>524.0</ele><time>2026-04-25T12:40:36.561Z</time></trkpt><trkpt lat="46.2256867" lon="12.7988133"><ele>524.0</ele><time>2026-04-25T12:40:40.56Z</time></trkpt><trkpt lat="46.22577" lon="12.7987717"><ele>524.0</ele><time>2026-04-25T12:40:43.561Z</time></trkpt><trkpt lat="46.2258367" lon="12.7986833"><ele>524.0</ele><time>2026-04-25T12:40:45.56Z</time></trkpt><trkpt lat="46.2258967" lon="12.7986167"><ele>525.2</ele><time>2026-04-25T12:40:47.56Z</time></trkpt><trkpt lat="46.225965" lon="12.798575"><ele>526.4</ele><time>2026-04-25T12:40:49.561Z</time></trkpt><trkpt lat="46.2260433" lon="12.7984917"><ele>527.6</ele><time>2026-04-25T12:40:51.561Z</time></trkpt><trkpt lat="46.2261017" lon="12.798405"><ele>528.8</ele><time>2026-04-25T12:40:53.561Z</time></trkpt><trkpt lat="46.226195" lon="12.7983667"><ele>530.0</ele><time>2026-04-25T12:41:13.56Z</time></trkpt><trkpt lat="46.226335" lon="12.7983417"><ele>530.0</ele><time>2026-04-25T12:43:28.562Z</time></trkpt><trkpt lat="46.22636" lon="12.7982517"><ele>530.0</ele><time>2026-04-25T12:43:44.561Z</time></trkpt><trkpt lat="46.2263717" lon="12.798125"><ele>530.0</ele><time>2026-04-25T12:44:05.562Z</time></trkpt><trkpt lat="46.2263667" lon="12.798005"><ele>530.0</ele><time>2026-04-25T12:44:07.561Z</time></trkpt><trkpt lat="46.2263267" lon="12.7978867"><ele>530.0</ele><time>2026-04-25T12:44:09.562Z</time></trkpt><trkpt lat="46.226285" lon="12.7978"><ele>530.0</ele><time>2026-04-25T12:44:11.562Z</time></trkpt><trkpt lat="46.22626" lon="12.7977033"><ele>530.0</ele><time>2026-04-25T12:44:13.562Z</time></trkpt><trkpt lat="46.2262417" lon="12.797595"><ele>530.0</ele><time>2026-04-25T12:44:15.561Z</time></trkpt><trkpt lat="46.22618" lon="12.7974983"><ele>530.0</ele><time>2026-04-25T12:44:17.562Z</time></trkpt><trkpt lat="46.2260883" lon="12.7974083"><ele>530.0</ele><time>2026-04-25T12:44:19.561Z</time></trkpt><trkpt lat="46.2260083" lon="12.7972983"><ele>530.0</ele><time>2026-04-25T12:44:21.562Z</time></trkpt><trkpt lat="46.2259567" lon="12.79715"><ele>530.0</ele><time>2026-04-25T12:44:23.561Z</time></trkpt><trkpt lat="46.22591" lon="12.79701"><ele>530.0</ele><time>2026-04-25T12:44:25.561Z</time></trkpt><trkpt lat="46.2258633" lon="12.7968683"><ele>530.0</ele><time>2026-04-25T12:44:27.561Z</time></trkpt><trkpt lat="46.22581" lon="12.79674"><ele>530.0</ele><time>2026-04-25T12:44:29.561Z</time></trkpt><trkpt lat="46.2257583" lon="12.79661"><ele>530.0</ele><time>2026-04-25T12:44:31.562Z</time></trkpt><trkpt lat="46.2257017" lon="12.796475"><ele>532.6</ele><time>2026-04-25T12:44:33.561Z</time></trkpt><trkpt lat="46.2256817" lon="12.7963367"><ele>535.2</ele><time>2026-04-25T12:44:35.562Z</time></trkpt><trkpt lat="46.225685" lon="12.796175"><ele>537.8</ele><time>2026-04-25T12:44:37.561Z</time></trkpt><trkpt lat="46.225715" lon="12.796025"><ele>540.4</ele><time>2026-04-25T12:44:39.562Z</time></trkpt><trkpt lat="46.225775" lon="12.7959117"><ele>543.0</ele><time>2026-04-25T12:44:41.562Z</time></trkpt><trkpt lat="46.225845" lon="12.7958183"><ele>544.0</ele><time>2026-04-25T12:44:43.562Z</time></trkpt><trkpt lat="46.2258867" lon="12.79573"><ele>545.0</ele><time>2026-04-25T12:44:45.561Z</time></trkpt><trkpt lat="46.2258883" lon="12.7956217"><ele>546.0</ele><time>2026-04-25T12:44:47.561Z</time></trkpt><trkpt lat="46.2258717" lon="12.7955133"><ele>547.0</ele><time>2026-04-25T12:44:49.561Z</time></trkpt><trkpt lat="46.2258267" lon="12.795375"><ele>548.0</ele><time>2026-04-25T12:44:51.56Z</time></trkpt><trkpt lat="46.2257817" lon="12.7952183"><ele>549.0</ele><time>2026-04-25T12:44:53.561Z</time></trkpt><trkpt lat="46.2257617" lon="12.7950967"><ele>549.0</ele><time>2026-04-25T12:44:55.56Z</time></trkpt><trkpt lat="46.22581" lon="12.7950383"><ele>549.0</ele><time>2026-04-25T12:44:57.561Z</time></trkpt><trkpt lat="46.2258683" lon="12.7949367"><ele>549.0</ele><time>2026-04-25T12:44:59.561Z</time></trkpt><trkpt lat="46.225925" lon="12.7948683"><ele>549.0</ele><time>2026-04-25T12:45:01.56Z</time></trkpt><trkpt lat="46.2260033" lon="12.79482"><ele>549.0</ele><time>2026-04-25T12:45:10.56Z</time></trkpt><trkpt lat="46.2260967" lon="12.7948067"><ele>549.0</ele><time>2026-04-25T12:45:13.56Z</time></trkpt><trkpt lat="46.2261767" lon="12.794855"><ele>549.0</ele><time>2026-04-25T12:45:15.561Z</time></trkpt><trkpt lat="46.2262229" lon="12.7949543"><ele>549.0</ele><time>2026-04-25T12:45:19.508Z</time></trkpt><trkpt lat="46.2262924" lon="12.7949689"><ele>549.0</ele><time>2026-04-25T12:45:21.727Z</time></trkpt><trkpt lat="46.226357" lon="12.7949222"><ele>549.0</ele><time>2026-04-25T12:45:25.866Z</time></trkpt><trkpt lat="46.2264117" lon="12.7948767"><ele>549.0</ele><time>2026-04-25T12:46:14.56Z</time></trkpt><trkpt lat="46.2264883" lon="12.794825"><ele>549.0</ele><time>2026-04-25T12:46:16.56Z</time></trkpt><trkpt lat="46.2265633" lon="12.7947883"><ele>553.4285714285714</ele><time>2026-04-25T12:46:18.561Z</time></trkpt><trkpt lat="46.2266367" lon="12.7947667"><ele>557.8571428571429</ele><time>2026-04-25T12:46:20.561Z</time></trkpt><trkpt lat="46.2266967" lon="12.7947367"><ele>562.2857142857143</ele><time>2026-04-25T12:46:22.56Z</time></trkpt><trkpt lat="46.2267617" lon="12.7947333"><ele>566.7142857142858</ele><time>2026-04-25T12:46:24.56Z</time></trkpt><trkpt lat="46.2268283" lon="12.7947583"><ele>571.1428571428572</ele><time>2026-04-25T12:46:27.561Z</time></trkpt><trkpt lat="46.226885" lon="12.7948117"><ele>575.5714285714286</ele><time>2026-04-25T12:46:31.561Z</time></trkpt><trkpt lat="46.226935" lon="12.7948767"><ele>580.0</ele><time>2026-04-25T12:49:01.561Z</time></trkpt><trkpt lat="46.227005" lon="12.7948883"><ele>580.0</ele><time>2026-04-25T12:49:05.562Z</time></trkpt><trkpt lat="46.2270667" lon="12.79491"><ele>580.0</ele><time>2026-04-25T12:49:10.562Z</time></trkpt><trkpt lat="46.22713" lon="12.7949117"><ele>580.0</ele><time>2026-04-25T12:49:14.561Z</time></trkpt><trkpt lat="46.22716" lon="12.794795"><ele>580.0</ele><time>2026-04-25T12:50:21.561Z</time></trkpt><trkpt lat="46.2272133" lon="12.7947417"><ele>580.0</ele><time>2026-04-25T12:50:23.561Z</time></trkpt><trkpt lat="46.2272667" lon="12.79469"><ele>580.0</ele><time>2026-04-25T12:50:29.561Z</time></trkpt><trkpt lat="46.2272583" lon="12.7945517"><ele>580.0</ele><time>2026-04-25T12:51:13.561Z</time></trkpt><trkpt lat="46.22726" lon="12.7944217"><ele>579.0</ele><time>2026-04-25T12:51:15.561Z</time></trkpt><trkpt lat="46.2272533" lon="12.7942783"><ele>578.0</ele><time>2026-04-25T12:51:17.56Z</time></trkpt><trkpt lat="46.2272462" lon="12.7941341"><ele>577.0</ele><time>2026-04-25T12:51:22.829Z</time></trkpt><trkpt lat="46.2272917" lon="12.793845"><ele>576.0</ele><time>2026-04-25T12:51:25.561Z</time></trkpt><trkpt lat="46.227295" lon="12.7937267"><ele>576.0000000000001</ele><time>2026-04-25T12:51:27.561Z</time></trkpt><trkpt lat="46.2273045" lon="12.793618"><ele>576.0</ele><time>2026-04-25T12:51:30.568Z</time></trkpt><trkpt lat="46.2273212" lon="12.7935262"><ele>576.0</ele><time>2026-04-25T12:51:31.726Z</time></trkpt><trkpt lat="46.2273585" lon="12.7934306"><ele>576.0</ele><time>2026-04-25T12:51:33.85Z</time></trkpt><trkpt lat="46.227405" lon="12.7933567"><ele>576.0</ele><time>2026-04-25T12:51:36.561Z</time></trkpt><trkpt lat="46.2274483" lon="12.7932533"><ele>576.0000000000001</ele><time>2026-04-25T12:51:39.56Z</time></trkpt><trkpt lat="46.2274933" lon="12.7931817"><ele>576.0</ele><time>2026-04-25T12:51:42.561Z</time></trkpt><trkpt lat="46.227535" lon="12.7931117"><ele>580.1428571428572</ele><time>2026-04-25T12:51:44.56Z</time></trkpt><trkpt lat="46.2275767" lon="12.793015"><ele>584.2857142857143</ele><time>2026-04-25T12:51:46.561Z</time></trkpt><trkpt lat="46.2276083" lon="12.7929267"><ele>588.4285714285714</ele><time>2026-04-25T12:51:48.56Z</time></trkpt><trkpt lat="46.2276367" lon="12.7928417"><ele>592.5714285714287</ele><time>2026-04-25T12:51:50.561Z</time></trkpt><trkpt lat="46.22768" lon="12.7927683"><ele>596.7142857142858</ele><time>2026-04-25T12:51:52.561Z</time></trkpt><trkpt lat="46.2277333" lon="12.792715"><ele>600.8571428571429</ele><time>2026-04-25T12:51:54.561Z</time></trkpt><trkpt lat="46.227785" lon="12.7926267"><ele>605.0</ele><time>2026-04-25T12:51:57.561Z</time></trkpt><trkpt lat="46.2278133" lon="12.79254"><ele>605.0</ele><time>2026-04-25T12:52:00.56Z</time></trkpt><trkpt lat="46.2278417" lon="12.7924417"><ele>605.0</ele><time>2026-04-25T12:53:18.562Z</time></trkpt><trkpt lat="46.2278783" lon="12.79257"><ele>605.0</ele><time>2026-04-25T12:56:12.561Z</time></trkpt><trkpt lat="46.2278933" lon="12.7926617"><ele>605.0</ele><time>2026-04-25T12:56:22.56Z</time></trkpt><trkpt lat="46.2279217" lon="12.7925617"><ele>605.0</ele><time>2026-04-25T12:56:44.561Z</time></trkpt><trkpt lat="46.2279767" lon="12.7924683"><ele>605.0</ele><time>2026-04-25T12:56:47.561Z</time></trkpt><trkpt lat="46.2280217" lon="12.7923633"><ele>605.0</ele><time>2026-04-25T12:59:20.561Z</time></trkpt><trkpt lat="46.2280383" lon="12.7922717"><ele>605.0</ele><time>2026-04-25T12:59:25.561Z</time></trkpt><trkpt lat="46.228085" lon="12.792165"><ele>605.0</ele><time>2026-04-25T12:59:31.561Z</time></trkpt><trkpt lat="46.2281467" lon="12.7920583"><ele>605.0</ele><time>2026-04-25T12:59:33.561Z</time></trkpt><trkpt lat="46.22819" lon="12.79199"><ele>605.0</ele><time>2026-04-25T12:59:34.561Z</time></trkpt><trkpt lat="46.2282583" lon="12.7918567"><ele>605.0</ele><time>2026-04-25T12:59:36.561Z</time></trkpt><trkpt lat="46.2283133" lon="12.79175"><ele>612.1666666666666</ele><time>2026-04-25T12:59:38.561Z</time></trkpt><trkpt lat="46.228355" lon="12.791655"><ele>619.3333333333333</ele><time>2026-04-25T12:59:41.561Z</time></trkpt><trkpt lat="46.22838" lon="12.7915317"><ele>626.5</ele><time>2026-04-25T12:59:45.561Z</time></trkpt><trkpt lat="46.2283867" lon="12.7914283"><ele>633.6666666666666</ele><time>2026-04-25T12:59:47.561Z</time></trkpt><trkpt lat="46.2284233" lon="12.7913367"><ele>640.8333333333334</ele><time>2026-04-25T12:59:49.561Z</time></trkpt><trkpt lat="46.2284617" lon="12.791235"><ele>648.0</ele><time>2026-04-25T12:59:52.561Z</time></trkpt><trkpt lat="46.2284567" lon="12.7911083"><ele>648.0</ele><time>2026-04-25T13:00:06.561Z</time></trkpt><trkpt lat="46.22848" lon="12.791015"><ele>648.0</ele><time>2026-04-25T13:00:08.56Z</time></trkpt><trkpt lat="46.2285117" lon="12.79092"><ele>648.0</ele><time>2026-04-25T13:00:10.561Z</time></trkpt><trkpt lat="46.2285333" lon="12.7908333"><ele>648.0</ele><time>2026-04-25T13:00:12.56Z</time></trkpt><trkpt lat="46.2285567" lon="12.7907167"><ele>648.0</ele><time>2026-04-25T13:00:15.56Z</time></trkpt><trkpt lat="46.22857" lon="12.790625"><ele>648.0</ele><time>2026-04-25T13:00:17.56Z</time></trkpt><trkpt lat="46.2286033" lon="12.7905417"><ele>648.0</ele><time>2026-04-25T13:00:19.56Z</time></trkpt><trkpt lat="46.2286133" lon="12.7904483"><ele>646.8333333333334</ele><time>2026-04-25T13:00:21.56Z</time></trkpt><trkpt lat="46.2286283" lon="12.790355"><ele>645.6666666666666</ele><time>2026-04-25T13:00:23.56Z</time></trkpt><trkpt lat="46.228645" lon="12.7902367"><ele>644.5</ele><time>2026-04-25T13:00:26.56Z</time></trkpt><trkpt lat="46.228645" lon="12.7901233"><ele>643.3333333333333</ele><time>2026-04-25T13:00:29.56Z</time></trkpt><trkpt lat="46.2286467" lon="12.7900117"><ele>642.1666666666666</ele><time>2026-04-25T13:00:31.561Z</time></trkpt><trkpt lat="46.2286583" lon="12.7898633"><ele>641.0</ele><time>2026-04-25T13:00:33.561Z</time></trkpt><trkpt lat="46.228675" lon="12.7897"><ele>640.0</ele><time>2026-04-25T13:00:35.56Z</time></trkpt><trkpt lat="46.2286883" lon="12.7895767"><ele>639.0</ele><time>2026-04-25T13:00:37.56Z</time></trkpt><trkpt lat="46.2287127" lon="12.7894827"><ele>638.0</ele><time>2026-04-25T13:00:39.889Z</time></trkpt><trkpt lat="46.2287218" lon="12.7893853"><ele>637.0</ele><time>2026-04-25T13:00:41.794Z</time></trkpt><trkpt lat="46.2287395" lon="12.7892752"><ele>636.0</ele><time>2026-04-25T13:00:44.898Z</time></trkpt><trkpt lat="46.2287433" lon="12.78914"><ele>635.0</ele><time>2026-04-25T13:00:48.56Z</time></trkpt><trkpt lat="46.228775" lon="12.78904"><ele>635.0</ele><time>2026-04-25T13:00:50.561Z</time></trkpt><trkpt lat="46.2288167" lon="12.788935"><ele>635.0</ele><time>2026-04-25T13:00:52.56Z</time></trkpt><trkpt lat="46.2288717" lon="12.7888383"><ele>635.0</ele><time>2026-04-25T13:00:54.561Z</time></trkpt><trkpt lat="46.228925" lon="12.7887567"><ele>635.0</ele><time>2026-04-25T13:00:56.56Z</time></trkpt><trkpt lat="46.2289767" lon="12.7886917"><ele>635.0</ele><time>2026-04-25T13:00:58.56Z</time></trkpt><trkpt lat="46.2290483" lon="12.7885783"><ele>635.0</ele><time>2026-04-25T13:01:00.561Z</time></trkpt><trkpt lat="46.22913" lon="12.7884717"><ele>643.6</ele><time>2026-04-25T13:01:02.561Z</time></trkpt><trkpt lat="46.2292133" lon="12.7884017"><ele>652.2</ele><time>2026-04-25T13:01:04.561Z</time></trkpt><trkpt lat="46.2292654" lon="12.7883236"><ele>660.8</ele><time>2026-04-25T13:01:06.474Z</time></trkpt><trkpt lat="46.2293653" lon="12.7881735"><ele>669.4</ele><time>2026-04-25T13:01:09.561Z</time></trkpt><trkpt lat="46.2293933" lon="12.7880867"><ele>678.0</ele><time>2026-04-25T13:01:11.56Z</time></trkpt><trkpt lat="46.229435" lon="12.7879883"><ele>678.0</ele><time>2026-04-25T13:01:15.56Z</time></trkpt><trkpt lat="46.2294767" lon="12.787915"><ele>678.0</ele><time>2026-04-25T13:01:23.562Z</time></trkpt><trkpt lat="46.2295383" lon="12.7878633"><ele>678.0</ele><time>2026-04-25T13:01:28.561Z</time></trkpt><trkpt lat="46.2296017" lon="12.7878117"><ele>678.0</ele><time>2026-04-25T13:01:36.562Z</time></trkpt><trkpt lat="46.229685" lon="12.7878017"><ele>678.0</ele><time>2026-04-25T13:01:40.561Z</time></trkpt><trkpt lat="46.2297533" lon="12.787785"><ele>678.0</ele><time>2026-04-25T13:01:43.561Z</time></trkpt><trkpt lat="46.2298283" lon="12.7877533"><ele>678.0</ele><time>2026-04-25T13:01:47.562Z</time></trkpt><trkpt lat="46.2299" lon="12.787735"><ele>679.5714285714286</ele><time>2026-04-25T13:01:49.562Z</time></trkpt><trkpt lat="46.2299833" lon="12.7877217"><ele>681.1428571428572</ele><time>2026-04-25T13:01:51.562Z</time></trkpt><trkpt lat="46.230065" lon="12.7877"><ele>682.7142857142858</ele><time>2026-04-25T13:01:53.562Z</time></trkpt><trkpt lat="46.23013" lon="12.7876733"><ele>684.2857142857142</ele><time>2026-04-25T13:01:55.561Z</time></trkpt><trkpt lat="46.2302017" lon="12.78765"><ele>685.8571428571429</ele><time>2026-04-25T13:02:30.561Z</time></trkpt><trkpt lat="46.2302683" lon="12.7876217"><ele>687.4285714285714</ele><time>2026-04-25T13:02:32.561Z</time></trkpt><trkpt lat="46.2303383" lon="12.7876083"><ele>689.0</ele><time>2026-04-25T13:02:35.561Z</time></trkpt><trkpt lat="46.23042" lon="12.7875617"><ele>689.0</ele><time>2026-04-25T13:02:38.562Z</time></trkpt><trkpt lat="46.230495" lon="12.78755"><ele>689.0</ele><time>2026-04-25T13:02:40.561Z</time></trkpt><trkpt lat="46.2305833" lon="12.787535"><ele>689.0</ele><time>2026-04-25T13:02:42.561Z</time></trkpt><trkpt lat="46.2306617" lon="12.78753"><ele>689.0</ele><time>2026-04-25T13:02:44.561Z</time></trkpt><trkpt lat="46.2307433" lon="12.78753"><ele>689.0</ele><time>2026-04-25T13:02:46.562Z</time></trkpt><trkpt lat="46.23082" lon="12.7875317"><ele>689.0</ele><time>2026-04-25T13:02:48.561Z</time></trkpt><trkpt lat="46.23089" lon="12.7875383"><ele>692.8333333333333</ele><time>2026-04-25T13:02:50.561Z</time></trkpt><trkpt lat="46.2309567" lon="12.7875567"><ele>696.6666666666666</ele><time>2026-04-25T13:02:52.561Z</time></trkpt><trkpt lat="46.2310317" lon="12.787575"><ele>700.5</ele><time>2026-04-25T13:02:54.561Z</time></trkpt><trkpt lat="46.2311046" lon="12.7875857"><ele>704.3333333333334</ele><time>2026-04-25T13:02:56.846Z</time></trkpt><trkpt lat="46.2311795" lon="12.7875984"><ele>708.1666666666667</ele><time>2026-04-25T13:02:58.87Z</time></trkpt><trkpt lat="46.231262" lon="12.7876505"><ele>712.0</ele><time>2026-04-25T13:03:00.957Z</time></trkpt><trkpt lat="46.2313559" lon="12.7877202"><ele>717.6666666666667</ele><time>2026-04-25T13:03:02.862Z</time></trkpt><trkpt lat="46.2314701" lon="12.7878266"><ele>723.3333333333334</ele><time>2026-04-25T13:03:04.561Z</time></trkpt><trkpt lat="46.2315383" lon="12.7879067"><ele>729.0</ele><time>2026-04-25T13:03:06.561Z</time></trkpt><trkpt lat="46.2316133" lon="12.787955"><ele>734.6666666666666</ele><time>2026-04-25T13:03:10.561Z</time></trkpt><trkpt lat="46.2316833" lon="12.78793"><ele>740.3333333333333</ele><time>2026-04-25T13:03:12.561Z</time></trkpt><trkpt lat="46.2317533" lon="12.7879367"><ele>746.0</ele><time>2026-04-25T13:03:14.561Z</time></trkpt><trkpt lat="46.2318317" lon="12.787985"><ele>748.3333333333333</ele><time>2026-04-25T13:03:17.561Z</time></trkpt><trkpt lat="46.2319083" lon="12.788025"><ele>750.6666666666666</ele><time>2026-04-25T13:03:20.561Z</time></trkpt><trkpt lat="46.231985" lon="12.788075"><ele>753.0</ele><time>2026-04-25T13:03:22.561Z</time></trkpt><trkpt lat="46.232065" lon="12.788115"><ele>755.3333333333334</ele><time>2026-04-25T13:03:24.56Z</time></trkpt><trkpt lat="46.2321267" lon="12.7881467"><ele>757.6666666666667</ele><time>2026-04-25T13:03:26.561Z</time></trkpt><trkpt lat="46.23222" lon="12.7881517"><ele>760.0</ele><time>2026-04-25T13:03:29.561Z</time></trkpt><trkpt lat="46.2323117" lon="12.7881667"><ele>761.8</ele><time>2026-04-25T13:03:31.561Z</time></trkpt><trkpt lat="46.2324" lon="12.7881867"><ele>763.6</ele><time>2026-04-25T13:03:33.56Z</time></trkpt><trkpt lat="46.2324971" lon="12.7882107"><ele>765.4000000000001</ele><time>2026-04-25T13:03:36.502Z</time></trkpt><trkpt lat="46.2326105" lon="12.7881959"><ele>767.2</ele><time>2026-04-25T13:03:38.923Z</time></trkpt><trkpt lat="46.2327156" lon="12.7881971"><ele>769.0</ele><time>2026-04-25T13:03:40.861Z</time></trkpt><trkpt lat="46.2327827" lon="12.7882391"><ele>769.0</ele><time>2026-04-25T13:03:42.928Z</time></trkpt><trkpt lat="46.2328496" lon="12.7882435"><ele>769.0</ele><time>2026-04-25T13:03:44.971Z</time></trkpt><trkpt lat="46.2329126" lon="12.7882768"><ele>769.0</ele><time>2026-04-25T13:03:46.909Z</time></trkpt><trkpt lat="46.2329956" lon="12.7883118"><ele>769.0</ele><time>2026-04-25T13:03:49.82Z</time></trkpt><trkpt lat="46.2330654" lon="12.7883295"><ele>769.0</ele><time>2026-04-25T13:03:51.907Z</time></trkpt><trkpt lat="46.2331226" lon="12.7883839"><ele>769.0</ele><time>2026-04-25T13:03:53.849Z</time></trkpt><trkpt lat="46.2331637" lon="12.7884536"><ele>769.0</ele><time>2026-04-25T13:03:55.849Z</time></trkpt><trkpt lat="46.2332283" lon="12.7884732"><ele>770.6666666666666</ele><time>2026-04-25T13:03:58.837Z</time></trkpt><trkpt lat="46.2332998" lon="12.7884527"><ele>772.3333333333333</ele><time>2026-04-25T13:04:07.915Z</time></trkpt><trkpt lat="46.2333873" lon="12.7884631"><ele>774.0</ele><time>2026-04-25T13:04:10.87Z</time></trkpt><trkpt lat="46.2334478" lon="12.788503"><ele>775.6666666666667</ele><time>2026-04-25T13:04:12.848Z</time></trkpt><trkpt lat="46.2335165" lon="12.7885225"><ele>777.3333333333334</ele><time>2026-04-25T13:04:14.873Z</time></trkpt><trkpt lat="46.233595" lon="12.7885283"><ele>779.0</ele><time>2026-04-25T13:04:17.561Z</time></trkpt><trkpt lat="46.2336767" lon="12.7885483"><ele>784.8333333333334</ele><time>2026-04-25T13:04:20.561Z</time></trkpt><trkpt lat="46.233745" lon="12.78861"><ele>790.6666666666667</ele><time>2026-04-25T13:04:23.561Z</time></trkpt><trkpt lat="46.233825" lon="12.78865"><ele>796.5</ele><time>2026-04-25T13:04:26.561Z</time></trkpt><trkpt lat="46.233885" lon="12.7886783"><ele>802.3333333333333</ele><time>2026-04-25T13:04:28.561Z</time></trkpt><trkpt lat="46.23396" lon="12.7887117"><ele>808.1666666666666</ele><time>2026-04-25T13:04:31.561Z</time></trkpt><trkpt lat="46.2340405" lon="12.7887769"><ele>814.0</ele><time>2026-04-25T13:04:35.881Z</time></trkpt><trkpt lat="46.2341125" lon="12.7887607"><ele>818.0</ele><time>2026-04-25T13:04:47.904Z</time></trkpt><trkpt lat="46.2342223" lon="12.7887741"><ele>822.0</ele><time>2026-04-25T13:04:49.904Z</time></trkpt><trkpt lat="46.2343633" lon="12.78877"><ele>826.0</ele><time>2026-04-25T13:04:52.56Z</time></trkpt><trkpt lat="46.2344367" lon="12.7887733"><ele>830.0</ele><time>2026-04-25T13:04:54.561Z</time></trkpt><trkpt lat="46.23451" lon="12.78882"><ele>834.0</ele><time>2026-04-25T13:04:57.561Z</time></trkpt><trkpt lat="46.23441" lon="12.7887617"><ele>834.0</ele><time>2026-04-25T13:09:00.56Z</time></trkpt><trkpt lat="46.2343333" lon="12.788765"><ele>834.0</ele><time>2026-04-25T13:09:04.561Z</time></trkpt><trkpt lat="46.2342533" lon="12.7887733"><ele>834.0</ele><time>2026-04-25T13:09:08.561Z</time></trkpt><trkpt lat="46.2341867" lon="12.7887567"><ele>834.0</ele><time>2026-04-25T13:09:12.561Z</time></trkpt><trkpt lat="46.2341133" lon="12.7887617"><ele>834.0</ele><time>2026-04-25T13:09:15.561Z</time></trkpt><trkpt lat="46.2340433" lon="12.7887633"><ele>834.0</ele><time>2026-04-25T13:09:18.561Z</time></trkpt><trkpt lat="46.2339783" lon="12.7887167"><ele>834.0</ele><time>2026-04-25T13:09:24.56Z</time></trkpt><trkpt lat="46.2339133" lon="12.7886967"><ele>830.6666666666666</ele><time>2026-04-25T13:09:27.561Z</time></trkpt><trkpt lat="46.2338483" lon="12.78866"><ele>827.3333333333333</ele><time>2026-04-25T13:09:31.561Z</time></trkpt><trkpt lat="46.2337783" lon="12.78864"><ele>824.0</ele><time>2026-04-25T13:09:34.561Z</time></trkpt><trkpt lat="46.2337233" lon="12.7885817"><ele>820.6666666666666</ele><time>2026-04-25T13:09:38.56Z</time></trkpt><trkpt lat="46.233645" lon="12.7885417"><ele>817.3333333333333</ele><time>2026-04-25T13:09:43.561Z</time></trkpt><trkpt lat="46.2335667" lon="12.7885217"><ele>814.0</ele><time>2026-04-25T13:09:46.56Z</time></trkpt><trkpt lat="46.2334883" lon="12.7885117"><ele>809.0000000000001</ele><time>2026-04-25T13:09:50.561Z</time></trkpt><trkpt lat="46.2334267" lon="12.7884917"><ele>804.0</ele><time>2026-04-25T13:09:55.561Z</time></trkpt><trkpt lat="46.233355" lon="12.78846"><ele>799.0</ele><time>2026-04-25T13:10:04.561Z</time></trkpt><trkpt lat="46.233285" lon="12.78846"><ele>794.0</ele><time>2026-04-25T13:10:07.562Z</time></trkpt><trkpt lat="46.23322" lon="12.7884617"><ele>789.0</ele><time>2026-04-25T13:10:14.561Z</time></trkpt><trkpt lat="46.2331483" lon="12.7884567"><ele>784.0000000000001</ele><time>2026-04-25T13:10:18.562Z</time></trkpt><trkpt lat="46.2330917" lon="12.7883983"><ele>779.0</ele><time>2026-04-25T13:10:23.561Z</time></trkpt><trkpt lat="46.2330233" lon="12.7883317"><ele>777.5714285714287</ele><time>2026-04-25T13:10:27.562Z</time></trkpt><trkpt lat="46.2329633" lon="12.7883"><ele>776.1428571428571</ele><time>2026-04-25T13:10:29.562Z</time></trkpt><trkpt lat="46.2328833" lon="12.7882667"><ele>774.7142857142858</ele><time>2026-04-25T13:10:32.562Z</time></trkpt><trkpt lat="46.23281" lon="12.788245"><ele>773.2857142857143</ele><time>2026-04-25T13:10:36.561Z</time></trkpt><trkpt lat="46.23275" lon="12.788215"><ele>771.8571428571429</ele><time>2026-04-25T13:10:39.561Z</time></trkpt><trkpt lat="46.2326833" lon="12.78817"><ele>770.4285714285714</ele><time>2026-04-25T13:10:43.562Z</time></trkpt><trkpt lat="46.2326067" lon="12.788165"><ele>769.0</ele><time>2026-04-25T13:10:46.561Z</time></trkpt><trkpt lat="46.2325217" lon="12.788175"><ele>768.9999999999999</ele><time>2026-04-25T13:10:49.561Z</time></trkpt><trkpt lat="46.2324367" lon="12.7881567"><ele>769.0</ele><time>2026-04-25T13:10:52.562Z</time></trkpt><trkpt lat="46.232365" lon="12.7881417"><ele>769.0</ele><time>2026-04-25T13:10:55.561Z</time></trkpt><trkpt lat="46.2322767" lon="12.7881417"><ele>769.0</ele><time>2026-04-25T13:10:58.562Z</time></trkpt><trkpt lat="46.23221" lon="12.7881367"><ele>768.9999999999999</ele><time>2026-04-25T13:11:00.562Z</time></trkpt><trkpt lat="46.2321267" lon="12.788125"><ele>769.0</ele><time>2026-04-25T13:11:03.562Z</time></trkpt><trkpt lat="46.2320633" lon="12.788095"><ele>767.4999999999999</ele><time>2026-04-25T13:11:06.562Z</time></trkpt><trkpt lat="46.2319767" lon="12.78806"><ele>766.0</ele><time>2026-04-25T13:11:09.562Z</time></trkpt><trkpt lat="46.2319133" lon="12.788025"><ele>764.5</ele><time>2026-04-25T13:11:11.562Z</time></trkpt><trkpt lat="46.2318383" lon="12.7879917"><ele>763.0</ele><time>2026-04-25T13:11:14.561Z</time></trkpt><trkpt lat="46.23177" lon="12.787965"><ele>761.5</ele><time>2026-04-25T13:11:20.562Z</time></trkpt><trkpt lat="46.23168" lon="12.7879417"><ele>760.0</ele><time>2026-04-25T13:11:24.561Z</time></trkpt><trkpt lat="46.231615" lon="12.7879417"><ele>760.0</ele><time>2026-04-25T13:11:26.562Z</time></trkpt><trkpt lat="46.23154" lon="12.7879033"><ele>760.0</ele><time>2026-04-25T13:11:29.562Z</time></trkpt><trkpt lat="46.231475" lon="12.7878417"><ele>760.0</ele><time>2026-04-25T13:11:32.562Z</time></trkpt><trkpt lat="46.2314" lon="12.7877617"><ele>760.0</ele><time>2026-04-25T13:11:35.562Z</time></trkpt><trkpt lat="46.23134" lon="12.787715"><ele>760.0</ele><time>2026-04-25T13:11:37.561Z</time></trkpt><trkpt lat="46.2312617" lon="12.787655"><ele>760.0</ele><time>2026-04-25T13:11:40.56Z</time></trkpt><trkpt lat="46.231195" lon="12.7876183"><ele>752.0</ele><time>2026-04-25T13:11:43.561Z</time></trkpt><trkpt lat="46.2311133" lon="12.787595"><ele>744.0</ele><time>2026-04-25T13:11:46.561Z</time></trkpt><trkpt lat="46.2310233" lon="12.787585"><ele>736.0</ele><time>2026-04-25T13:11:49.56Z</time></trkpt><trkpt lat="46.23095" lon="12.7875667"><ele>728.0</ele><time>2026-04-25T13:11:52.561Z</time></trkpt><trkpt lat="46.2308783" lon="12.78754"><ele>720.0</ele><time>2026-04-25T13:11:55.56Z</time></trkpt><trkpt lat="46.2307933" lon="12.787535"><ele>712.0</ele><time>2026-04-25T13:11:58.56Z</time></trkpt><trkpt lat="46.2307133" lon="12.78753"><ele>711.9999999999999</ele><time>2026-04-25T13:12:01.561Z</time></trkpt><trkpt lat="46.2306467" lon="12.7875333"><ele>712.0</ele><time>2026-04-25T13:12:04.561Z</time></trkpt><trkpt lat="46.230575" lon="12.78754"><ele>712.0</ele><time>2026-04-25T13:12:07.561Z</time></trkpt><trkpt lat="46.2305" lon="12.7875533"><ele>712.0</ele><time>2026-04-25T13:12:10.561Z</time></trkpt><trkpt lat="46.2304183" lon="12.78756"><ele>712.0</ele><time>2026-04-25T13:12:21.561Z</time></trkpt><trkpt lat="46.2303517" lon="12.7875833"><ele>711.9999999999999</ele><time>2026-04-25T13:12:24.56Z</time></trkpt><trkpt lat="46.2302867" lon="12.787615"><ele>712.0</ele><time>2026-04-25T13:12:28.561Z</time></trkpt><trkpt lat="46.2302133" lon="12.7876317"><ele>708.7142857142857</ele><time>2026-04-25T13:12:33.56Z</time></trkpt><trkpt lat="46.2301517" lon="12.7876583"><ele>705.4285714285714</ele><time>2026-04-25T13:12:42.561Z</time></trkpt><trkpt lat="46.2301867" lon="12.7875583"><ele>702.1428571428571</ele><time>2026-04-25T13:13:18.561Z</time></trkpt><trkpt lat="46.2302333" lon="12.7874967"><ele>698.8571428571429</ele><time>2026-04-25T13:13:20.561Z</time></trkpt><trkpt lat="46.230285" lon="12.7874283"><ele>695.5714285714286</ele><time>2026-04-25T13:13:23.56Z</time></trkpt><trkpt lat="46.2303333" lon="12.7873533"><ele>692.2857142857142</ele><time>2026-04-25T13:13:27.56Z</time></trkpt><trkpt lat="46.2303733" lon="12.7872733"><ele>689.0</ele><time>2026-04-25T13:13:30.561Z</time></trkpt><trkpt lat="46.23042" lon="12.7871983"><ele>689.0</ele><time>2026-04-25T13:13:34.561Z</time></trkpt><trkpt lat="46.2304733" lon="12.7871267"><ele>689.0</ele><time>2026-04-25T13:13:38.561Z</time></trkpt><trkpt lat="46.2305183" lon="12.7870567"><ele>689.0</ele><time>2026-04-25T13:13:44.56Z</time></trkpt><trkpt lat="46.23058" lon="12.7869933"><ele>689.0</ele><time>2026-04-25T13:13:48.561Z</time></trkpt><trkpt lat="46.2305133" lon="12.786935"><ele>689.0</ele><time>2026-04-25T13:15:02.562Z</time></trkpt><trkpt lat="46.2305683" lon="12.78687"><ele>689.0</ele><time>2026-04-25T13:16:52.561Z</time></trkpt><trkpt lat="46.230665" lon="12.7867833"><ele>687.3333333333333</ele><time>2026-04-25T13:18:12.56Z</time></trkpt><trkpt lat="46.230735" lon="12.78673"><ele>685.6666666666666</ele><time>2026-04-25T13:18:16.56Z</time></trkpt><trkpt lat="46.2307767" lon="12.7866367"><ele>684.0</ele><time>2026-04-25T13:18:19.561Z</time></trkpt><trkpt lat="46.2308333" lon="12.78654"><ele>682.3333333333334</ele><time>2026-04-25T13:18:22.561Z</time></trkpt><trkpt lat="46.2308867" lon="12.7864867"><ele>680.6666666666667</ele><time>2026-04-25T13:18:24.561Z</time></trkpt><trkpt lat="46.2309383" lon="12.7864217"><ele>679.0</ele><time>2026-04-25T13:18:26.561Z</time></trkpt><trkpt lat="46.2310017" lon="12.7863633"><ele>679.0</ele><time>2026-04-25T13:18:28.562Z</time></trkpt><trkpt lat="46.231055" lon="12.7862667"><ele>679.0</ele><time>2026-04-25T13:18:31.562Z</time></trkpt><trkpt lat="46.2310717" lon="12.786155"><ele>679.0</ele><time>2026-04-25T13:18:35.561Z</time></trkpt><trkpt lat="46.2310917" lon="12.7860667"><ele>679.0</ele><time>2026-04-25T13:18:39.562Z</time></trkpt><trkpt lat="46.2311517" lon="12.7860167"><ele>679.0</ele><time>2026-04-25T13:18:45.562Z</time></trkpt><trkpt lat="46.2311983" lon="12.7859483"><ele>679.0</ele><time>2026-04-25T13:18:51.561Z</time></trkpt><trkpt lat="46.2312467" lon="12.7858683"><ele>679.0</ele><time>2026-04-25T13:18:54.562Z</time></trkpt><trkpt lat="46.2313183" lon="12.78578"><ele>678.4285714285714</ele><time>2026-04-25T13:18:57.562Z</time></trkpt><trkpt lat="46.2313683" lon="12.7857233"><ele>677.8571428571429</ele><time>2026-04-25T13:18:59.562Z</time></trkpt><trkpt lat="46.2314283" lon="12.7856317"><ele>677.2857142857142</ele><time>2026-04-25T13:19:02.562Z</time></trkpt><trkpt lat="46.2314867" lon="12.78556"><ele>676.7142857142858</ele><time>2026-04-25T13:19:05.561Z</time></trkpt><trkpt lat="46.2315333" lon="12.7854667"><ele>676.1428571428571</ele><time>2026-04-25T13:19:08.561Z</time></trkpt><trkpt lat="46.2315817" lon="12.7853983"><ele>675.5714285714286</ele><time>2026-04-25T13:19:11.562Z</time></trkpt><trkpt lat="46.231615" lon="12.7853033"><ele>675.0</ele><time>2026-04-25T13:19:15.562Z</time></trkpt><trkpt lat="46.231665" lon="12.7852217"><ele>670.8</ele><time>2026-04-25T13:19:18.562Z</time></trkpt><trkpt lat="46.2317233" lon="12.7851317"><ele>666.6</ele><time>2026-04-25T13:19:20.562Z</time></trkpt><trkpt lat="46.2317818" lon="12.7850462"><ele>662.4000000000001</ele><time>2026-04-25T13:19:23.931Z</time></trkpt><trkpt lat="46.2318589" lon="12.784972"><ele>658.2</ele><time>2026-04-25T13:19:25.862Z</time></trkpt><trkpt lat="46.2319448" lon="12.7848962"><ele>654.0</ele><time>2026-04-25T13:19:27.925Z</time></trkpt><trkpt lat="46.2320205" lon="12.7848192"><ele>654.0</ele><time>2026-04-25T13:19:29.885Z</time></trkpt><trkpt lat="46.2320939" lon="12.7847533"><ele>654.0</ele><time>2026-04-25T13:19:31.88Z</time></trkpt><trkpt lat="46.2321528" lon="12.7847025"><ele>654.0</ele><time>2026-04-25T13:19:33.743Z</time></trkpt><trkpt lat="46.2321617" lon="12.7845767"><ele>654.0</ele><time>2026-04-25T13:19:36.562Z</time></trkpt><trkpt lat="46.23215" lon="12.7844667"><ele>654.0</ele><time>2026-04-25T13:19:38.562Z</time></trkpt><trkpt lat="46.23215" lon="12.784345"><ele>654.0</ele><time>2026-04-25T13:19:40.562Z</time></trkpt><trkpt lat="46.23213" lon="12.7842067"><ele>650.4000000000001</ele><time>2026-04-25T13:19:42.562Z</time></trkpt><trkpt lat="46.2320933" lon="12.78405"><ele>646.8000000000001</ele><time>2026-04-25T13:19:44.562Z</time></trkpt><trkpt lat="46.23208" lon="12.783895"><ele>643.2</ele><time>2026-04-25T13:19:46.562Z</time></trkpt><trkpt lat="46.2320767" lon="12.7837783"><ele>639.6</ele><time>2026-04-25T13:19:48.561Z</time></trkpt><trkpt lat="46.2320783" lon="12.783655"><ele>636.0</ele><time>2026-04-25T13:19:51.56Z</time></trkpt><trkpt lat="46.2321467" lon="12.7835533"><ele>635.1666666666666</ele><time>2026-04-25T13:19:54.56Z</time></trkpt><trkpt lat="46.2321667" lon="12.7834533"><ele>634.3333333333334</ele><time>2026-04-25T13:19:56.561Z</time></trkpt><trkpt lat="46.23222" lon="12.7833683"><ele>633.5</ele><time>2026-04-25T13:20:22.56Z</time></trkpt><trkpt lat="46.2321483" lon="12.783285"><ele>632.6666666666667</ele><time>2026-04-25T13:20:25.56Z</time></trkpt><trkpt lat="46.2320917" lon="12.7832117"><ele>631.8333333333334</ele><time>2026-04-25T13:20:27.56Z</time></trkpt><trkpt lat="46.2320417" lon="12.7831467"><ele>631.0</ele><time>2026-04-25T13:20:31.56Z</time></trkpt><trkpt lat="46.2320417" lon="12.78325"><ele>631.0</ele><time>2026-04-25T13:20:37.56Z</time></trkpt><trkpt lat="46.2320933" lon="12.7833417"><ele>631.0</ele><time>2026-04-25T13:20:41.561Z</time></trkpt><trkpt lat="46.232165" lon="12.7833517"><ele>631.0</ele><time>2026-04-25T13:20:45.561Z</time></trkpt><trkpt lat="46.2321367" lon="12.78323"><ele>631.0</ele><time>2026-04-25T13:21:20.56Z</time></trkpt><trkpt lat="46.2320933" lon="12.783145"><ele>631.0</ele><time>2026-04-25T13:21:23.56Z</time></trkpt><trkpt lat="46.2320217" lon="12.7831517"><ele>631.0</ele><time>2026-04-25T13:21:27.56Z</time></trkpt></trkseg><trkseg><trkpt lat="46.2320983" lon="12.7832167"><ele>631.0</ele><time>2026-04-25T13:38:40.561Z</time></trkpt><trkpt lat="46.2321417" lon="12.7833233"><ele>631.0</ele><time>2026-04-25T13:38:43.561Z</time></trkpt><trkpt lat="46.2321717" lon="12.7834383"><ele>631.0</ele><time>2026-04-25T13:38:45.561Z</time></trkpt><trkpt lat="46.232225" lon="12.7835467"><ele>631.0</ele><time>2026-04-25T13:38:47.562Z</time></trkpt><trkpt lat="46.2323267" lon="12.783625"><ele>631.0</ele><time>2026-04-25T13:38:49.562Z</time></trkpt><trkpt lat="46.2323917" lon="12.783655"><ele>631.0</ele><time>2026-04-25T13:38:50.561Z</time></trkpt><trkpt lat="46.23246" lon="12.7836817"><ele>633.0</ele><time>2026-04-25T13:38:51.561Z</time></trkpt><trkpt lat="46.2325317" lon="12.7837017"><ele>635.0</ele><time>2026-04-25T13:38:52.562Z</time></trkpt><trkpt lat="46.2326067" lon="12.78372"><ele>637.0</ele><time>2026-04-25T13:38:53.562Z</time></trkpt><trkpt lat="46.2326883" lon="12.7837367"><ele>639.0</ele><time>2026-04-25T13:38:54.562Z</time></trkpt><trkpt lat="46.2327767" lon="12.7837533"><ele>641.0</ele><time>2026-04-25T13:38:55.562Z</time></trkpt><trkpt lat="46.2328633" lon="12.7837717"><ele>643.0</ele><time>2026-04-25T13:38:56.562Z</time></trkpt><trkpt lat="46.2329583" lon="12.7837867"><ele>643.0</ele><time>2026-04-25T13:38:57.561Z</time></trkpt><trkpt lat="46.2330583" lon="12.7837983"><ele>643.0</ele><time>2026-04-25T13:38:58.561Z</time></trkpt><trkpt lat="46.2331583" lon="12.7837983"><ele>643.0</ele><time>2026-04-25T13:38:59.562Z</time></trkpt><trkpt lat="46.23326" lon="12.7837917"><ele>643.0</ele><time>2026-04-25T13:39:00.562Z</time></trkpt><trkpt lat="46.2333667" lon="12.78378"><ele>643.0</ele><time>2026-04-25T13:39:01.562Z</time></trkpt><trkpt lat="46.2334717" lon="12.7837617"><ele>644.0</ele><time>2026-04-25T13:39:02.561Z</time></trkpt><trkpt lat="46.2335767" lon="12.7837367"><ele>645.0</ele><time>2026-04-25T13:39:03.561Z</time></trkpt><trkpt lat="46.23368" lon="12.7837117"><ele>646.0</ele><time>2026-04-25T13:39:04.561Z</time></trkpt><trkpt lat="46.2337833" lon="12.78369"><ele>647.0</ele><time>2026-04-25T13:39:05.562Z</time></trkpt><trkpt lat="46.2338883" lon="12.783655"><ele>648.0</ele><time>2026-04-25T13:39:06.562Z</time></trkpt><trkpt lat="46.2339933" lon="12.7836017"><ele>650.0</ele><time>2026-04-25T13:39:07.562Z</time></trkpt><trkpt lat="46.2340867" lon="12.7835367"><ele>652.0</ele><time>2026-04-25T13:39:08.562Z</time></trkpt><trkpt lat="46.2341783" lon="12.7834783"><ele>654.0</ele><time>2026-04-25T13:39:09.562Z</time></trkpt><trkpt lat="46.2342783" lon="12.783445"><ele>656.0</ele><time>2026-04-25T13:39:10.561Z</time></trkpt><trkpt lat="46.2343833" lon="12.7834267"><ele>658.0</ele><time>2026-04-25T13:39:11.561Z</time></trkpt><trkpt lat="46.234495" lon="12.783425"><ele>655.0</ele><time>2026-04-25T13:39:12.561Z</time></trkpt><trkpt lat="46.2346017" lon="12.7834367"><ele>652.0</ele><time>2026-04-25T13:39:13.562Z</time></trkpt><trkpt lat="46.2347067" lon="12.783465"><ele>649.0</ele><time>2026-04-25T13:39:14.561Z</time></trkpt><trkpt lat="46.2348117" lon="12.7834867"><ele>646.0</ele><time>2026-04-25T13:39:15.562Z</time></trkpt><trkpt lat="46.2349183" lon="12.783485"><ele>643.0</ele><time>2026-04-25T13:39:16.561Z</time></trkpt><trkpt lat="46.23503" lon="12.7834683"><ele>643.0</ele><time>2026-04-25T13:39:17.561Z</time></trkpt><trkpt lat="46.2351417" lon="12.783435"><ele>643.0</ele><time>2026-04-25T13:39:18.561Z</time></trkpt><trkpt lat="46.2352533" lon="12.7833867"><ele>643.0</ele><time>2026-04-25T13:39:19.561Z</time></trkpt><trkpt lat="46.235365" lon="12.7833333"><ele>643.0</ele><time>2026-04-25T13:39:20.561Z</time></trkpt><trkpt lat="46.235475" lon="12.7832817"><ele>643.0</ele><time>2026-04-25T13:39:21.562Z</time></trkpt><trkpt lat="46.23558" lon="12.783225"><ele>643.0</ele><time>2026-04-25T13:39:22.561Z</time></trkpt><trkpt lat="46.2356867" lon="12.783175"><ele>643.0</ele><time>2026-04-25T13:39:23.562Z</time></trkpt><trkpt lat="46.2357967" lon="12.7831367"><ele>643.0</ele><time>2026-04-25T13:39:24.562Z</time></trkpt><trkpt lat="46.2359067" lon="12.7831133"><ele>643.0</ele><time>2026-04-25T13:39:25.562Z</time></trkpt><trkpt lat="46.23601" lon="12.7830933"><ele>645.8</ele><time>2026-04-25T13:39:26.562Z</time></trkpt><trkpt lat="46.2361117" lon="12.7830783"><ele>648.5999999999999</ele><time>2026-04-25T13:39:27.561Z</time></trkpt><trkpt lat="46.236205" lon="12.783065"><ele>651.4000000000001</ele><time>2026-04-25T13:39:28.561Z</time></trkpt><trkpt lat="46.2363" lon="12.78308"><ele>654.2</ele><time>2026-04-25T13:39:29.562Z</time></trkpt><trkpt lat="46.2364" lon="12.783095"><ele>657.0</ele><time>2026-04-25T13:39:30.562Z</time></trkpt><trkpt lat="46.2365048" lon="12.7831256"><ele>657.6</ele><time>2026-04-25T13:39:31.561Z</time></trkpt><trkpt lat="46.2366119" lon="12.7831608"><ele>658.2</ele><time>2026-04-25T13:39:32.562Z</time></trkpt><trkpt lat="46.236716" lon="12.7831915"><ele>658.8</ele><time>2026-04-25T13:39:33.562Z</time></trkpt><trkpt lat="46.2368159" lon="12.7832256"><ele>659.4</ele><time>2026-04-25T13:39:34.561Z</time></trkpt><trkpt lat="46.2369096" lon="12.7832682"><ele>660.0</ele><time>2026-04-25T13:39:35.562Z</time></trkpt><trkpt lat="46.2369968" lon="12.7833087"><ele>660.0</ele><time>2026-04-25T13:39:36.561Z</time></trkpt><trkpt lat="46.2370866" lon="12.7833664"><ele>660.0</ele><time>2026-04-25T13:39:37.561Z</time></trkpt><trkpt lat="46.2371753" lon="12.7834417"><ele>660.0</ele><time>2026-04-25T13:39:38.561Z</time></trkpt><trkpt lat="46.2372637" lon="12.7835328"><ele>660.0</ele><time>2026-04-25T13:39:39.562Z</time></trkpt><trkpt lat="46.2373535" lon="12.783633"><ele>660.0</ele><time>2026-04-25T13:39:40.562Z</time></trkpt><trkpt lat="46.2374475" lon="12.7837352"><ele>664.5</ele><time>2026-04-25T13:39:41.562Z</time></trkpt><trkpt lat="46.2375416" lon="12.7838397"><ele>669.0</ele><time>2026-04-25T13:39:42.561Z</time></trkpt><trkpt lat="46.2376301" lon="12.7839469"><ele>673.5</ele><time>2026-04-25T13:39:43.561Z</time></trkpt><trkpt lat="46.2377209" lon="12.7840524"><ele>678.0</ele><time>2026-04-25T13:39:44.562Z</time></trkpt><trkpt lat="46.2378081" lon="12.784163"><ele>678.0</ele><time>2026-04-25T13:39:45.562Z</time></trkpt><trkpt lat="46.2378916" lon="12.7842782"><ele>678.0</ele><time>2026-04-25T13:39:46.561Z</time></trkpt><trkpt lat="46.2379674" lon="12.7844074"><ele>678.0</ele><time>2026-04-25T13:39:47.561Z</time></trkpt><trkpt lat="46.2380423" lon="12.7845392"><ele>678.0</ele><time>2026-04-25T13:39:48.562Z</time></trkpt><trkpt lat="46.2381132" lon="12.7846645"><ele>678.5</ele><time>2026-04-25T13:39:49.562Z</time></trkpt><trkpt lat="46.2381843" lon="12.7847907"><ele>679.0</ele><time>2026-04-25T13:39:50.562Z</time></trkpt><trkpt lat="46.2382566" lon="12.784921"><ele>679.5</ele><time>2026-04-25T13:39:51.562Z</time></trkpt><trkpt lat="46.2383192" lon="12.7850578"><ele>680.0</ele><time>2026-04-25T13:39:52.561Z</time></trkpt><trkpt lat="46.2383768" lon="12.785201"><ele>680.0</ele><time>2026-04-25T13:39:53.561Z</time></trkpt><trkpt lat="46.2384309" lon="12.785352"><ele>680.0</ele><time>2026-04-25T13:39:54.562Z</time></trkpt><trkpt lat="46.2384797" lon="12.7855075"><ele>680.0</ele><time>2026-04-25T13:39:55.562Z</time></trkpt><trkpt lat="46.2385247" lon="12.7856621"><ele>680.0</ele><time>2026-04-25T13:39:56.562Z</time></trkpt><trkpt lat="46.2385793" lon="12.7858148"><ele>680.0</ele><time>2026-04-25T13:39:57.562Z</time></trkpt><trkpt lat="46.2386352" lon="12.7859734"><ele>680.0</ele><time>2026-04-25T13:39:58.562Z</time></trkpt><trkpt lat="46.2386871" lon="12.7861288"><ele>680.0</ele><time>2026-04-25T13:39:59.562Z</time></trkpt><trkpt lat="46.2387412" lon="12.7862822"><ele>680.0</ele><time>2026-04-25T13:40:00.56Z</time></trkpt><trkpt lat="46.2387893" lon="12.7864353"><ele>676.5</ele><time>2026-04-25T13:40:01.561Z</time></trkpt><trkpt lat="46.2388389" lon="12.7865887"><ele>673.0</ele><time>2026-04-25T13:40:02.561Z</time></trkpt><trkpt lat="46.2388986" lon="12.7867448"><ele>669.5</ele><time>2026-04-25T13:40:03.56Z</time></trkpt><trkpt lat="46.2389647" lon="12.7868999"><ele>666.0</ele><time>2026-04-25T13:40:04.561Z</time></trkpt><trkpt lat="46.2390264" lon="12.7870534"><ele>666.0</ele><time>2026-04-25T13:40:05.561Z</time></trkpt><trkpt lat="46.2390916" lon="12.7872048"><ele>666.0</ele><time>2026-04-25T13:40:06.561Z</time></trkpt><trkpt lat="46.2391593" lon="12.7873545"><ele>666.0</ele><time>2026-04-25T13:40:07.561Z</time></trkpt><trkpt lat="46.2392221" lon="12.7875043"><ele>666.0</ele><time>2026-04-25T13:40:08.561Z</time></trkpt><trkpt lat="46.2392822" lon="12.7876543"><ele>671.25</ele><time>2026-04-25T13:40:09.561Z</time></trkpt><trkpt lat="46.2393436" lon="12.7878034"><ele>676.5</ele><time>2026-04-25T13:40:10.561Z</time></trkpt><trkpt lat="46.2394061" lon="12.7879502"><ele>681.75</ele><time>2026-04-25T13:40:11.56Z</time></trkpt><trkpt lat="46.2394627" lon="12.7880866"><ele>687.0</ele><time>2026-04-25T13:40:12.561Z</time></trkpt><trkpt lat="46.2395162" lon="12.7882218"><ele>687.0</ele><time>2026-04-25T13:40:13.56Z</time></trkpt><trkpt lat="46.2395756" lon="12.7883567"><ele>687.0</ele><time>2026-04-25T13:40:14.561Z</time></trkpt><trkpt lat="46.2396252" lon="12.7884931"><ele>687.0</ele><time>2026-04-25T13:40:15.56Z</time></trkpt><trkpt lat="46.2396663" lon="12.7886356"><ele>687.0</ele><time>2026-04-25T13:40:16.561Z</time></trkpt><trkpt lat="46.2397107" lon="12.7887834"><ele>687.0</ele><time>2026-04-25T13:40:17.56Z</time></trkpt><trkpt lat="46.2397617" lon="12.7889297"><ele>685.5</ele><time>2026-04-25T13:40:18.56Z</time></trkpt><trkpt lat="46.2398253" lon="12.7890668"><ele>684.0</ele><time>2026-04-25T13:40:19.561Z</time></trkpt><trkpt lat="46.2398935" lon="12.7891956"><ele>682.5</ele><time>2026-04-25T13:40:20.561Z</time></trkpt><trkpt lat="46.2399615" lon="12.789325"><ele>681.0</ele><time>2026-04-25T13:40:21.56Z</time></trkpt><trkpt lat="46.2400308" lon="12.7894535"><ele>681.0</ele><time>2026-04-25T13:40:22.561Z</time></trkpt><trkpt lat="46.2400998" lon="12.7895939"><ele>681.0</ele><time>2026-04-25T13:40:23.561Z</time></trkpt><trkpt lat="46.2401694" lon="12.7897493"><ele>681.0</ele><time>2026-04-25T13:40:24.561Z</time></trkpt><trkpt lat="46.2402301" lon="12.7899158"><ele>681.0</ele><time>2026-04-25T13:40:25.561Z</time></trkpt><trkpt lat="46.2402826" lon="12.7900885"><ele>683.5</ele><time>2026-04-25T13:40:26.561Z</time></trkpt><trkpt lat="46.2403432" lon="12.7902629"><ele>686.0</ele><time>2026-04-25T13:40:27.561Z</time></trkpt><trkpt lat="46.2404043" lon="12.7904358"><ele>688.5</ele><time>2026-04-25T13:40:28.56Z</time></trkpt><trkpt lat="46.2404671" lon="12.7906086"><ele>691.0</ele><time>2026-04-25T13:40:29.561Z</time></trkpt><trkpt lat="46.2405374" lon="12.7907753"><ele>691.0</ele><time>2026-04-25T13:40:30.56Z</time></trkpt><trkpt lat="46.2405962" lon="12.7909395"><ele>691.0</ele><time>2026-04-25T13:40:31.561Z</time></trkpt><trkpt lat="46.2406376" lon="12.7911095"><ele>691.0</ele><time>2026-04-25T13:40:32.561Z</time></trkpt><trkpt lat="46.2406724" lon="12.7912813"><ele>691.0</ele><time>2026-04-25T13:40:33.56Z</time></trkpt><trkpt lat="46.2407058" lon="12.7914501"><ele>689.8</ele><time>2026-04-25T13:40:34.561Z</time></trkpt><trkpt lat="46.2407398" lon="12.7916155"><ele>688.5999999999999</ele><time>2026-04-25T13:40:35.56Z</time></trkpt><trkpt lat="46.2407723" lon="12.7917732"><ele>687.4</ele><time>2026-04-25T13:40:36.561Z</time></trkpt><trkpt lat="46.2408086" lon="12.7919199"><ele>686.2</ele><time>2026-04-25T13:40:37.561Z</time></trkpt><trkpt lat="46.2408494" lon="12.7920527"><ele>685.0</ele><time>2026-04-25T13:40:38.561Z</time></trkpt><trkpt lat="46.2408968" lon="12.7921698"><ele>685.0</ele><time>2026-04-25T13:40:39.561Z</time></trkpt><trkpt lat="46.2409438" lon="12.792271"><ele>685.0</ele><time>2026-04-25T13:40:40.561Z</time></trkpt><trkpt lat="46.2409841" lon="12.7923583"><ele>685.0</ele><time>2026-04-25T13:40:41.56Z</time></trkpt><trkpt lat="46.2410527" lon="12.7924753"><ele>685.0</ele><time>2026-04-25T13:40:43.56Z</time></trkpt><trkpt lat="46.2411098" lon="12.7925579"><ele>685.0</ele><time>2026-04-25T13:40:45.561Z</time></trkpt><trkpt lat="46.2411789" lon="12.7926522"><ele>685.0</ele><time>2026-04-25T13:40:47.561Z</time></trkpt><trkpt lat="46.2412242" lon="12.79272"><ele>685.6</ele><time>2026-04-25T13:40:48.561Z</time></trkpt><trkpt lat="46.2412786" lon="12.7928025"><ele>686.2</ele><time>2026-04-25T13:40:49.561Z</time></trkpt><trkpt lat="46.241338" lon="12.792899"><ele>686.8</ele><time>2026-04-25T13:40:50.56Z</time></trkpt><trkpt lat="46.241403" lon="12.793005"><ele>687.4</ele><time>2026-04-25T13:40:51.561Z</time></trkpt><trkpt lat="46.2414676" lon="12.7931129"><ele>688.0</ele><time>2026-04-25T13:40:52.56Z</time></trkpt><trkpt lat="46.2415288" lon="12.7932174"><ele>686.0</ele><time>2026-04-25T13:40:53.561Z</time></trkpt><trkpt lat="46.2415913" lon="12.79332"><ele>684.0</ele><time>2026-04-25T13:40:54.56Z</time></trkpt><trkpt lat="46.2416544" lon="12.7934269"><ele>682.0</ele><time>2026-04-25T13:40:55.56Z</time></trkpt><trkpt lat="46.2417083" lon="12.7935419"><ele>680.0</ele><time>2026-04-25T13:40:56.561Z</time></trkpt><trkpt lat="46.2417543" lon="12.7936621"><ele>678.0</ele><time>2026-04-25T13:40:57.561Z</time></trkpt><trkpt lat="46.2417955" lon="12.793786"><ele>677.8</ele><time>2026-04-25T13:40:58.56Z</time></trkpt><trkpt lat="46.2418348" lon="12.7939091"><ele>677.5999999999999</ele><time>2026-04-25T13:40:59.561Z</time></trkpt><trkpt lat="46.2418771" lon="12.7940291"><ele>677.4000000000001</ele><time>2026-04-25T13:41:00.56Z</time></trkpt><trkpt lat="46.2419231" lon="12.7941504"><ele>677.2</ele><time>2026-04-25T13:41:01.56Z</time></trkpt><trkpt lat="46.2419711" lon="12.7942728"><ele>677.0</ele><time>2026-04-25T13:41:02.56Z</time></trkpt><trkpt lat="46.2420206" lon="12.7943968"><ele>677.0</ele><time>2026-04-25T13:41:03.561Z</time></trkpt><trkpt lat="46.2420677" lon="12.7945203"><ele>677.0</ele><time>2026-04-25T13:41:04.561Z</time></trkpt><trkpt lat="46.2421143" lon="12.7946425"><ele>677.0</ele><time>2026-04-25T13:41:05.56Z</time></trkpt><trkpt lat="46.2421552" lon="12.7947629"><ele>677.0</ele><time>2026-04-25T13:41:06.561Z</time></trkpt><trkpt lat="46.2421905" lon="12.794883"><ele>677.0</ele><time>2026-04-25T13:41:07.561Z</time></trkpt><trkpt lat="46.242222" lon="12.795002"><ele>677.0</ele><time>2026-04-25T13:41:08.561Z</time></trkpt><trkpt lat="46.2422507" lon="12.7951179"><ele>677.0</ele><time>2026-04-25T13:41:09.561Z</time></trkpt><trkpt lat="46.2422845" lon="12.79523"><ele>677.0</ele><time>2026-04-25T13:41:10.561Z</time></trkpt><trkpt lat="46.2423196" lon="12.7953425"><ele>677.0</ele><time>2026-04-25T13:41:11.561Z</time></trkpt><trkpt lat="46.2423572" lon="12.7954531"><ele>677.0</ele><time>2026-04-25T13:41:12.56Z</time></trkpt><trkpt lat="46.2423921" lon="12.795561"><ele>677.0</ele><time>2026-04-25T13:41:13.561Z</time></trkpt><trkpt lat="46.2424201" lon="12.7956574"><ele>675.2</ele><time>2026-04-25T13:41:14.561Z</time></trkpt><trkpt lat="46.2424378" lon="12.7957957"><ele>673.4000000000001</ele><time>2026-04-25T13:41:16.56Z</time></trkpt><trkpt lat="46.2423983" lon="12.795875"><ele>671.5999999999999</ele><time>2026-04-25T13:41:55.561Z</time></trkpt><trkpt lat="46.2423882" lon="12.795985"><ele>669.8</ele><time>2026-04-25T13:41:56.561Z</time></trkpt><trkpt lat="46.2423913" lon="12.7961228"><ele>668.0</ele><time>2026-04-25T13:41:57.56Z</time></trkpt><trkpt lat="46.2424046" lon="12.7962899"><ele>666.75</ele><time>2026-04-25T13:41:58.561Z</time></trkpt><trkpt lat="46.2424221" lon="12.7964757"><ele>665.5</ele><time>2026-04-25T13:41:59.561Z</time></trkpt><trkpt lat="46.242446" lon="12.7966692"><ele>664.25</ele><time>2026-04-25T13:42:00.56Z</time></trkpt><trkpt lat="46.2424829" lon="12.7968676"><ele>663.0</ele><time>2026-04-25T13:42:01.561Z</time></trkpt><trkpt lat="46.2425326" lon="12.7970783"><ele>663.0</ele><time>2026-04-25T13:42:02.56Z</time></trkpt><trkpt lat="46.242585" lon="12.7973105"><ele>663.0</ele><time>2026-04-25T13:42:03.561Z</time></trkpt><trkpt lat="46.2426428" lon="12.7975504"><ele>663.0</ele><time>2026-04-25T13:42:04.56Z</time></trkpt><trkpt lat="46.2426955" lon="12.7977783"><ele>665.5</ele><time>2026-04-25T13:42:05.56Z</time></trkpt><trkpt lat="46.2427409" lon="12.7979911"><ele>668.0</ele><time>2026-04-25T13:42:06.56Z</time></trkpt><trkpt lat="46.2427792" lon="12.7981945"><ele>670.5</ele><time>2026-04-25T13:42:07.561Z</time></trkpt><trkpt lat="46.242816" lon="12.798387"><ele>673.0</ele><time>2026-04-25T13:42:08.56Z</time></trkpt><trkpt lat="46.2428592" lon="12.7985641"><ele>674.5</ele><time>2026-04-25T13:42:09.56Z</time></trkpt><trkpt lat="46.2429084" lon="12.7987337"><ele>676.0</ele><time>2026-04-25T13:42:10.561Z</time></trkpt><trkpt lat="46.2429629" lon="12.7989048"><ele>677.5</ele><time>2026-04-25T13:42:11.561Z</time></trkpt><trkpt lat="46.243005" lon="12.7990835"><ele>679.0</ele><time>2026-04-25T13:42:12.56Z</time></trkpt><trkpt lat="46.2430413" lon="12.7992738"><ele>675.0</ele><time>2026-04-25T13:42:13.56Z</time></trkpt><trkpt lat="46.2430706" lon="12.799463"><ele>671.0</ele><time>2026-04-25T13:42:14.561Z</time></trkpt><trkpt lat="46.2431101" lon="12.7996408"><ele>667.0</ele><time>2026-04-25T13:42:15.561Z</time></trkpt><trkpt lat="46.2431632" lon="12.799811"><ele>663.0</ele><time>2026-04-25T13:42:16.56Z</time></trkpt><trkpt lat="46.2432263" lon="12.7999763"><ele>663.0</ele><time>2026-04-25T13:42:17.561Z</time></trkpt><trkpt lat="46.2432891" lon="12.8001305"><ele>663.0</ele><time>2026-04-25T13:42:18.56Z</time></trkpt><trkpt lat="46.2433556" lon="12.8002644"><ele>663.0</ele><time>2026-04-25T13:42:19.561Z</time></trkpt><trkpt lat="46.2434356" lon="12.8003818"><ele>663.0</ele><time>2026-04-25T13:42:20.56Z</time></trkpt><trkpt lat="46.2435242" lon="12.8004875"><ele>669.0</ele><time>2026-04-25T13:42:21.561Z</time></trkpt><trkpt lat="46.2436155" lon="12.8005942"><ele>675.0</ele><time>2026-04-25T13:42:22.561Z</time></trkpt><trkpt lat="46.243729" lon="12.8007064"><ele>681.0</ele><time>2026-04-25T13:42:23.561Z</time></trkpt><trkpt lat="46.2438403" lon="12.8008361"><ele>687.0</ele><time>2026-04-25T13:42:24.561Z</time></trkpt><trkpt lat="46.2439357" lon="12.8009778"><ele>687.5</ele><time>2026-04-25T13:42:25.56Z</time></trkpt><trkpt lat="46.2440232" lon="12.801127"><ele>688.0</ele><time>2026-04-25T13:42:26.56Z</time></trkpt><trkpt lat="46.2441096" lon="12.801272"><ele>688.5</ele><time>2026-04-25T13:42:27.561Z</time></trkpt><trkpt lat="46.2441983" lon="12.8014167"><ele>689.0</ele><time>2026-04-25T13:42:28.561Z</time></trkpt><trkpt lat="46.244285" lon="12.8015317"><ele>689.0</ele><time>2026-04-25T13:42:29.561Z</time></trkpt><trkpt lat="46.244385" lon="12.801645"><ele>689.0</ele><time>2026-04-25T13:42:30.56Z</time></trkpt><trkpt lat="46.2444817" lon="12.80176"><ele>689.0</ele><time>2026-04-25T13:42:31.561Z</time></trkpt><trkpt lat="46.2445733" lon="12.8018733"><ele>689.0</ele><time>2026-04-25T13:42:32.561Z</time></trkpt><trkpt lat="46.2446633" lon="12.8019817"><ele>691.0</ele><time>2026-04-25T13:42:33.561Z</time></trkpt><trkpt lat="46.2447467" lon="12.8020767"><ele>693.0</ele><time>2026-04-25T13:42:34.561Z</time></trkpt><trkpt lat="46.244845" lon="12.8021667"><ele>695.0</ele><time>2026-04-25T13:42:35.56Z</time></trkpt><trkpt lat="46.24494" lon="12.8022517"><ele>697.0</ele><time>2026-04-25T13:42:36.561Z</time></trkpt><trkpt lat="46.2450467" lon="12.802335"><ele>697.0</ele><time>2026-04-25T13:42:37.561Z</time></trkpt><trkpt lat="46.2451583" lon="12.8024"><ele>697.0</ele><time>2026-04-25T13:42:38.561Z</time></trkpt><trkpt lat="46.2452567" lon="12.8024667"><ele>697.0</ele><time>2026-04-25T13:42:39.56Z</time></trkpt><trkpt lat="46.2453433" lon="12.8025383"><ele>697.0</ele><time>2026-04-25T13:42:40.561Z</time></trkpt><trkpt lat="46.24542" lon="12.802615"><ele>697.0</ele><time>2026-04-25T13:42:41.561Z</time></trkpt><trkpt lat="46.2455" lon="12.8026983"><ele>698.25</ele><time>2026-04-25T13:42:42.561Z</time></trkpt><trkpt lat="46.2456133" lon="12.80283"><ele>699.5</ele><time>2026-04-25T13:42:43.56Z</time></trkpt><trkpt lat="46.2457233" lon="12.80296"><ele>700.75</ele><time>2026-04-25T13:42:44.56Z</time></trkpt><trkpt lat="46.245835" lon="12.803085"><ele>702.0</ele><time>2026-04-25T13:42:45.561Z</time></trkpt><trkpt lat="46.24594" lon="12.8032167"><ele>702.0</ele><time>2026-04-25T13:42:46.561Z</time></trkpt><trkpt lat="46.2460533" lon="12.8033367"><ele>702.0</ele><time>2026-04-25T13:42:47.561Z</time></trkpt><trkpt lat="46.2461667" lon="12.8034567"><ele>702.0</ele><time>2026-04-25T13:42:48.561Z</time></trkpt><trkpt lat="46.2462833" lon="12.8035733"><ele>702.0</ele><time>2026-04-25T13:42:49.561Z</time></trkpt><trkpt lat="46.2463917" lon="12.8036867"><ele>703.0</ele><time>2026-04-25T13:42:50.56Z</time></trkpt><trkpt lat="46.2464833" lon="12.8038033"><ele>704.0</ele><time>2026-04-25T13:42:51.56Z</time></trkpt><trkpt lat="46.2465783" lon="12.8039067"><ele>705.0</ele><time>2026-04-25T13:42:52.561Z</time></trkpt><trkpt lat="46.246675" lon="12.8040033"><ele>706.0</ele><time>2026-04-25T13:42:53.56Z</time></trkpt><trkpt lat="46.2467783" lon="12.8041033"><ele>706.0</ele><time>2026-04-25T13:42:54.56Z</time></trkpt><trkpt lat="46.246895" lon="12.8042067"><ele>706.0</ele><time>2026-04-25T13:42:55.56Z</time></trkpt><trkpt lat="46.2470083" lon="12.8043117"><ele>706.0</ele><time>2026-04-25T13:42:56.56Z</time></trkpt><trkpt lat="46.2471133" lon="12.804425"><ele>706.0</ele><time>2026-04-25T13:42:57.561Z</time></trkpt><trkpt lat="46.247215" lon="12.8045417"><ele>707.75</ele><time>2026-04-25T13:42:58.56Z</time></trkpt><trkpt lat="46.2473167" lon="12.80466"><ele>709.5</ele><time>2026-04-25T13:42:59.561Z</time></trkpt><trkpt lat="46.247415" lon="12.8047633"><ele>711.25</ele><time>2026-04-25T13:43:00.561Z</time></trkpt><trkpt lat="46.2475417" lon="12.80488"><ele>713.0</ele><time>2026-04-25T13:43:01.561Z</time></trkpt><trkpt lat="46.24767" lon="12.8049617"><ele>713.0</ele><time>2026-04-25T13:43:02.56Z</time></trkpt><trkpt lat="46.24781" lon="12.80504"><ele>713.0</ele><time>2026-04-25T13:43:03.561Z</time></trkpt><trkpt lat="46.24795" lon="12.8051183"><ele>713.0</ele><time>2026-04-25T13:43:04.56Z</time></trkpt><trkpt lat="46.2480867" lon="12.8051917"><ele>713.0</ele><time>2026-04-25T13:43:05.561Z</time></trkpt><trkpt lat="46.2482133" lon="12.8052683"><ele>714.4</ele><time>2026-04-25T13:43:06.561Z</time></trkpt><trkpt lat="46.2483233" lon="12.8053417"><ele>715.8</ele><time>2026-04-25T13:43:07.561Z</time></trkpt><trkpt lat="46.2484167" lon="12.80542"><ele>717.2</ele><time>2026-04-25T13:43:08.561Z</time></trkpt><trkpt lat="46.2485" lon="12.8055"><ele>718.6</ele><time>2026-04-25T13:43:09.561Z</time></trkpt><trkpt lat="46.2485667" lon="12.8055933"><ele>720.0</ele><time>2026-04-25T13:43:10.561Z</time></trkpt><trkpt lat="46.2486117" lon="12.805715"><ele>720.0</ele><time>2026-04-25T13:43:11.56Z</time></trkpt><trkpt lat="46.2486383" lon="12.8058617"><ele>720.0</ele><time>2026-04-25T13:43:12.561Z</time></trkpt><trkpt lat="46.2486333" lon="12.8060433"><ele>720.0</ele><time>2026-04-25T13:43:13.561Z</time></trkpt><trkpt lat="46.24862" lon="12.806235"><ele>720.0</ele><time>2026-04-25T13:43:14.561Z</time></trkpt><trkpt lat="46.248595" lon="12.8064317"><ele>723.75</ele><time>2026-04-25T13:43:15.561Z</time></trkpt><trkpt lat="46.2485533" lon="12.80664"><ele>727.5</ele><time>2026-04-25T13:43:16.56Z</time></trkpt><trkpt lat="46.2485183" lon="12.8068467"><ele>731.25</ele><time>2026-04-25T13:43:17.56Z</time></trkpt><trkpt lat="46.2484917" lon="12.807055"><ele>735.0</ele><time>2026-04-25T13:43:18.561Z</time></trkpt><trkpt lat="46.2484717" lon="12.80726"><ele>736.5</ele><time>2026-04-25T13:43:19.561Z</time></trkpt><trkpt lat="46.248455" lon="12.807475"><ele>738.0</ele><time>2026-04-25T13:43:20.561Z</time></trkpt><trkpt lat="46.24845" lon="12.8076817"><ele>739.5</ele><time>2026-04-25T13:43:21.56Z</time></trkpt><trkpt lat="46.248455" lon="12.80788"><ele>741.0</ele><time>2026-04-25T13:43:22.561Z</time></trkpt><trkpt lat="46.2484733" lon="12.8080733"><ele>741.0</ele><time>2026-04-25T13:43:23.56Z</time></trkpt><trkpt lat="46.2484983" lon="12.80825"><ele>741.0</ele><time>2026-04-25T13:43:24.561Z</time></trkpt><trkpt lat="46.2485167" lon="12.8084"><ele>741.0</ele><time>2026-04-25T13:43:25.561Z</time></trkpt><trkpt lat="46.24852" lon="12.8085167"><ele>741.0</ele><time>2026-04-25T13:43:26.561Z</time></trkpt><trkpt lat="46.2485217" lon="12.8086133"><ele>741.0</ele><time>2026-04-25T13:43:27.56Z</time></trkpt><trkpt lat="46.2484783" lon="12.80871"><ele>741.75</ele><time>2026-04-25T13:43:29.56Z</time></trkpt><trkpt lat="46.2483833" lon="12.8087683"><ele>742.5</ele><time>2026-04-25T13:43:31.56Z</time></trkpt><trkpt lat="46.2483233" lon="12.8088933"><ele>743.25</ele><time>2026-04-25T13:43:33.561Z</time></trkpt><trkpt lat="46.2483917" lon="12.8090467"><ele>744.0</ele><time>2026-04-25T13:43:34.56Z</time></trkpt><trkpt lat="46.2484483" lon="12.8092017"><ele>746.4000000000001</ele><time>2026-04-25T13:43:35.561Z</time></trkpt><trkpt lat="46.24849" lon="12.80935"><ele>748.8</ele><time>2026-04-25T13:43:36.56Z</time></trkpt><trkpt lat="46.2485333" lon="12.809495"><ele>751.2</ele><time>2026-04-25T13:43:37.56Z</time></trkpt><trkpt lat="46.24858" lon="12.8096233"><ele>753.5999999999999</ele><time>2026-04-25T13:43:38.56Z</time></trkpt><trkpt lat="46.24863" lon="12.8097317"><ele>756.0</ele><time>2026-04-25T13:43:39.561Z</time></trkpt><trkpt lat="46.24868" lon="12.8098217"><ele>756.0</ele><time>2026-04-25T13:43:40.561Z</time></trkpt><trkpt lat="46.2487283" lon="12.8098967"><ele>756.0</ele><time>2026-04-25T13:43:41.561Z</time></trkpt><trkpt lat="46.2488033" lon="12.8100333"><ele>756.0</ele><time>2026-04-25T13:43:43.56Z</time></trkpt><trkpt lat="46.2488333" lon="12.8101233"><ele>756.0</ele><time>2026-04-25T13:43:44.561Z</time></trkpt><trkpt lat="46.2488683" lon="12.8102333"><ele>756.0</ele><time>2026-04-25T13:43:45.561Z</time></trkpt><trkpt lat="46.2489117" lon="12.8103617"><ele>756.0</ele><time>2026-04-25T13:43:46.56Z</time></trkpt><trkpt lat="46.2489633" lon="12.8104833"><ele>751.6666666666666</ele><time>2026-04-25T13:43:47.561Z</time></trkpt><trkpt lat="46.24902" lon="12.810595"><ele>747.3333333333334</ele><time>2026-04-25T13:43:48.56Z</time></trkpt><trkpt lat="46.249065" lon="12.8107067"><ele>743.0</ele><time>2026-04-25T13:43:49.56Z</time></trkpt><trkpt lat="46.249095" lon="12.81082"><ele>738.6666666666667</ele><time>2026-04-25T13:43:50.561Z</time></trkpt><trkpt lat="46.2491067" lon="12.8109233"><ele>734.3333333333334</ele><time>2026-04-25T13:43:51.561Z</time></trkpt><trkpt lat="46.24909" lon="12.81102"><ele>730.0</ele><time>2026-04-25T13:43:52.561Z</time></trkpt><trkpt lat="46.2490517" lon="12.8111167"><ele>729.0</ele><time>2026-04-25T13:43:53.561Z</time></trkpt><trkpt lat="46.248985" lon="12.8112133"><ele>728.0</ele><time>2026-04-25T13:43:54.561Z</time></trkpt><trkpt lat="46.2488983" lon="12.8113383"><ele>727.0</ele><time>2026-04-25T13:43:55.56Z</time></trkpt><trkpt lat="46.2488317" lon="12.8114817"><ele>726.0</ele><time>2026-04-25T13:43:56.56Z</time></trkpt><trkpt lat="46.248765" lon="12.8116333"><ele>729.5</ele><time>2026-04-25T13:43:57.561Z</time></trkpt><trkpt lat="46.2486983" lon="12.8117917"><ele>733.0</ele><time>2026-04-25T13:43:58.56Z</time></trkpt><trkpt lat="46.2486217" lon="12.8119517"><ele>736.5</ele><time>2026-04-25T13:43:59.561Z</time></trkpt><trkpt lat="46.2485483" lon="12.8121167"><ele>740.0</ele><time>2026-04-25T13:44:00.56Z</time></trkpt><trkpt lat="46.2484817" lon="12.81228"><ele>740.0</ele><time>2026-04-25T13:44:01.561Z</time></trkpt><trkpt lat="46.248425" lon="12.8124383"><ele>740.0</ele><time>2026-04-25T13:44:02.56Z</time></trkpt><trkpt lat="46.2483667" lon="12.8125883"><ele>740.0</ele><time>2026-04-25T13:44:03.561Z</time></trkpt><trkpt lat="46.2482983" lon="12.8127117"><ele>740.0</ele><time>2026-04-25T13:44:04.561Z</time></trkpt><trkpt lat="46.248235" lon="12.8128283"><ele>738.6666666666666</ele><time>2026-04-25T13:44:05.561Z</time></trkpt><trkpt lat="46.2481833" lon="12.8129383"><ele>737.3333333333333</ele><time>2026-04-25T13:44:06.561Z</time></trkpt><trkpt lat="46.248145" lon="12.8130317"><ele>736.0</ele><time>2026-04-25T13:44:07.56Z</time></trkpt><trkpt lat="46.2481183" lon="12.81312"><ele>734.6666666666666</ele><time>2026-04-25T13:44:08.56Z</time></trkpt><trkpt lat="46.24813" lon="12.8132283"><ele>733.3333333333334</ele><time>2026-04-25T13:44:10.561Z</time></trkpt><trkpt lat="46.24821" lon="12.8132733"><ele>732.0</ele><time>2026-04-25T13:44:12.561Z</time></trkpt><trkpt lat="46.2483167" lon="12.81331"><ele>732.0</ele><time>2026-04-25T13:44:14.561Z</time></trkpt><trkpt lat="46.2484317" lon="12.8134167"><ele>732.0</ele><time>2026-04-25T13:44:16.56Z</time></trkpt><trkpt lat="46.24849" lon="12.8134967"><ele>732.0</ele><time>2026-04-25T13:44:17.561Z</time></trkpt><trkpt lat="46.2485467" lon="12.8135733"><ele>732.0</ele><time>2026-04-25T13:44:18.56Z</time></trkpt><trkpt lat="46.2486083" lon="12.8136567"><ele>732.0</ele><time>2026-04-25T13:44:19.561Z</time></trkpt><trkpt lat="46.248665" lon="12.8137433"><ele>732.2</ele><time>2026-04-25T13:44:20.561Z</time></trkpt><trkpt lat="46.248705" lon="12.8138417"><ele>732.4000000000001</ele><time>2026-04-25T13:44:21.561Z</time></trkpt><trkpt lat="46.2487333" lon="12.81395"><ele>732.5999999999999</ele><time>2026-04-25T13:44:22.561Z</time></trkpt><trkpt lat="46.248745" lon="12.8141"><ele>732.8</ele><time>2026-04-25T13:44:23.561Z</time></trkpt><trkpt lat="46.2487467" lon="12.8142567"><ele>733.0</ele><time>2026-04-25T13:44:24.561Z</time></trkpt><trkpt lat="46.2487367" lon="12.8144167"><ele>733.0</ele><time>2026-04-25T13:44:25.561Z</time></trkpt><trkpt lat="46.248715" lon="12.8145717"><ele>733.0</ele><time>2026-04-25T13:44:26.561Z</time></trkpt><trkpt lat="46.2486883" lon="12.8147217"><ele>733.0</ele><time>2026-04-25T13:44:27.56Z</time></trkpt><trkpt lat="46.2486583" lon="12.81487"><ele>733.0</ele><time>2026-04-25T13:44:28.56Z</time></trkpt><trkpt lat="46.2486383" lon="12.8150183"><ele>733.0</ele><time>2026-04-25T13:44:29.56Z</time></trkpt><trkpt lat="46.24861" lon="12.815165"><ele>729.0</ele><time>2026-04-25T13:44:30.561Z</time></trkpt><trkpt lat="46.2485733" lon="12.8153017"><ele>725.0</ele><time>2026-04-25T13:44:31.561Z</time></trkpt><trkpt lat="46.2485267" lon="12.8154183"><ele>721.0</ele><time>2026-04-25T13:44:32.561Z</time></trkpt><trkpt lat="46.2484717" lon="12.8155283"><ele>717.0</ele><time>2026-04-25T13:44:33.561Z</time></trkpt><trkpt lat="46.2484117" lon="12.815635"><ele>713.0</ele><time>2026-04-25T13:44:34.561Z</time></trkpt><trkpt lat="46.2483583" lon="12.8157383"><ele>713.0</ele><time>2026-04-25T13:44:35.56Z</time></trkpt><trkpt lat="46.2482983" lon="12.8158517"><ele>713.0</ele><time>2026-04-25T13:44:36.56Z</time></trkpt><trkpt lat="46.2482233" lon="12.8159633"><ele>713.0</ele><time>2026-04-25T13:44:37.56Z</time></trkpt><trkpt lat="46.24814" lon="12.8160667"><ele>713.0</ele><time>2026-04-25T13:44:38.56Z</time></trkpt><trkpt lat="46.2480467" lon="12.8161467"><ele>713.0</ele><time>2026-04-25T13:44:39.561Z</time></trkpt><trkpt lat="46.2479483" lon="12.81622"><ele>714.75</ele><time>2026-04-25T13:44:40.561Z</time></trkpt><trkpt lat="46.247855" lon="12.8162883"><ele>716.5</ele><time>2026-04-25T13:44:41.56Z</time></trkpt><trkpt lat="46.2477617" lon="12.8163683"><ele>718.25</ele><time>2026-04-25T13:44:42.561Z</time></trkpt><trkpt lat="46.2476583" lon="12.81647"><ele>720.0</ele><time>2026-04-25T13:44:43.56Z</time></trkpt><trkpt lat="46.2475633" lon="12.8165817"><ele>720.0</ele><time>2026-04-25T13:44:44.561Z</time></trkpt><trkpt lat="46.2474683" lon="12.8167017"><ele>720.0</ele><time>2026-04-25T13:44:45.561Z</time></trkpt><trkpt lat="46.2473717" lon="12.8168333"><ele>720.0</ele><time>2026-04-25T13:44:46.561Z</time></trkpt><trkpt lat="46.2472917" lon="12.8169683"><ele>720.0</ele><time>2026-04-25T13:44:47.561Z</time></trkpt><trkpt lat="46.2472146" lon="12.8171009"><ele>721.25</ele><time>2026-04-25T13:44:48.561Z</time></trkpt><trkpt lat="46.2471362" lon="12.8172262"><ele>722.5</ele><time>2026-04-25T13:44:49.56Z</time></trkpt><trkpt lat="46.2470565" lon="12.8173465"><ele>723.75</ele><time>2026-04-25T13:44:50.561Z</time></trkpt><trkpt lat="46.2469685" lon="12.8174629"><ele>725.0</ele><time>2026-04-25T13:44:51.56Z</time></trkpt><trkpt lat="46.2468754" lon="12.8175777"><ele>720.5</ele><time>2026-04-25T13:44:52.561Z</time></trkpt><trkpt lat="46.2467708" lon="12.817675"><ele>716.0</ele><time>2026-04-25T13:44:53.56Z</time></trkpt><trkpt lat="46.2466614" lon="12.8177515"><ele>711.5</ele><time>2026-04-25T13:44:54.561Z</time></trkpt><trkpt lat="46.2465584" lon="12.8178386"><ele>707.0</ele><time>2026-04-25T13:44:55.56Z</time></trkpt><trkpt lat="46.2464701" lon="12.817942"><ele>711.8</ele><time>2026-04-25T13:44:56.561Z</time></trkpt><trkpt lat="46.2463947" lon="12.8180619"><ele>716.6</ele><time>2026-04-25T13:44:57.56Z</time></trkpt><trkpt lat="46.2463308" lon="12.8181877"><ele>721.4</ele><time>2026-04-25T13:44:58.561Z</time></trkpt><trkpt lat="46.2462741" lon="12.8183144"><ele>726.1999999999999</ele><time>2026-04-25T13:44:59.561Z</time></trkpt><trkpt lat="46.2462379" lon="12.8183921"><ele>731.0</ele><time>2026-04-25T13:45:00.56Z</time></trkpt><trkpt lat="46.2462033" lon="12.818508"><ele>731.0</ele><time>2026-04-25T13:45:01.56Z</time></trkpt><trkpt lat="46.2461812" lon="12.8186233"><ele>731.0</ele><time>2026-04-25T13:45:02.561Z</time></trkpt><trkpt lat="46.2461857" lon="12.8187183"><ele>731.0</ele><time>2026-04-25T13:45:03.56Z</time></trkpt><trkpt lat="46.2462178" lon="12.818807"><ele>731.0</ele><time>2026-04-25T13:45:04.561Z</time></trkpt><trkpt lat="46.2462694" lon="12.8188909"><ele>731.0</ele><time>2026-04-25T13:45:05.561Z</time></trkpt><trkpt lat="46.2463632" lon="12.8189555"><ele>731.0</ele><time>2026-04-25T13:45:06.56Z</time></trkpt><trkpt lat="46.2464869" lon="12.8190254"><ele>731.0</ele><time>2026-04-25T13:45:07.561Z</time></trkpt><trkpt lat="46.2466111" lon="12.8190966"><ele>731.0</ele><time>2026-04-25T13:45:08.561Z</time></trkpt><trkpt lat="46.2467177" lon="12.8191709"><ele>731.0</ele><time>2026-04-25T13:45:09.56Z</time></trkpt><trkpt lat="46.2468145" lon="12.8192479"><ele>731.0</ele><time>2026-04-25T13:45:10.56Z</time></trkpt><trkpt lat="46.2469069" lon="12.8193248"><ele>731.0</ele><time>2026-04-25T13:45:11.561Z</time></trkpt><trkpt lat="46.2469925" lon="12.8194189"><ele>731.0</ele><time>2026-04-25T13:45:12.56Z</time></trkpt><trkpt lat="46.2470727" lon="12.8195412"><ele>731.0</ele><time>2026-04-25T13:45:13.561Z</time></trkpt><trkpt lat="46.2471432" lon="12.8196676"><ele>731.0</ele><time>2026-04-25T13:45:14.561Z</time></trkpt><trkpt lat="46.2472041" lon="12.8197655"><ele>731.0</ele><time>2026-04-25T13:45:15.56Z</time></trkpt><trkpt lat="46.247257" lon="12.8198325"><ele>731.0</ele><time>2026-04-25T13:45:16.561Z</time></trkpt><trkpt lat="46.2473295" lon="12.8199207"><ele>731.0</ele><time>2026-04-25T13:45:18.56Z</time></trkpt><trkpt lat="46.2472517" lon="12.8198167"><ele>731.0</ele><time>2026-04-25T13:45:36.561Z</time></trkpt><trkpt lat="46.2472067" lon="12.8197467"><ele>731.0</ele><time>2026-04-25T13:45:37.561Z</time></trkpt><trkpt lat="46.247155" lon="12.8196467"><ele>731.0</ele><time>2026-04-25T13:45:38.561Z</time></trkpt><trkpt lat="46.2470967" lon="12.81954"><ele>731.0</ele><time>2026-04-25T13:45:39.561Z</time></trkpt><trkpt lat="46.2470367" lon="12.81945"><ele>731.0</ele><time>2026-04-25T13:45:40.56Z</time></trkpt><trkpt lat="46.246975" lon="12.81937"><ele>731.0</ele><time>2026-04-25T13:45:41.561Z</time></trkpt><trkpt lat="46.2469117" lon="12.8193083"><ele>731.0</ele><time>2026-04-25T13:45:42.56Z</time></trkpt><trkpt lat="46.2468367" lon="12.8192483"><ele>731.0</ele><time>2026-04-25T13:45:43.561Z</time></trkpt><trkpt lat="46.2467633" lon="12.8191933"><ele>731.0</ele><time>2026-04-25T13:45:44.561Z</time></trkpt><trkpt lat="46.2466867" lon="12.819135"><ele>731.0</ele><time>2026-04-25T13:45:45.561Z</time></trkpt><trkpt lat="46.2466133" lon="12.81908"><ele>731.0</ele><time>2026-04-25T13:45:46.561Z</time></trkpt><trkpt lat="46.2465417" lon="12.819035"><ele>731.0</ele><time>2026-04-25T13:45:47.561Z</time></trkpt><trkpt lat="46.24647" lon="12.819"><ele>731.0</ele><time>2026-04-25T13:45:48.562Z</time></trkpt><trkpt lat="46.24641" lon="12.818965"><ele>731.0</ele><time>2026-04-25T13:45:49.562Z</time></trkpt><trkpt lat="46.2463483" lon="12.81893"><ele>731.0</ele><time>2026-04-25T13:45:50.561Z</time></trkpt><trkpt lat="46.2462883" lon="12.8188833"><ele>731.0</ele><time>2026-04-25T13:45:51.561Z</time></trkpt><trkpt lat="46.2462183" lon="12.81876"><ele>731.0</ele><time>2026-04-25T13:45:53.561Z</time></trkpt><trkpt lat="46.2462283" lon="12.8186117"><ele>731.0</ele><time>2026-04-25T13:45:55.562Z</time></trkpt><trkpt lat="46.2462683" lon="12.818535"><ele>731.0</ele><time>2026-04-25T13:45:57.562Z</time></trkpt><trkpt lat="46.246305" lon="12.8186633"><ele>731.0</ele><time>2026-04-25T13:45:59.562Z</time></trkpt><trkpt lat="46.2463733" lon="12.81875"><ele>731.0</ele><time>2026-04-25T13:46:01.561Z</time></trkpt><trkpt lat="46.2464983" lon="12.8187417"><ele>727.1999999999999</ele><time>2026-04-25T13:46:03.561Z</time></trkpt><trkpt lat="46.246575" lon="12.81873"><ele>723.4</ele><time>2026-04-25T13:46:04.561Z</time></trkpt><trkpt lat="46.2466617" lon="12.8187217"><ele>719.6</ele><time>2026-04-25T13:46:05.562Z</time></trkpt><trkpt lat="46.2467617" lon="12.81872"><ele>715.8</ele><time>2026-04-25T13:46:06.561Z</time></trkpt><trkpt lat="46.2468783" lon="12.8187217"><ele>712.0</ele><time>2026-04-25T13:46:07.562Z</time></trkpt><trkpt lat="46.2469933" lon="12.818725"><ele>712.0</ele><time>2026-04-25T13:46:08.562Z</time></trkpt><trkpt lat="46.2471017" lon="12.8187183"><ele>712.0</ele><time>2026-04-25T13:46:09.561Z</time></trkpt><trkpt lat="46.2472083" lon="12.818705"><ele>712.0</ele><time>2026-04-25T13:46:10.562Z</time></trkpt><trkpt lat="46.24733" lon="12.818685"><ele>712.0</ele><time>2026-04-25T13:46:11.562Z</time></trkpt><trkpt lat="46.2474583" lon="12.8186733"><ele>709.75</ele><time>2026-04-25T13:46:12.562Z</time></trkpt><trkpt lat="46.2475833" lon="12.8186617"><ele>707.5</ele><time>2026-04-25T13:46:13.562Z</time></trkpt><trkpt lat="46.247705" lon="12.818645"><ele>705.25</ele><time>2026-04-25T13:46:14.562Z</time></trkpt><trkpt lat="46.2478167" lon="12.8186267"><ele>703.0</ele><time>2026-04-25T13:46:15.561Z</time></trkpt><trkpt lat="46.2479217" lon="12.81862"><ele>703.0</ele><time>2026-04-25T13:46:16.562Z</time></trkpt><trkpt lat="46.2480083" lon="12.8186167"><ele>703.0</ele><time>2026-04-25T13:46:17.562Z</time></trkpt><trkpt lat="46.24808" lon="12.8186233"><ele>703.0</ele><time>2026-04-25T13:46:18.562Z</time></trkpt><trkpt lat="46.2481517" lon="12.81864"><ele>703.0</ele><time>2026-04-25T13:46:19.562Z</time></trkpt><trkpt lat="46.2482183" lon="12.8186667"><ele>703.0</ele><time>2026-04-25T13:46:20.562Z</time></trkpt><trkpt lat="46.2482817" lon="12.818705"><ele>703.0</ele><time>2026-04-25T13:46:21.561Z</time></trkpt><trkpt lat="46.2483467" lon="12.8187417"><ele>703.0</ele><time>2026-04-25T13:46:22.561Z</time></trkpt><trkpt lat="46.2484117" lon="12.81878"><ele>701.8333333333334</ele><time>2026-04-25T13:46:23.562Z</time></trkpt><trkpt lat="46.24852" lon="12.81885"><ele>700.6666666666667</ele><time>2026-04-25T13:46:25.561Z</time></trkpt><trkpt lat="46.2485833" lon="12.8188833"><ele>699.5</ele><time>2026-04-25T13:46:27.561Z</time></trkpt><trkpt lat="46.2486117" lon="12.81879"><ele>698.3333333333334</ele><time>2026-04-25T13:46:39.562Z</time></trkpt><trkpt lat="46.2485883" lon="12.8187"><ele>697.1666666666666</ele><time>2026-04-25T13:46:43.562Z</time></trkpt><trkpt lat="46.2485983" lon="12.8185867"><ele>696.0</ele><time>2026-04-25T13:46:45.561Z</time></trkpt><trkpt lat="46.2486183" lon="12.8184383"><ele>694.0</ele><time>2026-04-25T13:46:47.561Z</time></trkpt><trkpt lat="46.24865" lon="12.8183067"><ele>692.0</ele><time>2026-04-25T13:46:49.562Z</time></trkpt><trkpt lat="46.2486817" lon="12.8182083"><ele>690.0</ele><time>2026-04-25T13:46:51.561Z</time></trkpt><trkpt lat="46.2487083" lon="12.81811"><ele>688.0</ele><time>2026-04-25T13:46:54.562Z</time></trkpt><trkpt lat="46.24873" lon="12.8180233"><ele>686.0</ele><time>2026-04-25T13:46:58.561Z</time></trkpt><trkpt lat="46.2488267" lon="12.81784"><ele>686.0</ele><time>2026-04-25T13:47:16.561Z</time></trkpt><trkpt lat="46.2488883" lon="12.8177817"><ele>686.0</ele><time>2026-04-25T13:47:20.562Z</time></trkpt><trkpt lat="46.24895" lon="12.81776"><ele>686.0</ele><time>2026-04-25T13:47:22.561Z</time></trkpt><trkpt lat="46.2490567" lon="12.8177167"><ele>686.0</ele><time>2026-04-25T13:47:56.562Z</time></trkpt><trkpt lat="46.24911" lon="12.8176667"><ele>686.0</ele><time>2026-04-25T13:47:58.562Z</time></trkpt><trkpt lat="46.2491667" lon="12.8176017"><ele>686.0</ele><time>2026-04-25T13:48:00.562Z</time></trkpt><trkpt lat="46.2492333" lon="12.8175683"><ele>683.3333333333333</ele><time>2026-04-25T13:48:02.562Z</time></trkpt><trkpt lat="46.249295" lon="12.8175167"><ele>680.6666666666666</ele><time>2026-04-25T13:48:04.561Z</time></trkpt><trkpt lat="46.249345" lon="12.81746"><ele>678.0</ele><time>2026-04-25T13:48:06.562Z</time></trkpt><trkpt lat="46.2494033" lon="12.8174083"><ele>675.3333333333334</ele><time>2026-04-25T13:48:08.561Z</time></trkpt><trkpt lat="46.2494783" lon="12.817355"><ele>672.6666666666667</ele><time>2026-04-25T13:48:10.561Z</time></trkpt><trkpt lat="46.24955" lon="12.8172767"><ele>670.0</ele><time>2026-04-25T13:48:12.562Z</time></trkpt><trkpt lat="46.2496267" lon="12.8171817"><ele>670.0</ele><time>2026-04-25T13:48:14.562Z</time></trkpt><trkpt lat="46.2497067" lon="12.81714"><ele>670.0</ele><time>2026-04-25T13:48:16.562Z</time></trkpt><trkpt lat="46.2497817" lon="12.81711"><ele>670.0</ele><time>2026-04-25T13:48:18.561Z</time></trkpt><trkpt lat="46.2498683" lon="12.817075"><ele>670.0</ele><time>2026-04-25T13:48:20.562Z</time></trkpt><trkpt lat="46.2499883" lon="12.8170533"><ele>670.0</ele><time>2026-04-25T13:48:22.561Z</time></trkpt><trkpt lat="46.250115" lon="12.817015"><ele>668.8</ele><time>2026-04-25T13:48:24.562Z</time></trkpt><trkpt lat="46.2501817" lon="12.8169917"><ele>667.6</ele><time>2026-04-25T13:48:25.562Z</time></trkpt><trkpt lat="46.2503" lon="12.81694"><ele>666.4000000000001</ele><time>2026-04-25T13:48:27.561Z</time></trkpt><trkpt lat="46.25042" lon="12.816875"><ele>665.2</ele><time>2026-04-25T13:48:29.562Z</time></trkpt><trkpt lat="46.2504917" lon="12.8168333"><ele>664.0</ele><time>2026-04-25T13:48:30.561Z</time></trkpt><trkpt lat="46.250575" lon="12.8168133"><ele>660.3333333333334</ele><time>2026-04-25T13:48:31.561Z</time></trkpt><trkpt lat="46.2506633" lon="12.8167783"><ele>656.6666666666667</ele><time>2026-04-25T13:48:32.561Z</time></trkpt><trkpt lat="46.2507433" lon="12.8167267"><ele>653.0</ele><time>2026-04-25T13:48:33.561Z</time></trkpt><trkpt lat="46.2508233" lon="12.81667"><ele>649.3333333333334</ele><time>2026-04-25T13:48:34.562Z</time></trkpt><trkpt lat="46.2509033" lon="12.8166167"><ele>645.6666666666666</ele><time>2026-04-25T13:48:35.562Z</time></trkpt><trkpt lat="46.2509633" lon="12.8165583"><ele>642.0</ele><time>2026-04-25T13:48:36.561Z</time></trkpt><trkpt lat="46.25102" lon="12.8165017"><ele>642.0</ele><time>2026-04-25T13:48:37.561Z</time></trkpt><trkpt lat="46.2510733" lon="12.8164417"><ele>642.0</ele><time>2026-04-25T13:48:38.562Z</time></trkpt><trkpt lat="46.2511167" lon="12.81637"><ele>642.0</ele><time>2026-04-25T13:48:39.562Z</time></trkpt><trkpt lat="46.2511817" lon="12.8162417"><ele>642.0</ele><time>2026-04-25T13:48:41.561Z</time></trkpt><trkpt lat="46.2511917" lon="12.8161183"><ele>642.0</ele><time>2026-04-25T13:48:43.561Z</time></trkpt><trkpt lat="46.251165" lon="12.8159783"><ele>642.0</ele><time>2026-04-25T13:48:45.561Z</time></trkpt><trkpt lat="46.2511333" lon="12.8158467"><ele>642.0</ele><time>2026-04-25T13:48:47.561Z</time></trkpt><trkpt lat="46.2511245" lon="12.8159526"><ele>642.0</ele><time>2026-04-25T13:49:30.734Z</time></trkpt><trkpt lat="46.251165" lon="12.816055"><ele>642.0</ele><time>2026-04-25T13:49:36.56Z</time></trkpt><trkpt lat="46.2511817" lon="12.8161667"><ele>642.0</ele><time>2026-04-25T13:49:39.561Z</time></trkpt><trkpt lat="46.2511717" lon="12.8162683"><ele>642.0</ele><time>2026-04-25T13:49:41.561Z</time></trkpt><trkpt lat="46.2511567" lon="12.8163683"><ele>642.0</ele><time>2026-04-25T13:49:44.561Z</time></trkpt><trkpt lat="46.251135" lon="12.8164833"><ele>642.0</ele><time>2026-04-25T13:51:29.561Z</time></trkpt><trkpt lat="46.25118" lon="12.8165833"><ele>642.0</ele><time>2026-04-25T13:51:32.56Z</time></trkpt><trkpt lat="46.2511467" lon="12.8165017"><ele>642.0</ele><time>2026-04-25T13:52:17.56Z</time></trkpt><trkpt lat="46.25106" lon="12.816515"><ele>642.0</ele><time>2026-04-25T13:52:22.56Z</time></trkpt><trkpt lat="46.2509767" lon="12.81659"><ele>642.0</ele><time>2026-04-25T13:52:24.56Z</time></trkpt><trkpt lat="46.2508633" lon="12.8166617"><ele>642.0</ele><time>2026-04-25T13:52:26.561Z</time></trkpt><trkpt lat="46.250765" lon="12.816725"><ele>642.0</ele><time>2026-04-25T13:52:28.56Z</time></trkpt><trkpt lat="46.2506483" lon="12.8167583"><ele>642.0</ele><time>2026-04-25T13:52:30.561Z</time></trkpt><trkpt lat="46.2505283" lon="12.816785"><ele>642.0</ele><time>2026-04-25T13:52:32.561Z</time></trkpt><trkpt lat="46.2504633" lon="12.816815"><ele>642.0</ele><time>2026-04-25T13:52:33.561Z</time></trkpt><trkpt lat="46.2503667" lon="12.8168383"><ele>646.4000000000001</ele><time>2026-04-25T13:52:35.56Z</time></trkpt><trkpt lat="46.250265" lon="12.8168933"><ele>650.8000000000001</ele><time>2026-04-25T13:52:37.56Z</time></trkpt><trkpt lat="46.2501283" lon="12.8169133"><ele>655.2</ele><time>2026-04-25T13:52:39.561Z</time></trkpt><trkpt lat="46.250045" lon="12.8169317"><ele>659.6</ele><time>2026-04-25T13:52:40.561Z</time></trkpt><trkpt lat="46.2499683" lon="12.8169283"><ele>664.0</ele><time>2026-04-25T13:52:41.56Z</time></trkpt><trkpt lat="46.2498883" lon="12.8169517"><ele>664.0</ele><time>2026-04-25T13:52:42.561Z</time></trkpt><trkpt lat="46.2498183" lon="12.816975"><ele>664.0</ele><time>2026-04-25T13:52:43.561Z</time></trkpt><trkpt lat="46.2497567" lon="12.8170067"><ele>664.0</ele><time>2026-04-25T13:52:44.56Z</time></trkpt><trkpt lat="46.24965" lon="12.8170833"><ele>664.0</ele><time>2026-04-25T13:52:46.561Z</time></trkpt><trkpt lat="46.249595" lon="12.8171333"><ele>664.0</ele><time>2026-04-25T13:52:47.56Z</time></trkpt><trkpt lat="46.2495433" lon="12.817195"><ele>664.0</ele><time>2026-04-25T13:52:48.56Z</time></trkpt><trkpt lat="46.2494933" lon="12.8172633"><ele>665.0</ele><time>2026-04-25T13:52:49.56Z</time></trkpt><trkpt lat="46.249405" lon="12.8173317"><ele>666.0</ele><time>2026-04-25T13:52:51.561Z</time></trkpt><trkpt lat="46.2493517" lon="12.8173833"><ele>667.0</ele><time>2026-04-25T13:52:53.561Z</time></trkpt><trkpt lat="46.249285" lon="12.81741"><ele>668.0</ele><time>2026-04-25T13:53:42.56Z</time></trkpt><trkpt lat="46.2491883" lon="12.8173917"><ele>669.0</ele><time>2026-04-25T13:53:44.56Z</time></trkpt><trkpt lat="46.2491083" lon="12.8174433"><ele>670.0</ele><time>2026-04-25T13:53:46.56Z</time></trkpt><trkpt lat="46.2490567" lon="12.81757"><ele>671.4</ele><time>2026-04-25T13:53:48.561Z</time></trkpt><trkpt lat="46.2490333" lon="12.8177167"><ele>672.8</ele><time>2026-04-25T13:53:50.56Z</time></trkpt><trkpt lat="46.2490178" lon="12.8178785"><ele>674.2</ele><time>2026-04-25T13:53:52.561Z</time></trkpt><trkpt lat="46.2490057" lon="12.818041"><ele>675.6</ele><time>2026-04-25T13:53:54.56Z</time></trkpt><trkpt lat="46.248967" lon="12.8181705"><ele>677.0</ele><time>2026-04-25T13:53:56.56Z</time></trkpt><trkpt lat="46.2489181" lon="12.818292"><ele>678.5</ele><time>2026-04-25T13:53:58.56Z</time></trkpt><trkpt lat="46.2488594" lon="12.8183971"><ele>680.0</ele><time>2026-04-25T13:54:00.56Z</time></trkpt><trkpt lat="46.2488305" lon="12.8184956"><ele>681.5</ele><time>2026-04-25T13:54:02.56Z</time></trkpt><trkpt lat="46.2488346" lon="12.8186376"><ele>683.0</ele><time>2026-04-25T13:54:04.56Z</time></trkpt><trkpt lat="46.2489017" lon="12.8186583"><ele>684.5</ele><time>2026-04-25T13:54:26.561Z</time></trkpt><trkpt lat="46.2488583" lon="12.8187567"><ele>686.0</ele><time>2026-04-25T13:54:33.562Z</time></trkpt><trkpt lat="46.2487867" lon="12.8188067"><ele>687.4285714285714</ele><time>2026-04-25T13:54:37.562Z</time></trkpt><trkpt lat="46.2487233" lon="12.8188517"><ele>688.8571428571429</ele><time>2026-04-25T13:54:39.561Z</time></trkpt><trkpt lat="46.2486517" lon="12.8188833"><ele>690.2857142857142</ele><time>2026-04-25T13:54:41.561Z</time></trkpt><trkpt lat="46.248585" lon="12.8188933"><ele>691.7142857142858</ele><time>2026-04-25T13:54:44.562Z</time></trkpt><trkpt lat="46.2485033" lon="12.81886"><ele>693.1428571428571</ele><time>2026-04-25T13:54:47.561Z</time></trkpt><trkpt lat="46.248445" lon="12.81882"><ele>694.5714285714286</ele><time>2026-04-25T13:54:48.561Z</time></trkpt><trkpt lat="46.24837" lon="12.81877"><ele>696.0</ele><time>2026-04-25T13:54:49.562Z</time></trkpt><trkpt lat="46.2482883" lon="12.8187183"><ele>696.0</ele><time>2026-04-25T13:54:50.562Z</time></trkpt><trkpt lat="46.2482083" lon="12.8186717"><ele>696.0</ele><time>2026-04-25T13:54:51.562Z</time></trkpt><trkpt lat="46.2481317" lon="12.81864"><ele>696.0</ele><time>2026-04-25T13:54:52.562Z</time></trkpt><trkpt lat="46.248055" lon="12.81863"><ele>696.0</ele><time>2026-04-25T13:54:53.562Z</time></trkpt><trkpt lat="46.247975" lon="12.8186267"><ele>696.0</ele><time>2026-04-25T13:54:54.562Z</time></trkpt><trkpt lat="46.2478833" lon="12.81863"><ele>696.0</ele><time>2026-04-25T13:54:55.561Z</time></trkpt><trkpt lat="46.2477867" lon="12.818635"><ele>697.4</ele><time>2026-04-25T13:54:56.561Z</time></trkpt><trkpt lat="46.2476867" lon="12.81865"><ele>698.8</ele><time>2026-04-25T13:54:57.561Z</time></trkpt><trkpt lat="46.2475867" lon="12.8186633"><ele>700.1999999999999</ele><time>2026-04-25T13:54:58.562Z</time></trkpt><trkpt lat="46.24749" lon="12.8186633"><ele>701.5999999999999</ele><time>2026-04-25T13:54:59.562Z</time></trkpt><trkpt lat="46.2473933" lon="12.81867"><ele>703.0</ele><time>2026-04-25T13:55:00.561Z</time></trkpt><trkpt lat="46.2473" lon="12.8186783"><ele>704.5</ele><time>2026-04-25T13:55:01.561Z</time></trkpt><trkpt lat="46.2472117" lon="12.8186933"><ele>706.0</ele><time>2026-04-25T13:55:02.561Z</time></trkpt><trkpt lat="46.2471283" lon="12.8187033"><ele>707.5</ele><time>2026-04-25T13:55:03.562Z</time></trkpt><trkpt lat="46.2470417" lon="12.81871"><ele>709.0</ele><time>2026-04-25T13:55:04.562Z</time></trkpt><trkpt lat="46.246965" lon="12.8187067"><ele>710.5</ele><time>2026-04-25T13:55:05.562Z</time></trkpt><trkpt lat="46.2468783" lon="12.8186983"><ele>712.0</ele><time>2026-04-25T13:55:06.562Z</time></trkpt><trkpt lat="46.24679" lon="12.81869"><ele>712.0</ele><time>2026-04-25T13:55:07.561Z</time></trkpt><trkpt lat="46.2466933" lon="12.81869"><ele>712.0</ele><time>2026-04-25T13:55:08.562Z</time></trkpt><trkpt lat="46.2466083" lon="12.818695"><ele>712.0</ele><time>2026-04-25T13:55:09.562Z</time></trkpt><trkpt lat="46.2465267" lon="12.8187067"><ele>712.0</ele><time>2026-04-25T13:55:10.562Z</time></trkpt><trkpt lat="46.2464533" lon="12.8187183"><ele>712.0</ele><time>2026-04-25T13:55:11.562Z</time></trkpt><trkpt lat="46.2463417" lon="12.818725"><ele>712.0</ele><time>2026-04-25T13:55:13.562Z</time></trkpt><trkpt lat="46.246285" lon="12.81865"><ele>715.1666666666667</ele><time>2026-04-25T13:55:15.562Z</time></trkpt><trkpt lat="46.2462417" lon="12.818575"><ele>718.3333333333334</ele><time>2026-04-25T13:55:17.562Z</time></trkpt><trkpt lat="46.2461983" lon="12.8186817"><ele>721.5</ele><time>2026-04-25T13:55:21.562Z</time></trkpt><trkpt lat="46.246225" lon="12.818795"><ele>724.6666666666666</ele><time>2026-04-25T13:55:23.561Z</time></trkpt><trkpt lat="46.2463017" lon="12.8188933"><ele>727.8333333333333</ele><time>2026-04-25T13:55:25.562Z</time></trkpt><trkpt lat="46.2463683" lon="12.8189233"><ele>731.0</ele><time>2026-04-25T13:55:26.562Z</time></trkpt><trkpt lat="46.2464417" lon="12.81896"><ele>727.1999999999999</ele><time>2026-04-25T13:55:27.561Z</time></trkpt><trkpt lat="46.2465233" lon="12.8189983"><ele>723.4</ele><time>2026-04-25T13:55:28.561Z</time></trkpt><trkpt lat="46.2466083" lon="12.8190467"><ele>719.6</ele><time>2026-04-25T13:55:29.561Z</time></trkpt><trkpt lat="46.2466967" lon="12.8191083"><ele>715.8</ele><time>2026-04-25T13:55:30.562Z</time></trkpt><trkpt lat="46.24678" lon="12.81917"><ele>712.0</ele><time>2026-04-25T13:55:31.562Z</time></trkpt><trkpt lat="46.2468533" lon="12.8192417"><ele>712.0</ele><time>2026-04-25T13:55:32.562Z</time></trkpt><trkpt lat="46.2469283" lon="12.8193133"><ele>712.0</ele><time>2026-04-25T13:55:33.562Z</time></trkpt><trkpt lat="46.247" lon="12.8194033"><ele>712.0</ele><time>2026-04-25T13:55:34.562Z</time></trkpt><trkpt lat="46.2470717" lon="12.819505"><ele>712.0</ele><time>2026-04-25T13:55:35.562Z</time></trkpt><trkpt lat="46.2471367" lon="12.81962"><ele>712.0</ele><time>2026-04-25T13:55:36.562Z</time></trkpt><trkpt lat="46.2471983" lon="12.8197217"><ele>712.6</ele><time>2026-04-25T13:55:37.561Z</time></trkpt><trkpt lat="46.2472533" lon="12.819805"><ele>713.2</ele><time>2026-04-25T13:55:38.562Z</time></trkpt><trkpt lat="46.2473067" lon="12.8198733"><ele>713.8</ele><time>2026-04-25T13:55:39.561Z</time></trkpt><trkpt lat="46.2473517" lon="12.820005"><ele>714.4</ele><time>2026-04-25T13:55:41.562Z</time></trkpt><trkpt lat="46.2473433" lon="12.8202033"><ele>715.0</ele><time>2026-04-25T13:55:43.562Z</time></trkpt><trkpt lat="46.2473267" lon="12.82033"><ele>716.6666666666667</ele><time>2026-04-25T13:55:44.562Z</time></trkpt><trkpt lat="46.2473117" lon="12.8204483"><ele>718.3333333333334</ele><time>2026-04-25T13:55:45.561Z</time></trkpt><trkpt lat="46.2473117" lon="12.82057"><ele>720.0</ele><time>2026-04-25T13:55:46.562Z</time></trkpt><trkpt lat="46.2473233" lon="12.8206867"><ele>721.6666666666666</ele><time>2026-04-25T13:55:47.562Z</time></trkpt><trkpt lat="46.2473517" lon="12.8207867"><ele>723.3333333333333</ele><time>2026-04-25T13:55:48.562Z</time></trkpt><trkpt lat="46.2473917" lon="12.8208733"><ele>725.0</ele><time>2026-04-25T13:55:49.561Z</time></trkpt><trkpt lat="46.2474217" lon="12.820955"><ele>726.8</ele><time>2026-04-25T13:55:50.562Z</time></trkpt><trkpt lat="46.2474367" lon="12.8211267"><ele>728.6</ele><time>2026-04-25T13:55:52.562Z</time></trkpt><trkpt lat="46.2474583" lon="12.8213083"><ele>730.4000000000001</ele><time>2026-04-25T13:55:54.561Z</time></trkpt><trkpt lat="46.2474717" lon="12.8214183"><ele>732.2</ele><time>2026-04-25T13:55:55.562Z</time></trkpt><trkpt lat="46.2474967" lon="12.8215167"><ele>734.0</ele><time>2026-04-25T13:55:56.562Z</time></trkpt><trkpt lat="46.2475267" lon="12.8216167"><ele>734.0</ele><time>2026-04-25T13:55:57.562Z</time></trkpt><trkpt lat="46.2475433" lon="12.8217133"><ele>734.0</ele><time>2026-04-25T13:55:58.562Z</time></trkpt><trkpt lat="46.2475383" lon="12.8219"><ele>734.0</ele><time>2026-04-25T13:56:00.562Z</time></trkpt><trkpt lat="46.2475117" lon="12.8220083"><ele>734.0</ele><time>2026-04-25T13:56:01.561Z</time></trkpt><trkpt lat="46.2474733" lon="12.8221233"><ele>734.0</ele><time>2026-04-25T13:56:02.562Z</time></trkpt><trkpt lat="46.2474383" lon="12.82222"><ele>734.0</ele><time>2026-04-25T13:56:03.562Z</time></trkpt><trkpt lat="46.247435" lon="12.8223233"><ele>735.3333333333333</ele><time>2026-04-25T13:56:05.562Z</time></trkpt><trkpt lat="46.2474967" lon="12.8223483"><ele>736.6666666666666</ele><time>2026-04-25T13:56:07.561Z</time></trkpt><trkpt lat="46.24756" lon="12.8223467"><ele>738.0</ele><time>2026-04-25T13:56:08.562Z</time></trkpt><trkpt lat="46.247635" lon="12.8223333"><ele>739.3333333333334</ele><time>2026-04-25T13:56:09.562Z</time></trkpt><trkpt lat="46.247715" lon="12.822305"><ele>740.6666666666667</ele><time>2026-04-25T13:56:10.562Z</time></trkpt><trkpt lat="46.2477833" lon="12.822285"><ele>742.0</ele><time>2026-04-25T13:56:11.562Z</time></trkpt><trkpt lat="46.2479067" lon="12.8222967"><ele>742.0</ele><time>2026-04-25T13:56:13.561Z</time></trkpt><trkpt lat="46.24796" lon="12.8223617"><ele>742.0</ele><time>2026-04-25T13:56:14.562Z</time></trkpt><trkpt lat="46.248" lon="12.82244"><ele>742.0</ele><time>2026-04-25T13:56:15.562Z</time></trkpt><trkpt lat="46.2480333" lon="12.82253"><ele>742.0</ele><time>2026-04-25T13:56:16.562Z</time></trkpt><trkpt lat="46.2480683" lon="12.8226383"><ele>742.0</ele><time>2026-04-25T13:56:17.562Z</time></trkpt><trkpt lat="46.2481" lon="12.822755"><ele>742.0</ele><time>2026-04-25T13:56:18.562Z</time></trkpt><trkpt lat="46.2481283" lon="12.82287"><ele>743.5</ele><time>2026-04-25T13:56:19.562Z</time></trkpt><trkpt lat="46.2481417" lon="12.8229833"><ele>745.0</ele><time>2026-04-25T13:56:20.562Z</time></trkpt><trkpt lat="46.2481333" lon="12.823095"><ele>746.5</ele><time>2026-04-25T13:56:21.562Z</time></trkpt><trkpt lat="46.2481117" lon="12.8232133"><ele>748.0</ele><time>2026-04-25T13:56:22.562Z</time></trkpt><trkpt lat="46.248075" lon="12.8233267"><ele>749.5</ele><time>2026-04-25T13:56:23.562Z</time></trkpt><trkpt lat="46.2480433" lon="12.8234267"><ele>751.0</ele><time>2026-04-25T13:56:24.561Z</time></trkpt><trkpt lat="46.24803" lon="12.823525"><ele>751.0</ele><time>2026-04-25T13:56:25.562Z</time></trkpt><trkpt lat="46.2480533" lon="12.8236833"><ele>751.0</ele><time>2026-04-25T13:56:27.561Z</time></trkpt><trkpt lat="46.2480767" lon="12.8238233"><ele>751.0</ele><time>2026-04-25T13:56:29.561Z</time></trkpt><trkpt lat="46.2480483" lon="12.82398"><ele>751.0</ele><time>2026-04-25T13:56:31.562Z</time></trkpt><trkpt lat="46.2480283" lon="12.8240683"><ele>751.0</ele><time>2026-04-25T13:56:32.562Z</time></trkpt><trkpt lat="46.2480017" lon="12.8241767"><ele>751.0</ele><time>2026-04-25T13:56:33.561Z</time></trkpt><trkpt lat="46.24797" lon="12.8243083"><ele>751.0</ele><time>2026-04-25T13:56:34.562Z</time></trkpt><trkpt lat="46.2479217" lon="12.82448"><ele>751.0</ele><time>2026-04-25T13:56:35.561Z</time></trkpt><trkpt lat="46.2478767" lon="12.82466"><ele>751.0</ele><time>2026-04-25T13:56:36.561Z</time></trkpt><trkpt lat="46.2478467" lon="12.8248317"><ele>748.75</ele><time>2026-04-25T13:56:37.561Z</time></trkpt><trkpt lat="46.2478167" lon="12.82501"><ele>746.5</ele><time>2026-04-25T13:56:38.562Z</time></trkpt><trkpt lat="46.2477783" lon="12.82519"><ele>744.25</ele><time>2026-04-25T13:56:39.562Z</time></trkpt><trkpt lat="46.2477383" lon="12.825335"><ele>742.0</ele><time>2026-04-25T13:56:40.56Z</time></trkpt><trkpt lat="46.2477" lon="12.82546"><ele>740.5714285714286</ele><time>2026-04-25T13:56:41.56Z</time></trkpt><trkpt lat="46.2476567" lon="12.8255633"><ele>739.1428571428571</ele><time>2026-04-25T13:56:42.561Z</time></trkpt><trkpt lat="46.2476167" lon="12.8256483"><ele>737.7142857142858</ele><time>2026-04-25T13:56:43.56Z</time></trkpt><trkpt lat="46.24758" lon="12.8257283"><ele>736.2857142857142</ele><time>2026-04-25T13:56:44.561Z</time></trkpt><trkpt lat="46.247565" lon="12.825825"><ele>734.8571428571429</ele><time>2026-04-25T13:56:45.56Z</time></trkpt><trkpt lat="46.247555" lon="12.8259233"><ele>733.4285714285714</ele><time>2026-04-25T13:56:46.56Z</time></trkpt><trkpt lat="46.2475533" lon="12.8260483"><ele>732.0</ele><time>2026-04-25T13:56:48.56Z</time></trkpt><trkpt lat="46.247575" lon="12.8261733"><ele>730.8</ele><time>2026-04-25T13:57:19.561Z</time></trkpt><trkpt lat="46.2475767" lon="12.8262933"><ele>729.6</ele><time>2026-04-25T13:57:47.56Z</time></trkpt><trkpt lat="46.2475583" lon="12.8264933"><ele>728.4</ele><time>2026-04-25T13:57:49.561Z</time></trkpt><trkpt lat="46.2475317" lon="12.8266133"><ele>727.1999999999999</ele><time>2026-04-25T13:57:50.56Z</time></trkpt><trkpt lat="46.247505" lon="12.826755"><ele>726.0</ele><time>2026-04-25T13:57:51.561Z</time></trkpt><trkpt lat="46.24748" lon="12.8269283"><ele>724.25</ele><time>2026-04-25T13:57:52.56Z</time></trkpt><trkpt lat="46.2474683" lon="12.8271017"><ele>722.5</ele><time>2026-04-25T13:57:53.56Z</time></trkpt><trkpt lat="46.2474583" lon="12.8272667"><ele>720.75</ele><time>2026-04-25T13:57:54.561Z</time></trkpt><trkpt lat="46.2474517" lon="12.8274317"><ele>719.0</ele><time>2026-04-25T13:57:55.561Z</time></trkpt><trkpt lat="46.24743" lon="12.8276017"><ele>717.0</ele><time>2026-04-25T13:57:56.561Z</time></trkpt><trkpt lat="46.2474" lon="12.8277533"><ele>715.0</ele><time>2026-04-25T13:57:57.561Z</time></trkpt><trkpt lat="46.2473783" lon="12.827915"><ele>713.0</ele><time>2026-04-25T13:57:58.56Z</time></trkpt><trkpt lat="46.2473667" lon="12.8280867"><ele>711.0</ele><time>2026-04-25T13:57:59.561Z</time></trkpt><trkpt lat="46.2473617" lon="12.828265"><ele>711.0</ele><time>2026-04-25T13:58:00.56Z</time></trkpt><trkpt lat="46.2473483" lon="12.828435"><ele>711.0</ele><time>2026-04-25T13:58:01.56Z</time></trkpt><trkpt lat="46.2473367" lon="12.8285883"><ele>711.0</ele><time>2026-04-25T13:58:02.56Z</time></trkpt><trkpt lat="46.2473417" lon="12.8287183"><ele>711.0</ele><time>2026-04-25T13:58:03.56Z</time></trkpt><trkpt lat="46.247345" lon="12.8288367"><ele>711.0</ele><time>2026-04-25T13:58:04.561Z</time></trkpt><trkpt lat="46.2473867" lon="12.82896"><ele>710.5999999999999</ele><time>2026-04-25T13:58:06.561Z</time></trkpt><trkpt lat="46.2474467" lon="12.8289967"><ele>710.2</ele><time>2026-04-25T13:58:08.561Z</time></trkpt><trkpt lat="46.24756" lon="12.828955"><ele>709.8</ele><time>2026-04-25T13:58:10.561Z</time></trkpt><trkpt lat="46.2476333" lon="12.8289117"><ele>709.4000000000001</ele><time>2026-04-25T13:58:11.561Z</time></trkpt><trkpt lat="46.2477267" lon="12.8288583"><ele>709.0</ele><time>2026-04-25T13:58:12.561Z</time></trkpt><trkpt lat="46.2478167" lon="12.82882"><ele>709.0</ele><time>2026-04-25T13:58:13.561Z</time></trkpt><trkpt lat="46.2478867" lon="12.8287967"><ele>709.0</ele><time>2026-04-25T13:58:14.561Z</time></trkpt><trkpt lat="46.24795" lon="12.8287783"><ele>709.0</ele><time>2026-04-25T13:58:15.56Z</time></trkpt><trkpt lat="46.2480367" lon="12.8287467"><ele>709.0</ele><time>2026-04-25T13:58:17.561Z</time></trkpt><trkpt lat="46.2481033" lon="12.828745"><ele>709.0</ele><time>2026-04-25T13:58:21.561Z</time></trkpt><trkpt lat="46.2481683" lon="12.828725"><ele>709.0</ele><time>2026-04-25T13:58:23.56Z</time></trkpt><trkpt lat="46.24826" lon="12.8286683"><ele>706.0</ele><time>2026-04-25T13:58:25.561Z</time></trkpt><trkpt lat="46.2483733" lon="12.828595"><ele>703.0</ele><time>2026-04-25T13:58:27.561Z</time></trkpt><trkpt lat="46.248465" lon="12.8285567"><ele>700.0</ele><time>2026-04-25T13:58:29.56Z</time></trkpt><trkpt lat="46.2485317" lon="12.8285867"><ele>697.0</ele><time>2026-04-25T13:58:31.56Z</time></trkpt><trkpt lat="46.248625" lon="12.8286067"><ele>694.0</ele><time>2026-04-25T13:58:34.561Z</time></trkpt><trkpt lat="46.2487" lon="12.8286"><ele>694.0</ele><time>2026-04-25T13:58:36.561Z</time></trkpt><trkpt lat="46.2487233" lon="12.8285117"><ele>694.0</ele><time>2026-04-25T13:58:44.561Z</time></trkpt><trkpt lat="46.2487367" lon="12.8283983"><ele>694.0</ele><time>2026-04-25T13:58:47.561Z</time></trkpt><trkpt lat="46.24872" lon="12.8282683"><ele>694.0</ele><time>2026-04-25T13:58:54.561Z</time></trkpt><trkpt lat="46.2487533" lon="12.828155"><ele>694.0</ele><time>2026-04-25T13:58:56.561Z</time></trkpt><trkpt lat="46.2488217" lon="12.828065"><ele>694.0</ele><time>2026-04-25T13:58:58.561Z</time></trkpt><trkpt lat="46.2489083" lon="12.8279983"><ele>692.8333333333334</ele><time>2026-04-25T13:59:00.561Z</time></trkpt><trkpt lat="46.24899" lon="12.8278867"><ele>691.6666666666667</ele><time>2026-04-25T13:59:02.561Z</time></trkpt><trkpt lat="46.2490367" lon="12.827815"><ele>690.5</ele><time>2026-04-25T13:59:03.56Z</time></trkpt><trkpt lat="46.24908" lon="12.8277417"><ele>689.3333333333334</ele><time>2026-04-25T13:59:04.561Z</time></trkpt><trkpt lat="46.2491217" lon="12.8276667"><ele>688.1666666666666</ele><time>2026-04-25T13:59:05.561Z</time></trkpt><trkpt lat="46.2491783" lon="12.8275333"><ele>687.0</ele><time>2026-04-25T13:59:07.56Z</time></trkpt><trkpt lat="46.249235" lon="12.827435"><ele>687.0</ele><time>2026-04-25T13:59:09.561Z</time></trkpt><trkpt lat="46.2492717" lon="12.8273383"><ele>687.0</ele><time>2026-04-25T13:59:11.561Z</time></trkpt><trkpt lat="46.2492983" lon="12.8272217"><ele>687.0</ele><time>2026-04-25T13:59:13.56Z</time></trkpt><trkpt lat="46.249325" lon="12.8270983"><ele>687.0</ele><time>2026-04-25T13:59:15.561Z</time></trkpt><trkpt lat="46.2493383" lon="12.8269683"><ele>687.0</ele><time>2026-04-25T13:59:17.561Z</time></trkpt><trkpt lat="46.24941" lon="12.8267717"><ele>685.0</ele><time>2026-04-25T13:59:29.56Z</time></trkpt><trkpt lat="46.2494933" lon="12.8267017"><ele>683.0</ele><time>2026-04-25T13:59:31.561Z</time></trkpt><trkpt lat="46.24958" lon="12.8266083"><ele>681.0</ele><time>2026-04-25T13:59:33.561Z</time></trkpt><trkpt lat="46.2496567" lon="12.8264983"><ele>679.0</ele><time>2026-04-25T13:59:35.561Z</time></trkpt><trkpt lat="46.2497167" lon="12.8264333"><ele>677.0</ele><time>2026-04-25T13:59:37.561Z</time></trkpt><trkpt lat="46.249795" lon="12.8264567"><ele>675.8333333333333</ele><time>2026-04-25T13:59:40.56Z</time></trkpt><trkpt lat="46.24987" lon="12.8264133"><ele>674.6666666666666</ele><time>2026-04-25T13:59:43.561Z</time></trkpt><trkpt lat="46.249975" lon="12.8264233"><ele>673.5</ele><time>2026-04-25T13:59:46.561Z</time></trkpt><trkpt lat="46.2500433" lon="12.8264767"><ele>672.3333333333334</ele><time>2026-04-25T13:59:48.561Z</time></trkpt><trkpt lat="46.2501017" lon="12.8265267"><ele>671.1666666666667</ele><time>2026-04-25T13:59:50.56Z</time></trkpt><trkpt lat="46.250205" lon="12.8265717"><ele>670.0</ele><time>2026-04-25T14:00:04.561Z</time></trkpt><trkpt lat="46.2501583" lon="12.82651"><ele>670.0</ele><time>2026-04-25T14:00:09.561Z</time></trkpt><trkpt lat="46.2501133" lon="12.8264317"><ele>670.0</ele><time>2026-04-25T14:00:12.561Z</time></trkpt><trkpt lat="46.25004" lon="12.82638"><ele>670.0</ele><time>2026-04-25T14:00:16.56Z</time></trkpt><trkpt lat="46.24997" lon="12.8263833"><ele>670.0</ele><time>2026-04-25T14:00:18.561Z</time></trkpt><trkpt lat="46.2498917" lon="12.8264133"><ele>670.0</ele><time>2026-04-25T14:00:21.56Z</time></trkpt><trkpt lat="46.2498" lon="12.82642"><ele>670.0</ele><time>2026-04-25T14:00:24.561Z</time></trkpt><trkpt lat="46.2497283" lon="12.8263983"><ele>670.9999999999999</ele><time>2026-04-25T14:00:26.56Z</time></trkpt><trkpt lat="46.2496617" lon="12.8264667"><ele>672.0</ele><time>2026-04-25T14:01:06.56Z</time></trkpt><trkpt lat="46.249605" lon="12.8265183"><ele>673.0</ele><time>2026-04-25T14:01:10.561Z</time></trkpt><trkpt lat="46.249545" lon="12.8265783"><ele>674.0</ele><time>2026-04-25T14:01:19.561Z</time></trkpt><trkpt lat="46.2494933" lon="12.8266417"><ele>675.0</ele><time>2026-04-25T14:01:21.562Z</time></trkpt><trkpt lat="46.249425" lon="12.8267183"><ele>675.9999999999999</ele><time>2026-04-25T14:01:23.562Z</time></trkpt><trkpt lat="46.2493733" lon="12.826775"><ele>677.0</ele><time>2026-04-25T14:01:25.561Z</time></trkpt><trkpt lat="46.2493213" lon="12.8268352"><ele>678.6666666666666</ele><time>2026-04-25T14:01:28.694Z</time></trkpt><trkpt lat="46.2493383" lon="12.8269583"><ele>680.3333333333333</ele><time>2026-04-25T14:01:49.561Z</time></trkpt><trkpt lat="46.24932" lon="12.8270667"><ele>682.0</ele><time>2026-04-25T14:01:51.562Z</time></trkpt><trkpt lat="46.2493206" lon="12.8271707"><ele>683.6666666666666</ele><time>2026-04-25T14:01:54.749Z</time></trkpt><trkpt lat="46.2493109" lon="12.8272668"><ele>685.3333333333334</ele><time>2026-04-25T14:01:56.728Z</time></trkpt><trkpt lat="46.2492712" lon="12.8273929"><ele>687.0</ele><time>2026-04-25T14:01:58.825Z</time></trkpt><trkpt lat="46.2492379" lon="12.8274709"><ele>687.0</ele><time>2026-04-25T14:01:59.725Z</time></trkpt><trkpt lat="46.2491901" lon="12.8275748"><ele>687.0</ele><time>2026-04-25T14:02:01.868Z</time></trkpt><trkpt lat="46.24913" lon="12.8277417"><ele>687.0</ele><time>2026-04-25T14:02:03.561Z</time></trkpt><trkpt lat="46.2490617" lon="12.8278783"><ele>687.0</ele><time>2026-04-25T14:02:05.562Z</time></trkpt><trkpt lat="46.24899" lon="12.8279933"><ele>687.0</ele><time>2026-04-25T14:02:07.561Z</time></trkpt><trkpt lat="46.2489133" lon="12.828075"><ele>688.1666666666666</ele><time>2026-04-25T14:02:09.562Z</time></trkpt><trkpt lat="46.2488417" lon="12.8281383"><ele>689.3333333333334</ele><time>2026-04-25T14:02:11.562Z</time></trkpt><trkpt lat="46.2487581" lon="12.8282288"><ele>690.5</ele><time>2026-04-25T14:02:14.562Z</time></trkpt><trkpt lat="46.2487271" lon="12.8283117"><ele>691.6666666666667</ele><time>2026-04-25T14:02:16.562Z</time></trkpt><trkpt lat="46.2487197" lon="12.8284065"><ele>692.8333333333334</ele><time>2026-04-25T14:02:21.561Z</time></trkpt><trkpt lat="46.2487046" lon="12.8285061"><ele>694.0</ele><time>2026-04-25T14:02:27.561Z</time></trkpt><trkpt lat="46.2487844" lon="12.8285864"><ele>694.0</ele><time>2026-04-25T14:02:30.562Z</time></trkpt><trkpt lat="46.2488475" lon="12.8286227"><ele>694.0</ele><time>2026-04-25T14:02:32.562Z</time></trkpt><trkpt lat="46.2489174" lon="12.82856"><ele>694.0</ele><time>2026-04-25T14:02:35.562Z</time></trkpt><trkpt lat="46.2489833" lon="12.8284383"><ele>694.0</ele><time>2026-04-25T14:02:37.561Z</time></trkpt><trkpt lat="46.2490417" lon="12.8283467"><ele>694.0</ele><time>2026-04-25T14:02:39.562Z</time></trkpt><trkpt lat="46.2490983" lon="12.8283017"><ele>694.0</ele><time>2026-04-25T14:02:41.562Z</time></trkpt><trkpt lat="46.2491867" lon="12.8283133"><ele>691.25</ele><time>2026-04-25T14:02:43.561Z</time></trkpt><trkpt lat="46.2492967" lon="12.8283533"><ele>688.5</ele><time>2026-04-25T14:02:45.562Z</time></trkpt><trkpt lat="46.2494083" lon="12.82838"><ele>685.75</ele><time>2026-04-25T14:02:47.561Z</time></trkpt><trkpt lat="46.2495317" lon="12.8284167"><ele>683.0</ele><time>2026-04-25T14:02:49.562Z</time></trkpt><trkpt lat="46.24965" lon="12.82847"><ele>681.4</ele><time>2026-04-25T14:02:51.562Z</time></trkpt><trkpt lat="46.24975" lon="12.82854"><ele>679.8</ele><time>2026-04-25T14:02:53.562Z</time></trkpt><trkpt lat="46.2498183" lon="12.8286533"><ele>678.2</ele><time>2026-04-25T14:02:55.562Z</time></trkpt><trkpt lat="46.249865" lon="12.8288067"><ele>676.6</ele><time>2026-04-25T14:02:57.561Z</time></trkpt><trkpt lat="46.2498783" lon="12.828945"><ele>675.0</ele><time>2026-04-25T14:02:59.561Z</time></trkpt><trkpt lat="46.249895" lon="12.8290433"><ele>674.1428571428571</ele><time>2026-04-25T14:03:01.562Z</time></trkpt><trkpt lat="46.2499583" lon="12.8290467"><ele>673.2857142857143</ele><time>2026-04-25T14:03:20.562Z</time></trkpt><trkpt lat="46.2499683" lon="12.82914"><ele>672.4285714285714</ele><time>2026-04-25T14:03:22.562Z</time></trkpt><trkpt lat="46.2499583" lon="12.8292533"><ele>671.5714285714286</ele><time>2026-04-25T14:03:24.562Z</time></trkpt><trkpt lat="46.2499217" lon="12.8293333"><ele>670.7142857142857</ele><time>2026-04-25T14:03:26.561Z</time></trkpt><trkpt lat="46.2498667" lon="12.8293867"><ele>669.8571428571429</ele><time>2026-04-25T14:03:34.562Z</time></trkpt><trkpt lat="46.2498417" lon="12.8293"><ele>669.0</ele><time>2026-04-25T14:03:43.562Z</time></trkpt><trkpt lat="46.2498817" lon="12.8292233"><ele>668.1428571428571</ele><time>2026-04-25T14:03:46.562Z</time></trkpt><trkpt lat="46.249955" lon="12.8292133"><ele>667.2857142857142</ele><time>2026-04-25T14:03:56.561Z</time></trkpt><trkpt lat="46.2500267" lon="12.8291767"><ele>666.4285714285713</ele><time>2026-04-25T14:03:59.562Z</time></trkpt><trkpt lat="46.250085" lon="12.8291267"><ele>665.5714285714286</ele><time>2026-04-25T14:04:01.562Z</time></trkpt><trkpt lat="46.2501333" lon="12.829065"><ele>664.7142857142857</ele><time>2026-04-25T14:04:06.56Z</time></trkpt><trkpt lat="46.2501633" lon="12.828975"><ele>663.8571428571428</ele><time>2026-04-25T14:04:15.561Z</time></trkpt><trkpt lat="46.2502367" lon="12.8290017"><ele>663.0</ele><time>2026-04-25T14:04:23.561Z</time></trkpt><trkpt lat="46.2503567" lon="12.829085"><ele>663.0</ele><time>2026-04-25T14:04:57.56Z</time></trkpt><trkpt lat="46.25042" lon="12.8291033"><ele>663.0</ele><time>2026-04-25T14:05:07.561Z</time></trkpt><trkpt lat="46.25036" lon="12.8290633"><ele>663.0</ele><time>2026-04-25T14:07:03.561Z</time></trkpt><trkpt lat="46.25029" lon="12.82902"><ele>663.0</ele><time>2026-04-25T14:07:07.561Z</time></trkpt><trkpt lat="46.2502167" lon="12.8290317"><ele>663.0</ele><time>2026-04-25T14:07:10.561Z</time></trkpt><trkpt lat="46.2501233" lon="12.8290683"><ele>663.0</ele><time>2026-04-25T14:07:13.561Z</time></trkpt><trkpt lat="46.2500383" lon="12.829075"><ele>663.0</ele><time>2026-04-25T14:07:16.56Z</time></trkpt><trkpt lat="46.2499267" lon="12.8289817"><ele>663.0</ele><time>2026-04-25T14:07:36.561Z</time></trkpt><trkpt lat="46.2498883" lon="12.828895"><ele>663.0</ele><time>2026-04-25T14:07:38.561Z</time></trkpt><trkpt lat="46.2498633" lon="12.8287733"><ele>663.0</ele><time>2026-04-25T14:07:40.56Z</time></trkpt><trkpt lat="46.2498" lon="12.8286283"><ele>663.0</ele><time>2026-04-25T14:07:42.561Z</time></trkpt><trkpt lat="46.249755" lon="12.82856"><ele>665.0</ele><time>2026-04-25T14:07:43.561Z</time></trkpt><trkpt lat="46.2496967" lon="12.8285"><ele>667.0</ele><time>2026-04-25T14:07:44.56Z</time></trkpt><trkpt lat="46.2496283" lon="12.828455"><ele>669.0</ele><time>2026-04-25T14:07:45.56Z</time></trkpt><trkpt lat="46.249555" lon="12.8284217"><ele>671.0</ele><time>2026-04-25T14:07:46.561Z</time></trkpt><trkpt lat="46.24948" lon="12.8283983"><ele>673.0</ele><time>2026-04-25T14:07:47.561Z</time></trkpt><trkpt lat="46.249405" lon="12.8283783"><ele>675.0</ele><time>2026-04-25T14:07:48.56Z</time></trkpt><trkpt lat="46.2493283" lon="12.828365"><ele>676.6</ele><time>2026-04-25T14:07:49.561Z</time></trkpt><trkpt lat="46.24926" lon="12.8283483"><ele>678.2</ele><time>2026-04-25T14:07:50.56Z</time></trkpt><trkpt lat="46.24914" lon="12.8283267"><ele>679.8</ele><time>2026-04-25T14:07:52.561Z</time></trkpt><trkpt lat="46.2490567" lon="12.8283383"><ele>681.4</ele><time>2026-04-25T14:07:54.561Z</time></trkpt><trkpt lat="46.2489933" lon="12.8284167"><ele>683.0</ele><time>2026-04-25T14:07:56.56Z</time></trkpt><trkpt lat="46.2489233" lon="12.8285383"><ele>684.8333333333333</ele><time>2026-04-25T14:07:58.561Z</time></trkpt><trkpt lat="46.2488867" lon="12.8286167"><ele>686.6666666666666</ele><time>2026-04-25T14:07:59.56Z</time></trkpt><trkpt lat="46.2488467" lon="12.8287567"><ele>688.5</ele><time>2026-04-25T14:08:01.56Z</time></trkpt><trkpt lat="46.2488383" lon="12.828855"><ele>690.3333333333334</ele><time>2026-04-25T14:08:03.561Z</time></trkpt><trkpt lat="46.2487633" lon="12.82885"><ele>692.1666666666667</ele><time>2026-04-25T14:08:38.561Z</time></trkpt><trkpt lat="46.2487083" lon="12.8287783"><ele>694.0</ele><time>2026-04-25T14:08:40.561Z</time></trkpt><trkpt lat="46.2486333" lon="12.82874"><ele>694.0</ele><time>2026-04-25T14:08:42.561Z</time></trkpt><trkpt lat="46.2485283" lon="12.8287583"><ele>694.0</ele><time>2026-04-25T14:08:44.562Z</time></trkpt><trkpt lat="46.2484617" lon="12.8287567"><ele>694.0</ele><time>2026-04-25T14:08:45.562Z</time></trkpt><trkpt lat="46.2483867" lon="12.8287467"><ele>694.0</ele><time>2026-04-25T14:08:46.562Z</time></trkpt><trkpt lat="46.2483083" lon="12.8287467"><ele>694.0</ele><time>2026-04-25T14:08:47.562Z</time></trkpt><trkpt lat="46.2482217" lon="12.8287483"><ele>694.0</ele><time>2026-04-25T14:08:48.562Z</time></trkpt><trkpt lat="46.2481383" lon="12.82874"><ele>696.5</ele><time>2026-04-25T14:08:49.561Z</time></trkpt><trkpt lat="46.2480633" lon="12.8287267"><ele>699.0</ele><time>2026-04-25T14:08:50.562Z</time></trkpt><trkpt lat="46.2479967" lon="12.828725"><ele>701.5</ele><time>2026-04-25T14:08:51.562Z</time></trkpt><trkpt lat="46.2479217" lon="12.8287333"><ele>704.0</ele><time>2026-04-25T14:08:52.561Z</time></trkpt><trkpt lat="46.247845" lon="12.8287633"><ele>706.5</ele><time>2026-04-25T14:08:53.562Z</time></trkpt><trkpt lat="46.2477567" lon="12.8288067"><ele>709.0</ele><time>2026-04-25T14:08:54.562Z</time></trkpt><trkpt lat="46.2476717" lon="12.8288517"><ele>709.0</ele><time>2026-04-25T14:08:55.562Z</time></trkpt><trkpt lat="46.2475967" lon="12.8288917"><ele>709.0</ele><time>2026-04-25T14:08:56.561Z</time></trkpt><trkpt lat="46.2475333" lon="12.8289267"><ele>709.0</ele><time>2026-04-25T14:08:57.561Z</time></trkpt><trkpt lat="46.2474183" lon="12.82896"><ele>709.0</ele><time>2026-04-25T14:08:59.561Z</time></trkpt><trkpt lat="46.2473283" lon="12.8289017"><ele>709.0</ele><time>2026-04-25T14:09:01.562Z</time></trkpt><trkpt lat="46.2472717" lon="12.8287633"><ele>709.3333333333334</ele><time>2026-04-25T14:09:03.562Z</time></trkpt><trkpt lat="46.2472583" lon="12.828665"><ele>709.6666666666667</ele><time>2026-04-25T14:09:04.562Z</time></trkpt><trkpt lat="46.2472767" lon="12.8285617"><ele>710.0</ele><time>2026-04-25T14:09:05.561Z</time></trkpt><trkpt lat="46.2472883" lon="12.82843"><ele>710.3333333333334</ele><time>2026-04-25T14:09:06.562Z</time></trkpt><trkpt lat="46.2473117" lon="12.8283017"><ele>710.6666666666666</ele><time>2026-04-25T14:09:07.561Z</time></trkpt><trkpt lat="46.2473133" lon="12.8281733"><ele>711.0</ele><time>2026-04-25T14:09:08.561Z</time></trkpt><trkpt lat="46.2473117" lon="12.8280433"><ele>711.0</ele><time>2026-04-25T14:09:09.562Z</time></trkpt><trkpt lat="46.2473233" lon="12.8279233"><ele>711.0</ele><time>2026-04-25T14:09:10.561Z</time></trkpt><trkpt lat="46.2473383" lon="12.8278033"><ele>711.0</ele><time>2026-04-25T14:09:11.561Z</time></trkpt><trkpt lat="46.2473717" lon="12.8276883"><ele>711.0</ele><time>2026-04-25T14:09:12.561Z</time></trkpt><trkpt lat="46.2473983" lon="12.8275783"><ele>711.0</ele><time>2026-04-25T14:09:13.561Z</time></trkpt><trkpt lat="46.2474183" lon="12.8274583"><ele>711.0</ele><time>2026-04-25T14:09:14.561Z</time></trkpt><trkpt lat="46.2474367" lon="12.82734"><ele>712.5999999999999</ele><time>2026-04-25T14:09:15.562Z</time></trkpt><trkpt lat="46.247455" lon="12.8272117"><ele>714.2</ele><time>2026-04-25T14:09:16.562Z</time></trkpt><trkpt lat="46.2474667" lon="12.827075"><ele>715.8</ele><time>2026-04-25T14:09:17.562Z</time></trkpt><trkpt lat="46.2474817" lon="12.8269333"><ele>717.4000000000001</ele><time>2026-04-25T14:09:18.561Z</time></trkpt><trkpt lat="46.2475083" lon="12.8268033"><ele>719.0</ele><time>2026-04-25T14:09:19.562Z</time></trkpt><trkpt lat="46.2475367" lon="12.8266733"><ele>720.4000000000001</ele><time>2026-04-25T14:09:20.561Z</time></trkpt><trkpt lat="46.24756" lon="12.8265617"><ele>721.8</ele><time>2026-04-25T14:09:21.561Z</time></trkpt><trkpt lat="46.2475867" lon="12.826425"><ele>723.2</ele><time>2026-04-25T14:09:23.561Z</time></trkpt><trkpt lat="46.2475933" lon="12.8263033"><ele>724.5999999999999</ele><time>2026-04-25T14:09:25.562Z</time></trkpt><trkpt lat="46.247585" lon="12.8261233"><ele>726.0</ele><time>2026-04-25T14:09:39.562Z</time></trkpt><trkpt lat="46.247545" lon="12.8258917"><ele>727.0</ele><time>2026-04-25T14:10:38.562Z</time></trkpt><trkpt lat="46.24755" lon="12.8257817"><ele>728.0</ele><time>2026-04-25T14:10:39.561Z</time></trkpt><trkpt lat="46.2475617" lon="12.8256717"><ele>729.0</ele><time>2026-04-25T14:10:40.561Z</time></trkpt><trkpt lat="46.2475967" lon="12.8255767"><ele>730.0</ele><time>2026-04-25T14:10:41.561Z</time></trkpt><trkpt lat="46.2476417" lon="12.8254783"><ele>731.0</ele><time>2026-04-25T14:10:42.561Z</time></trkpt><trkpt lat="46.24769" lon="12.8253683"><ele>732.0</ele><time>2026-04-25T14:10:43.561Z</time></trkpt><trkpt lat="46.247735" lon="12.8252317"><ele>734.5</ele><time>2026-04-25T14:10:44.562Z</time></trkpt><trkpt lat="46.247775" lon="12.8250317"><ele>737.0</ele><time>2026-04-25T14:10:45.562Z</time></trkpt><trkpt lat="46.2478067" lon="12.824855"><ele>739.5</ele><time>2026-04-25T14:10:46.562Z</time></trkpt><trkpt lat="46.2478433" lon="12.8246917"><ele>742.0</ele><time>2026-04-25T14:10:47.562Z</time></trkpt><trkpt lat="46.2478867" lon="12.8245467"><ele>742.0</ele><time>2026-04-25T14:10:48.561Z</time></trkpt><trkpt lat="46.2479383" lon="12.8244067"><ele>742.0</ele><time>2026-04-25T14:10:49.562Z</time></trkpt><trkpt lat="46.247985" lon="12.8242633"><ele>742.0</ele><time>2026-04-25T14:10:50.561Z</time></trkpt><trkpt lat="46.2480233" lon="12.8241217"><ele>742.0</ele><time>2026-04-25T14:10:51.562Z</time></trkpt><trkpt lat="46.2480567" lon="12.8239967"><ele>742.0</ele><time>2026-04-25T14:10:52.561Z</time></trkpt><trkpt lat="46.2480867" lon="12.8238883"><ele>743.5</ele><time>2026-04-25T14:10:53.562Z</time></trkpt><trkpt lat="46.2481133" lon="12.82379"><ele>745.0</ele><time>2026-04-25T14:10:54.561Z</time></trkpt><trkpt lat="46.248125" lon="12.8236283"><ele>746.5</ele><time>2026-04-25T14:10:56.562Z</time></trkpt><trkpt lat="46.2481083" lon="12.82345"><ele>748.0</ele><time>2026-04-25T14:10:58.562Z</time></trkpt><trkpt lat="46.2481183" lon="12.823355"><ele>749.5</ele><time>2026-04-25T14:10:59.562Z</time></trkpt><trkpt lat="46.248155" lon="12.823265"><ele>751.0</ele><time>2026-04-25T14:11:00.561Z</time></trkpt><trkpt lat="46.2481667" lon="12.823145"><ele>749.5</ele><time>2026-04-25T14:11:01.562Z</time></trkpt><trkpt lat="46.248175" lon="12.8230233"><ele>748.0</ele><time>2026-04-25T14:11:02.561Z</time></trkpt><trkpt lat="46.2481683" lon="12.8229"><ele>746.5</ele><time>2026-04-25T14:11:03.562Z</time></trkpt><trkpt lat="46.248155" lon="12.82278"><ele>745.0</ele><time>2026-04-25T14:11:04.562Z</time></trkpt><trkpt lat="46.2481283" lon="12.822655"><ele>743.5</ele><time>2026-04-25T14:11:05.561Z</time></trkpt><trkpt lat="46.2480967" lon="12.8225267"><ele>742.0</ele><time>2026-04-25T14:11:06.561Z</time></trkpt><trkpt lat="46.2480533" lon="12.8224183"><ele>742.0</ele><time>2026-04-25T14:11:07.562Z</time></trkpt><trkpt lat="46.2480117" lon="12.8223117"><ele>742.0</ele><time>2026-04-25T14:11:08.561Z</time></trkpt><trkpt lat="46.24795" lon="12.8222683"><ele>742.0</ele><time>2026-04-25T14:11:09.561Z</time></trkpt><trkpt lat="46.2478867" lon="12.82224"><ele>742.0</ele><time>2026-04-25T14:11:10.562Z</time></trkpt><trkpt lat="46.24781" lon="12.8222367"><ele>742.0</ele><time>2026-04-25T14:11:11.562Z</time></trkpt><trkpt lat="46.2477267" lon="12.8222517"><ele>742.0</ele><time>2026-04-25T14:11:12.562Z</time></trkpt><trkpt lat="46.2476483" lon="12.8222717"><ele>742.0</ele><time>2026-04-25T14:11:13.562Z</time></trkpt><trkpt lat="46.2475783" lon="12.8222783"><ele>742.0</ele><time>2026-04-25T14:11:14.561Z</time></trkpt><trkpt lat="46.2474783" lon="12.8222667"><ele>742.0</ele><time>2026-04-25T14:11:16.56Z</time></trkpt><trkpt lat="46.247455" lon="12.8221683"><ele>742.0</ele><time>2026-04-25T14:11:19.561Z</time></trkpt><trkpt lat="46.247525" lon="12.8219867"><ele>742.0</ele><time>2026-04-25T14:11:21.56Z</time></trkpt><trkpt lat="46.2475633" lon="12.8218567"><ele>740.6666666666667</ele><time>2026-04-25T14:11:22.561Z</time></trkpt><trkpt lat="46.2475883" lon="12.8217333"><ele>739.3333333333334</ele><time>2026-04-25T14:11:23.561Z</time></trkpt><trkpt lat="46.247605" lon="12.8216233"><ele>738.0</ele><time>2026-04-25T14:11:24.561Z</time></trkpt><trkpt lat="46.2475933" lon="12.8215067"><ele>736.6666666666666</ele><time>2026-04-25T14:11:25.561Z</time></trkpt><trkpt lat="46.24757" lon="12.8213917"><ele>735.3333333333333</ele><time>2026-04-25T14:11:26.56Z</time></trkpt><trkpt lat="46.2475383" lon="12.821275"><ele>734.0</ele><time>2026-04-25T14:11:27.56Z</time></trkpt><trkpt lat="46.2475117" lon="12.8211667"><ele>734.0</ele><time>2026-04-25T14:11:28.561Z</time></trkpt><trkpt lat="46.247505" lon="12.821065"><ele>734.0</ele><time>2026-04-25T14:11:29.56Z</time></trkpt><trkpt lat="46.2474867" lon="12.8209"><ele>734.0</ele><time>2026-04-25T14:11:31.561Z</time></trkpt><trkpt lat="46.24742" lon="12.8207483"><ele>734.0</ele><time>2026-04-25T14:11:33.56Z</time></trkpt><trkpt lat="46.2473767" lon="12.82067"><ele>734.0</ele><time>2026-04-25T14:11:34.561Z</time></trkpt><trkpt lat="46.2473367" lon="12.8205833"><ele>732.5</ele><time>2026-04-25T14:11:35.56Z</time></trkpt><trkpt lat="46.2473117" lon="12.8204833"><ele>731.0</ele><time>2026-04-25T14:11:36.561Z</time></trkpt><trkpt lat="46.2473117" lon="12.82037"><ele>729.5</ele><time>2026-04-25T14:11:37.561Z</time></trkpt><trkpt lat="46.2473317" lon="12.82024"><ele>728.0</ele><time>2026-04-25T14:11:38.561Z</time></trkpt><trkpt lat="46.24735" lon="12.82011"><ele>726.5</ele><time>2026-04-25T14:11:39.56Z</time></trkpt><trkpt lat="46.2473533" lon="12.820005"><ele>725.0</ele><time>2026-04-25T14:11:40.561Z</time></trkpt><trkpt lat="46.2473467" lon="12.8199133"><ele>726.2</ele><time>2026-04-25T14:11:41.561Z</time></trkpt><trkpt lat="46.2473033" lon="12.81984"><ele>727.4</ele><time>2026-04-25T14:11:42.561Z</time></trkpt><trkpt lat="46.247245" lon="12.8197617"><ele>728.5999999999999</ele><time>2026-04-25T14:11:43.56Z</time></trkpt><trkpt lat="46.2471717" lon="12.819645"><ele>729.8</ele><time>2026-04-25T14:11:44.561Z</time></trkpt><trkpt lat="46.2470983" lon="12.819515"><ele>731.0</ele><time>2026-04-25T14:11:45.561Z</time></trkpt><trkpt lat="46.247025" lon="12.8194067"><ele>731.0</ele><time>2026-04-25T14:11:46.56Z</time></trkpt><trkpt lat="46.2469483" lon="12.81932"><ele>731.0</ele><time>2026-04-25T14:11:47.56Z</time></trkpt><trkpt lat="46.24687" lon="12.8192517"><ele>731.0</ele><time>2026-04-25T14:11:48.561Z</time></trkpt><trkpt lat="46.2467883" lon="12.8191917"><ele>731.0</ele><time>2026-04-25T14:11:49.561Z</time></trkpt><trkpt lat="46.2467083" lon="12.8191317"><ele>731.0</ele><time>2026-04-25T14:11:50.56Z</time></trkpt><trkpt lat="46.24663" lon="12.81907"><ele>731.0</ele><time>2026-04-25T14:11:51.561Z</time></trkpt><trkpt lat="46.2465483" lon="12.8190217"><ele>731.0</ele><time>2026-04-25T14:11:52.56Z</time></trkpt><trkpt lat="46.2464717" lon="12.8189783"><ele>731.0</ele><time>2026-04-25T14:11:53.56Z</time></trkpt><trkpt lat="46.2463933" lon="12.81894"><ele>731.0</ele><time>2026-04-25T14:11:54.561Z</time></trkpt><trkpt lat="46.24632" lon="12.8189"><ele>731.0</ele><time>2026-04-25T14:11:55.561Z</time></trkpt><trkpt lat="46.24626" lon="12.8188567"><ele>731.0</ele><time>2026-04-25T14:11:56.561Z</time></trkpt><trkpt lat="46.2462033" lon="12.8187083"><ele>731.0</ele><time>2026-04-25T14:11:58.561Z</time></trkpt><trkpt lat="46.2462167" lon="12.8185283"><ele>731.0</ele><time>2026-04-25T14:12:00.561Z</time></trkpt><trkpt lat="46.246275" lon="12.81838"><ele>731.0</ele><time>2026-04-25T14:12:01.561Z</time></trkpt><trkpt lat="46.2463433" lon="12.8182317"><ele>731.0</ele><time>2026-04-25T14:12:02.561Z</time></trkpt><trkpt lat="46.2464267" lon="12.818095"><ele>729.8</ele><time>2026-04-25T14:12:03.561Z</time></trkpt><trkpt lat="46.2465067" lon="12.8179717"><ele>728.5999999999999</ele><time>2026-04-25T14:12:04.561Z</time></trkpt><trkpt lat="46.2465917" lon="12.8178667"><ele>727.4</ele><time>2026-04-25T14:12:05.561Z</time></trkpt><trkpt lat="46.246675" lon="12.8177717"><ele>726.2</ele><time>2026-04-25T14:12:06.56Z</time></trkpt><trkpt lat="46.2467633" lon="12.8176883"><ele>725.0</ele><time>2026-04-25T14:12:07.56Z</time></trkpt><trkpt lat="46.2468483" lon="12.8175983"><ele>725.0</ele><time>2026-04-25T14:12:08.561Z</time></trkpt><trkpt lat="46.2469317" lon="12.8174967"><ele>725.0</ele><time>2026-04-25T14:12:09.56Z</time></trkpt><trkpt lat="46.2470083" lon="12.8173867"><ele>725.0</ele><time>2026-04-25T14:12:10.56Z</time></trkpt><trkpt lat="46.247085" lon="12.8172567"><ele>725.0</ele><time>2026-04-25T14:12:11.561Z</time></trkpt><trkpt lat="46.2471567" lon="12.8171133"><ele>725.0</ele><time>2026-04-25T14:12:12.561Z</time></trkpt><trkpt lat="46.2472367" lon="12.816955"><ele>725.0</ele><time>2026-04-25T14:12:13.561Z</time></trkpt><trkpt lat="46.2473267" lon="12.816795"><ele>725.0</ele><time>2026-04-25T14:12:14.56Z</time></trkpt><trkpt lat="46.2474267" lon="12.8166517"><ele>725.0</ele><time>2026-04-25T14:12:15.561Z</time></trkpt><trkpt lat="46.2475217" lon="12.8165233"><ele>724.0</ele><time>2026-04-25T14:12:16.561Z</time></trkpt><trkpt lat="46.2476183" lon="12.8164133"><ele>723.0</ele><time>2026-04-25T14:12:17.561Z</time></trkpt><trkpt lat="46.24771" lon="12.8163267"><ele>722.0</ele><time>2026-04-25T14:12:18.56Z</time></trkpt><trkpt lat="46.2477983" lon="12.8162517"><ele>721.0</ele><time>2026-04-25T14:12:19.561Z</time></trkpt><trkpt lat="46.247885" lon="12.816185"><ele>720.0</ele><time>2026-04-25T14:12:20.561Z</time></trkpt><trkpt lat="46.2479933" lon="12.816105"><ele>720.0</ele><time>2026-04-25T14:12:21.561Z</time></trkpt><trkpt lat="46.2481017" lon="12.8160117"><ele>720.0</ele><time>2026-04-25T14:12:22.56Z</time></trkpt><trkpt lat="46.24819" lon="12.8159133"><ele>720.0</ele><time>2026-04-25T14:12:23.561Z</time></trkpt><trkpt lat="46.2482733" lon="12.8158"><ele>720.0</ele><time>2026-04-25T14:12:24.56Z</time></trkpt><trkpt lat="46.24834" lon="12.8156733"><ele>718.6</ele><time>2026-04-25T14:12:25.561Z</time></trkpt><trkpt lat="46.2484117" lon="12.81556"><ele>717.2</ele><time>2026-04-25T14:12:26.56Z</time></trkpt><trkpt lat="46.24847" lon="12.8154483"><ele>715.8</ele><time>2026-04-25T14:12:27.561Z</time></trkpt><trkpt lat="46.2485233" lon="12.8153367"><ele>714.4</ele><time>2026-04-25T14:12:28.56Z</time></trkpt><trkpt lat="46.248565" lon="12.8152117"><ele>713.0</ele><time>2026-04-25T14:12:29.56Z</time></trkpt><trkpt lat="46.2486017" lon="12.815075"><ele>717.0</ele><time>2026-04-25T14:12:30.561Z</time></trkpt><trkpt lat="46.24863" lon="12.81492"><ele>721.0</ele><time>2026-04-25T14:12:31.561Z</time></trkpt><trkpt lat="46.2486533" lon="12.81476"><ele>725.0</ele><time>2026-04-25T14:12:32.561Z</time></trkpt><trkpt lat="46.248685" lon="12.8146067"><ele>729.0</ele><time>2026-04-25T14:12:33.561Z</time></trkpt><trkpt lat="46.2487133" lon="12.8144583"><ele>733.0</ele><time>2026-04-25T14:12:34.561Z</time></trkpt><trkpt lat="46.2487417" lon="12.8143117"><ele>733.6666666666667</ele><time>2026-04-25T14:12:35.561Z</time></trkpt><trkpt lat="46.2487583" lon="12.8141617"><ele>734.3333333333334</ele><time>2026-04-25T14:12:36.56Z</time></trkpt><trkpt lat="46.24876" lon="12.8140133"><ele>735.0</ele><time>2026-04-25T14:12:37.561Z</time></trkpt><trkpt lat="46.248755" lon="12.8138883"><ele>735.6666666666666</ele><time>2026-04-25T14:12:38.56Z</time></trkpt><trkpt lat="46.2487367" lon="12.8137783"><ele>736.3333333333333</ele><time>2026-04-25T14:12:39.561Z</time></trkpt><trkpt lat="46.2487017" lon="12.81369"><ele>737.0</ele><time>2026-04-25T14:12:40.561Z</time></trkpt><trkpt lat="46.2486583" lon="12.8136083"><ele>737.0</ele><time>2026-04-25T14:12:41.56Z</time></trkpt><trkpt lat="46.24858" lon="12.8135367"><ele>737.0</ele><time>2026-04-25T14:12:42.561Z</time></trkpt><trkpt lat="46.2485067" lon="12.813445"><ele>737.0</ele><time>2026-04-25T14:12:43.561Z</time></trkpt><trkpt lat="46.2484417" lon="12.81336"><ele>737.0</ele><time>2026-04-25T14:12:44.56Z</time></trkpt><trkpt lat="46.2483783" lon="12.8132917"><ele>737.0</ele><time>2026-04-25T14:12:45.56Z</time></trkpt><trkpt lat="46.2483217" lon="12.8132283"><ele>737.0</ele><time>2026-04-25T14:12:46.56Z</time></trkpt><trkpt lat="46.248265" lon="12.8131767"><ele>737.6</ele><time>2026-04-25T14:12:47.56Z</time></trkpt><trkpt lat="46.24817" lon="12.8130733"><ele>738.2</ele><time>2026-04-25T14:12:49.561Z</time></trkpt><trkpt lat="46.24815" lon="12.8129467"><ele>738.8</ele><time>2026-04-25T14:12:51.561Z</time></trkpt><trkpt lat="46.248225" lon="12.812805"><ele>739.4</ele><time>2026-04-25T14:12:53.561Z</time></trkpt><trkpt lat="46.24828" lon="12.8126883"><ele>740.0</ele><time>2026-04-25T14:12:54.56Z</time></trkpt><trkpt lat="46.2483417" lon="12.8125383"><ele>740.0</ele><time>2026-04-25T14:12:55.561Z</time></trkpt><trkpt lat="46.2483983" lon="12.8123833"><ele>740.0</ele><time>2026-04-25T14:12:56.56Z</time></trkpt><trkpt lat="46.248455" lon="12.8122333"><ele>740.0</ele><time>2026-04-25T14:12:57.561Z</time></trkpt><trkpt lat="46.248515" lon="12.8120817"><ele>740.0</ele><time>2026-04-25T14:12:58.561Z</time></trkpt><trkpt lat="46.2485833" lon="12.8119383"><ele>743.4</ele><time>2026-04-25T14:12:59.56Z</time></trkpt><trkpt lat="46.2486567" lon="12.8117983"><ele>746.8</ele><time>2026-04-25T14:13:00.561Z</time></trkpt><trkpt lat="46.2487183" lon="12.811665"><ele>750.2</ele><time>2026-04-25T14:13:01.56Z</time></trkpt><trkpt lat="46.24877" lon="12.8115317"><ele>753.6</ele><time>2026-04-25T14:13:02.561Z</time></trkpt><trkpt lat="46.2488167" lon="12.8114017"><ele>757.0</ele><time>2026-04-25T14:13:03.561Z</time></trkpt><trkpt lat="46.2488833" lon="12.8112833"><ele>757.0</ele><time>2026-04-25T14:13:04.561Z</time></trkpt><trkpt lat="46.2489583" lon="12.81118"><ele>757.0</ele><time>2026-04-25T14:13:05.56Z</time></trkpt><trkpt lat="46.2490233" lon="12.8110933"><ele>757.0</ele><time>2026-04-25T14:13:06.561Z</time></trkpt><trkpt lat="46.2490783" lon="12.8110133"><ele>757.0</ele><time>2026-04-25T14:13:07.56Z</time></trkpt><trkpt lat="46.24912" lon="12.8109367"><ele>757.0</ele><time>2026-04-25T14:13:08.56Z</time></trkpt><trkpt lat="46.249155" lon="12.8107883"><ele>757.0</ele><time>2026-04-25T14:13:10.561Z</time></trkpt><trkpt lat="46.2491167" lon="12.8106883"><ele>756.8</ele><time>2026-04-25T14:13:11.561Z</time></trkpt><trkpt lat="46.24907" lon="12.810585"><ele>756.6</ele><time>2026-04-25T14:13:12.561Z</time></trkpt><trkpt lat="46.24901" lon="12.81045"><ele>756.4</ele><time>2026-04-25T14:13:13.561Z</time></trkpt><trkpt lat="46.2489567" lon="12.8103"><ele>756.1999999999999</ele><time>2026-04-25T14:13:14.561Z</time></trkpt><trkpt lat="46.248905" lon="12.8101583"><ele>756.0</ele><time>2026-04-25T14:13:15.561Z</time></trkpt><trkpt lat="46.2488483" lon="12.81004"><ele>756.0</ele><time>2026-04-25T14:13:16.561Z</time></trkpt><trkpt lat="46.2487933" lon="12.809935"><ele>756.0</ele><time>2026-04-25T14:13:17.561Z</time></trkpt><trkpt lat="46.2487233" lon="12.8098433"><ele>756.0</ele><time>2026-04-25T14:13:18.561Z</time></trkpt><trkpt lat="46.2486667" lon="12.809745"><ele>756.0</ele><time>2026-04-25T14:13:19.56Z</time></trkpt><trkpt lat="46.2486167" lon="12.809635"><ele>756.0</ele><time>2026-04-25T14:13:20.561Z</time></trkpt><trkpt lat="46.24857" lon="12.809505"><ele>756.0</ele><time>2026-04-25T14:13:21.561Z</time></trkpt><trkpt lat="46.24853" lon="12.8093683"><ele>756.0</ele><time>2026-04-25T14:13:22.561Z</time></trkpt><trkpt lat="46.24849" lon="12.8092233"><ele>756.0</ele><time>2026-04-25T14:13:23.561Z</time></trkpt><trkpt lat="46.248455" lon="12.8090817"><ele>756.0</ele><time>2026-04-25T14:13:24.561Z</time></trkpt><trkpt lat="46.24843" lon="12.808975"><ele>756.0</ele><time>2026-04-25T14:13:25.561Z</time></trkpt><trkpt lat="46.2484033" lon="12.8088717"><ele>753.5999999999999</ele><time>2026-04-25T14:13:26.561Z</time></trkpt><trkpt lat="46.2484483" lon="12.8087283"><ele>751.2</ele><time>2026-04-25T14:13:28.561Z</time></trkpt><trkpt lat="46.2485267" lon="12.80863"><ele>748.8</ele><time>2026-04-25T14:13:30.56Z</time></trkpt><trkpt lat="46.2485783" lon="12.808525"><ele>746.4000000000001</ele><time>2026-04-25T14:13:32.561Z</time></trkpt><trkpt lat="46.2485883" lon="12.80832"><ele>744.0</ele><time>2026-04-25T14:13:34.561Z</time></trkpt><trkpt lat="46.248565" lon="12.8081267"><ele>743.5</ele><time>2026-04-25T14:13:35.56Z</time></trkpt><trkpt lat="46.2485583" lon="12.8079517"><ele>743.0</ele><time>2026-04-25T14:13:36.561Z</time></trkpt><trkpt lat="46.2485583" lon="12.807785"><ele>742.5</ele><time>2026-04-25T14:13:37.561Z</time></trkpt><trkpt lat="46.2485467" lon="12.8076233"><ele>742.0</ele><time>2026-04-25T14:13:38.561Z</time></trkpt><trkpt lat="46.248555" lon="12.8074683"><ele>742.0</ele><time>2026-04-25T14:13:39.561Z</time></trkpt><trkpt lat="46.2485617" lon="12.8073217"><ele>742.0</ele><time>2026-04-25T14:13:40.56Z</time></trkpt><trkpt lat="46.2485833" lon="12.807175"><ele>742.0</ele><time>2026-04-25T14:13:41.56Z</time></trkpt><trkpt lat="46.2486" lon="12.807025"><ele>742.0</ele><time>2026-04-25T14:13:42.56Z</time></trkpt><trkpt lat="46.2486183" lon="12.8068717"><ele>742.0</ele><time>2026-04-25T14:13:43.561Z</time></trkpt><trkpt lat="46.248645" lon="12.8067183"><ele>740.6</ele><time>2026-04-25T14:13:44.561Z</time></trkpt><trkpt lat="46.2486733" lon="12.80657"><ele>739.2</ele><time>2026-04-25T14:13:45.561Z</time></trkpt><trkpt lat="46.2486917" lon="12.8064167"><ele>737.8</ele><time>2026-04-25T14:13:46.56Z</time></trkpt><trkpt lat="46.2487" lon="12.80626"><ele>736.4</ele><time>2026-04-25T14:13:47.561Z</time></trkpt><trkpt lat="46.24871" lon="12.80611"><ele>735.0</ele><time>2026-04-25T14:13:48.561Z</time></trkpt><trkpt lat="46.2487117" lon="12.8059767"><ele>732.5</ele><time>2026-04-25T14:13:49.561Z</time></trkpt><trkpt lat="46.2487017" lon="12.8058583"><ele>730.0</ele><time>2026-04-25T14:13:50.561Z</time></trkpt><trkpt lat="46.24869" lon="12.8057483"><ele>727.5</ele><time>2026-04-25T14:13:51.56Z</time></trkpt><trkpt lat="46.2486717" lon="12.8056467"><ele>725.0</ele><time>2026-04-25T14:13:52.561Z</time></trkpt><trkpt lat="46.2486433" lon="12.8055583"><ele>722.5</ele><time>2026-04-25T14:13:53.56Z</time></trkpt><trkpt lat="46.2485517" lon="12.805425"><ele>720.0</ele><time>2026-04-25T14:13:55.561Z</time></trkpt><trkpt lat="46.24848" lon="12.805375"><ele>720.0</ele><time>2026-04-25T14:13:56.561Z</time></trkpt><trkpt lat="46.248405" lon="12.8053117"><ele>720.0</ele><time>2026-04-25T14:13:57.561Z</time></trkpt><trkpt lat="46.2483033" lon="12.8052417"><ele>720.0</ele><time>2026-04-25T14:13:58.561Z</time></trkpt><trkpt lat="46.2481633" lon="12.8051717"><ele>720.0</ele><time>2026-04-25T14:13:59.561Z</time></trkpt><trkpt lat="46.2480467" lon="12.805105"><ele>718.25</ele><time>2026-04-25T14:14:00.561Z</time></trkpt><trkpt lat="46.24794" lon="12.8050433"><ele>716.5</ele><time>2026-04-25T14:14:01.561Z</time></trkpt><trkpt lat="46.24783" lon="12.804985"><ele>714.75</ele><time>2026-04-25T14:14:02.561Z</time></trkpt><trkpt lat="46.24773" lon="12.804915"><ele>713.0</ele><time>2026-04-25T14:14:03.56Z</time></trkpt><trkpt lat="46.2476317" lon="12.80484"><ele>713.0</ele><time>2026-04-25T14:14:04.56Z</time></trkpt><trkpt lat="46.2475417" lon="12.804765"><ele>713.0</ele><time>2026-04-25T14:14:05.561Z</time></trkpt><trkpt lat="46.24745" lon="12.80468"><ele>713.0</ele><time>2026-04-25T14:14:06.561Z</time></trkpt><trkpt lat="46.24736" lon="12.8045833"><ele>713.0</ele><time>2026-04-25T14:14:07.56Z</time></trkpt><trkpt lat="46.24727" lon="12.8044833"><ele>713.0</ele><time>2026-04-25T14:14:08.561Z</time></trkpt><trkpt lat="46.247185" lon="12.8043967"><ele>711.5999999999999</ele><time>2026-04-25T14:14:09.561Z</time></trkpt><trkpt lat="46.247095" lon="12.8043117"><ele>710.1999999999999</ele><time>2026-04-25T14:14:10.56Z</time></trkpt><trkpt lat="46.247" lon="12.8042267"><ele>708.8</ele><time>2026-04-25T14:14:11.56Z</time></trkpt><trkpt lat="46.2469083" lon="12.8041483"><ele>707.4</ele><time>2026-04-25T14:14:12.56Z</time></trkpt><trkpt lat="46.2468283" lon="12.8040733"><ele>706.0</ele><time>2026-04-25T14:14:13.561Z</time></trkpt><trkpt lat="46.2467517" lon="12.8039967"><ele>706.0</ele><time>2026-04-25T14:14:14.561Z</time></trkpt><trkpt lat="46.2466717" lon="12.8039083"><ele>706.0</ele><time>2026-04-25T14:14:15.56Z</time></trkpt><trkpt lat="46.246595" lon="12.8038233"><ele>706.0</ele><time>2026-04-25T14:14:16.56Z</time></trkpt><trkpt lat="46.246515" lon="12.8037317"><ele>706.0</ele><time>2026-04-25T14:14:17.561Z</time></trkpt><trkpt lat="46.246425" lon="12.8036517"><ele>706.0</ele><time>2026-04-25T14:14:18.561Z</time></trkpt><trkpt lat="46.2463267" lon="12.803555"><ele>705.1999999999999</ele><time>2026-04-25T14:14:19.56Z</time></trkpt><trkpt lat="46.2462333" lon="12.8034667"><ele>704.4</ele><time>2026-04-25T14:14:20.561Z</time></trkpt><trkpt lat="46.2461517" lon="12.803385"><ele>703.6</ele><time>2026-04-25T14:14:21.561Z</time></trkpt><trkpt lat="46.246075" lon="12.8033017"><ele>702.8</ele><time>2026-04-25T14:14:22.561Z</time></trkpt><trkpt lat="46.2459967" lon="12.803215"><ele>702.0</ele><time>2026-04-25T14:14:23.561Z</time></trkpt><trkpt lat="46.245915" lon="12.8031283"><ele>702.0</ele><time>2026-04-25T14:14:24.561Z</time></trkpt><trkpt lat="46.2458467" lon="12.8030217"><ele>702.0</ele><time>2026-04-25T14:14:25.56Z</time></trkpt><trkpt lat="46.245765" lon="12.8028983"><ele>702.0</ele><time>2026-04-25T14:14:26.561Z</time></trkpt><trkpt lat="46.2456817" lon="12.8028083"><ele>702.0</ele><time>2026-04-25T14:14:27.561Z</time></trkpt><trkpt lat="46.2456083" lon="12.8027317"><ele>702.0</ele><time>2026-04-25T14:14:28.561Z</time></trkpt><trkpt lat="46.2455267" lon="12.802655"><ele>701.0</ele><time>2026-04-25T14:14:29.561Z</time></trkpt><trkpt lat="46.24544" lon="12.8025833"><ele>700.0</ele><time>2026-04-25T14:14:30.561Z</time></trkpt><trkpt lat="46.2453333" lon="12.80252"><ele>699.0</ele><time>2026-04-25T14:14:31.56Z</time></trkpt><trkpt lat="46.2452367" lon="12.8024533"><ele>698.0</ele><time>2026-04-25T14:14:32.56Z</time></trkpt><trkpt lat="46.2451583" lon="12.8024017"><ele>697.0</ele><time>2026-04-25T14:14:33.561Z</time></trkpt><trkpt lat="46.2450917" lon="12.8023633"><ele>697.0</ele><time>2026-04-25T14:14:34.561Z</time></trkpt><trkpt lat="46.2450317" lon="12.8023267"><ele>697.0</ele><time>2026-04-25T14:14:35.561Z</time></trkpt><trkpt lat="46.2449533" lon="12.8022867"><ele>697.0</ele><time>2026-04-25T14:14:37.56Z</time></trkpt><trkpt lat="46.24493" lon="12.8021867"><ele>697.0</ele><time>2026-04-25T14:15:51.561Z</time></trkpt><trkpt lat="46.2448583" lon="12.8020867"><ele>697.0</ele><time>2026-04-25T14:17:54.561Z</time></trkpt><trkpt lat="46.244805" lon="12.8020333"><ele>697.0</ele><time>2026-04-25T14:17:55.562Z</time></trkpt><trkpt lat="46.24475" lon="12.80196"><ele>695.4000000000001</ele><time>2026-04-25T14:17:56.562Z</time></trkpt><trkpt lat="46.2446767" lon="12.8018717"><ele>693.8000000000001</ele><time>2026-04-25T14:17:57.561Z</time></trkpt><trkpt lat="46.244595" lon="12.80178"><ele>692.2</ele><time>2026-04-25T14:17:58.561Z</time></trkpt><trkpt lat="46.2445183" lon="12.8016917"><ele>690.6</ele><time>2026-04-25T14:17:59.562Z</time></trkpt><trkpt lat="46.24445" lon="12.8016"><ele>689.0</ele><time>2026-04-25T14:18:00.562Z</time></trkpt><trkpt lat="46.2443717" lon="12.801505"><ele>689.0</ele><time>2026-04-25T14:18:01.562Z</time></trkpt><trkpt lat="46.244295" lon="12.8014017"><ele>689.0</ele><time>2026-04-25T14:18:02.562Z</time></trkpt><trkpt lat="46.2442217" lon="12.80129"><ele>689.0</ele><time>2026-04-25T14:18:03.561Z</time></trkpt><trkpt lat="46.244145" lon="12.8011733"><ele>689.0</ele><time>2026-04-25T14:18:04.561Z</time></trkpt><trkpt lat="46.2440633" lon="12.801055"><ele>689.0</ele><time>2026-04-25T14:18:05.562Z</time></trkpt><trkpt lat="46.24399" lon="12.8009467"><ele>688.6</ele><time>2026-04-25T14:18:06.561Z</time></trkpt><trkpt lat="46.2439083" lon="12.80084"><ele>688.2</ele><time>2026-04-25T14:18:07.562Z</time></trkpt><trkpt lat="46.2438283" lon="12.8007283"><ele>687.8000000000001</ele><time>2026-04-25T14:18:08.562Z</time></trkpt><trkpt lat="46.2437433" lon="12.8006267"><ele>687.4000000000001</ele><time>2026-04-25T14:18:09.562Z</time></trkpt><trkpt lat="46.2436533" lon="12.8005417"><ele>687.0</ele><time>2026-04-25T14:18:10.561Z</time></trkpt><trkpt lat="46.2435667" lon="12.8004517"><ele>687.0</ele><time>2026-04-25T14:18:11.562Z</time></trkpt><trkpt lat="46.24349" lon="12.8003617"><ele>687.0</ele><time>2026-04-25T14:18:12.562Z</time></trkpt><trkpt lat="46.2434217" lon="12.8002617"><ele>687.0</ele><time>2026-04-25T14:18:13.562Z</time></trkpt><trkpt lat="46.2433683" lon="12.8001583"><ele>687.0</ele><time>2026-04-25T14:18:14.562Z</time></trkpt><trkpt lat="46.2433067" lon="12.8000233"><ele>687.0</ele><time>2026-04-25T14:18:15.561Z</time></trkpt><trkpt lat="46.2432367" lon="12.79987"><ele>685.0</ele><time>2026-04-25T14:18:16.561Z</time></trkpt><trkpt lat="46.2431833" lon="12.7997067"><ele>683.0</ele><time>2026-04-25T14:18:17.562Z</time></trkpt><trkpt lat="46.2431383" lon="12.7995617"><ele>681.0</ele><time>2026-04-25T14:18:18.562Z</time></trkpt><trkpt lat="46.2431033" lon="12.7993883"><ele>679.0</ele><time>2026-04-25T14:18:19.562Z</time></trkpt><trkpt lat="46.243075" lon="12.7992233"><ele>679.0</ele><time>2026-04-25T14:18:20.561Z</time></trkpt><trkpt lat="46.24305" lon="12.7990717"><ele>679.0</ele><time>2026-04-25T14:18:21.561Z</time></trkpt><trkpt lat="46.2430233" lon="12.7989367"><ele>679.0</ele><time>2026-04-25T14:18:22.562Z</time></trkpt><trkpt lat="46.2429883" lon="12.7988117"><ele>679.0</ele><time>2026-04-25T14:18:23.562Z</time></trkpt><trkpt lat="46.242945" lon="12.7986817"><ele>679.0</ele><time>2026-04-25T14:18:24.561Z</time></trkpt><trkpt lat="46.2428983" lon="12.798525"><ele>677.5</ele><time>2026-04-25T14:18:25.56Z</time></trkpt><trkpt lat="46.2428583" lon="12.7983533"><ele>676.0</ele><time>2026-04-25T14:18:26.561Z</time></trkpt><trkpt lat="46.242825" lon="12.798195"><ele>674.5</ele><time>2026-04-25T14:18:27.56Z</time></trkpt><trkpt lat="46.24278" lon="12.79802"><ele>673.0</ele><time>2026-04-25T14:18:28.561Z</time></trkpt><trkpt lat="46.2427367" lon="12.79782"><ele>670.5</ele><time>2026-04-25T14:18:29.56Z</time></trkpt><trkpt lat="46.2426867" lon="12.7976083"><ele>668.0</ele><time>2026-04-25T14:18:30.56Z</time></trkpt><trkpt lat="46.2426433" lon="12.7974017"><ele>665.5</ele><time>2026-04-25T14:18:31.56Z</time></trkpt><trkpt lat="46.2425967" lon="12.7972183"><ele>663.0</ele><time>2026-04-25T14:18:32.561Z</time></trkpt><trkpt lat="46.2425617" lon="12.79705"><ele>663.0</ele><time>2026-04-25T14:18:33.561Z</time></trkpt><trkpt lat="46.24252" lon="12.7969117"><ele>663.0</ele><time>2026-04-25T14:18:34.561Z</time></trkpt><trkpt lat="46.24249" lon="12.79677"><ele>663.0</ele><time>2026-04-25T14:18:35.56Z</time></trkpt><trkpt lat="46.2424683" lon="12.796625"><ele>663.0</ele><time>2026-04-25T14:18:36.561Z</time></trkpt><trkpt lat="46.24245" lon="12.7964867"><ele>663.0</ele><time>2026-04-25T14:18:37.56Z</time></trkpt><trkpt lat="46.2424283" lon="12.7963483"><ele>663.0</ele><time>2026-04-25T14:18:38.561Z</time></trkpt><trkpt lat="46.24241" lon="12.7962217"><ele>663.0</ele><time>2026-04-25T14:18:39.56Z</time></trkpt><trkpt lat="46.242395" lon="12.7961017"><ele>663.0</ele><time>2026-04-25T14:18:40.561Z</time></trkpt><trkpt lat="46.24239" lon="12.7959983"><ele>663.0</ele><time>2026-04-25T14:18:41.56Z</time></trkpt><trkpt lat="46.2423917" lon="12.795905"><ele>663.0</ele><time>2026-04-25T14:18:42.561Z</time></trkpt><trkpt lat="46.24242" lon="12.7957483"><ele>663.0</ele><time>2026-04-25T14:18:44.561Z</time></trkpt><trkpt lat="46.2424267" lon="12.7955817"><ele>663.8333333333334</ele><time>2026-04-25T14:18:46.561Z</time></trkpt><trkpt lat="46.2424083" lon="12.7954917"><ele>664.6666666666666</ele><time>2026-04-25T14:18:47.56Z</time></trkpt><trkpt lat="46.2423683" lon="12.79539"><ele>665.5</ele><time>2026-04-25T14:18:48.561Z</time></trkpt><trkpt lat="46.2423233" lon="12.7952833"><ele>666.3333333333333</ele><time>2026-04-25T14:18:49.56Z</time></trkpt><trkpt lat="46.242285" lon="12.7951717"><ele>667.1666666666666</ele><time>2026-04-25T14:18:50.56Z</time></trkpt><trkpt lat="46.2422517" lon="12.7950433"><ele>668.0</ele><time>2026-04-25T14:18:51.561Z</time></trkpt><trkpt lat="46.2422183" lon="12.7949"><ele>669.5</ele><time>2026-04-25T14:18:52.56Z</time></trkpt><trkpt lat="46.2421817" lon="12.7947533"><ele>671.0</ele><time>2026-04-25T14:18:53.56Z</time></trkpt><trkpt lat="46.2421383" lon="12.7945983"><ele>672.5</ele><time>2026-04-25T14:18:54.56Z</time></trkpt><trkpt lat="46.2420817" lon="12.794445"><ele>674.0</ele><time>2026-04-25T14:18:55.561Z</time></trkpt><trkpt lat="46.2420183" lon="12.794295"><ele>674.0</ele><time>2026-04-25T14:18:56.561Z</time></trkpt><trkpt lat="46.2419567" lon="12.794145"><ele>674.0</ele><time>2026-04-25T14:18:57.561Z</time></trkpt><trkpt lat="46.2418983" lon="12.793995"><ele>674.0</ele><time>2026-04-25T14:18:58.56Z</time></trkpt><trkpt lat="46.2418383" lon="12.793835"><ele>674.0</ele><time>2026-04-25T14:18:59.56Z</time></trkpt><trkpt lat="46.2417767" lon="12.79366"><ele>675.0</ele><time>2026-04-25T14:19:00.561Z</time></trkpt><trkpt lat="46.2417083" lon="12.7934833"><ele>676.0</ele><time>2026-04-25T14:19:01.56Z</time></trkpt><trkpt lat="46.2416317" lon="12.7933167"><ele>677.0</ele><time>2026-04-25T14:19:02.561Z</time></trkpt><trkpt lat="46.241545" lon="12.79316"><ele>678.0</ele><time>2026-04-25T14:19:03.56Z</time></trkpt><trkpt lat="46.2414533" lon="12.7930083"><ele>679.4</ele><time>2026-04-25T14:19:04.561Z</time></trkpt><trkpt lat="46.24137" lon="12.79288"><ele>680.8</ele><time>2026-04-25T14:19:05.561Z</time></trkpt><trkpt lat="46.2413067" lon="12.79277"><ele>682.2</ele><time>2026-04-25T14:19:06.561Z</time></trkpt><trkpt lat="46.2412483" lon="12.792685"><ele>683.6</ele><time>2026-04-25T14:19:07.56Z</time></trkpt><trkpt lat="46.2411983" lon="12.7926117"><ele>685.0</ele><time>2026-04-25T14:19:08.561Z</time></trkpt><trkpt lat="46.2411217" lon="12.7925"><ele>685.0</ele><time>2026-04-25T14:19:10.56Z</time></trkpt><trkpt lat="46.2410567" lon="12.7924117"><ele>685.0</ele><time>2026-04-25T14:19:12.56Z</time></trkpt><trkpt lat="46.2409833" lon="12.7924033"><ele>685.0</ele><time>2026-04-25T14:19:15.56Z</time></trkpt><trkpt lat="46.2409233" lon="12.792535"><ele>685.0</ele><time>2026-04-25T14:20:06.561Z</time></trkpt><trkpt lat="46.24087" lon="12.79263"><ele>685.0</ele><time>2026-04-25T14:20:08.561Z</time></trkpt><trkpt lat="46.2407767" lon="12.7927483"><ele>685.6</ele><time>2026-04-25T14:20:10.56Z</time></trkpt><trkpt lat="46.2407333" lon="12.792825"><ele>686.2</ele><time>2026-04-25T14:20:11.561Z</time></trkpt><trkpt lat="46.240695" lon="12.7929067"><ele>686.8</ele><time>2026-04-25T14:20:12.56Z</time></trkpt><trkpt lat="46.2406433" lon="12.79305"><ele>687.4</ele><time>2026-04-25T14:20:14.56Z</time></trkpt><trkpt lat="46.2405867" lon="12.79317"><ele>688.0</ele><time>2026-04-25T14:20:16.56Z</time></trkpt><trkpt lat="46.2405183" lon="12.793295"><ele>693.8</ele><time>2026-04-25T14:20:18.561Z</time></trkpt><trkpt lat="46.2404467" lon="12.7934233"><ele>699.5999999999999</ele><time>2026-04-25T14:20:20.561Z</time></trkpt><trkpt lat="46.240375" lon="12.7935867"><ele>705.4000000000001</ele><time>2026-04-25T14:20:22.56Z</time></trkpt><trkpt lat="46.2403417" lon="12.7936683"><ele>711.2</ele><time>2026-04-25T14:20:23.561Z</time></trkpt><trkpt lat="46.2402833" lon="12.7938333"><ele>717.0</ele><time>2026-04-25T14:20:25.56Z</time></trkpt><trkpt lat="46.2402583" lon="12.7939333"><ele>718.5</ele><time>2026-04-25T14:20:26.561Z</time></trkpt><trkpt lat="46.2402367" lon="12.794025"><ele>720.0</ele><time>2026-04-25T14:20:27.561Z</time></trkpt><trkpt lat="46.2402267" lon="12.7941167"><ele>721.5</ele><time>2026-04-25T14:20:28.561Z</time></trkpt><trkpt lat="46.2401867" lon="12.7942533"><ele>723.0</ele><time>2026-04-25T14:20:30.56Z</time></trkpt><trkpt lat="46.2401483" lon="12.794365"><ele>724.5</ele><time>2026-04-25T14:20:32.561Z</time></trkpt><trkpt lat="46.2401317" lon="12.7945167"><ele>726.0</ele><time>2026-04-25T14:20:34.56Z</time></trkpt><trkpt lat="46.24014" lon="12.7946717"><ele>727.5714285714286</ele><time>2026-04-25T14:20:36.56Z</time></trkpt><trkpt lat="46.240145" lon="12.79477"><ele>729.1428571428571</ele><time>2026-04-25T14:20:37.56Z</time></trkpt><trkpt lat="46.2401483" lon="12.7948767"><ele>730.7142857142858</ele><time>2026-04-25T14:20:38.561Z</time></trkpt><trkpt lat="46.2401467" lon="12.7949867"><ele>732.2857142857142</ele><time>2026-04-25T14:20:39.561Z</time></trkpt><trkpt lat="46.2401567" lon="12.7950983"><ele>733.8571428571429</ele><time>2026-04-25T14:20:40.56Z</time></trkpt><trkpt lat="46.2401583" lon="12.7952067"><ele>735.4285714285714</ele><time>2026-04-25T14:20:41.561Z</time></trkpt><trkpt lat="46.2401583" lon="12.7953083"><ele>737.0</ele><time>2026-04-25T14:20:42.561Z</time></trkpt><trkpt lat="46.2401583" lon="12.795405"><ele>738.4000000000001</ele><time>2026-04-25T14:20:43.561Z</time></trkpt><trkpt lat="46.2401283" lon="12.795555"><ele>739.8000000000001</ele><time>2026-04-25T14:20:45.561Z</time></trkpt><trkpt lat="46.240075" lon="12.79573"><ele>741.2</ele><time>2026-04-25T14:20:47.561Z</time></trkpt><trkpt lat="46.2400417" lon="12.7958333"><ele>742.6</ele><time>2026-04-25T14:20:48.56Z</time></trkpt><trkpt lat="46.2400083" lon="12.7959433"><ele>744.0</ele><time>2026-04-25T14:20:49.561Z</time></trkpt><trkpt lat="46.239975" lon="12.79605"><ele>746.0</ele><time>2026-04-25T14:20:50.56Z</time></trkpt><trkpt lat="46.2399383" lon="12.79615"><ele>748.0</ele><time>2026-04-25T14:20:51.561Z</time></trkpt><trkpt lat="46.2399133" lon="12.7962483"><ele>750.0</ele><time>2026-04-25T14:20:52.561Z</time></trkpt><trkpt lat="46.2398967" lon="12.7963617"><ele>752.0</ele><time>2026-04-25T14:20:53.561Z</time></trkpt><trkpt lat="46.2398983" lon="12.7965183"><ele>754.0</ele><time>2026-04-25T14:20:55.561Z</time></trkpt><trkpt lat="46.2399283" lon="12.7966317"><ele>756.0</ele><time>2026-04-25T14:20:57.56Z</time></trkpt><trkpt lat="46.23996" lon="12.7967183"><ele>756.0</ele><time>2026-04-25T14:20:59.561Z</time></trkpt><trkpt lat="46.2399683" lon="12.7968233"><ele>756.0</ele><time>2026-04-25T14:21:01.56Z</time></trkpt><trkpt lat="46.23997" lon="12.796925"><ele>756.0</ele><time>2026-04-25T14:21:03.56Z</time></trkpt><trkpt lat="46.23996" lon="12.7970433"><ele>756.0</ele><time>2026-04-25T14:21:06.561Z</time></trkpt><trkpt lat="46.2399433" lon="12.7971517"><ele>756.0</ele><time>2026-04-25T14:21:08.561Z</time></trkpt><trkpt lat="46.239945" lon="12.7972967"><ele>756.0</ele><time>2026-04-25T14:21:10.56Z</time></trkpt><trkpt lat="46.2399483" lon="12.797445"><ele>757.5999999999999</ele><time>2026-04-25T14:21:12.561Z</time></trkpt><trkpt lat="46.239935" lon="12.7976267"><ele>759.2</ele><time>2026-04-25T14:21:14.56Z</time></trkpt><trkpt lat="46.2399267" lon="12.7977183"><ele>760.8</ele><time>2026-04-25T14:21:15.56Z</time></trkpt><trkpt lat="46.239915" lon="12.7978167"><ele>762.4000000000001</ele><time>2026-04-25T14:21:16.56Z</time></trkpt><trkpt lat="46.239895" lon="12.797985"><ele>764.0</ele><time>2026-04-25T14:21:18.561Z</time></trkpt><trkpt lat="46.2398883" lon="12.7981667"><ele>766.3333333333333</ele><time>2026-04-25T14:21:20.561Z</time></trkpt><trkpt lat="46.2398783" lon="12.79833"><ele>768.6666666666666</ele><time>2026-04-25T14:21:22.561Z</time></trkpt><trkpt lat="46.2398744" lon="12.7984221"><ele>771.0</ele><time>2026-04-25T14:21:23.561Z</time></trkpt><trkpt lat="46.2398739" lon="12.7985153"><ele>773.3333333333333</ele><time>2026-04-25T14:21:24.561Z</time></trkpt><trkpt lat="46.2398857" lon="12.7986542"><ele>775.6666666666666</ele><time>2026-04-25T14:21:26.561Z</time></trkpt><trkpt lat="46.2398983" lon="12.7987833"><ele>778.0</ele><time>2026-04-25T14:21:28.561Z</time></trkpt><trkpt lat="46.2399217" lon="12.79894"><ele>781.4</ele><time>2026-04-25T14:21:30.561Z</time></trkpt><trkpt lat="46.2399367" lon="12.7990983"><ele>784.8</ele><time>2026-04-25T14:21:32.56Z</time></trkpt><trkpt lat="46.239975" lon="12.7992117"><ele>788.2</ele><time>2026-04-25T14:21:34.56Z</time></trkpt><trkpt lat="46.2400017" lon="12.799345"><ele>791.6</ele><time>2026-04-25T14:21:36.561Z</time></trkpt><trkpt lat="46.24001" lon="12.7994967"><ele>795.0</ele><time>2026-04-25T14:21:38.56Z</time></trkpt><trkpt lat="46.2400233" lon="12.7996417"><ele>797.3333333333334</ele><time>2026-04-25T14:21:40.56Z</time></trkpt><trkpt lat="46.2400167" lon="12.79974"><ele>799.6666666666667</ele><time>2026-04-25T14:21:42.56Z</time></trkpt><trkpt lat="46.239935" lon="12.79974"><ele>802.0</ele><time>2026-04-25T14:21:45.561Z</time></trkpt><trkpt lat="46.2398817" lon="12.7996833"><ele>804.3333333333334</ele><time>2026-04-25T14:21:46.56Z</time></trkpt><trkpt lat="46.2398333" lon="12.799625"><ele>806.6666666666667</ele><time>2026-04-25T14:21:47.561Z</time></trkpt><trkpt lat="46.23974" lon="12.799535"><ele>809.0</ele><time>2026-04-25T14:21:49.56Z</time></trkpt><trkpt lat="46.2396867" lon="12.79946"><ele>816.0000000000001</ele><time>2026-04-25T14:21:51.561Z</time></trkpt><trkpt lat="46.23962" lon="12.79941"><ele>823.0</ele><time>2026-04-25T14:21:53.561Z</time></trkpt><trkpt lat="46.2395567" lon="12.7995"><ele>830.0</ele><time>2026-04-25T14:21:57.561Z</time></trkpt><trkpt lat="46.2395533" lon="12.799605"><ele>837.0</ele><time>2026-04-25T14:21:59.56Z</time></trkpt><trkpt lat="46.2395517" lon="12.79972"><ele>844.0000000000001</ele><time>2026-04-25T14:22:02.561Z</time></trkpt><trkpt lat="46.23956" lon="12.7998267"><ele>851.0</ele><time>2026-04-25T14:22:04.561Z</time></trkpt><trkpt lat="46.2395533" lon="12.7999817"><ele>851.0</ele><time>2026-04-25T14:22:06.56Z</time></trkpt><trkpt lat="46.23955" lon="12.8000733"><ele>851.0</ele><time>2026-04-25T14:22:07.561Z</time></trkpt><trkpt lat="46.239555" lon="12.800225"><ele>851.0</ele><time>2026-04-25T14:22:09.561Z</time></trkpt><trkpt lat="46.2395717" lon="12.8003667"><ele>851.0</ele><time>2026-04-25T14:22:11.56Z</time></trkpt><trkpt lat="46.23957" lon="12.8005183"><ele>851.0</ele><time>2026-04-25T14:22:13.56Z</time></trkpt><trkpt lat="46.2395833" lon="12.8006733"><ele>853.8333333333334</ele><time>2026-04-25T14:22:15.56Z</time></trkpt><trkpt lat="46.2395767" lon="12.800805"><ele>856.6666666666667</ele><time>2026-04-25T14:22:17.561Z</time></trkpt><trkpt lat="46.2395233" lon="12.8008967"><ele>859.5</ele><time>2026-04-25T14:22:19.56Z</time></trkpt><trkpt lat="46.239466" lon="12.8009355"><ele>862.3333333333333</ele><time>2026-04-25T14:22:21.56Z</time></trkpt><trkpt lat="46.2394233" lon="12.80103"><ele>865.1666666666666</ele><time>2026-04-25T14:22:25.561Z</time></trkpt><trkpt lat="46.2394567" lon="12.800945"><ele>868.0</ele><time>2026-04-25T14:28:41.562Z</time></trkpt><trkpt lat="46.23952" lon="12.80088"><ele>868.0</ele><time>2026-04-25T14:28:46.561Z</time></trkpt><trkpt lat="46.239575" lon="12.8008083"><ele>868.0</ele><time>2026-04-25T14:28:48.561Z</time></trkpt><trkpt lat="46.2396067" lon="12.8007217"><ele>868.0</ele><time>2026-04-25T14:28:50.562Z</time></trkpt><trkpt lat="46.2396117" lon="12.80062"><ele>868.0</ele><time>2026-04-25T14:28:52.561Z</time></trkpt><trkpt lat="46.2396067" lon="12.80052"><ele>868.0</ele><time>2026-04-25T14:28:54.561Z</time></trkpt><trkpt lat="46.2395933" lon="12.8003883"><ele>868.0</ele><time>2026-04-25T14:28:57.562Z</time></trkpt><trkpt lat="46.239575" lon="12.8002933"><ele>868.0</ele><time>2026-04-25T14:28:59.562Z</time></trkpt><trkpt lat="46.2395633" lon="12.800195"><ele>865.1666666666666</ele><time>2026-04-25T14:29:01.562Z</time></trkpt><trkpt lat="46.239555" lon="12.8000833"><ele>862.3333333333333</ele><time>2026-04-25T14:29:03.562Z</time></trkpt><trkpt lat="46.2395617" lon="12.7999667"><ele>859.5</ele><time>2026-04-25T14:29:05.562Z</time></trkpt><trkpt lat="46.2395767" lon="12.79984"><ele>856.6666666666667</ele><time>2026-04-25T14:29:07.561Z</time></trkpt><trkpt lat="46.2395767" lon="12.7997417"><ele>853.8333333333334</ele><time>2026-04-25T14:29:09.562Z</time></trkpt><trkpt lat="46.2395833" lon="12.7996033"><ele>851.0</ele><time>2026-04-25T14:29:12.562Z</time></trkpt><trkpt lat="46.2395883" lon="12.7995017"><ele>851.0000000000001</ele><time>2026-04-25T14:29:14.561Z</time></trkpt><trkpt lat="46.239595" lon="12.7993833"><ele>851.0</ele><time>2026-04-25T14:29:17.562Z</time></trkpt><trkpt lat="46.23966" lon="12.799395"><ele>851.0</ele><time>2026-04-25T14:29:20.562Z</time></trkpt><trkpt lat="46.23971" lon="12.7994517"><ele>851.0</ele><time>2026-04-25T14:29:22.561Z</time></trkpt><trkpt lat="46.239755" lon="12.7995283"><ele>851.0000000000001</ele><time>2026-04-25T14:29:24.562Z</time></trkpt><trkpt lat="46.23982" lon="12.7995933"><ele>851.0</ele><time>2026-04-25T14:29:26.562Z</time></trkpt><trkpt lat="46.2399017" lon="12.7996817"><ele>844.0000000000001</ele><time>2026-04-25T14:29:28.562Z</time></trkpt><trkpt lat="46.2399533" lon="12.7997483"><ele>837.0</ele><time>2026-04-25T14:29:30.562Z</time></trkpt><trkpt lat="46.240035" lon="12.7997483"><ele>830.0</ele><time>2026-04-25T14:29:33.562Z</time></trkpt><trkpt lat="46.2400633" lon="12.79962"><ele>823.0</ele><time>2026-04-25T14:29:36.562Z</time></trkpt><trkpt lat="46.24006" lon="12.7995033"><ele>816.0000000000001</ele><time>2026-04-25T14:29:38.561Z</time></trkpt><trkpt lat="46.240055" lon="12.7993717"><ele>809.0</ele><time>2026-04-25T14:29:40.561Z</time></trkpt><trkpt lat="46.2400333" lon="12.799255"><ele>806.6666666666667</ele><time>2026-04-25T14:29:42.561Z</time></trkpt><trkpt lat="46.2399933" lon="12.79914"><ele>804.3333333333334</ele><time>2026-04-25T14:29:44.562Z</time></trkpt><trkpt lat="46.23997" lon="12.7990333"><ele>802.0</ele><time>2026-04-25T14:29:46.562Z</time></trkpt><trkpt lat="46.2399483" lon="12.7989117"><ele>799.6666666666667</ele><time>2026-04-25T14:29:48.562Z</time></trkpt><trkpt lat="46.2399433" lon="12.7987967"><ele>797.3333333333334</ele><time>2026-04-25T14:29:50.561Z</time></trkpt><trkpt lat="46.2399383" lon="12.7986783"><ele>795.0</ele><time>2026-04-25T14:29:52.562Z</time></trkpt><trkpt lat="46.23993" lon="12.7985333"><ele>791.6</ele><time>2026-04-25T14:29:54.561Z</time></trkpt><trkpt lat="46.2399283" lon="12.7983867"><ele>788.2</ele><time>2026-04-25T14:29:56.561Z</time></trkpt><trkpt lat="46.2399317" lon="12.79824"><ele>784.8</ele><time>2026-04-25T14:29:58.562Z</time></trkpt><trkpt lat="46.2399333" lon="12.7980967"><ele>781.4</ele><time>2026-04-25T14:30:00.562Z</time></trkpt><trkpt lat="46.2399417" lon="12.797945"><ele>778.0</ele><time>2026-04-25T14:30:02.561Z</time></trkpt><trkpt lat="46.2399533" lon="12.7977733"><ele>778.0</ele><time>2026-04-25T14:30:04.562Z</time></trkpt><trkpt lat="46.23996" lon="12.7976733"><ele>778.0</ele><time>2026-04-25T14:30:05.561Z</time></trkpt><trkpt lat="46.2399633" lon="12.79758"><ele>778.0</ele><time>2026-04-25T14:30:06.562Z</time></trkpt><trkpt lat="46.2399633" lon="12.7974"><ele>778.0</ele><time>2026-04-25T14:30:08.562Z</time></trkpt><trkpt lat="46.2399683" lon="12.7972317"><ele>778.0</ele><time>2026-04-25T14:30:10.562Z</time></trkpt><trkpt lat="46.23998" lon="12.7971083"><ele>775.6666666666666</ele><time>2026-04-25T14:30:12.561Z</time></trkpt><trkpt lat="46.2399883" lon="12.7970067"><ele>773.3333333333333</ele><time>2026-04-25T14:30:15.56Z</time></trkpt><trkpt lat="46.23999" lon="12.796875"><ele>771.0</ele><time>2026-04-25T14:30:18.561Z</time></trkpt><trkpt lat="46.2399883" lon="12.7967817"><ele>768.6666666666666</ele><time>2026-04-25T14:30:20.56Z</time></trkpt><trkpt lat="46.2399683" lon="12.7966783"><ele>766.3333333333333</ele><time>2026-04-25T14:30:23.56Z</time></trkpt><trkpt lat="46.2399733" lon="12.7965633"><ele>764.0</ele><time>2026-04-25T14:30:26.56Z</time></trkpt><trkpt lat="46.2399733" lon="12.7964533"><ele>762.4000000000001</ele><time>2026-04-25T14:30:28.561Z</time></trkpt><trkpt lat="46.23997" lon="12.79632"><ele>760.8</ele><time>2026-04-25T14:30:30.561Z</time></trkpt><trkpt lat="46.2399917" lon="12.79616"><ele>759.2</ele><time>2026-04-25T14:30:32.56Z</time></trkpt><trkpt lat="46.240035" lon="12.796005"><ele>757.5999999999999</ele><time>2026-04-25T14:30:34.561Z</time></trkpt><trkpt lat="46.2400817" lon="12.7958533"><ele>756.0</ele><time>2026-04-25T14:30:36.561Z</time></trkpt><trkpt lat="46.2401283" lon="12.7957083"><ele>753.5999999999999</ele><time>2026-04-25T14:30:38.56Z</time></trkpt><trkpt lat="46.2401767" lon="12.7955817"><ele>751.2</ele><time>2026-04-25T14:30:40.56Z</time></trkpt><trkpt lat="46.2401933" lon="12.79546"><ele>748.8</ele><time>2026-04-25T14:30:42.561Z</time></trkpt><trkpt lat="46.2402117" lon="12.795315"><ele>746.4000000000001</ele><time>2026-04-25T14:30:44.561Z</time></trkpt><trkpt lat="46.24022" lon="12.7951633"><ele>744.0</ele><time>2026-04-25T14:30:46.561Z</time></trkpt><trkpt lat="46.2402217" lon="12.79499"><ele>742.6</ele><time>2026-04-25T14:30:48.561Z</time></trkpt><trkpt lat="46.2402167" lon="12.7948967"><ele>741.2</ele><time>2026-04-25T14:30:49.56Z</time></trkpt><trkpt lat="46.24021" lon="12.7947433"><ele>739.8000000000001</ele><time>2026-04-25T14:30:51.561Z</time></trkpt><trkpt lat="46.2402083" lon="12.7945983"><ele>738.4000000000001</ele><time>2026-04-25T14:30:53.56Z</time></trkpt><trkpt lat="46.2402083" lon="12.794445"><ele>737.0</ele><time>2026-04-25T14:30:55.561Z</time></trkpt><trkpt lat="46.24023" lon="12.7943317"><ele>734.8</ele><time>2026-04-25T14:30:57.561Z</time></trkpt><trkpt lat="46.2402667" lon="12.7942317"><ele>732.6</ele><time>2026-04-25T14:30:59.56Z</time></trkpt><trkpt lat="46.2402983" lon="12.794125"><ele>730.4</ele><time>2026-04-25T14:31:01.56Z</time></trkpt><trkpt lat="46.2403117" lon="12.79399"><ele>728.1999999999999</ele><time>2026-04-25T14:31:03.561Z</time></trkpt><trkpt lat="46.2403483" lon="12.7938517"><ele>726.0</ele><time>2026-04-25T14:31:05.56Z</time></trkpt><trkpt lat="46.2404" lon="12.7937083"><ele>726.0</ele><time>2026-04-25T14:31:07.56Z</time></trkpt><trkpt lat="46.2404483" lon="12.7935867"><ele>726.0</ele><time>2026-04-25T14:31:09.561Z</time></trkpt><trkpt lat="46.2404967" lon="12.7934767"><ele>726.0</ele><time>2026-04-25T14:31:11.56Z</time></trkpt><trkpt lat="46.2405483" lon="12.7933783"><ele>726.0</ele><time>2026-04-25T14:31:13.561Z</time></trkpt><trkpt lat="46.2406067" lon="12.7932667"><ele>726.0</ele><time>2026-04-25T14:31:15.56Z</time></trkpt><trkpt lat="46.240665" lon="12.793155"><ele>716.5</ele><time>2026-04-25T14:31:17.56Z</time></trkpt><trkpt lat="46.2407217" lon="12.7930167"><ele>707.0</ele><time>2026-04-25T14:31:19.561Z</time></trkpt><trkpt lat="46.2407683" lon="12.79286"><ele>697.5</ele><time>2026-04-25T14:31:21.56Z</time></trkpt><trkpt lat="46.2408383" lon="12.7927283"><ele>688.0</ele><time>2026-04-25T14:31:23.561Z</time></trkpt><trkpt lat="46.24093" lon="12.7926233"><ele>687.4</ele><time>2026-04-25T14:31:25.561Z</time></trkpt><trkpt lat="46.240985" lon="12.7925017"><ele>686.8</ele><time>2026-04-25T14:31:27.56Z</time></trkpt><trkpt lat="46.2410133" lon="12.7923933"><ele>686.2</ele><time>2026-04-25T14:31:29.561Z</time></trkpt><trkpt lat="46.2409983" lon="12.7922767"><ele>685.6</ele><time>2026-04-25T14:31:31.56Z</time></trkpt><trkpt lat="46.2409367" lon="12.7921233"><ele>685.0</ele><time>2026-04-25T14:31:33.561Z</time></trkpt><trkpt lat="46.2409" lon="12.79203"><ele>685.0</ele><time>2026-04-25T14:31:34.561Z</time></trkpt><trkpt lat="46.2408567" lon="12.7919217"><ele>685.0</ele><time>2026-04-25T14:31:35.561Z</time></trkpt><trkpt lat="46.240815" lon="12.7918017"><ele>685.0</ele><time>2026-04-25T14:31:36.561Z</time></trkpt><trkpt lat="46.2407783" lon="12.7916733"><ele>685.0</ele><time>2026-04-25T14:31:37.56Z</time></trkpt><trkpt lat="46.24074" lon="12.7915367"><ele>685.0</ele><time>2026-04-25T14:31:38.561Z</time></trkpt><trkpt lat="46.2407033" lon="12.7913967"><ele>683.8</ele><time>2026-04-25T14:31:39.56Z</time></trkpt><trkpt lat="46.2406683" lon="12.79125"><ele>682.6</ele><time>2026-04-25T14:31:40.561Z</time></trkpt><trkpt lat="46.2406317" lon="12.7910983"><ele>681.4000000000001</ele><time>2026-04-25T14:31:41.561Z</time></trkpt><trkpt lat="46.2405917" lon="12.790945"><ele>680.2</ele><time>2026-04-25T14:31:42.561Z</time></trkpt><trkpt lat="46.2405433" lon="12.79079"><ele>679.0</ele><time>2026-04-25T14:31:43.561Z</time></trkpt><trkpt lat="46.24049" lon="12.7906367"><ele>679.5</ele><time>2026-04-25T14:31:44.561Z</time></trkpt><trkpt lat="46.2404367" lon="12.7904833"><ele>680.0</ele><time>2026-04-25T14:31:45.561Z</time></trkpt><trkpt lat="46.24038" lon="12.79033"><ele>680.5</ele><time>2026-04-25T14:31:46.56Z</time></trkpt><trkpt lat="46.2403267" lon="12.7901767"><ele>681.0</ele><time>2026-04-25T14:31:47.561Z</time></trkpt><trkpt lat="46.2402767" lon="12.790025"><ele>681.0</ele><time>2026-04-25T14:31:48.56Z</time></trkpt><trkpt lat="46.24023" lon="12.78988"><ele>681.0</ele><time>2026-04-25T14:31:49.561Z</time></trkpt><trkpt lat="46.2401833" lon="12.7897367"><ele>681.0</ele><time>2026-04-25T14:31:50.561Z</time></trkpt><trkpt lat="46.2401333" lon="12.7896033"><ele>681.0</ele><time>2026-04-25T14:31:51.561Z</time></trkpt><trkpt lat="46.2400733" lon="12.7894733"><ele>681.0</ele><time>2026-04-25T14:31:52.561Z</time></trkpt><trkpt lat="46.2400067" lon="12.7893417"><ele>678.0</ele><time>2026-04-25T14:31:53.56Z</time></trkpt><trkpt lat="46.23994" lon="12.7892067"><ele>675.0</ele><time>2026-04-25T14:31:54.561Z</time></trkpt><trkpt lat="46.2398717" lon="12.78907"><ele>672.0</ele><time>2026-04-25T14:31:55.561Z</time></trkpt><trkpt lat="46.2397983" lon="12.7889383"><ele>669.0</ele><time>2026-04-25T14:31:56.561Z</time></trkpt><trkpt lat="46.2397267" lon="12.7887983"><ele>673.5</ele><time>2026-04-25T14:31:57.56Z</time></trkpt><trkpt lat="46.2396783" lon="12.788645"><ele>678.0</ele><time>2026-04-25T14:31:58.561Z</time></trkpt><trkpt lat="46.2396333" lon="12.7884883"><ele>682.5</ele><time>2026-04-25T14:31:59.561Z</time></trkpt><trkpt lat="46.2395817" lon="12.7883283"><ele>687.0</ele><time>2026-04-25T14:32:00.561Z</time></trkpt><trkpt lat="46.2395133" lon="12.7881667"><ele>687.0</ele><time>2026-04-25T14:32:01.56Z</time></trkpt><trkpt lat="46.2394417" lon="12.788"><ele>687.0</ele><time>2026-04-25T14:32:02.56Z</time></trkpt><trkpt lat="46.2393717" lon="12.7878317"><ele>687.0</ele><time>2026-04-25T14:32:03.56Z</time></trkpt><trkpt lat="46.239295" lon="12.7876617"><ele>687.0</ele><time>2026-04-25T14:32:04.56Z</time></trkpt><trkpt lat="46.2392217" lon="12.7874917"><ele>689.75</ele><time>2026-04-25T14:32:05.56Z</time></trkpt><trkpt lat="46.23915" lon="12.78732"><ele>692.5</ele><time>2026-04-25T14:32:06.561Z</time></trkpt><trkpt lat="46.23908" lon="12.7871517"><ele>695.25</ele><time>2026-04-25T14:32:07.561Z</time></trkpt><trkpt lat="46.239015" lon="12.7869817"><ele>698.0</ele><time>2026-04-25T14:32:08.561Z</time></trkpt><trkpt lat="46.23896" lon="12.7868167"><ele>698.0</ele><time>2026-04-25T14:32:09.561Z</time></trkpt><trkpt lat="46.2389033" lon="12.7866517"><ele>698.0</ele><time>2026-04-25T14:32:10.561Z</time></trkpt><trkpt lat="46.2388483" lon="12.7864883"><ele>698.0</ele><time>2026-04-25T14:32:11.561Z</time></trkpt><trkpt lat="46.2387983" lon="12.7863217"><ele>698.0</ele><time>2026-04-25T14:32:12.56Z</time></trkpt><trkpt lat="46.2387467" lon="12.786155"><ele>693.5</ele><time>2026-04-25T14:32:13.56Z</time></trkpt><trkpt lat="46.2386967" lon="12.7859917"><ele>689.0</ele><time>2026-04-25T14:32:14.561Z</time></trkpt><trkpt lat="46.238645" lon="12.78583"><ele>684.5</ele><time>2026-04-25T14:32:15.56Z</time></trkpt><trkpt lat="46.23859" lon="12.7856717"><ele>680.0</ele><time>2026-04-25T14:32:16.56Z</time></trkpt><trkpt lat="46.238535" lon="12.7855133"><ele>680.0</ele><time>2026-04-25T14:32:17.56Z</time></trkpt><trkpt lat="46.23849" lon="12.7853617"><ele>680.0</ele><time>2026-04-25T14:32:18.561Z</time></trkpt><trkpt lat="46.238445" lon="12.7852183"><ele>680.0</ele><time>2026-04-25T14:32:19.561Z</time></trkpt><trkpt lat="46.238395" lon="12.7850817"><ele>680.0</ele><time>2026-04-25T14:32:20.56Z</time></trkpt><trkpt lat="46.2383317" lon="12.7849383"><ele>680.0</ele><time>2026-04-25T14:32:21.56Z</time></trkpt><trkpt lat="46.23825" lon="12.784795"><ele>679.5</ele><time>2026-04-25T14:32:22.561Z</time></trkpt><trkpt lat="46.2381733" lon="12.7846583"><ele>679.0</ele><time>2026-04-25T14:32:23.561Z</time></trkpt><trkpt lat="46.2380983" lon="12.7845217"><ele>678.5</ele><time>2026-04-25T14:32:24.561Z</time></trkpt><trkpt lat="46.23802" lon="12.7843833"><ele>678.0</ele><time>2026-04-25T14:32:25.561Z</time></trkpt><trkpt lat="46.2379367" lon="12.784255"><ele>678.0</ele><time>2026-04-25T14:32:26.561Z</time></trkpt><trkpt lat="46.2378467" lon="12.7841317"><ele>678.0</ele><time>2026-04-25T14:32:27.56Z</time></trkpt><trkpt lat="46.2377417" lon="12.7840133"><ele>678.0</ele><time>2026-04-25T14:32:28.561Z</time></trkpt><trkpt lat="46.23763" lon="12.7838917"><ele>678.0</ele><time>2026-04-25T14:32:29.561Z</time></trkpt><trkpt lat="46.2375267" lon="12.7837733"><ele>678.0</ele><time>2026-04-25T14:32:30.561Z</time></trkpt><trkpt lat="46.2374217" lon="12.7836517"><ele>678.0</ele><time>2026-04-25T14:32:31.561Z</time></trkpt><trkpt lat="46.237315" lon="12.7835333"><ele>678.0</ele><time>2026-04-25T14:32:32.56Z</time></trkpt><trkpt lat="46.2372117" lon="12.7834217"><ele>678.0</ele><time>2026-04-25T14:32:33.56Z</time></trkpt><trkpt lat="46.2371133" lon="12.7833333"><ele>673.5</ele><time>2026-04-25T14:32:34.561Z</time></trkpt><trkpt lat="46.23701" lon="12.7832733"><ele>669.0</ele><time>2026-04-25T14:32:35.561Z</time></trkpt><trkpt lat="46.2368967" lon="12.7832283"><ele>664.5</ele><time>2026-04-25T14:32:36.56Z</time></trkpt><trkpt lat="46.2367776" lon="12.7831947"><ele>660.0</ele><time>2026-04-25T14:32:37.561Z</time></trkpt><trkpt lat="46.2366553" lon="12.7831607"><ele>660.0</ele><time>2026-04-25T14:32:38.561Z</time></trkpt><trkpt lat="46.2365382" lon="12.7831227"><ele>660.0</ele><time>2026-04-25T14:32:39.56Z</time></trkpt><trkpt lat="46.2364273" lon="12.7830844"><ele>660.0</ele><time>2026-04-25T14:32:40.561Z</time></trkpt><trkpt lat="46.2363229" lon="12.7830577"><ele>660.0</ele><time>2026-04-25T14:32:41.561Z</time></trkpt><trkpt lat="46.2362173" lon="12.7830481"><ele>660.0</ele><time>2026-04-25T14:32:42.56Z</time></trkpt><trkpt lat="46.2361067" lon="12.7830475"><ele>659.25</ele><time>2026-04-25T14:32:43.56Z</time></trkpt><trkpt lat="46.235992" lon="12.7830508"><ele>658.5</ele><time>2026-04-25T14:32:44.561Z</time></trkpt><trkpt lat="46.2358725" lon="12.7830655"><ele>657.75</ele><time>2026-04-25T14:32:45.561Z</time></trkpt><trkpt lat="46.2357567" lon="12.7830959"><ele>657.0</ele><time>2026-04-25T14:32:46.561Z</time></trkpt><trkpt lat="46.2356393" lon="12.7831417"><ele>653.5</ele><time>2026-04-25T14:32:47.56Z</time></trkpt><trkpt lat="46.2355214" lon="12.7831946"><ele>650.0</ele><time>2026-04-25T14:32:48.56Z</time></trkpt><trkpt lat="46.2354017" lon="12.7832436"><ele>646.5</ele><time>2026-04-25T14:32:49.561Z</time></trkpt><trkpt lat="46.2352828" lon="12.7832918"><ele>643.0</ele><time>2026-04-25T14:32:50.561Z</time></trkpt><trkpt lat="46.2351673" lon="12.7833441"><ele>643.0</ele><time>2026-04-25T14:32:51.56Z</time></trkpt><trkpt lat="46.2350554" lon="12.7833896"><ele>643.0</ele><time>2026-04-25T14:32:52.561Z</time></trkpt><trkpt lat="46.2349428" lon="12.7834247"><ele>643.0</ele><time>2026-04-25T14:32:53.56Z</time></trkpt><trkpt lat="46.2348293" lon="12.7834378"><ele>643.0</ele><time>2026-04-25T14:32:54.56Z</time></trkpt><trkpt lat="46.2347147" lon="12.7834211"><ele>641.75</ele><time>2026-04-25T14:32:55.561Z</time></trkpt><trkpt lat="46.2345999" lon="12.7833948"><ele>640.5</ele><time>2026-04-25T14:32:56.561Z</time></trkpt><trkpt lat="46.2344812" lon="12.7833764"><ele>639.25</ele><time>2026-04-25T14:32:57.56Z</time></trkpt><trkpt lat="46.2343665" lon="12.7833694"><ele>638.0</ele><time>2026-04-25T14:32:58.561Z</time></trkpt><trkpt lat="46.2342588" lon="12.7833814"><ele>638.0</ele><time>2026-04-25T14:32:59.56Z</time></trkpt><trkpt lat="46.2341619" lon="12.7834138"><ele>638.0</ele><time>2026-04-25T14:33:00.561Z</time></trkpt><trkpt lat="46.2340611" lon="12.7834678"><ele>638.0</ele><time>2026-04-25T14:33:01.561Z</time></trkpt><trkpt lat="46.2339566" lon="12.7835289"><ele>638.0</ele><time>2026-04-25T14:33:02.561Z</time></trkpt><trkpt lat="46.2338498" lon="12.783582"><ele>638.0</ele><time>2026-04-25T14:33:03.561Z</time></trkpt><trkpt lat="46.2337387" lon="12.7836208"><ele>640.5</ele><time>2026-04-25T14:33:04.56Z</time></trkpt><trkpt lat="46.2336253" lon="12.7836539"><ele>643.0</ele><time>2026-04-25T14:33:05.561Z</time></trkpt><trkpt lat="46.2335116" lon="12.7836876"><ele>645.5</ele><time>2026-04-25T14:33:06.561Z</time></trkpt><trkpt lat="46.2333958" lon="12.7837172"><ele>648.0</ele><time>2026-04-25T14:33:07.56Z</time></trkpt><trkpt lat="46.2332831" lon="12.7837432"><ele>648.0</ele><time>2026-04-25T14:33:08.561Z</time></trkpt><trkpt lat="46.2331743" lon="12.7837598"><ele>648.0</ele><time>2026-04-25T14:33:09.561Z</time></trkpt><trkpt lat="46.2330701" lon="12.7837661"><ele>648.0</ele><time>2026-04-25T14:33:10.56Z</time></trkpt><trkpt lat="46.2329685" lon="12.7837624"><ele>648.0</ele><time>2026-04-25T14:33:11.561Z</time></trkpt><trkpt lat="46.2328688" lon="12.783747"><ele>648.0</ele><time>2026-04-25T14:33:12.56Z</time></trkpt><trkpt lat="46.2327717" lon="12.7837313"><ele>647.1666666666666</ele><time>2026-04-25T14:33:13.561Z</time></trkpt><trkpt lat="46.2326771" lon="12.7837143"><ele>646.3333333333334</ele><time>2026-04-25T14:33:14.561Z</time></trkpt><trkpt lat="46.2325871" lon="12.7836983"><ele>645.5</ele><time>2026-04-25T14:33:15.561Z</time></trkpt><trkpt lat="46.2325026" lon="12.7836797"><ele>644.6666666666667</ele><time>2026-04-25T14:33:16.561Z</time></trkpt><trkpt lat="46.2324234" lon="12.7836438"><ele>643.8333333333334</ele><time>2026-04-25T14:33:17.561Z</time></trkpt><trkpt lat="46.2323527" lon="12.783594"><ele>643.0</ele><time>2026-04-25T14:33:18.561Z</time></trkpt><trkpt lat="46.2322882" lon="12.7835445"><ele>641.8333333333334</ele><time>2026-04-25T14:33:19.56Z</time></trkpt><trkpt lat="46.2322285" lon="12.7835053"><ele>640.6666666666667</ele><time>2026-04-25T14:33:20.561Z</time></trkpt><trkpt lat="46.2321342" lon="12.7834904"><ele>639.5</ele><time>2026-04-25T14:33:22.561Z</time></trkpt><trkpt lat="46.2320878" lon="12.7835784"><ele>638.3333333333334</ele><time>2026-04-25T14:33:24.561Z</time></trkpt><trkpt lat="46.2320694" lon="12.7836655"><ele>637.1666666666666</ele><time>2026-04-25T14:33:25.561Z</time></trkpt><trkpt lat="46.2320601" lon="12.7837708"><ele>636.0</ele><time>2026-04-25T14:33:26.561Z</time></trkpt><trkpt lat="46.2320629" lon="12.7838811"><ele>636.0</ele><time>2026-04-25T14:33:27.561Z</time></trkpt><trkpt lat="46.2320746" lon="12.7839892"><ele>636.0</ele><time>2026-04-25T14:33:28.561Z</time></trkpt><trkpt lat="46.2320832" lon="12.784095"><ele>636.0</ele><time>2026-04-25T14:33:29.56Z</time></trkpt><trkpt lat="46.2321096" lon="12.7842558"><ele>636.0</ele><time>2026-04-25T14:33:31.56Z</time></trkpt><trkpt lat="46.2321189" lon="12.7844121"><ele>636.0</ele><time>2026-04-25T14:33:33.56Z</time></trkpt><trkpt lat="46.2321287" lon="12.7845795"><ele>639.0</ele><time>2026-04-25T14:33:35.56Z</time></trkpt><trkpt lat="46.2321113" lon="12.7847108"><ele>642.0</ele><time>2026-04-25T14:33:37.561Z</time></trkpt><trkpt lat="46.2320818" lon="12.7848081"><ele>645.0</ele><time>2026-04-25T14:33:39.56Z</time></trkpt><trkpt lat="46.2320333" lon="12.7848683"><ele>648.0</ele><time>2026-04-25T14:33:41.561Z</time></trkpt><trkpt lat="46.2319333" lon="12.7849167"><ele>651.0</ele><time>2026-04-25T14:33:43.561Z</time></trkpt><trkpt lat="46.231875" lon="12.7849633"><ele>654.0</ele><time>2026-04-25T14:33:44.561Z</time></trkpt><trkpt lat="46.2317883" lon="12.7850817"><ele>653.8333333333334</ele><time>2026-04-25T14:33:46.56Z</time></trkpt><trkpt lat="46.2316983" lon="12.7851917"><ele>653.6666666666666</ele><time>2026-04-25T14:33:48.56Z</time></trkpt><trkpt lat="46.23164" lon="12.7852833"><ele>653.5</ele><time>2026-04-25T14:33:50.561Z</time></trkpt><trkpt lat="46.2315933" lon="12.7853583"><ele>653.3333333333333</ele><time>2026-04-25T14:33:53.561Z</time></trkpt><trkpt lat="46.23155" lon="12.78545"><ele>653.1666666666666</ele><time>2026-04-25T14:33:57.561Z</time></trkpt><trkpt lat="46.2315" lon="12.78551"><ele>653.0</ele><time>2026-04-25T14:34:00.562Z</time></trkpt><trkpt lat="46.2314433" lon="12.7855733"><ele>653.0</ele><time>2026-04-25T14:34:02.562Z</time></trkpt><trkpt lat="46.23137" lon="12.7856483"><ele>653.0</ele><time>2026-04-25T14:34:04.562Z</time></trkpt><trkpt lat="46.2313033" lon="12.7857267"><ele>653.0</ele><time>2026-04-25T14:34:06.562Z</time></trkpt><trkpt lat="46.2312317" lon="12.7858083"><ele>653.0</ele><time>2026-04-25T14:34:08.561Z</time></trkpt><trkpt lat="46.2311817" lon="12.78588"><ele>653.0</ele><time>2026-04-25T14:34:10.562Z</time></trkpt><trkpt lat="46.2311" lon="12.7860083"><ele>656.7142857142858</ele><time>2026-04-25T14:34:24.562Z</time></trkpt><trkpt lat="46.23105" lon="12.7860967"><ele>660.4285714285714</ele><time>2026-04-25T14:34:28.562Z</time></trkpt><trkpt lat="46.231035" lon="12.7862"><ele>664.1428571428571</ele><time>2026-04-25T14:34:31.562Z</time></trkpt><trkpt lat="46.2310117" lon="12.7862883"><ele>667.8571428571429</ele><time>2026-04-25T14:34:33.562Z</time></trkpt><trkpt lat="46.2309667" lon="12.7863567"><ele>671.5714285714286</ele><time>2026-04-25T14:34:35.561Z</time></trkpt><trkpt lat="46.2309133" lon="12.78643"><ele>675.2857142857143</ele><time>2026-04-25T14:34:37.562Z</time></trkpt><trkpt lat="46.2308517" lon="12.7864933"><ele>679.0</ele><time>2026-04-25T14:34:39.562Z</time></trkpt><trkpt lat="46.2307933" lon="12.78657"><ele>679.0</ele><time>2026-04-25T14:34:41.561Z</time></trkpt><trkpt lat="46.2307367" lon="12.7866633"><ele>679.0</ele><time>2026-04-25T14:34:43.561Z</time></trkpt><trkpt lat="46.2306733" lon="12.7867117"><ele>679.0</ele><time>2026-04-25T14:34:45.561Z</time></trkpt><trkpt lat="46.2306217" lon="12.7867683"><ele>679.0</ele><time>2026-04-25T14:34:47.562Z</time></trkpt><trkpt lat="46.23056" lon="12.7868333"><ele>679.0</ele><time>2026-04-25T14:34:50.562Z</time></trkpt><trkpt lat="46.23053" lon="12.78694"><ele>679.0</ele><time>2026-04-25T14:35:26.562Z</time></trkpt><trkpt lat="46.230608" lon="12.7869443"><ele>681.0</ele><time>2026-04-25T14:36:28.679Z</time></trkpt><trkpt lat="46.2304922" lon="12.7870702"><ele>683.0</ele><time>2026-04-25T14:37:10.86Z</time></trkpt><trkpt lat="46.2304292" lon="12.7871484"><ele>685.0</ele><time>2026-04-25T14:37:13.803Z</time></trkpt><trkpt lat="46.2303821" lon="12.7872483"><ele>687.0</ele><time>2026-04-25T14:37:16.856Z</time></trkpt><trkpt lat="46.2303389" lon="12.787344"><ele>689.0</ele><time>2026-04-25T14:37:19.765Z</time></trkpt><trkpt lat="46.2302708" lon="12.7874462"><ele>689.0</ele><time>2026-04-25T14:37:22.824Z</time></trkpt><trkpt lat="46.230222" lon="12.787522"><ele>689.0</ele><time>2026-04-25T14:37:24.833Z</time></trkpt><trkpt lat="46.2301633" lon="12.7876185"><ele>689.0</ele><time>2026-04-25T14:37:27.803Z</time></trkpt><trkpt lat="46.2301162" lon="12.7876903"><ele>689.0</ele><time>2026-04-25T14:37:30.761Z</time></trkpt><trkpt lat="46.2301767" lon="12.7876417"><ele>689.0</ele><time>2026-04-25T14:37:43.561Z</time></trkpt><trkpt lat="46.23025" lon="12.7876167"><ele>689.0</ele><time>2026-04-25T14:37:46.561Z</time></trkpt><trkpt lat="46.2303283" lon="12.787605"><ele>689.0</ele><time>2026-04-25T14:37:49.561Z</time></trkpt><trkpt lat="46.2303917" lon="12.78758"><ele>689.0</ele><time>2026-04-25T14:37:51.561Z</time></trkpt><trkpt lat="46.23046" lon="12.78757"><ele>689.0</ele><time>2026-04-25T14:37:53.561Z</time></trkpt><trkpt lat="46.23054" lon="12.7875483"><ele>689.0</ele><time>2026-04-25T14:37:55.56Z</time></trkpt><trkpt lat="46.2306167" lon="12.7875417"><ele>689.0</ele><time>2026-04-25T14:37:57.56Z</time></trkpt><trkpt lat="46.2306867" lon="12.7875317"><ele>689.0</ele><time>2026-04-25T14:37:59.561Z</time></trkpt><trkpt lat="46.2307583" lon="12.787525"><ele>689.0</ele><time>2026-04-25T14:38:01.56Z</time></trkpt><trkpt lat="46.2308417" lon="12.7875233"><ele>692.8333333333333</ele><time>2026-04-25T14:38:03.561Z</time></trkpt><trkpt lat="46.2309267" lon="12.7875467"><ele>696.6666666666666</ele><time>2026-04-25T14:38:05.561Z</time></trkpt><trkpt lat="46.23101" lon="12.787565"><ele>700.5</ele><time>2026-04-25T14:38:07.561Z</time></trkpt><trkpt lat="46.2311017" lon="12.787575"><ele>704.3333333333334</ele><time>2026-04-25T14:38:09.56Z</time></trkpt><trkpt lat="46.2311833" lon="12.78761"><ele>708.1666666666667</ele><time>2026-04-25T14:38:11.561Z</time></trkpt><trkpt lat="46.231255" lon="12.7876767"><ele>712.0</ele><time>2026-04-25T14:38:39.561Z</time></trkpt><trkpt lat="46.23131" lon="12.78773"><ele>717.6666666666667</ele><time>2026-04-25T14:38:41.561Z</time></trkpt><trkpt lat="46.2313883" lon="12.7877933"><ele>723.3333333333334</ele><time>2026-04-25T14:38:43.56Z</time></trkpt><trkpt lat="46.231455" lon="12.7878733"><ele>729.0</ele><time>2026-04-25T14:38:45.56Z</time></trkpt><trkpt lat="46.23151" lon="12.7879267"><ele>734.6666666666666</ele><time>2026-04-25T14:38:47.56Z</time></trkpt><trkpt lat="46.231595" lon="12.7879717"><ele>740.3333333333333</ele><time>2026-04-25T14:38:50.56Z</time></trkpt><trkpt lat="46.2316883" lon="12.7879567"><ele>746.0</ele><time>2026-04-25T14:38:53.56Z</time></trkpt><trkpt lat="46.2317767" lon="12.7880033"><ele>748.3333333333333</ele><time>2026-04-25T14:38:56.56Z</time></trkpt><trkpt lat="46.2318433" lon="12.7880183"><ele>750.6666666666666</ele><time>2026-04-25T14:38:58.56Z</time></trkpt><trkpt lat="46.2319317" lon="12.7880417"><ele>753.0</ele><time>2026-04-25T14:39:00.561Z</time></trkpt><trkpt lat="46.2320283" lon="12.7880783"><ele>755.3333333333334</ele><time>2026-04-25T14:39:02.56Z</time></trkpt><trkpt lat="46.2321133" lon="12.78812"><ele>757.6666666666667</ele><time>2026-04-25T14:39:04.56Z</time></trkpt><trkpt lat="46.2321933" lon="12.7881467"><ele>760.0</ele><time>2026-04-25T14:39:06.56Z</time></trkpt><trkpt lat="46.2322733" lon="12.7881583"><ele>761.5</ele><time>2026-04-25T14:39:08.56Z</time></trkpt><trkpt lat="46.23236" lon="12.7881633"><ele>763.0</ele><time>2026-04-25T14:39:10.561Z</time></trkpt><trkpt lat="46.232425" lon="12.78819"><ele>764.5</ele><time>2026-04-25T14:39:12.561Z</time></trkpt><trkpt lat="46.2325083" lon="12.7882"><ele>766.0</ele><time>2026-04-25T14:39:14.562Z</time></trkpt><trkpt lat="46.232595" lon="12.7881983"><ele>767.4999999999999</ele><time>2026-04-25T14:39:16.562Z</time></trkpt><trkpt lat="46.2326683" lon="12.788195"><ele>769.0</ele><time>2026-04-25T14:39:18.561Z</time></trkpt><trkpt lat="46.2327433" lon="12.7882183"><ele>768.9999999999999</ele><time>2026-04-25T14:39:20.561Z</time></trkpt><trkpt lat="46.23282" lon="12.7882667"><ele>769.0</ele><time>2026-04-25T14:39:22.561Z</time></trkpt><trkpt lat="46.2328883" lon="12.7883033"><ele>769.0</ele><time>2026-04-25T14:39:24.561Z</time></trkpt><trkpt lat="46.23296" lon="12.7883233"><ele>769.0</ele><time>2026-04-25T14:39:26.562Z</time></trkpt><trkpt lat="46.233035" lon="12.7883417"><ele>768.9999999999999</ele><time>2026-04-25T14:39:28.562Z</time></trkpt><trkpt lat="46.2331067" lon="12.7883883"><ele>769.0</ele><time>2026-04-25T14:39:30.562Z</time></trkpt><trkpt lat="46.2331467" lon="12.7884851"><ele>770.6666666666666</ele><time>2026-04-25T14:39:32.863Z</time></trkpt><trkpt lat="46.2332233" lon="12.7885144"><ele>772.3333333333333</ele><time>2026-04-25T14:39:35.822Z</time></trkpt><trkpt lat="46.23335" lon="12.788465"><ele>774.0</ele><time>2026-04-25T14:39:44.561Z</time></trkpt><trkpt lat="46.2334217" lon="12.788485"><ele>775.6666666666667</ele><time>2026-04-25T14:39:47.562Z</time></trkpt><trkpt lat="46.2334899" lon="12.7885217"><ele>777.3333333333334</ele><time>2026-04-25T14:39:51.821Z</time></trkpt><trkpt lat="46.2335517" lon="12.78854"><ele>779.0</ele><time>2026-04-25T14:39:55.561Z</time></trkpt><trkpt lat="46.2336383" lon="12.7885467"><ele>784.8333333333334</ele><time>2026-04-25T14:39:58.562Z</time></trkpt><trkpt lat="46.2337167" lon="12.7885983"><ele>790.6666666666667</ele><time>2026-04-25T14:40:01.562Z</time></trkpt><trkpt lat="46.2337733" lon="12.78865"><ele>796.5</ele><time>2026-04-25T14:40:04.562Z</time></trkpt><trkpt lat="46.2338511" lon="12.788674"><ele>802.3333333333333</ele><time>2026-04-25T14:40:28.8Z</time></trkpt><trkpt lat="46.2339332" lon="12.7887087"><ele>808.1666666666666</ele><time>2026-04-25T14:40:30.792Z</time></trkpt><trkpt lat="46.2340131" lon="12.7887674"><ele>814.0</ele><time>2026-04-25T14:40:33.77Z</time></trkpt><trkpt lat="46.2340791" lon="12.7888003"><ele>817.3333333333333</ele><time>2026-04-25T14:40:37.928Z</time></trkpt><trkpt lat="46.2341498" lon="12.7887647"><ele>820.6666666666666</ele><time>2026-04-25T14:40:40.815Z</time></trkpt><trkpt lat="46.234214" lon="12.7887758"><ele>824.0</ele><time>2026-04-25T14:40:42.845Z</time></trkpt><trkpt lat="46.2342785" lon="12.7887777"><ele>827.3333333333333</ele><time>2026-04-25T14:40:44.844Z</time></trkpt><trkpt lat="46.2343605" lon="12.7887765"><ele>830.6666666666666</ele><time>2026-04-25T14:40:46.737Z</time></trkpt><trkpt lat="46.2344505" lon="12.7887849"><ele>834.0</ele><time>2026-04-25T14:40:48.836Z</time></trkpt><trkpt lat="46.2345157" lon="12.7888338"><ele>834.0</ele><time>2026-04-25T14:40:50.913Z</time></trkpt><trkpt lat="46.2345925" lon="12.7888583"><ele>834.0</ele><time>2026-04-25T14:40:53.911Z</time></trkpt><trkpt lat="46.23461" lon="12.7889883"><ele>834.0</ele><time>2026-04-25T14:42:32.561Z</time></trkpt><trkpt lat="46.2346389" lon="12.7890721"><ele>834.0</ele><time>2026-04-25T14:42:37.818Z</time></trkpt><trkpt lat="46.234722" lon="12.7891339"><ele>834.0</ele><time>2026-04-25T14:43:26.751Z</time></trkpt><trkpt lat="46.2347363" lon="12.7892312"><ele>834.0</ele><time>2026-04-25T14:43:29.873Z</time></trkpt><trkpt lat="46.23476" lon="12.7893302"><ele>843.0</ele><time>2026-04-25T14:43:52.811Z</time></trkpt><trkpt lat="46.2348268" lon="12.789393"><ele>852.0</ele><time>2026-04-25T14:43:59.79Z</time></trkpt><trkpt lat="46.2349067" lon="12.7894183"><ele>861.0</ele><time>2026-04-25T14:44:36.562Z</time></trkpt><trkpt lat="46.2349769" lon="12.7894581"><ele>870.0</ele><time>2026-04-25T14:44:43.897Z</time></trkpt><trkpt lat="46.2351015" lon="12.7895437"><ele>879.0</ele><time>2026-04-25T14:44:46.914Z</time></trkpt><trkpt lat="46.235164" lon="12.7895738"><ele>888.0</ele><time>2026-04-25T14:44:48.953Z</time></trkpt><trkpt lat="46.2352338" lon="12.7896157"><ele>888.0</ele><time>2026-04-25T14:44:51.914Z</time></trkpt><trkpt lat="46.2353196" lon="12.7896782"><ele>888.0</ele><time>2026-04-25T14:44:54.875Z</time></trkpt><trkpt lat="46.2353886" lon="12.7897178"><ele>888.0</ele><time>2026-04-25T14:44:56.904Z</time></trkpt><trkpt lat="46.23546" lon="12.78976"><ele>888.0</ele><time>2026-04-25T14:44:58.949Z</time></trkpt><trkpt lat="46.2355295" lon="12.7898152"><ele>888.0</ele><time>2026-04-25T14:45:00.914Z</time></trkpt><trkpt lat="46.2355917" lon="12.789845"><ele>888.0</ele><time>2026-04-25T14:45:02.562Z</time></trkpt><trkpt lat="46.2356617" lon="12.789855"><ele>889.1666666666666</ele><time>2026-04-25T14:45:07.562Z</time></trkpt><trkpt lat="46.2357367" lon="12.7898333"><ele>890.3333333333333</ele><time>2026-04-25T14:45:14.561Z</time></trkpt><trkpt lat="46.2358108" lon="12.7898178"><ele>891.5</ele><time>2026-04-25T14:45:18.923Z</time></trkpt><trkpt lat="46.2358438" lon="12.7899056"><ele>892.6666666666666</ele><time>2026-04-25T14:46:06.829Z</time></trkpt><trkpt lat="46.2358163" lon="12.7899991"><ele>893.8333333333333</ele><time>2026-04-25T14:46:09.878Z</time></trkpt><trkpt lat="46.2357657" lon="12.7901138"><ele>895.0</ele><time>2026-04-25T14:46:12.85Z</time></trkpt><trkpt lat="46.2357277" lon="12.7902127"><ele>901.6</ele><time>2026-04-25T14:46:14.917Z</time></trkpt><trkpt lat="46.2356167" lon="12.7903333"><ele>908.2</ele><time>2026-04-25T14:46:17.56Z</time></trkpt><trkpt lat="46.2355583" lon="12.790415"><ele>914.8</ele><time>2026-04-25T14:47:23.561Z</time></trkpt><trkpt lat="46.235485" lon="12.7905033"><ele>921.4</ele><time>2026-04-25T14:47:26.561Z</time></trkpt><trkpt lat="46.235435" lon="12.7905817"><ele>928.0</ele><time>2026-04-25T14:47:28.561Z</time></trkpt><trkpt lat="46.2354129" lon="12.7906823"><ele>927.9999999999999</ele><time>2026-04-25T14:47:31.692Z</time></trkpt><trkpt lat="46.2353731" lon="12.7907625"><ele>928.0</ele><time>2026-04-25T14:47:33.772Z</time></trkpt><trkpt lat="46.2353172" lon="12.7908448"><ele>928.0</ele><time>2026-04-25T14:47:35.829Z</time></trkpt><trkpt lat="46.235251" lon="12.7909228"><ele>928.0</ele><time>2026-04-25T14:47:37.852Z</time></trkpt><trkpt lat="46.2351756" lon="12.7909797"><ele>927.9999999999999</ele><time>2026-04-25T14:47:39.85Z</time></trkpt><trkpt lat="46.2350956" lon="12.7910157"><ele>928.0</ele><time>2026-04-25T14:47:42.831Z</time></trkpt><trkpt lat="46.2350183" lon="12.79101"><ele>930.0000000000001</ele><time>2026-04-25T14:47:50.561Z</time></trkpt><trkpt lat="46.23496" lon="12.79106"><ele>932.0</ele><time>2026-04-25T14:47:52.561Z</time></trkpt><trkpt lat="46.2348933" lon="12.7911183"><ele>934.0000000000001</ele><time>2026-04-25T14:47:54.56Z</time></trkpt><trkpt lat="46.2348417" lon="12.7911733"><ele>936.0000000000001</ele><time>2026-04-25T14:47:56.56Z</time></trkpt><trkpt lat="46.2347783" lon="12.7911967"><ele>938.0</ele><time>2026-04-25T14:48:00.56Z</time></trkpt><trkpt lat="46.2347083" lon="12.79123"><ele>940.0000000000001</ele><time>2026-04-25T14:48:05.561Z</time></trkpt><trkpt lat="46.2346383" lon="12.7912917"><ele>942.0000000000001</ele><time>2026-04-25T14:48:08.56Z</time></trkpt><trkpt lat="46.2345783" lon="12.7913383"><ele>942.0000000000001</ele><time>2026-04-25T14:48:11.56Z</time></trkpt><trkpt lat="46.2345117" lon="12.7913667"><ele>942.0</ele><time>2026-04-25T14:48:14.56Z</time></trkpt><trkpt lat="46.234455" lon="12.791435"><ele>942.0000000000001</ele><time>2026-04-25T14:48:18.561Z</time></trkpt><trkpt lat="46.234415" lon="12.791515"><ele>942.0000000000001</ele><time>2026-04-25T14:48:22.561Z</time></trkpt><trkpt lat="46.234385" lon="12.7915983"><ele>942.0</ele><time>2026-04-25T14:48:25.561Z</time></trkpt><trkpt lat="46.23435" lon="12.7916867"><ele>942.0000000000001</ele><time>2026-04-25T14:48:30.56Z</time></trkpt><trkpt lat="46.2343233" lon="12.7918033"><ele>942.0000000000001</ele><time>2026-04-25T14:48:34.56Z</time></trkpt><trkpt lat="46.2343117" lon="12.7919017"><ele>946.0</ele><time>2026-04-25T14:48:40.56Z</time></trkpt><trkpt lat="46.2343" lon="12.7919917"><ele>950.0</ele><time>2026-04-25T14:48:43.56Z</time></trkpt><trkpt lat="46.2342833" lon="12.7921283"><ele>954.0</ele><time>2026-04-25T14:48:46.562Z</time></trkpt><trkpt lat="46.23426" lon="12.792245"><ele>958.0</ele><time>2026-04-25T14:48:49.561Z</time></trkpt><trkpt lat="46.2342383" lon="12.7923483"><ele>962.0</ele><time>2026-04-25T14:48:52.561Z</time></trkpt><trkpt lat="46.2342167" lon="12.7924467"><ele>966.0</ele><time>2026-04-25T14:48:55.562Z</time></trkpt><trkpt lat="46.2341867" lon="12.7925533"><ele>969.6666666666666</ele><time>2026-04-25T14:49:00.562Z</time></trkpt><trkpt lat="46.23417" lon="12.7926749"><ele>973.3333333333333</ele><time>2026-04-25T14:49:04.912Z</time></trkpt><trkpt lat="46.234145" lon="12.7927921"><ele>977.0</ele><time>2026-04-25T14:49:07.824Z</time></trkpt><trkpt lat="46.2340983" lon="12.7929367"><ele>980.6666666666666</ele><time>2026-04-25T14:49:09.562Z</time></trkpt><trkpt lat="46.2340733" lon="12.7930417"><ele>984.3333333333333</ele><time>2026-04-25T14:49:12.562Z</time></trkpt><trkpt lat="46.23416" lon="12.793035"><ele>988.0</ele><time>2026-04-25T14:49:26.561Z</time></trkpt><trkpt lat="46.2341483" lon="12.793135"><ele>987.9999999999999</ele><time>2026-04-25T14:49:29.562Z</time></trkpt><trkpt lat="46.2340817" lon="12.7932417"><ele>988.0</ele><time>2026-04-25T14:49:32.562Z</time></trkpt><trkpt lat="46.2340183" lon="12.7933233"><ele>988.0</ele><time>2026-04-25T14:49:34.561Z</time></trkpt><trkpt lat="46.23396" lon="12.793395"><ele>988.0</ele><time>2026-04-25T14:49:36.562Z</time></trkpt><trkpt lat="46.2339033" lon="12.7934533"><ele>987.9999999999999</ele><time>2026-04-25T14:49:38.561Z</time></trkpt><trkpt lat="46.233835" lon="12.79351"><ele>988.0</ele><time>2026-04-25T14:49:40.562Z</time></trkpt><trkpt lat="46.2337567" lon="12.7935867"><ele>990.3333333333333</ele><time>2026-04-25T14:49:42.561Z</time></trkpt><trkpt lat="46.2336633" lon="12.7936667"><ele>992.6666666666666</ele><time>2026-04-25T14:49:44.561Z</time></trkpt><trkpt lat="46.2335933" lon="12.7937233"><ele>995.0</ele><time>2026-04-25T14:49:46.561Z</time></trkpt><trkpt lat="46.2335383" lon="12.793775"><ele>997.3333333333333</ele><time>2026-04-25T14:49:48.561Z</time></trkpt><trkpt lat="46.2334667" lon="12.7938467"><ele>999.6666666666666</ele><time>2026-04-25T14:49:51.561Z</time></trkpt><trkpt lat="46.233405" lon="12.7938967"><ele>1002.0</ele><time>2026-04-25T14:49:54.562Z</time></trkpt><trkpt lat="46.2333383" lon="12.7939633"><ele>1002.0</ele><time>2026-04-25T14:49:57.562Z</time></trkpt><trkpt lat="46.2332683" lon="12.7940417"><ele>1002.0</ele><time>2026-04-25T14:50:00.561Z</time></trkpt><trkpt lat="46.2332" lon="12.7941133"><ele>1002.0</ele><time>2026-04-25T14:50:03.561Z</time></trkpt><trkpt lat="46.2331383" lon="12.7941533"><ele>1002.0</ele><time>2026-04-25T14:50:06.562Z</time></trkpt><trkpt lat="46.2330717" lon="12.7942233"><ele>1002.0</ele><time>2026-04-25T14:50:09.562Z</time></trkpt><trkpt lat="46.23304" lon="12.7943233"><ele>1002.0</ele><time>2026-04-25T14:50:12.562Z</time></trkpt><trkpt lat="46.2331083" lon="12.7943583"><ele>1002.0</ele><time>2026-04-25T14:50:16.562Z</time></trkpt><trkpt lat="46.2331833" lon="12.79434"><ele>1002.0</ele><time>2026-04-25T14:50:19.562Z</time></trkpt><trkpt lat="46.2332783" lon="12.7943183"><ele>1002.0</ele><time>2026-04-25T14:50:22.562Z</time></trkpt><trkpt lat="46.2333517" lon="12.7943017"><ele>1002.0</ele><time>2026-04-25T14:50:24.562Z</time></trkpt><trkpt lat="46.2334133" lon="12.7942817"><ele>1002.0</ele><time>2026-04-25T14:50:26.56Z</time></trkpt><trkpt lat="46.233475" lon="12.7942567"><ele>1002.0</ele><time>2026-04-25T14:50:28.56Z</time></trkpt><trkpt lat="46.2335483" lon="12.7942717"><ele>1002.0</ele><time>2026-04-25T14:50:30.56Z</time></trkpt><trkpt lat="46.233625" lon="12.7942817"><ele>1002.0</ele><time>2026-04-25T14:50:32.561Z</time></trkpt><trkpt lat="46.2337067" lon="12.7942733"><ele>1002.0</ele><time>2026-04-25T14:50:35.561Z</time></trkpt><trkpt lat="46.233785" lon="12.794245"><ele>1002.0</ele><time>2026-04-25T14:50:37.561Z</time></trkpt><trkpt lat="46.2338767" lon="12.7942167"><ele>1002.0</ele><time>2026-04-25T14:50:39.56Z</time></trkpt><trkpt lat="46.2339617" lon="12.7941817"><ele>1002.0</ele><time>2026-04-25T14:50:41.56Z</time></trkpt><trkpt lat="46.234055" lon="12.7941433"><ele>1002.0</ele><time>2026-04-25T14:50:43.561Z</time></trkpt><trkpt lat="46.23415" lon="12.7941083"><ele>1004.6</ele><time>2026-04-25T14:50:45.56Z</time></trkpt><trkpt lat="46.2342417" lon="12.7940633"><ele>1007.2</ele><time>2026-04-25T14:50:47.56Z</time></trkpt><trkpt lat="46.2343333" lon="12.79402"><ele>1009.8</ele><time>2026-04-25T14:50:49.561Z</time></trkpt><trkpt lat="46.2344233" lon="12.793965"><ele>1012.4</ele><time>2026-04-25T14:50:51.56Z</time></trkpt><trkpt lat="46.23451" lon="12.793935"><ele>1015.0</ele><time>2026-04-25T14:50:53.56Z</time></trkpt><trkpt lat="46.2346" lon="12.7939067"><ele>1014.9999999999999</ele><time>2026-04-25T14:50:56.561Z</time></trkpt><trkpt lat="46.23468" lon="12.7938867"><ele>1015.0</ele><time>2026-04-25T14:50:58.561Z</time></trkpt><trkpt lat="46.234755" lon="12.7938617"><ele>1015.0</ele><time>2026-04-25T14:51:00.56Z</time></trkpt><trkpt lat="46.234815" lon="12.79389"><ele>1015.0</ele><time>2026-04-25T14:51:05.56Z</time></trkpt><trkpt lat="46.2347817" lon="12.7939717"><ele>1014.9999999999999</ele><time>2026-04-25T14:51:07.56Z</time></trkpt><trkpt lat="46.2347217" lon="12.79405"><ele>1015.0</ele><time>2026-04-25T14:51:09.561Z</time></trkpt><trkpt lat="46.234665" lon="12.794145"><ele>1014.9999999999999</ele><time>2026-04-25T14:51:11.561Z</time></trkpt><trkpt lat="46.2346183" lon="12.7942383"><ele>1015.0</ele><time>2026-04-25T14:51:13.56Z</time></trkpt><trkpt lat="46.2345767" lon="12.79432"><ele>1015.0</ele><time>2026-04-25T14:51:15.561Z</time></trkpt><trkpt lat="46.2345117" lon="12.794385"><ele>1015.0</ele><time>2026-04-25T14:51:17.56Z</time></trkpt><trkpt lat="46.2344467" lon="12.7944617"><ele>1014.9999999999999</ele><time>2026-04-25T14:51:19.561Z</time></trkpt><trkpt lat="46.2343767" lon="12.7945467"><ele>1015.0</ele><time>2026-04-25T14:51:21.56Z</time></trkpt><trkpt lat="46.2343042" lon="12.7946114"><ele>1016.9999999999999</ele><time>2026-04-25T14:51:23.832Z</time></trkpt><trkpt lat="46.23424" lon="12.7946994"><ele>1019.0</ele><time>2026-04-25T14:51:25.865Z</time></trkpt><trkpt lat="46.2341684" lon="12.7948045"><ele>1021.0</ele><time>2026-04-25T14:51:27.845Z</time></trkpt><trkpt lat="46.2341015" lon="12.7948749"><ele>1023.0</ele><time>2026-04-25T14:51:29.854Z</time></trkpt><trkpt lat="46.2340304" lon="12.7949403"><ele>1025.0</ele><time>2026-04-25T14:51:31.818Z</time></trkpt><trkpt lat="46.2339509" lon="12.7950027"><ele>1027.0</ele><time>2026-04-25T14:51:33.917Z</time></trkpt><trkpt lat="46.2338806" lon="12.795057"><ele>1027.0</ele><time>2026-04-25T14:51:35.903Z</time></trkpt><trkpt lat="46.2338269" lon="12.7951328"><ele>1027.0</ele><time>2026-04-25T14:51:37.887Z</time></trkpt><trkpt lat="46.233752" lon="12.7951793"><ele>1027.0</ele><time>2026-04-25T14:51:39.907Z</time></trkpt><trkpt lat="46.2336954" lon="12.7952762"><ele>1027.0</ele><time>2026-04-25T14:51:41.938Z</time></trkpt><trkpt lat="46.2336488" lon="12.7954057"><ele>1027.0</ele><time>2026-04-25T14:51:44.855Z</time></trkpt><trkpt lat="46.2336227" lon="12.7955008"><ele>1027.0</ele><time>2026-04-25T14:51:46.905Z</time></trkpt><trkpt lat="46.2336208" lon="12.7956009"><ele>1028.0</ele><time>2026-04-25T14:51:48.93Z</time></trkpt><trkpt lat="46.2336352" lon="12.7957129"><ele>1029.0</ele><time>2026-04-25T14:51:50.895Z</time></trkpt><trkpt lat="46.2336439" lon="12.7958261"><ele>1030.0</ele><time>2026-04-25T14:51:52.848Z</time></trkpt><trkpt lat="46.2336359" lon="12.796001"><ele>1031.0</ele><time>2026-04-25T14:51:54.814Z</time></trkpt><trkpt lat="46.2336378" lon="12.7961919"><ele>1032.0</ele><time>2026-04-25T14:51:56.561Z</time></trkpt><trkpt lat="46.2336447" lon="12.7963291"><ele>1032.4</ele><time>2026-04-25T14:51:58.56Z</time></trkpt><trkpt lat="46.2336469" lon="12.7964554"><ele>1032.8000000000002</ele><time>2026-04-25T14:52:00.56Z</time></trkpt><trkpt lat="46.2336561" lon="12.7965843"><ele>1033.2</ele><time>2026-04-25T14:52:02.561Z</time></trkpt><trkpt lat="46.233671" lon="12.7967261"><ele>1033.6000000000001</ele><time>2026-04-25T14:52:04.561Z</time></trkpt><trkpt lat="46.2336845" lon="12.7968665"><ele>1034.0</ele><time>2026-04-25T14:52:07.795Z</time></trkpt><trkpt lat="46.2337537" lon="12.7970822"><ele>1034.0</ele><time>2026-04-25T14:52:10.56Z</time></trkpt><trkpt lat="46.233805" lon="12.7972017"><ele>1034.0</ele><time>2026-04-25T14:52:12.561Z</time></trkpt><trkpt lat="46.23388" lon="12.7973"><ele>1034.0</ele><time>2026-04-25T14:52:14.56Z</time></trkpt><trkpt lat="46.2339517" lon="12.7973767"><ele>1034.0</ele><time>2026-04-25T14:52:16.561Z</time></trkpt><trkpt lat="46.2340083" lon="12.797445"><ele>1034.0</ele><time>2026-04-25T14:52:18.561Z</time></trkpt><trkpt lat="46.2340683" lon="12.7975067"><ele>1034.0</ele><time>2026-04-25T14:52:20.561Z</time></trkpt><trkpt lat="46.2341131" lon="12.7975949"><ele>1040.8</ele><time>2026-04-25T14:52:22.56Z</time></trkpt><trkpt lat="46.2341813" lon="12.7976792"><ele>1047.6000000000001</ele><time>2026-04-25T14:52:25.899Z</time></trkpt><trkpt lat="46.2342485" lon="12.7977553"><ele>1054.4</ele><time>2026-04-25T14:52:27.939Z</time></trkpt><trkpt lat="46.2343033" lon="12.7979803"><ele>1061.2</ele><time>2026-04-25T14:52:30.561Z</time></trkpt><trkpt lat="46.2343277" lon="12.7980943"><ele>1068.0</ele><time>2026-04-25T14:52:31.561Z</time></trkpt><trkpt lat="46.2343507" lon="12.7982086"><ele>1068.0</ele><time>2026-04-25T14:52:32.56Z</time></trkpt><trkpt lat="46.2343719" lon="12.7983278"><ele>1068.0</ele><time>2026-04-25T14:52:33.56Z</time></trkpt><trkpt lat="46.2343908" lon="12.7984351"><ele>1068.0</ele><time>2026-04-25T14:52:34.56Z</time></trkpt><trkpt lat="46.2344075" lon="12.7985264"><ele>1068.0</ele><time>2026-04-25T14:52:35.56Z</time></trkpt><trkpt lat="46.2344522" lon="12.7986699"><ele>1068.0</ele><time>2026-04-25T14:52:37.561Z</time></trkpt><trkpt lat="46.234521" lon="12.7987736"><ele>1068.0</ele><time>2026-04-25T14:52:39.561Z</time></trkpt><trkpt lat="46.234578" lon="12.798902"><ele>1068.2</ele><time>2026-04-25T14:52:41.56Z</time></trkpt><trkpt lat="46.2346025" lon="12.79905"><ele>1068.4</ele><time>2026-04-25T14:52:43.56Z</time></trkpt><trkpt lat="46.2346309" lon="12.7991959"><ele>1068.6000000000001</ele><time>2026-04-25T14:52:45.56Z</time></trkpt><trkpt lat="46.2346572" lon="12.799331"><ele>1068.8</ele><time>2026-04-25T14:52:47.561Z</time></trkpt><trkpt lat="46.2346925" lon="12.7994876"><ele>1069.0</ele><time>2026-04-25T14:52:49.56Z</time></trkpt><trkpt lat="46.2347341" lon="12.7996406"><ele>1069.8</ele><time>2026-04-25T14:52:51.56Z</time></trkpt><trkpt lat="46.2347571" lon="12.7997888"><ele>1070.6000000000001</ele><time>2026-04-25T14:52:53.561Z</time></trkpt><trkpt lat="46.234764" lon="12.7999199"><ele>1071.4</ele><time>2026-04-25T14:52:55.561Z</time></trkpt><trkpt lat="46.2347737" lon="12.8000542"><ele>1072.2</ele><time>2026-04-25T14:52:57.561Z</time></trkpt><trkpt lat="46.234785" lon="12.8001913"><ele>1073.0</ele><time>2026-04-25T14:52:59.561Z</time></trkpt><trkpt lat="46.2347823" lon="12.8003235"><ele>1073.2</ele><time>2026-04-25T14:53:01.561Z</time></trkpt><trkpt lat="46.2347587" lon="12.8004479"><ele>1073.4</ele><time>2026-04-25T14:53:03.56Z</time></trkpt><trkpt lat="46.2347267" lon="12.800579"><ele>1073.6000000000001</ele><time>2026-04-25T14:53:05.561Z</time></trkpt><trkpt lat="46.2346978" lon="12.8007312"><ele>1073.8</ele><time>2026-04-25T14:53:07.561Z</time></trkpt><trkpt lat="46.2346611" lon="12.8008871"><ele>1074.0</ele><time>2026-04-25T14:53:09.561Z</time></trkpt><trkpt lat="46.2346129" lon="12.8010204"><ele>1075.0</ele><time>2026-04-25T14:53:11.561Z</time></trkpt><trkpt lat="46.2345755" lon="12.801149"><ele>1076.0</ele><time>2026-04-25T14:53:13.561Z</time></trkpt><trkpt lat="46.2345257" lon="12.8012627"><ele>1077.0</ele><time>2026-04-25T14:53:15.561Z</time></trkpt><trkpt lat="46.23449" lon="12.8013983"><ele>1078.0</ele><time>2026-04-25T14:53:17.562Z</time></trkpt><trkpt lat="46.2344683" lon="12.8015467"><ele>1079.0</ele><time>2026-04-25T14:53:19.562Z</time></trkpt><trkpt lat="46.234425" lon="12.8016867"><ele>1079.0</ele><time>2026-04-25T14:53:21.562Z</time></trkpt><trkpt lat="46.2343717" lon="12.8017917"><ele>1079.0</ele><time>2026-04-25T14:53:23.562Z</time></trkpt><trkpt lat="46.2343283" lon="12.801875"><ele>1079.0</ele><time>2026-04-25T14:53:25.562Z</time></trkpt><trkpt lat="46.234275" lon="12.8019517"><ele>1079.0</ele><time>2026-04-25T14:53:46.562Z</time></trkpt><trkpt lat="46.2342283" lon="12.8020667"><ele>1079.0</ele><time>2026-04-25T14:53:49.562Z</time></trkpt><trkpt lat="46.2342267" lon="12.8021883"><ele>1079.0</ele><time>2026-04-25T14:53:51.562Z</time></trkpt><trkpt lat="46.2342117" lon="12.8023733"><ele>1079.6000000000001</ele><time>2026-04-25T14:53:53.562Z</time></trkpt><trkpt lat="46.234185" lon="12.8025367"><ele>1080.2</ele><time>2026-04-25T14:53:55.562Z</time></trkpt><trkpt lat="46.2341383" lon="12.8026583"><ele>1080.8000000000002</ele><time>2026-04-25T14:53:57.562Z</time></trkpt><trkpt lat="46.23404" lon="12.8027383"><ele>1081.4</ele><time>2026-04-25T14:53:59.561Z</time></trkpt><trkpt lat="46.2339367" lon="12.8028267"><ele>1082.0</ele><time>2026-04-25T14:54:01.561Z</time></trkpt><trkpt lat="46.2338833" lon="12.8028767"><ele>1077.3333333333335</ele><time>2026-04-25T14:54:02.561Z</time></trkpt><trkpt lat="46.2338267" lon="12.8029367"><ele>1072.6666666666667</ele><time>2026-04-25T14:54:03.562Z</time></trkpt><trkpt lat="46.2337767" lon="12.803005"><ele>1068.0</ele><time>2026-04-25T14:54:04.562Z</time></trkpt><trkpt lat="46.2337033" lon="12.8031517"><ele>1063.3333333333333</ele><time>2026-04-25T14:54:06.562Z</time></trkpt><trkpt lat="46.2336683" lon="12.803235"><ele>1058.6666666666665</ele><time>2026-04-25T14:54:07.562Z</time></trkpt><trkpt lat="46.2336267" lon="12.803315"><ele>1054.0</ele><time>2026-04-25T14:54:08.562Z</time></trkpt><trkpt lat="46.2335516" lon="12.8034438"><ele>1054.0</ele><time>2026-04-25T14:54:10.562Z</time></trkpt><trkpt lat="46.2334811" lon="12.8035321"><ele>1054.0</ele><time>2026-04-25T14:54:12.562Z</time></trkpt><trkpt lat="46.2334367" lon="12.8036"><ele>1054.0</ele><time>2026-04-25T14:54:14.562Z</time></trkpt><trkpt lat="46.2333867" lon="12.8036833"><ele>1054.0</ele><time>2026-04-25T14:54:16.562Z</time></trkpt><trkpt lat="46.2333367" lon="12.8037583"><ele>1054.0</ele><time>2026-04-25T14:54:18.562Z</time></trkpt><trkpt lat="46.2332867" lon="12.80384"><ele>1054.0</ele><time>2026-04-25T14:54:21.561Z</time></trkpt><trkpt lat="46.2332367" lon="12.8039117"><ele>1054.0</ele><time>2026-04-25T14:54:26.561Z</time></trkpt><trkpt lat="46.2331517" lon="12.8039517"><ele>1054.0</ele><time>2026-04-25T14:54:29.562Z</time></trkpt><trkpt lat="46.2330667" lon="12.8040517"><ele>1054.0</ele><time>2026-04-25T14:54:31.561Z</time></trkpt><trkpt lat="46.2329917" lon="12.8041567"><ele>1054.0</ele><time>2026-04-25T14:54:33.561Z</time></trkpt><trkpt lat="46.2329233" lon="12.804215"><ele>1054.0</ele><time>2026-04-25T14:54:35.562Z</time></trkpt><trkpt lat="46.2328633" lon="12.8042767"><ele>1047.8</ele><time>2026-04-25T14:54:37.562Z</time></trkpt><trkpt lat="46.2327992" lon="12.804354"><ele>1041.6000000000001</ele><time>2026-04-25T14:54:39.561Z</time></trkpt><trkpt lat="46.232737" lon="12.8044228"><ele>1035.4</ele><time>2026-04-25T14:54:42.862Z</time></trkpt><trkpt lat="46.2326403" lon="12.8044204"><ele>1029.2</ele><time>2026-04-25T14:54:44.883Z</time></trkpt><trkpt lat="46.2325717" lon="12.804497"><ele>1023.0</ele><time>2026-04-25T14:54:46.913Z</time></trkpt><trkpt lat="46.2324385" lon="12.8046158"><ele>1023.0</ele><time>2026-04-25T14:54:49.562Z</time></trkpt><trkpt lat="46.232331" lon="12.8047091"><ele>1023.0</ele><time>2026-04-25T14:54:51.562Z</time></trkpt><trkpt lat="46.2322707" lon="12.8047546"><ele>1023.0</ele><time>2026-04-25T14:54:52.561Z</time></trkpt><trkpt lat="46.232213" lon="12.8048027"><ele>1023.0</ele><time>2026-04-25T14:54:53.561Z</time></trkpt><trkpt lat="46.2321555" lon="12.8048539"><ele>1023.0</ele><time>2026-04-25T14:54:54.562Z</time></trkpt><trkpt lat="46.2320987" lon="12.8049063"><ele>1023.0</ele><time>2026-04-25T14:54:55.562Z</time></trkpt><trkpt lat="46.232043" lon="12.8049525"><ele>1019.0</ele><time>2026-04-25T14:54:56.562Z</time></trkpt><trkpt lat="46.2319384" lon="12.8050388"><ele>1015.0</ele><time>2026-04-25T14:54:58.56Z</time></trkpt><trkpt lat="46.2318389" lon="12.8051272"><ele>1011.0</ele><time>2026-04-25T14:55:00.561Z</time></trkpt><trkpt lat="46.23172" lon="12.8052017"><ele>1007.0</ele><time>2026-04-25T14:55:02.561Z</time></trkpt><trkpt lat="46.2316533" lon="12.8052383"><ele>1003.0</ele><time>2026-04-25T14:55:03.561Z</time></trkpt><trkpt lat="46.2315867" lon="12.8052783"><ele>1002.5714285714286</ele><time>2026-04-25T14:55:04.56Z</time></trkpt><trkpt lat="46.2315233" lon="12.8053283"><ele>1002.1428571428571</ele><time>2026-04-25T14:55:05.56Z</time></trkpt><trkpt lat="46.23146" lon="12.8053833"><ele>1001.7142857142857</ele><time>2026-04-25T14:55:06.56Z</time></trkpt><trkpt lat="46.2314033" lon="12.8054467"><ele>1001.2857142857142</ele><time>2026-04-25T14:55:07.561Z</time></trkpt><trkpt lat="46.231355" lon="12.8055167"><ele>1000.8571428571429</ele><time>2026-04-25T14:55:08.561Z</time></trkpt><trkpt lat="46.23131" lon="12.805595"><ele>1000.4285714285713</ele><time>2026-04-25T14:55:09.561Z</time></trkpt><trkpt lat="46.2312683" lon="12.805685"><ele>1000.0</ele><time>2026-04-25T14:55:10.561Z</time></trkpt><trkpt lat="46.23123" lon="12.8057783"><ele>997.1666666666666</ele><time>2026-04-25T14:55:11.56Z</time></trkpt><trkpt lat="46.23119" lon="12.80587"><ele>994.3333333333333</ele><time>2026-04-25T14:55:12.56Z</time></trkpt><trkpt lat="46.23113" lon="12.8059933"><ele>991.5</ele><time>2026-04-25T14:55:14.561Z</time></trkpt><trkpt lat="46.231075" lon="12.80609"><ele>988.6666666666667</ele><time>2026-04-25T14:55:16.561Z</time></trkpt><trkpt lat="46.23101" lon="12.8062183"><ele>985.8333333333334</ele><time>2026-04-25T14:55:18.561Z</time></trkpt><trkpt lat="46.2309733" lon="12.806295"><ele>983.0</ele><time>2026-04-25T14:55:19.56Z</time></trkpt><trkpt lat="46.2309233" lon="12.80645"><ele>983.0</ele><time>2026-04-25T14:55:21.561Z</time></trkpt><trkpt lat="46.23088" lon="12.806595"><ele>983.0</ele><time>2026-04-25T14:55:23.561Z</time></trkpt><trkpt lat="46.23082" lon="12.8067083"><ele>983.0</ele><time>2026-04-25T14:55:25.56Z</time></trkpt><trkpt lat="46.2307717" lon="12.806815"><ele>983.0</ele><time>2026-04-25T14:55:27.561Z</time></trkpt><trkpt lat="46.2307567" lon="12.8069333"><ele>983.0</ele><time>2026-04-25T14:55:29.561Z</time></trkpt><trkpt lat="46.2307483" lon="12.8070567"><ele>983.0000000000001</ele><time>2026-04-25T14:55:31.561Z</time></trkpt><trkpt lat="46.2307517" lon="12.80716"><ele>983.0</ele><time>2026-04-25T14:55:33.561Z</time></trkpt><trkpt lat="46.2307883" lon="12.80725"><ele>983.0</ele><time>2026-04-25T14:55:36.56Z</time></trkpt><trkpt lat="46.23085" lon="12.8073333"><ele>983.0</ele><time>2026-04-25T14:55:38.56Z</time></trkpt><trkpt lat="46.230915" lon="12.8074217"><ele>983.0000000000001</ele><time>2026-04-25T14:55:40.56Z</time></trkpt><trkpt lat="46.2309733" lon="12.80748"><ele>983.0</ele><time>2026-04-25T14:55:42.561Z</time></trkpt><trkpt lat="46.2310283" lon="12.807535"><ele>983.0000000000001</ele><time>2026-04-25T14:55:45.561Z</time></trkpt><trkpt lat="46.23104" lon="12.8074067"><ele>983.0</ele><time>2026-04-25T14:56:11.561Z</time></trkpt><trkpt lat="46.231025" lon="12.8073133"><ele>983.0</ele><time>2026-04-25T15:05:15.561Z</time></trkpt><trkpt lat="46.2310267" lon="12.8074217"><ele>983.0</ele><time>2026-04-25T15:05:21.561Z</time></trkpt><trkpt lat="46.2310083" lon="12.80752"><ele>983.0000000000001</ele><time>2026-04-25T15:05:24.561Z</time></trkpt><trkpt lat="46.2310217" lon="12.807615"><ele>983.0</ele><time>2026-04-25T15:05:26.561Z</time></trkpt><trkpt lat="46.23107" lon="12.8077567"><ele>982.5</ele><time>2026-04-25T15:05:28.561Z</time></trkpt><trkpt lat="46.231105" lon="12.8079133"><ele>982.0</ele><time>2026-04-25T15:05:30.561Z</time></trkpt><trkpt lat="46.231145" lon="12.8080533"><ele>981.5</ele><time>2026-04-25T15:05:32.561Z</time></trkpt><trkpt lat="46.2311933" lon="12.8082067"><ele>981.0</ele><time>2026-04-25T15:05:34.56Z</time></trkpt><trkpt lat="46.2312517" lon="12.8083533"><ele>981.0</ele><time>2026-04-25T15:05:36.561Z</time></trkpt><trkpt lat="46.2312933" lon="12.80848"><ele>981.0</ele><time>2026-04-25T15:05:38.56Z</time></trkpt><trkpt lat="46.2312933" lon="12.8085933"><ele>981.0</ele><time>2026-04-25T15:05:40.56Z</time></trkpt><trkpt lat="46.231265" lon="12.80868"><ele>981.0</ele><time>2026-04-25T15:05:42.561Z</time></trkpt><trkpt lat="46.2312533" lon="12.8088033"><ele>981.0</ele><time>2026-04-25T15:05:45.56Z</time></trkpt><trkpt lat="46.23125" lon="12.808905"><ele>981.0</ele><time>2026-04-25T15:05:48.56Z</time></trkpt><trkpt lat="46.23118" lon="12.808855"><ele>980.8333333333334</ele><time>2026-04-25T15:05:53.56Z</time></trkpt><trkpt lat="46.2310817" lon="12.8088033"><ele>980.6666666666667</ele><time>2026-04-25T15:05:56.56Z</time></trkpt><trkpt lat="46.2310067" lon="12.8087767"><ele>980.5</ele><time>2026-04-25T15:05:57.561Z</time></trkpt><trkpt lat="46.2309267" lon="12.8087483"><ele>980.3333333333334</ele><time>2026-04-25T15:05:58.561Z</time></trkpt><trkpt lat="46.2308483" lon="12.808715"><ele>980.1666666666667</ele><time>2026-04-25T15:05:59.561Z</time></trkpt><trkpt lat="46.2307733" lon="12.80868"><ele>980.0</ele><time>2026-04-25T15:06:00.561Z</time></trkpt><trkpt lat="46.2306967" lon="12.80865"><ele>977.8</ele><time>2026-04-25T15:06:01.561Z</time></trkpt><trkpt lat="46.23063" lon="12.8086217"><ele>975.6</ele><time>2026-04-25T15:06:02.561Z</time></trkpt><trkpt lat="46.230545" lon="12.8085817"><ele>973.4000000000001</ele><time>2026-04-25T15:06:04.561Z</time></trkpt><trkpt lat="46.230465" lon="12.8085483"><ele>971.2</ele><time>2026-04-25T15:06:06.561Z</time></trkpt><trkpt lat="46.2303467" lon="12.8085067"><ele>969.0</ele><time>2026-04-25T15:06:08.56Z</time></trkpt><trkpt lat="46.2302244" lon="12.8084947"><ele>969.0</ele><time>2026-04-25T15:06:10.561Z</time></trkpt><trkpt lat="46.2301566" lon="12.8085048"><ele>969.0</ele><time>2026-04-25T15:06:11.56Z</time></trkpt><trkpt lat="46.2300919" lon="12.8085296"><ele>969.0</ele><time>2026-04-25T15:06:12.561Z</time></trkpt><trkpt lat="46.2299949" lon="12.8086357"><ele>969.0</ele><time>2026-04-25T15:06:14.56Z</time></trkpt><trkpt lat="46.2299614" lon="12.808719"><ele>969.0</ele><time>2026-04-25T15:06:15.56Z</time></trkpt><trkpt lat="46.2299336" lon="12.8088221"><ele>969.0</ele><time>2026-04-25T15:06:16.561Z</time></trkpt><trkpt lat="46.2299091" lon="12.8089339"><ele>968.9999999999999</ele><time>2026-04-25T15:06:17.56Z</time></trkpt><trkpt lat="46.2298909" lon="12.8090439"><ele>969.0</ele><time>2026-04-25T15:06:18.56Z</time></trkpt><trkpt lat="46.2298796" lon="12.8091529"><ele>968.9999999999999</ele><time>2026-04-25T15:06:19.561Z</time></trkpt><trkpt lat="46.2298738" lon="12.809256"><ele>968.9999999999999</ele><time>2026-04-25T15:06:20.56Z</time></trkpt><trkpt lat="46.2298718" lon="12.8093618"><ele>969.0</ele><time>2026-04-25T15:06:21.56Z</time></trkpt><trkpt lat="46.2298719" lon="12.8094717"><ele>968.9999999999999</ele><time>2026-04-25T15:06:22.56Z</time></trkpt><trkpt lat="46.2298748" lon="12.8095765"><ele>968.9999999999999</ele><time>2026-04-25T15:06:23.561Z</time></trkpt><trkpt lat="46.2298795" lon="12.8096906"><ele>969.0</ele><time>2026-04-25T15:06:24.561Z</time></trkpt><trkpt lat="46.2298766" lon="12.8098171"><ele>969.0</ele><time>2026-04-25T15:06:25.561Z</time></trkpt><trkpt lat="46.2298698" lon="12.8099438"><ele>969.0</ele><time>2026-04-25T15:06:26.561Z</time></trkpt><trkpt lat="46.2298707" lon="12.8100605"><ele>969.0</ele><time>2026-04-25T15:06:27.561Z</time></trkpt><trkpt lat="46.2298867" lon="12.8101722"><ele>969.0</ele><time>2026-04-25T15:06:28.56Z</time></trkpt><trkpt lat="46.2299122" lon="12.8102744"><ele>969.0</ele><time>2026-04-25T15:06:29.561Z</time></trkpt><trkpt lat="46.2299385" lon="12.8103601"><ele>968.8333333333334</ele><time>2026-04-25T15:06:30.561Z</time></trkpt><trkpt lat="46.2299846" lon="12.8104559"><ele>968.6666666666667</ele><time>2026-04-25T15:06:32.561Z</time></trkpt><trkpt lat="46.2300683" lon="12.8104733"><ele>968.5</ele><time>2026-04-25T15:06:38.561Z</time></trkpt><trkpt lat="46.2301533" lon="12.8104783"><ele>968.3333333333334</ele><time>2026-04-25T15:06:41.561Z</time></trkpt><trkpt lat="46.23022" lon="12.81048"><ele>968.1666666666667</ele><time>2026-04-25T15:06:43.561Z</time></trkpt><trkpt lat="46.2302867" lon="12.8105"><ele>968.0</ele><time>2026-04-25T15:06:45.56Z</time></trkpt><trkpt lat="46.230345" lon="12.81056"><ele>968.0</ele><time>2026-04-25T15:06:47.562Z</time></trkpt><trkpt lat="46.230405" lon="12.8106467"><ele>968.0</ele><time>2026-04-25T15:06:49.562Z</time></trkpt><trkpt lat="46.23044" lon="12.8107533"><ele>968.0</ele><time>2026-04-25T15:06:51.562Z</time></trkpt><trkpt lat="46.2304533" lon="12.8108517"><ele>968.0</ele><time>2026-04-25T15:06:53.562Z</time></trkpt><trkpt lat="46.230485" lon="12.81095"><ele>968.0</ele><time>2026-04-25T15:06:56.562Z</time></trkpt><trkpt lat="46.23061" lon="12.8110617"><ele>967.3333333333334</ele><time>2026-04-25T15:07:18.561Z</time></trkpt><trkpt lat="46.2306967" lon="12.8111133"><ele>966.6666666666667</ele><time>2026-04-25T15:07:21.561Z</time></trkpt><trkpt lat="46.2307583" lon="12.8112033"><ele>966.0</ele><time>2026-04-25T15:07:23.562Z</time></trkpt><trkpt lat="46.23081" lon="12.81131"><ele>965.3333333333333</ele><time>2026-04-25T15:07:25.562Z</time></trkpt><trkpt lat="46.2308483" lon="12.8114167"><ele>964.6666666666666</ele><time>2026-04-25T15:07:27.562Z</time></trkpt><trkpt lat="46.2309183" lon="12.811485"><ele>964.0</ele><time>2026-04-25T15:07:29.561Z</time></trkpt><trkpt lat="46.23098" lon="12.81153"><ele>963.9999999999999</ele><time>2026-04-25T15:07:31.562Z</time></trkpt><trkpt lat="46.2310433" lon="12.8116083"><ele>964.0</ele><time>2026-04-25T15:07:34.562Z</time></trkpt><trkpt lat="46.2310833" lon="12.811715"><ele>964.0</ele><time>2026-04-25T15:07:36.562Z</time></trkpt><trkpt lat="46.2311033" lon="12.8118267"><ele>964.0</ele><time>2026-04-25T15:07:38.561Z</time></trkpt><trkpt lat="46.23111" lon="12.811935"><ele>963.9999999999999</ele><time>2026-04-25T15:07:40.561Z</time></trkpt><trkpt lat="46.2310967" lon="12.8120517"><ele>964.0</ele><time>2026-04-25T15:07:42.562Z</time></trkpt><trkpt lat="46.2310835" lon="12.8121743"><ele>962.6666666666666</ele><time>2026-04-25T15:07:44.718Z</time></trkpt><trkpt lat="46.2311184" lon="12.8122695"><ele>961.3333333333333</ele><time>2026-04-25T15:07:46.816Z</time></trkpt><trkpt lat="46.2311331" lon="12.8123951"><ele>960.0</ele><time>2026-04-25T15:07:49.799Z</time></trkpt><trkpt lat="46.231163" lon="12.8124897"><ele>958.6666666666667</ele><time>2026-04-25T15:07:51.808Z</time></trkpt><trkpt lat="46.2312233" lon="12.81262"><ele>957.3333333333334</ele><time>2026-04-25T15:07:55.562Z</time></trkpt><trkpt lat="46.2312783" lon="12.812715"><ele>956.0</ele><time>2026-04-25T15:07:58.561Z</time></trkpt><trkpt lat="46.2312467" lon="12.8128367"><ele>955.3333333333334</ele><time>2026-04-25T15:08:01.561Z</time></trkpt><trkpt lat="46.2312067" lon="12.8129117"><ele>954.6666666666667</ele><time>2026-04-25T15:08:03.562Z</time></trkpt><trkpt lat="46.2311326" lon="12.8130156"><ele>954.0</ele><time>2026-04-25T15:08:06.74Z</time></trkpt><trkpt lat="46.2310716" lon="12.8130391"><ele>953.3333333333333</ele><time>2026-04-25T15:08:09.877Z</time></trkpt><trkpt lat="46.2310888" lon="12.8131725"><ele>952.6666666666666</ele><time>2026-04-25T15:08:13.906Z</time></trkpt><trkpt lat="46.2310667" lon="12.8133367"><ele>952.0</ele><time>2026-04-25T15:08:16.562Z</time></trkpt><trkpt lat="46.2310783" lon="12.8134417"><ele>952.1666666666666</ele><time>2026-04-25T15:08:19.562Z</time></trkpt><trkpt lat="46.2310583" lon="12.8135333"><ele>952.3333333333333</ele><time>2026-04-25T15:08:22.561Z</time></trkpt><trkpt lat="46.2310683" lon="12.81363"><ele>952.5</ele><time>2026-04-25T15:08:24.561Z</time></trkpt><trkpt lat="46.2310867" lon="12.81374"><ele>952.6666666666667</ele><time>2026-04-25T15:08:26.56Z</time></trkpt><trkpt lat="46.23111" lon="12.813865"><ele>952.8333333333334</ele><time>2026-04-25T15:08:28.56Z</time></trkpt><trkpt lat="46.2311117" lon="12.8139767"><ele>953.0</ele><time>2026-04-25T15:08:30.561Z</time></trkpt><trkpt lat="46.2311183" lon="12.8140883"><ele>953.0000000000001</ele><time>2026-04-25T15:08:33.561Z</time></trkpt><trkpt lat="46.2311683" lon="12.81419"><ele>953.0</ele><time>2026-04-25T15:08:37.561Z</time></trkpt><trkpt lat="46.2311767" lon="12.81433"><ele>953.0</ele><time>2026-04-25T15:08:44.56Z</time></trkpt><trkpt lat="46.2311767" lon="12.8144433"><ele>953.0</ele><time>2026-04-25T15:08:48.561Z</time></trkpt><trkpt lat="46.2311617" lon="12.8145333"><ele>953.0000000000001</ele><time>2026-04-25T15:08:51.561Z</time></trkpt><trkpt lat="46.2311617" lon="12.8146317"><ele>953.0</ele><time>2026-04-25T15:08:54.56Z</time></trkpt><trkpt lat="46.2311633" lon="12.8147267"><ele>953.5000000000001</ele><time>2026-04-25T15:08:56.561Z</time></trkpt><trkpt lat="46.2311683" lon="12.81483"><ele>954.0</ele><time>2026-04-25T15:08:58.56Z</time></trkpt><trkpt lat="46.231175" lon="12.814965"><ele>954.5</ele><time>2026-04-25T15:09:08.561Z</time></trkpt><trkpt lat="46.2311358" lon="12.8150378"><ele>955.0</ele><time>2026-04-25T15:09:13.518Z</time></trkpt><trkpt lat="46.2310975" lon="12.8151541"><ele>955.5000000000001</ele><time>2026-04-25T15:09:17.785Z</time></trkpt><trkpt lat="46.2310434" lon="12.8152428"><ele>956.0</ele><time>2026-04-25T15:09:21.794Z</time></trkpt><trkpt lat="46.2310001" lon="12.8153391"><ele>956.4285714285716</ele><time>2026-04-25T15:09:24.825Z</time></trkpt><trkpt lat="46.2309458" lon="12.8153923"><ele>956.8571428571429</ele><time>2026-04-25T15:09:26.897Z</time></trkpt><trkpt lat="46.2308953" lon="12.8154528"><ele>957.2857142857143</ele><time>2026-04-25T15:09:28.866Z</time></trkpt><trkpt lat="46.2308733" lon="12.8155399"><ele>957.7142857142858</ele><time>2026-04-25T15:09:30.831Z</time></trkpt><trkpt lat="46.2308151" lon="12.8155926"><ele>958.1428571428571</ele><time>2026-04-25T15:09:32.902Z</time></trkpt><trkpt lat="46.2307593" lon="12.8156461"><ele>958.5714285714286</ele><time>2026-04-25T15:09:34.838Z</time></trkpt><trkpt lat="46.2306961" lon="12.8157122"><ele>959.0</ele><time>2026-04-25T15:09:36.852Z</time></trkpt><trkpt lat="46.2306374" lon="12.8157853"><ele>962.2</ele><time>2026-04-25T15:09:38.867Z</time></trkpt><trkpt lat="46.2306099" lon="12.8158713"><ele>965.4000000000001</ele><time>2026-04-25T15:09:40.857Z</time></trkpt><trkpt lat="46.2306147" lon="12.8159716"><ele>968.6</ele><time>2026-04-25T15:09:43.947Z</time></trkpt><trkpt lat="46.2305848" lon="12.816076"><ele>971.8</ele><time>2026-04-25T15:09:47.906Z</time></trkpt><trkpt lat="46.2305273" lon="12.8161616"><ele>975.0</ele><time>2026-04-25T15:09:51.883Z</time></trkpt><trkpt lat="46.2304449" lon="12.8163598"><ele>975.0</ele><time>2026-04-25T15:09:54.836Z</time></trkpt><trkpt lat="46.2304153" lon="12.8164473"><ele>975.0</ele><time>2026-04-25T15:09:55.887Z</time></trkpt><trkpt lat="46.2303922" lon="12.8166034"><ele>975.0</ele><time>2026-04-25T15:09:57.743Z</time></trkpt><trkpt lat="46.2303526" lon="12.8167615"><ele>975.0</ele><time>2026-04-25T15:09:59.79Z</time></trkpt><trkpt lat="46.2303018" lon="12.8170176"><ele>975.3333333333334</ele><time>2026-04-25T15:10:01.561Z</time></trkpt><trkpt lat="46.2302977" lon="12.8171109"><ele>975.6666666666667</ele><time>2026-04-25T15:10:02.56Z</time></trkpt><trkpt lat="46.2302787" lon="12.8172506"><ele>976.0</ele><time>2026-04-25T15:10:04.56Z</time></trkpt><trkpt lat="46.2302314" lon="12.8173662"><ele>976.3333333333334</ele><time>2026-04-25T15:10:06.561Z</time></trkpt><trkpt lat="46.2301656" lon="12.8174477"><ele>976.6666666666667</ele><time>2026-04-25T15:10:08.56Z</time></trkpt><trkpt lat="46.230095" lon="12.8175069"><ele>977.0</ele><time>2026-04-25T15:10:10.561Z</time></trkpt><trkpt lat="46.2300272" lon="12.8175669"><ele>977.0000000000001</ele><time>2026-04-25T15:10:12.56Z</time></trkpt><trkpt lat="46.2299652" lon="12.8175913"><ele>977.0</ele><time>2026-04-25T15:10:14.561Z</time></trkpt><trkpt lat="46.2299022" lon="12.8175899"><ele>977.0000000000001</ele><time>2026-04-25T15:10:17.83Z</time></trkpt><trkpt lat="46.2298227" lon="12.8175704"><ele>977.0000000000001</ele><time>2026-04-25T15:10:19.872Z</time></trkpt><trkpt lat="46.2297548" lon="12.8176428"><ele>977.0</ele><time>2026-04-25T15:10:21.848Z</time></trkpt><trkpt lat="46.2297101" lon="12.8177123"><ele>977.0000000000001</ele><time>2026-04-25T15:10:23.827Z</time></trkpt><trkpt lat="46.2296949" lon="12.8178027"><ele>977.0000000000001</ele><time>2026-04-25T15:10:26.804Z</time></trkpt><trkpt lat="46.2296835" lon="12.8179374"><ele>977.5000000000001</ele><time>2026-04-25T15:10:29.869Z</time></trkpt><trkpt lat="46.2296609" lon="12.8180491"><ele>978.0</ele><time>2026-04-25T15:10:31.868Z</time></trkpt><trkpt lat="46.2296141" lon="12.8181509"><ele>978.5</ele><time>2026-04-25T15:10:33.866Z</time></trkpt><trkpt lat="46.229565" lon="12.8182397"><ele>979.0</ele><time>2026-04-25T15:10:35.876Z</time></trkpt><trkpt lat="46.2295168" lon="12.8183849"><ele>979.5000000000001</ele><time>2026-04-25T15:10:37.892Z</time></trkpt><trkpt lat="46.2295025" lon="12.8184886"><ele>980.0</ele><time>2026-04-25T15:10:39.884Z</time></trkpt><trkpt lat="46.2294084" lon="12.818572"><ele>980.1666666666667</ele><time>2026-04-25T15:10:42.874Z</time></trkpt><trkpt lat="46.2293288" lon="12.8186289"><ele>980.3333333333334</ele><time>2026-04-25T15:10:44.878Z</time></trkpt><trkpt lat="46.2292691" lon="12.8187167"><ele>980.5</ele><time>2026-04-25T15:10:46.908Z</time></trkpt><trkpt lat="46.2291997" lon="12.818791"><ele>980.6666666666667</ele><time>2026-04-25T15:10:49.816Z</time></trkpt><trkpt lat="46.2291387" lon="12.8188558"><ele>980.8333333333334</ele><time>2026-04-25T15:10:51.867Z</time></trkpt><trkpt lat="46.2290849" lon="12.81894"><ele>981.0</ele><time>2026-04-25T15:10:54.873Z</time></trkpt><trkpt lat="46.2291283" lon="12.8190333"><ele>981.0</ele><time>2026-04-25T15:10:56.561Z</time></trkpt><trkpt lat="46.2291433" lon="12.819155"><ele>981.0</ele><time>2026-04-25T15:10:58.561Z</time></trkpt><trkpt lat="46.2291483" lon="12.8192783"><ele>981.0</ele><time>2026-04-25T15:11:00.56Z</time></trkpt><trkpt lat="46.2291417" lon="12.81937"><ele>981.0</ele><time>2026-04-25T15:11:02.56Z</time></trkpt><trkpt lat="46.2291183" lon="12.8194733"><ele>981.0</ele><time>2026-04-25T15:11:04.561Z</time></trkpt><trkpt lat="46.229085" lon="12.819565"><ele>981.0</ele><time>2026-04-25T15:11:07.56Z</time></trkpt><trkpt lat="46.2290317" lon="12.8196233"><ele>981.0</ele><time>2026-04-25T15:11:10.561Z</time></trkpt><trkpt lat="46.2289983" lon="12.819715"><ele>979.5</ele><time>2026-04-25T15:11:12.561Z</time></trkpt><trkpt lat="46.2289483" lon="12.8197933"><ele>978.0</ele><time>2026-04-25T15:11:14.561Z</time></trkpt><trkpt lat="46.2288917" lon="12.8198583"><ele>976.5</ele><time>2026-04-25T15:11:16.562Z</time></trkpt><trkpt lat="46.228845" lon="12.8199333"><ele>975.0</ele><time>2026-04-25T15:11:18.561Z</time></trkpt><trkpt lat="46.2287883" lon="12.8200433"><ele>973.5</ele><time>2026-04-25T15:11:20.562Z</time></trkpt><trkpt lat="46.2287567" lon="12.8201433"><ele>972.0</ele><time>2026-04-25T15:11:22.562Z</time></trkpt><trkpt lat="46.228745" lon="12.8202433"><ele>972.0</ele><time>2026-04-25T15:11:24.562Z</time></trkpt><trkpt lat="46.2287383" lon="12.820365"><ele>972.0</ele><time>2026-04-25T15:11:26.561Z</time></trkpt><trkpt lat="46.22872" lon="12.82049"><ele>972.0</ele><time>2026-04-25T15:11:29.562Z</time></trkpt><trkpt lat="46.228695" lon="12.820575"><ele>972.0</ele><time>2026-04-25T15:11:32.562Z</time></trkpt><trkpt lat="46.2286712" lon="12.820701"><ele>972.0</ele><time>2026-04-25T15:11:35.807Z</time></trkpt><trkpt lat="46.2286587" lon="12.8207941"><ele>972.0</ele><time>2026-04-25T15:11:37.689Z</time></trkpt><trkpt lat="46.2286664" lon="12.8209101"><ele>974.1666666666666</ele><time>2026-04-25T15:11:39.866Z</time></trkpt><trkpt lat="46.2286675" lon="12.8210178"><ele>976.3333333333333</ele><time>2026-04-25T15:11:41.875Z</time></trkpt><trkpt lat="46.2286554" lon="12.8211117"><ele>978.5</ele><time>2026-04-25T15:11:44.814Z</time></trkpt><trkpt lat="46.2286621" lon="12.8212357"><ele>980.6666666666666</ele><time>2026-04-25T15:12:10.75Z</time></trkpt><trkpt lat="46.228594" lon="12.8212624"><ele>982.8333333333333</ele><time>2026-04-25T15:23:51.814Z</time></trkpt><trkpt lat="46.2286608" lon="12.8212953"><ele>985.0</ele><time>2026-04-25T15:29:44.833Z</time></trkpt><trkpt lat="46.2286167" lon="12.8213983"><ele>985.0</ele><time>2026-04-25T15:32:14.561Z</time></trkpt><trkpt lat="46.228615" lon="12.8212933"><ele>985.0000000000001</ele><time>2026-04-25T15:32:28.561Z</time></trkpt><trkpt lat="46.2285917" lon="12.821185"><ele>985.0</ele><time>2026-04-25T15:32:35.562Z</time></trkpt><trkpt lat="46.2285867" lon="12.8210917"><ele>985.0</ele><time>2026-04-25T15:32:42.562Z</time></trkpt><trkpt lat="46.2285733" lon="12.8209967"><ele>985.0000000000001</ele><time>2026-04-25T15:32:45.561Z</time></trkpt><trkpt lat="46.2285667" lon="12.820905"><ele>985.0</ele><time>2026-04-25T15:32:53.561Z</time></trkpt><trkpt lat="46.22858" lon="12.8207917"><ele>985.0</ele><time>2026-04-25T15:32:57.561Z</time></trkpt><trkpt lat="46.2286133" lon="12.820685"><ele>983.1428571428572</ele><time>2026-04-25T15:35:07.561Z</time></trkpt><trkpt lat="46.2286383" lon="12.8205683"><ele>981.2857142857144</ele><time>2026-04-25T15:35:12.561Z</time></trkpt><trkpt lat="46.2286533" lon="12.82047"><ele>979.4285714285714</ele><time>2026-04-25T15:35:15.561Z</time></trkpt><trkpt lat="46.228665" lon="12.8203717"><ele>977.5714285714287</ele><time>2026-04-25T15:35:20.561Z</time></trkpt><trkpt lat="46.22869" lon="12.8202717"><ele>975.7142857142858</ele><time>2026-04-25T15:35:33.561Z</time></trkpt><trkpt lat="46.2287167" lon="12.8201883"><ele>973.8571428571429</ele><time>2026-04-25T15:35:36.56Z</time></trkpt><trkpt lat="46.2287567" lon="12.8201"><ele>972.0</ele><time>2026-04-25T15:35:39.561Z</time></trkpt><trkpt lat="46.2288117" lon="12.820045"><ele>970.1666666666666</ele><time>2026-04-25T15:35:47.56Z</time></trkpt><trkpt lat="46.2288717" lon="12.819975"><ele>968.3333333333333</ele><time>2026-04-25T15:35:52.56Z</time></trkpt><trkpt lat="46.2289433" lon="12.8199083"><ele>966.5</ele><time>2026-04-25T15:35:55.561Z</time></trkpt><trkpt lat="46.228985" lon="12.81982"><ele>964.6666666666666</ele><time>2026-04-25T15:35:58.561Z</time></trkpt><trkpt lat="46.2290333" lon="12.8197367"><ele>962.8333333333333</ele><time>2026-04-25T15:36:03.56Z</time></trkpt><trkpt lat="46.2290667" lon="12.8196517"><ele>961.0</ele><time>2026-04-25T15:36:07.56Z</time></trkpt><trkpt lat="46.2290767" lon="12.81955"><ele>964.3333333333333</ele><time>2026-04-25T15:36:13.561Z</time></trkpt><trkpt lat="46.22905" lon="12.819435"><ele>967.6666666666666</ele><time>2026-04-25T15:36:17.561Z</time></trkpt><trkpt lat="46.2290583" lon="12.81931"><ele>971.0</ele><time>2026-04-25T15:36:21.56Z</time></trkpt><trkpt lat="46.2290883" lon="12.8191983"><ele>974.3333333333333</ele><time>2026-04-25T15:36:24.56Z</time></trkpt><trkpt lat="46.2291233" lon="12.81912"><ele>977.6666666666666</ele><time>2026-04-25T15:36:30.56Z</time></trkpt><trkpt lat="46.229175" lon="12.8190483"><ele>981.0</ele><time>2026-04-25T15:36:36.56Z</time></trkpt><trkpt lat="46.2292017" lon="12.8189483"><ele>981.0</ele><time>2026-04-25T15:36:41.56Z</time></trkpt><trkpt lat="46.2292383" lon="12.8188683"><ele>981.0</ele><time>2026-04-25T15:36:45.56Z</time></trkpt><trkpt lat="46.229295" lon="12.8187867"><ele>981.0</ele><time>2026-04-25T15:36:49.56Z</time></trkpt><trkpt lat="46.2293567" lon="12.81872"><ele>981.0</ele><time>2026-04-25T15:36:52.56Z</time></trkpt><trkpt lat="46.22942" lon="12.8186517"><ele>981.0</ele><time>2026-04-25T15:36:55.561Z</time></trkpt><trkpt lat="46.2294483" lon="12.81857"><ele>981.0</ele><time>2026-04-25T15:37:00.56Z</time></trkpt><trkpt lat="46.229545" lon="12.81843"><ele>980.8</ele><time>2026-04-25T15:37:22.56Z</time></trkpt><trkpt lat="46.2295967" lon="12.8183483"><ele>980.5999999999999</ele><time>2026-04-25T15:37:24.561Z</time></trkpt><trkpt lat="46.2295431" lon="12.818413"><ele>980.4</ele><time>2026-04-25T15:37:26.312Z</time></trkpt><trkpt lat="46.2296074" lon="12.8183155"><ele>980.2</ele><time>2026-04-25T15:37:27.28Z</time></trkpt><trkpt lat="46.2296731" lon="12.8182118"><ele>980.0</ele><time>2026-04-25T15:37:29.289Z</time></trkpt><trkpt lat="46.229695" lon="12.81793"><ele>980.0</ele><time>2026-04-25T15:37:32.561Z</time></trkpt><trkpt lat="46.2297017" lon="12.8178383"><ele>980.0</ele><time>2026-04-25T15:37:35.561Z</time></trkpt><trkpt lat="46.22972" lon="12.8177367"><ele>980.0</ele><time>2026-04-25T15:37:39.562Z</time></trkpt><trkpt lat="46.22978" lon="12.817655"><ele>980.0</ele><time>2026-04-25T15:37:43.561Z</time></trkpt><trkpt lat="46.229835" lon="12.817595"><ele>980.0</ele><time>2026-04-25T15:37:47.562Z</time></trkpt><trkpt lat="46.2299017" lon="12.8175867"><ele>980.0</ele><time>2026-04-25T15:37:53.562Z</time></trkpt><trkpt lat="46.229965" lon="12.817605"><ele>980.0</ele><time>2026-04-25T15:37:58.561Z</time></trkpt><trkpt lat="46.2300283" lon="12.81756"><ele>979.5000000000001</ele><time>2026-04-25T15:38:02.562Z</time></trkpt><trkpt lat="46.2300917" lon="12.8174967"><ele>979.0</ele><time>2026-04-25T15:38:05.562Z</time></trkpt><trkpt lat="46.2301533" lon="12.8174467"><ele>978.5</ele><time>2026-04-25T15:38:08.561Z</time></trkpt><trkpt lat="46.230205" lon="12.81737"><ele>978.0</ele><time>2026-04-25T15:38:12.562Z</time></trkpt><trkpt lat="46.2302267" lon="12.817255"><ele>977.5000000000001</ele><time>2026-04-25T15:38:16.562Z</time></trkpt><trkpt lat="46.2302567" lon="12.817165"><ele>977.0</ele><time>2026-04-25T15:38:19.562Z</time></trkpt><trkpt lat="46.230295" lon="12.8170417"><ele>977.0</ele><time>2026-04-25T15:38:21.562Z</time></trkpt><trkpt lat="46.2303283" lon="12.816885"><ele>977.0</ele><time>2026-04-25T15:38:23.561Z</time></trkpt><trkpt lat="46.2303733" lon="12.8167367"><ele>977.0</ele><time>2026-04-25T15:38:25.562Z</time></trkpt><trkpt lat="46.2304217" lon="12.8165833"><ele>977.0</ele><time>2026-04-25T15:38:27.561Z</time></trkpt><trkpt lat="46.2304567" lon="12.816465"><ele>977.0</ele><time>2026-04-25T15:38:29.561Z</time></trkpt><trkpt lat="46.2304917" lon="12.816365"><ele>977.0000000000001</ele><time>2026-04-25T15:38:31.561Z</time></trkpt><trkpt lat="46.2305083" lon="12.8162733"><ele>977.0</ele><time>2026-04-25T15:38:34.562Z</time></trkpt><trkpt lat="46.2305067" lon="12.816165"><ele>977.0</ele><time>2026-04-25T15:38:38.562Z</time></trkpt><trkpt lat="46.2305122" lon="12.8160327"><ele>977.0</ele><time>2026-04-25T15:38:42.327Z</time></trkpt><trkpt lat="46.2305736" lon="12.8160077"><ele>977.0000000000001</ele><time>2026-04-25T15:38:44.215Z</time></trkpt><trkpt lat="46.2306397" lon="12.8159191"><ele>977.0</ele><time>2026-04-25T15:38:47.226Z</time></trkpt><trkpt lat="46.2306958" lon="12.8158518"><ele>974.4285714285716</ele><time>2026-04-25T15:38:49.645Z</time></trkpt><trkpt lat="46.2307508" lon="12.8157855"><ele>971.8571428571429</ele><time>2026-04-25T15:38:53.236Z</time></trkpt><trkpt lat="46.230798" lon="12.8156961"><ele>969.2857142857143</ele><time>2026-04-25T15:38:56.22Z</time></trkpt><trkpt lat="46.2308358" lon="12.8156075"><ele>966.7142857142858</ele><time>2026-04-25T15:39:00.289Z</time></trkpt><trkpt lat="46.2308816" lon="12.8155391"><ele>964.1428571428571</ele><time>2026-04-25T15:39:13.182Z</time></trkpt><trkpt lat="46.2309253" lon="12.8154729"><ele>961.5714285714286</ele><time>2026-04-25T15:39:16.186Z</time></trkpt><trkpt lat="46.2309699" lon="12.8153973"><ele>959.0</ele><time>2026-04-25T15:39:19.249Z</time></trkpt><trkpt lat="46.2310075" lon="12.8153138"><ele>959.0000000000001</ele><time>2026-04-25T15:39:27.23Z</time></trkpt><trkpt lat="46.2310553" lon="12.8152193"><ele>959.0</ele><time>2026-04-25T15:39:31.331Z</time></trkpt><trkpt lat="46.2311002" lon="12.8151552"><ele>959.0</ele><time>2026-04-25T15:39:36.324Z</time></trkpt><trkpt lat="46.2311498" lon="12.8150021"><ele>959.0</ele><time>2026-04-25T15:39:56.211Z</time></trkpt><trkpt lat="46.2311721" lon="12.8148856"><ele>959.0000000000001</ele><time>2026-04-25T15:39:59.216Z</time></trkpt><trkpt lat="46.2311805" lon="12.8147839"><ele>959.0</ele><time>2026-04-25T15:40:03.129Z</time></trkpt><trkpt lat="46.231148" lon="12.8147052"><ele>958.5714285714286</ele><time>2026-04-25T15:40:09.255Z</time></trkpt><trkpt lat="46.23118" lon="12.8146117"><ele>958.1428571428571</ele><time>2026-04-25T15:40:13.56Z</time></trkpt><trkpt lat="46.2311917" lon="12.8145"><ele>957.7142857142858</ele><time>2026-04-25T15:40:22.56Z</time></trkpt><trkpt lat="46.23119" lon="12.8143983"><ele>957.2857142857143</ele><time>2026-04-25T15:40:27.56Z</time></trkpt><trkpt lat="46.2311933" lon="12.8142983"><ele>956.8571428571429</ele><time>2026-04-25T15:40:32.561Z</time></trkpt><trkpt lat="46.2311467" lon="12.8142233"><ele>956.4285714285716</ele><time>2026-04-25T15:40:36.56Z</time></trkpt><trkpt lat="46.2311217" lon="12.8141317"><ele>956.0000000000001</ele><time>2026-04-25T15:40:42.561Z</time></trkpt><trkpt lat="46.2311267" lon="12.8140183"><ele>955.5714285714287</ele><time>2026-04-25T15:40:46.56Z</time></trkpt><trkpt lat="46.2311267" lon="12.8139167"><ele>955.1428571428571</ele><time>2026-04-25T15:40:49.56Z</time></trkpt><trkpt lat="46.2311183" lon="12.813825"><ele>954.7142857142858</ele><time>2026-04-25T15:40:52.561Z</time></trkpt><trkpt lat="46.2311067" lon="12.8137117"><ele>954.2857142857143</ele><time>2026-04-25T15:40:55.56Z</time></trkpt><trkpt lat="46.231105" lon="12.8136167"><ele>953.8571428571429</ele><time>2026-04-25T15:40:59.56Z</time></trkpt><trkpt lat="46.23108" lon="12.8135283"><ele>953.4285714285714</ele><time>2026-04-25T15:41:12.56Z</time></trkpt><trkpt lat="46.2310483" lon="12.8134467"><ele>953.0</ele><time>2026-04-25T15:41:27.56Z</time></trkpt><trkpt lat="46.23107" lon="12.8133517"><ele>952.8571428571429</ele><time>2026-04-25T15:41:36.561Z</time></trkpt><trkpt lat="46.2310617" lon="12.8132417"><ele>952.7142857142857</ele><time>2026-04-25T15:41:45.561Z</time></trkpt><trkpt lat="46.2310633" lon="12.813145"><ele>952.5714285714286</ele><time>2026-04-25T15:41:49.561Z</time></trkpt><trkpt lat="46.23111" lon="12.8130817"><ele>952.4285714285714</ele><time>2026-04-25T15:42:00.56Z</time></trkpt><trkpt lat="46.2311767" lon="12.8130233"><ele>952.2857142857142</ele><time>2026-04-25T15:42:06.561Z</time></trkpt><trkpt lat="46.2312233" lon="12.81295"><ele>952.1428571428571</ele><time>2026-04-25T15:42:11.56Z</time></trkpt><trkpt lat="46.23127" lon="12.8128683"><ele>952.0</ele><time>2026-04-25T15:42:17.561Z</time></trkpt><trkpt lat="46.2313183" lon="12.8127733"><ele>952.0</ele><time>2026-04-25T15:42:21.56Z</time></trkpt><trkpt lat="46.2313" lon="12.8126767"><ele>952.0</ele><time>2026-04-25T15:42:25.561Z</time></trkpt><trkpt lat="46.23125" lon="12.8125983"><ele>952.0</ele><time>2026-04-25T15:42:30.561Z</time></trkpt><trkpt lat="46.23122" lon="12.8125067"><ele>952.0</ele><time>2026-04-25T15:42:33.561Z</time></trkpt><trkpt lat="46.2311783" lon="12.81242"><ele>952.0</ele><time>2026-04-25T15:42:36.56Z</time></trkpt><trkpt lat="46.2311533" lon="12.8123183"><ele>952.0</ele><time>2026-04-25T15:42:40.56Z</time></trkpt><trkpt lat="46.2311333" lon="12.8122033"><ele>952.0</ele><time>2026-04-25T15:42:44.561Z</time></trkpt><trkpt lat="46.2311567" lon="12.8120933"><ele>952.6666666666666</ele><time>2026-04-25T15:42:47.561Z</time></trkpt><trkpt lat="46.23119" lon="12.811985"><ele>953.3333333333333</ele><time>2026-04-25T15:42:50.562Z</time></trkpt><trkpt lat="46.2311917" lon="12.811885"><ele>954.0</ele><time>2026-04-25T15:42:53.562Z</time></trkpt><trkpt lat="46.231185" lon="12.8117867"><ele>954.6666666666667</ele><time>2026-04-25T15:42:57.562Z</time></trkpt><trkpt lat="46.2311767" lon="12.8116833"><ele>955.3333333333334</ele><time>2026-04-25T15:43:01.562Z</time></trkpt><trkpt lat="46.2311233" lon="12.81161"><ele>956.0</ele><time>2026-04-25T15:43:05.562Z</time></trkpt><trkpt lat="46.2310467" lon="12.8115483"><ele>957.1428571428573</ele><time>2026-04-25T15:43:09.562Z</time></trkpt><trkpt lat="46.2309983" lon="12.8114667"><ele>958.2857142857143</ele><time>2026-04-25T15:43:12.561Z</time></trkpt><trkpt lat="46.2309602" lon="12.8113867"><ele>959.4285714285716</ele><time>2026-04-25T15:43:17.26Z</time></trkpt><trkpt lat="46.2309099" lon="12.8112767"><ele>960.5714285714287</ele><time>2026-04-25T15:43:20.51Z</time></trkpt><trkpt lat="46.2308503" lon="12.8112342"><ele>961.7142857142858</ele><time>2026-04-25T15:43:23.028Z</time></trkpt><trkpt lat="46.2307883" lon="12.811185"><ele>962.8571428571429</ele><time>2026-04-25T15:43:24.562Z</time></trkpt><trkpt lat="46.2307267" lon="12.8111467"><ele>964.0</ele><time>2026-04-25T15:43:28.562Z</time></trkpt><trkpt lat="46.23067" lon="12.811105"><ele>963.6</ele><time>2026-04-25T15:43:34.562Z</time></trkpt><trkpt lat="46.2305733" lon="12.8110333"><ele>963.2</ele><time>2026-04-25T15:43:54.562Z</time></trkpt><trkpt lat="46.23045" lon="12.81095"><ele>962.8000000000001</ele><time>2026-04-25T15:45:31.562Z</time></trkpt><trkpt lat="46.230435" lon="12.8108533"><ele>962.4000000000001</ele><time>2026-04-25T15:45:37.562Z</time></trkpt><trkpt lat="46.230445" lon="12.8107417"><ele>962.0</ele><time>2026-04-25T15:45:40.561Z</time></trkpt><trkpt lat="46.23042" lon="12.8106517"><ele>962.8571428571427</ele><time>2026-04-25T15:45:45.561Z</time></trkpt><trkpt lat="46.2303817" lon="12.8105783"><ele>963.7142857142857</ele><time>2026-04-25T15:45:51.562Z</time></trkpt><trkpt lat="46.2303117" lon="12.8105433"><ele>964.5714285714284</ele><time>2026-04-25T15:45:56.562Z</time></trkpt><trkpt lat="46.2302433" lon="12.810535"><ele>965.4285714285713</ele><time>2026-04-25T15:46:00.562Z</time></trkpt><trkpt lat="46.230165" lon="12.8105167"><ele>966.2857142857142</ele><time>2026-04-25T15:46:04.562Z</time></trkpt><trkpt lat="46.2301033" lon="12.81046"><ele>967.1428571428571</ele><time>2026-04-25T15:46:09.562Z</time></trkpt><trkpt lat="46.23004" lon="12.8104433"><ele>968.0</ele><time>2026-04-25T15:46:15.561Z</time></trkpt><trkpt lat="46.2299967" lon="12.8103433"><ele>968.0</ele><time>2026-04-25T15:46:19.561Z</time></trkpt><trkpt lat="46.2299667" lon="12.8102567"><ele>968.0</ele><time>2026-04-25T15:46:21.561Z</time></trkpt><trkpt lat="46.2299233" lon="12.810065"><ele>968.0</ele><time>2026-04-25T15:46:24.561Z</time></trkpt><trkpt lat="46.2299283" lon="12.8099"><ele>968.0</ele><time>2026-04-25T15:46:26.561Z</time></trkpt><trkpt lat="46.22994" lon="12.8097217"><ele>968.0</ele><time>2026-04-25T15:46:28.56Z</time></trkpt><trkpt lat="46.229945" lon="12.8095517"><ele>968.2</ele><time>2026-04-25T15:46:30.56Z</time></trkpt><trkpt lat="46.2299333" lon="12.8093783"><ele>968.4</ele><time>2026-04-25T15:46:32.561Z</time></trkpt><trkpt lat="46.2299267" lon="12.80921"><ele>968.6000000000001</ele><time>2026-04-25T15:46:34.56Z</time></trkpt><trkpt lat="46.2299333" lon="12.8090583"><ele>968.8000000000001</ele><time>2026-04-25T15:46:36.56Z</time></trkpt><trkpt lat="46.2299533" lon="12.8089217"><ele>969.0</ele><time>2026-04-25T15:46:38.56Z</time></trkpt><trkpt lat="46.2300117" lon="12.8088183"><ele>969.0</ele><time>2026-04-25T15:46:40.561Z</time></trkpt><trkpt lat="46.230105" lon="12.8087333"><ele>969.0000000000001</ele><time>2026-04-25T15:46:42.561Z</time></trkpt><trkpt lat="46.2301667" lon="12.8087067"><ele>969.0000000000001</ele><time>2026-04-25T15:46:43.561Z</time></trkpt><trkpt lat="46.230285" lon="12.8086583"><ele>969.0</ele><time>2026-04-25T15:46:45.561Z</time></trkpt><trkpt lat="46.2303467" lon="12.80864"><ele>969.0</ele><time>2026-04-25T15:46:46.561Z</time></trkpt><trkpt lat="46.2304567" lon="12.808605"><ele>969.0</ele><time>2026-04-25T15:46:48.561Z</time></trkpt><trkpt lat="46.2305467" lon="12.8085833"><ele>969.0000000000001</ele><time>2026-04-25T15:46:50.561Z</time></trkpt><trkpt lat="46.23062" lon="12.808585"><ele>969.0000000000001</ele><time>2026-04-25T15:46:52.561Z</time></trkpt><trkpt lat="46.2307017" lon="12.8086183"><ele>969.0</ele><time>2026-04-25T15:46:54.561Z</time></trkpt><trkpt lat="46.2307933" lon="12.8086683"><ele>969.0</ele><time>2026-04-25T15:46:56.561Z</time></trkpt><trkpt lat="46.230895" lon="12.8087167"><ele>970.8333333333334</ele><time>2026-04-25T15:46:58.561Z</time></trkpt><trkpt lat="46.23101" lon="12.8087633"><ele>972.6666666666667</ele><time>2026-04-25T15:47:00.561Z</time></trkpt><trkpt lat="46.23111" lon="12.8088083"><ele>974.5</ele><time>2026-04-25T15:47:02.56Z</time></trkpt><trkpt lat="46.231175" lon="12.80884"><ele>976.3333333333334</ele><time>2026-04-25T15:47:04.561Z</time></trkpt><trkpt lat="46.2312433" lon="12.8088583"><ele>978.1666666666667</ele><time>2026-04-25T15:47:08.56Z</time></trkpt><trkpt lat="46.231245" lon="12.808765"><ele>980.0</ele><time>2026-04-25T15:47:12.561Z</time></trkpt><trkpt lat="46.2312617" lon="12.80865"><ele>980.0</ele><time>2026-04-25T15:47:15.561Z</time></trkpt><trkpt lat="46.2312767" lon="12.8085433"><ele>980.0</ele><time>2026-04-25T15:47:17.561Z</time></trkpt><trkpt lat="46.2312733" lon="12.8084483"><ele>980.0</ele><time>2026-04-25T15:47:19.561Z</time></trkpt><trkpt lat="46.2312417" lon="12.808355"><ele>980.0</ele><time>2026-04-25T15:47:21.561Z</time></trkpt><trkpt lat="46.2312133" lon="12.8082717"><ele>980.0</ele><time>2026-04-25T15:47:23.561Z</time></trkpt><trkpt lat="46.2311917" lon="12.8081817"><ele>980.0</ele><time>2026-04-25T15:47:26.561Z</time></trkpt><trkpt lat="46.231205" lon="12.8080533"><ele>980.0</ele><time>2026-04-25T15:47:29.561Z</time></trkpt><trkpt lat="46.2312217" lon="12.80796"><ele>980.1428571428571</ele><time>2026-04-25T15:47:31.56Z</time></trkpt><trkpt lat="46.2312583" lon="12.8078767"><ele>980.2857142857142</ele><time>2026-04-25T15:47:33.561Z</time></trkpt><trkpt lat="46.23131" lon="12.8077733"><ele>980.4285714285714</ele><time>2026-04-25T15:47:36.56Z</time></trkpt><trkpt lat="46.231355" lon="12.8077067"><ele>980.5714285714286</ele><time>2026-04-25T15:47:38.561Z</time></trkpt><trkpt lat="46.2314233" lon="12.807715"><ele>980.7142857142857</ele><time>2026-04-25T15:47:40.561Z</time></trkpt><trkpt lat="46.2314917" lon="12.80772"><ele>980.8571428571429</ele><time>2026-04-25T15:47:42.561Z</time></trkpt><trkpt lat="46.23156" lon="12.8076917"><ele>981.0</ele><time>2026-04-25T15:47:44.561Z</time></trkpt><trkpt lat="46.2316183" lon="12.8076283"><ele>981.8</ele><time>2026-04-25T15:47:46.56Z</time></trkpt><trkpt lat="46.2316633" lon="12.8075133"><ele>982.5999999999999</ele><time>2026-04-25T15:47:48.561Z</time></trkpt><trkpt lat="46.231705" lon="12.8073733"><ele>983.4</ele><time>2026-04-25T15:47:50.56Z</time></trkpt><trkpt lat="46.231775" lon="12.8072817"><ele>984.2</ele><time>2026-04-25T15:47:52.561Z</time></trkpt><trkpt lat="46.2318717" lon="12.80729"><ele>985.0</ele><time>2026-04-25T15:47:54.561Z</time></trkpt><trkpt lat="46.231995" lon="12.8073567"><ele>984.9999999999999</ele><time>2026-04-25T15:47:56.561Z</time></trkpt><trkpt lat="46.2320667" lon="12.8074033"><ele>985.0</ele><time>2026-04-25T15:47:57.561Z</time></trkpt><trkpt lat="46.2321383" lon="12.807455"><ele>985.0</ele><time>2026-04-25T15:47:58.561Z</time></trkpt><trkpt lat="46.2322117" lon="12.8075083"><ele>985.0</ele><time>2026-04-25T15:47:59.56Z</time></trkpt><trkpt lat="46.2322817" lon="12.8075583"><ele>984.9999999999999</ele><time>2026-04-25T15:48:00.561Z</time></trkpt><trkpt lat="46.2323583" lon="12.8075983"><ele>985.0</ele><time>2026-04-25T15:48:01.56Z</time></trkpt><trkpt lat="46.2324383" lon="12.8076183"><ele>983.3333333333333</ele><time>2026-04-25T15:48:02.561Z</time></trkpt><trkpt lat="46.232515" lon="12.807615"><ele>981.6666666666666</ele><time>2026-04-25T15:48:03.561Z</time></trkpt><trkpt lat="46.2325883" lon="12.807585"><ele>980.0</ele><time>2026-04-25T15:48:04.561Z</time></trkpt><trkpt lat="46.2326633" lon="12.8075567"><ele>978.3333333333333</ele><time>2026-04-25T15:48:05.561Z</time></trkpt><trkpt lat="46.23274" lon="12.8075417"><ele>976.6666666666666</ele><time>2026-04-25T15:48:06.56Z</time></trkpt><trkpt lat="46.2328167" lon="12.807545"><ele>975.0</ele><time>2026-04-25T15:48:07.56Z</time></trkpt><trkpt lat="46.2328983" lon="12.8075683"><ele>975.0</ele><time>2026-04-25T15:48:08.561Z</time></trkpt><trkpt lat="46.232975" lon="12.8076067"><ele>975.0</ele><time>2026-04-25T15:48:09.561Z</time></trkpt><trkpt lat="46.2330533" lon="12.80764"><ele>975.0</ele><time>2026-04-25T15:48:10.561Z</time></trkpt><trkpt lat="46.233135" lon="12.8076567"><ele>975.0</ele><time>2026-04-25T15:48:11.56Z</time></trkpt><trkpt lat="46.2332117" lon="12.8076583"><ele>975.0</ele><time>2026-04-25T15:48:12.56Z</time></trkpt><trkpt lat="46.2332867" lon="12.8076417"><ele>975.0</ele><time>2026-04-25T15:48:13.561Z</time></trkpt><trkpt lat="46.2333583" lon="12.8076167"><ele>974.0</ele><time>2026-04-25T15:48:14.56Z</time></trkpt><trkpt lat="46.23343" lon="12.80759"><ele>972.9999999999999</ele><time>2026-04-25T15:48:15.561Z</time></trkpt><trkpt lat="46.2334983" lon="12.8075717"><ele>972.0</ele><time>2026-04-25T15:48:16.561Z</time></trkpt><trkpt lat="46.2335667" lon="12.8075667"><ele>971.0</ele><time>2026-04-25T15:48:17.561Z</time></trkpt><trkpt lat="46.2336367" lon="12.8075967"><ele>969.9999999999999</ele><time>2026-04-25T15:48:18.561Z</time></trkpt><trkpt lat="46.2336967" lon="12.807655"><ele>969.0</ele><time>2026-04-25T15:48:19.56Z</time></trkpt><trkpt lat="46.2337383" lon="12.807735"><ele>968.0</ele><time>2026-04-25T15:48:20.561Z</time></trkpt><trkpt lat="46.23378" lon="12.80782"><ele>967.0000000000001</ele><time>2026-04-25T15:48:21.56Z</time></trkpt><trkpt lat="46.233825" lon="12.8079"><ele>966.0</ele><time>2026-04-25T15:48:22.561Z</time></trkpt><trkpt lat="46.2338733" lon="12.8079667"><ele>965.0</ele><time>2026-04-25T15:48:23.561Z</time></trkpt><trkpt lat="46.23398" lon="12.8080217"><ele>964.0</ele><time>2026-04-25T15:48:25.561Z</time></trkpt><trkpt lat="46.2340917" lon="12.8079683"><ele>963.0000000000001</ele><time>2026-04-25T15:48:27.561Z</time></trkpt><trkpt lat="46.2341483" lon="12.8078933"><ele>962.0</ele><time>2026-04-25T15:48:28.56Z</time></trkpt><trkpt lat="46.2342117" lon="12.807815"><ele>961.6666666666667</ele><time>2026-04-25T15:48:29.561Z</time></trkpt><trkpt lat="46.2342783" lon="12.807745"><ele>961.3333333333334</ele><time>2026-04-25T15:48:30.561Z</time></trkpt><trkpt lat="46.234345" lon="12.80768"><ele>961.0</ele><time>2026-04-25T15:48:31.561Z</time></trkpt><trkpt lat="46.2344133" lon="12.807635"><ele>960.6666666666667</ele><time>2026-04-25T15:48:32.561Z</time></trkpt><trkpt lat="46.2344867" lon="12.8076133"><ele>960.3333333333334</ele><time>2026-04-25T15:48:33.561Z</time></trkpt><trkpt lat="46.2345617" lon="12.80762"><ele>960.0</ele><time>2026-04-25T15:48:34.561Z</time></trkpt><trkpt lat="46.23463" lon="12.8076533"><ele>960.0</ele><time>2026-04-25T15:48:35.561Z</time></trkpt><trkpt lat="46.2347017" lon="12.8077067"><ele>960.0</ele><time>2026-04-25T15:48:36.56Z</time></trkpt><trkpt lat="46.23477" lon="12.80777"><ele>960.0</ele><time>2026-04-25T15:48:37.561Z</time></trkpt><trkpt lat="46.2348367" lon="12.80784"><ele>960.0</ele><time>2026-04-25T15:48:38.561Z</time></trkpt><trkpt lat="46.2349" lon="12.807915"><ele>960.0</ele><time>2026-04-25T15:48:39.56Z</time></trkpt><trkpt lat="46.2349583" lon="12.8079967"><ele>960.0</ele><time>2026-04-25T15:48:40.561Z</time></trkpt><trkpt lat="46.2350133" lon="12.8080883"><ele>958.6666666666666</ele><time>2026-04-25T15:48:41.561Z</time></trkpt><trkpt lat="46.235065" lon="12.8081817"><ele>957.3333333333333</ele><time>2026-04-25T15:48:42.56Z</time></trkpt><trkpt lat="46.2351133" lon="12.8082783"><ele>956.0</ele><time>2026-04-25T15:48:43.561Z</time></trkpt><trkpt lat="46.2351633" lon="12.8083733"><ele>954.6666666666666</ele><time>2026-04-25T15:48:44.561Z</time></trkpt><trkpt lat="46.2352133" lon="12.80847"><ele>953.3333333333333</ele><time>2026-04-25T15:48:45.561Z</time></trkpt><trkpt lat="46.235265" lon="12.8085633"><ele>952.0</ele><time>2026-04-25T15:48:46.56Z</time></trkpt><trkpt lat="46.2353183" lon="12.8086533"><ele>951.8333333333333</ele><time>2026-04-25T15:48:47.561Z</time></trkpt><trkpt lat="46.2353683" lon="12.8087383"><ele>951.6666666666666</ele><time>2026-04-25T15:48:48.561Z</time></trkpt><trkpt lat="46.235415" lon="12.80882"><ele>951.5</ele><time>2026-04-25T15:48:49.561Z</time></trkpt><trkpt lat="46.2354583" lon="12.8089067"><ele>951.3333333333333</ele><time>2026-04-25T15:48:50.561Z</time></trkpt><trkpt lat="46.2355067" lon="12.8089883"><ele>951.1666666666666</ele><time>2026-04-25T15:48:51.561Z</time></trkpt><trkpt lat="46.2355583" lon="12.80907"><ele>951.0</ele><time>2026-04-25T15:48:52.561Z</time></trkpt><trkpt lat="46.2356133" lon="12.809145"><ele>950.1666666666666</ele><time>2026-04-25T15:48:53.561Z</time></trkpt><trkpt lat="46.2356667" lon="12.8092317"><ele>949.3333333333333</ele><time>2026-04-25T15:48:54.561Z</time></trkpt><trkpt lat="46.2357217" lon="12.8093183"><ele>948.5</ele><time>2026-04-25T15:48:55.56Z</time></trkpt><trkpt lat="46.23578" lon="12.8094"><ele>947.6666666666666</ele><time>2026-04-25T15:48:56.56Z</time></trkpt><trkpt lat="46.2358417" lon="12.8094817"><ele>946.8333333333333</ele><time>2026-04-25T15:48:57.561Z</time></trkpt><trkpt lat="46.2359117" lon="12.809565"><ele>946.0</ele><time>2026-04-25T15:48:58.561Z</time></trkpt><trkpt lat="46.2359933" lon="12.8096383"><ele>945.1999999999999</ele><time>2026-04-25T15:48:59.561Z</time></trkpt><trkpt lat="46.236075" lon="12.8097183"><ele>944.3999999999999</ele><time>2026-04-25T15:49:00.56Z</time></trkpt><trkpt lat="46.2361667" lon="12.8098033"><ele>943.6</ele><time>2026-04-25T15:49:01.56Z</time></trkpt><trkpt lat="46.2362567" lon="12.8098917"><ele>942.8</ele><time>2026-04-25T15:49:02.56Z</time></trkpt><trkpt lat="46.236345" lon="12.8099783"><ele>942.0</ele><time>2026-04-25T15:49:03.561Z</time></trkpt><trkpt lat="46.23644" lon="12.8100733"><ele>941.25</ele><time>2026-04-25T15:49:04.561Z</time></trkpt><trkpt lat="46.2365483" lon="12.810175"><ele>940.5</ele><time>2026-04-25T15:49:05.56Z</time></trkpt><trkpt lat="46.2366617" lon="12.8102917"><ele>939.75</ele><time>2026-04-25T15:49:06.561Z</time></trkpt><trkpt lat="46.2367717" lon="12.81042"><ele>939.0</ele><time>2026-04-25T15:49:07.56Z</time></trkpt><trkpt lat="46.2368667" lon="12.8105583"><ele>939.0</ele><time>2026-04-25T15:49:08.561Z</time></trkpt><trkpt lat="46.2369517" lon="12.8106833"><ele>939.0000000000001</ele><time>2026-04-25T15:49:09.561Z</time></trkpt><trkpt lat="46.237025" lon="12.8107983"><ele>939.0000000000001</ele><time>2026-04-25T15:49:10.561Z</time></trkpt><trkpt lat="46.2370933" lon="12.8109"><ele>939.0</ele><time>2026-04-25T15:49:11.561Z</time></trkpt><trkpt lat="46.2371583" lon="12.81099"><ele>939.0</ele><time>2026-04-25T15:49:12.561Z</time></trkpt><trkpt lat="46.237225" lon="12.8110667"><ele>938.8000000000001</ele><time>2026-04-25T15:49:13.561Z</time></trkpt><trkpt lat="46.2373033" lon="12.811135"><ele>938.6000000000001</ele><time>2026-04-25T15:49:14.561Z</time></trkpt><trkpt lat="46.2373933" lon="12.8111917"><ele>938.4</ele><time>2026-04-25T15:49:15.561Z</time></trkpt><trkpt lat="46.2374933" lon="12.8112317"><ele>938.2</ele><time>2026-04-25T15:49:16.56Z</time></trkpt><trkpt lat="46.2375967" lon="12.81127"><ele>938.0</ele><time>2026-04-25T15:49:17.561Z</time></trkpt><trkpt lat="46.2377083" lon="12.8113033"><ele>938.0</ele><time>2026-04-25T15:49:18.561Z</time></trkpt><trkpt lat="46.23781" lon="12.8113283"><ele>938.0</ele><time>2026-04-25T15:49:19.561Z</time></trkpt><trkpt lat="46.23791" lon="12.81135"><ele>938.0</ele><time>2026-04-25T15:49:20.56Z</time></trkpt><trkpt lat="46.2380083" lon="12.811365"><ele>938.0</ele><time>2026-04-25T15:49:21.56Z</time></trkpt><trkpt lat="46.2381033" lon="12.8113767"><ele>938.0</ele><time>2026-04-25T15:49:22.561Z</time></trkpt><trkpt lat="46.238195" lon="12.811375"><ele>937.2</ele><time>2026-04-25T15:49:23.561Z</time></trkpt><trkpt lat="46.2382817" lon="12.811355"><ele>936.4</ele><time>2026-04-25T15:49:24.561Z</time></trkpt><trkpt lat="46.2383733" lon="12.8113167"><ele>935.6000000000001</ele><time>2026-04-25T15:49:25.561Z</time></trkpt><trkpt lat="46.23846" lon="12.8112633"><ele>934.8000000000001</ele><time>2026-04-25T15:49:26.561Z</time></trkpt><trkpt lat="46.2385433" lon="12.811185"><ele>934.0</ele><time>2026-04-25T15:49:27.56Z</time></trkpt><trkpt lat="46.2386333" lon="12.8111033"><ele>933.9999999999999</ele><time>2026-04-25T15:49:28.56Z</time></trkpt><trkpt lat="46.2387133" lon="12.8110267"><ele>934.0</ele><time>2026-04-25T15:49:29.561Z</time></trkpt><trkpt lat="46.2387833" lon="12.8109483"><ele>934.0</ele><time>2026-04-25T15:49:30.561Z</time></trkpt><trkpt lat="46.2388433" lon="12.810865"><ele>934.0</ele><time>2026-04-25T15:49:31.561Z</time></trkpt><trkpt lat="46.2388917" lon="12.8107767"><ele>933.9999999999999</ele><time>2026-04-25T15:49:32.561Z</time></trkpt><trkpt lat="46.238935" lon="12.8106817"><ele>934.0</ele><time>2026-04-25T15:49:33.561Z</time></trkpt><trkpt lat="46.2389783" lon="12.810585"><ele>934.2</ele><time>2026-04-25T15:49:34.56Z</time></trkpt><trkpt lat="46.239025" lon="12.8104917"><ele>934.4000000000001</ele><time>2026-04-25T15:49:35.561Z</time></trkpt><trkpt lat="46.2390817" lon="12.8103933"><ele>934.6</ele><time>2026-04-25T15:49:36.561Z</time></trkpt><trkpt lat="46.23916" lon="12.81031"><ele>934.8</ele><time>2026-04-25T15:49:37.56Z</time></trkpt><trkpt lat="46.2392417" lon="12.81021"><ele>935.0</ele><time>2026-04-25T15:49:38.56Z</time></trkpt><trkpt lat="46.2393183" lon="12.810095"><ele>934.4</ele><time>2026-04-25T15:49:39.561Z</time></trkpt><trkpt lat="46.2393917" lon="12.80997"><ele>933.8</ele><time>2026-04-25T15:49:40.56Z</time></trkpt><trkpt lat="46.2394633" lon="12.8098383"><ele>933.2</ele><time>2026-04-25T15:49:41.56Z</time></trkpt><trkpt lat="46.2395317" lon="12.8097167"><ele>932.6</ele><time>2026-04-25T15:49:42.56Z</time></trkpt><trkpt lat="46.2395967" lon="12.809605"><ele>932.0</ele><time>2026-04-25T15:49:43.561Z</time></trkpt><trkpt lat="46.2396517" lon="12.8094867"><ele>932.0000000000001</ele><time>2026-04-25T15:49:44.561Z</time></trkpt><trkpt lat="46.2397017" lon="12.8093833"><ele>932.0</ele><time>2026-04-25T15:49:45.561Z</time></trkpt><trkpt lat="46.2397483" lon="12.809285"><ele>932.0</ele><time>2026-04-25T15:49:46.561Z</time></trkpt><trkpt lat="46.2397967" lon="12.8091833"><ele>932.0</ele><time>2026-04-25T15:49:47.56Z</time></trkpt><trkpt lat="46.239835" lon="12.809075"><ele>932.0000000000001</ele><time>2026-04-25T15:49:48.561Z</time></trkpt><trkpt lat="46.239875" lon="12.8089567"><ele>932.0</ele><time>2026-04-25T15:49:49.561Z</time></trkpt><trkpt lat="46.2399183" lon="12.8088417"><ele>930.8333333333334</ele><time>2026-04-25T15:49:50.561Z</time></trkpt><trkpt lat="46.23997" lon="12.8086967"><ele>929.6666666666667</ele><time>2026-04-25T15:49:51.561Z</time></trkpt><trkpt lat="46.2400167" lon="12.8086133"><ele>928.5</ele><time>2026-04-25T15:49:52.56Z</time></trkpt><trkpt lat="46.2400783" lon="12.8085617"><ele>927.3333333333333</ele><time>2026-04-25T15:49:53.561Z</time></trkpt><trkpt lat="46.2401483" lon="12.8085417"><ele>926.1666666666666</ele><time>2026-04-25T15:49:54.562Z</time></trkpt><trkpt lat="46.2402283" lon="12.8085433"><ele>925.0</ele><time>2026-04-25T15:49:55.562Z</time></trkpt><trkpt lat="46.2403083" lon="12.8085667"><ele>925.0</ele><time>2026-04-25T15:49:56.561Z</time></trkpt><trkpt lat="46.2403833" lon="12.8086083"><ele>925.0</ele><time>2026-04-25T15:49:57.562Z</time></trkpt><trkpt lat="46.2404567" lon="12.8086667"><ele>925.0</ele><time>2026-04-25T15:49:58.562Z</time></trkpt><trkpt lat="46.240515" lon="12.8087717"><ele>925.0</ele><time>2026-04-25T15:49:59.561Z</time></trkpt><trkpt lat="46.240565" lon="12.808895"><ele>925.0</ele><time>2026-04-25T15:50:00.561Z</time></trkpt><trkpt lat="46.2406233" lon="12.8090033"><ele>923.4999999999999</ele><time>2026-04-25T15:50:01.561Z</time></trkpt><trkpt lat="46.2406767" lon="12.8090983"><ele>922.0</ele><time>2026-04-25T15:50:02.562Z</time></trkpt><trkpt lat="46.2407317" lon="12.80918"><ele>920.5</ele><time>2026-04-25T15:50:03.562Z</time></trkpt><trkpt lat="46.240785" lon="12.8092533"><ele>919.0</ele><time>2026-04-25T15:50:04.561Z</time></trkpt><trkpt lat="46.2408433" lon="12.8093217"><ele>917.4999999999999</ele><time>2026-04-25T15:50:05.561Z</time></trkpt><trkpt lat="46.240915" lon="12.8094"><ele>916.0</ele><time>2026-04-25T15:50:06.561Z</time></trkpt><trkpt lat="46.2409833" lon="12.8094983"><ele>915.3333333333333</ele><time>2026-04-25T15:50:07.562Z</time></trkpt><trkpt lat="46.2410367" lon="12.809615"><ele>914.6666666666666</ele><time>2026-04-25T15:50:08.562Z</time></trkpt><trkpt lat="46.2410833" lon="12.8097233"><ele>914.0</ele><time>2026-04-25T15:50:09.561Z</time></trkpt><trkpt lat="46.24112" lon="12.8098267"><ele>913.3333333333333</ele><time>2026-04-25T15:50:10.562Z</time></trkpt><trkpt lat="46.24117" lon="12.80991"><ele>912.6666666666666</ele><time>2026-04-25T15:50:11.562Z</time></trkpt><trkpt lat="46.24124" lon="12.8099933"><ele>912.0</ele><time>2026-04-25T15:50:12.562Z</time></trkpt><trkpt lat="46.2413083" lon="12.8101"><ele>911.6</ele><time>2026-04-25T15:50:13.561Z</time></trkpt><trkpt lat="46.241375" lon="12.8102083"><ele>911.2</ele><time>2026-04-25T15:50:14.562Z</time></trkpt><trkpt lat="46.2414483" lon="12.8103067"><ele>910.8</ele><time>2026-04-25T15:50:15.561Z</time></trkpt><trkpt lat="46.241545" lon="12.8103717"><ele>910.4</ele><time>2026-04-25T15:50:16.562Z</time></trkpt><trkpt lat="46.24162" lon="12.8104483"><ele>910.0</ele><time>2026-04-25T15:50:17.561Z</time></trkpt><trkpt lat="46.2417033" lon="12.8105033"><ele>908.4999999999999</ele><time>2026-04-25T15:50:18.562Z</time></trkpt><trkpt lat="46.2417917" lon="12.8105567"><ele>907.0</ele><time>2026-04-25T15:50:19.562Z</time></trkpt><trkpt lat="46.2418883" lon="12.8105917"><ele>905.5</ele><time>2026-04-25T15:50:20.561Z</time></trkpt><trkpt lat="46.2419667" lon="12.810635"><ele>904.0</ele><time>2026-04-25T15:50:21.562Z</time></trkpt><trkpt lat="46.2420483" lon="12.8106667"><ele>902.4999999999999</ele><time>2026-04-25T15:50:22.562Z</time></trkpt><trkpt lat="46.24212" lon="12.81069"><ele>901.0</ele><time>2026-04-25T15:50:23.562Z</time></trkpt><trkpt lat="46.2421917" lon="12.8107033"><ele>900.9999999999999</ele><time>2026-04-25T15:50:24.561Z</time></trkpt><trkpt lat="46.2422667" lon="12.8106933"><ele>901.0</ele><time>2026-04-25T15:50:25.562Z</time></trkpt><trkpt lat="46.2423567" lon="12.810675"><ele>901.0</ele><time>2026-04-25T15:50:26.562Z</time></trkpt><trkpt lat="46.24245" lon="12.81065"><ele>901.0</ele><time>2026-04-25T15:50:27.562Z</time></trkpt><trkpt lat="46.2425367" lon="12.8106267"><ele>900.9999999999999</ele><time>2026-04-25T15:50:28.562Z</time></trkpt><trkpt lat="46.24262" lon="12.8106083"><ele>901.0</ele><time>2026-04-25T15:50:29.561Z</time></trkpt><trkpt lat="46.2426917" lon="12.8105933"><ele>900.1666666666666</ele><time>2026-04-25T15:50:30.561Z</time></trkpt><trkpt lat="46.24278" lon="12.8105933"><ele>899.3333333333333</ele><time>2026-04-25T15:50:31.562Z</time></trkpt><trkpt lat="46.2428567" lon="12.810595"><ele>898.5</ele><time>2026-04-25T15:50:32.561Z</time></trkpt><trkpt lat="46.24294" lon="12.8106333"><ele>897.6666666666667</ele><time>2026-04-25T15:50:33.562Z</time></trkpt><trkpt lat="46.2430183" lon="12.81068"><ele>896.8333333333334</ele><time>2026-04-25T15:50:34.561Z</time></trkpt><trkpt lat="46.2430933" lon="12.8107167"><ele>896.0</ele><time>2026-04-25T15:50:35.562Z</time></trkpt><trkpt lat="46.2431633" lon="12.81075"><ele>894.8</ele><time>2026-04-25T15:50:36.561Z</time></trkpt><trkpt lat="46.2432433" lon="12.810765"><ele>893.5999999999999</ele><time>2026-04-25T15:50:37.561Z</time></trkpt><trkpt lat="46.2433383" lon="12.810755"><ele>892.4</ele><time>2026-04-25T15:50:38.562Z</time></trkpt><trkpt lat="46.2434483" lon="12.810725"><ele>891.2</ele><time>2026-04-25T15:50:39.562Z</time></trkpt><trkpt lat="46.2435633" lon="12.8106883"><ele>890.0</ele><time>2026-04-25T15:50:40.562Z</time></trkpt><trkpt lat="46.2436833" lon="12.81066"><ele>890.0</ele><time>2026-04-25T15:50:41.562Z</time></trkpt><trkpt lat="46.2438117" lon="12.8106433"><ele>890.0</ele><time>2026-04-25T15:50:42.562Z</time></trkpt><trkpt lat="46.2439233" lon="12.81063"><ele>890.0</ele><time>2026-04-25T15:50:43.562Z</time></trkpt><trkpt lat="46.2440267" lon="12.81063"><ele>890.0</ele><time>2026-04-25T15:50:44.561Z</time></trkpt><trkpt lat="46.2441267" lon="12.810625"><ele>890.0</ele><time>2026-04-25T15:50:45.562Z</time></trkpt><trkpt lat="46.24423" lon="12.8106117"><ele>888.2</ele><time>2026-04-25T15:50:46.561Z</time></trkpt><trkpt lat="46.2443283" lon="12.8105717"><ele>886.4</ele><time>2026-04-25T15:50:47.561Z</time></trkpt><trkpt lat="46.2444317" lon="12.810485"><ele>884.5999999999999</ele><time>2026-04-25T15:50:48.561Z</time></trkpt><trkpt lat="46.244535" lon="12.81041"><ele>882.8</ele><time>2026-04-25T15:50:49.561Z</time></trkpt><trkpt lat="46.2446233" lon="12.81036"><ele>881.0</ele><time>2026-04-25T15:50:50.561Z</time></trkpt><trkpt lat="46.2446983" lon="12.8103467"><ele>881.0</ele><time>2026-04-25T15:50:51.561Z</time></trkpt><trkpt lat="46.2447733" lon="12.8103317"><ele>880.9999999999999</ele><time>2026-04-25T15:50:52.562Z</time></trkpt><trkpt lat="46.2448983" lon="12.810315"><ele>880.9999999999999</ele><time>2026-04-25T15:50:54.562Z</time></trkpt><trkpt lat="46.2449817" lon="12.810185"><ele>881.0</ele><time>2026-04-25T15:50:56.561Z</time></trkpt><trkpt lat="46.2449983" lon="12.81008"><ele>881.0</ele><time>2026-04-25T15:50:57.561Z</time></trkpt><trkpt lat="46.244995" lon="12.8099517"><ele>879.1999999999999</ele><time>2026-04-25T15:50:58.561Z</time></trkpt><trkpt lat="46.2449767" lon="12.8098133"><ele>877.3999999999999</ele><time>2026-04-25T15:50:59.561Z</time></trkpt><trkpt lat="46.244975" lon="12.8096717"><ele>875.6</ele><time>2026-04-25T15:51:00.561Z</time></trkpt><trkpt lat="46.24497" lon="12.8095233"><ele>873.8</ele><time>2026-04-25T15:51:01.562Z</time></trkpt><trkpt lat="46.2449783" lon="12.8093817"><ele>872.0</ele><time>2026-04-25T15:51:02.562Z</time></trkpt><trkpt lat="46.2449817" lon="12.8092517"><ele>871.4000000000001</ele><time>2026-04-25T15:51:03.561Z</time></trkpt><trkpt lat="46.2449783" lon="12.8091417"><ele>870.8000000000001</ele><time>2026-04-25T15:51:04.562Z</time></trkpt><trkpt lat="46.24498" lon="12.8089883"><ele>870.2</ele><time>2026-04-25T15:51:06.562Z</time></trkpt><trkpt lat="46.245015" lon="12.8088867"><ele>869.6</ele><time>2026-04-25T15:51:08.562Z</time></trkpt><trkpt lat="46.2450733" lon="12.8089733"><ele>869.0</ele><time>2026-04-25T15:51:12.562Z</time></trkpt><trkpt lat="46.2450833" lon="12.809165"><ele>869.0000000000001</ele><time>2026-04-25T15:51:14.562Z</time></trkpt><trkpt lat="46.2450867" lon="12.8092733"><ele>869.0</ele><time>2026-04-25T15:51:15.561Z</time></trkpt><trkpt lat="46.2450883" lon="12.8093867"><ele>869.0</ele><time>2026-04-25T15:51:16.561Z</time></trkpt><trkpt lat="46.2451117" lon="12.8094933"><ele>869.0</ele><time>2026-04-25T15:51:17.561Z</time></trkpt><trkpt lat="46.2451467" lon="12.809595"><ele>869.0000000000001</ele><time>2026-04-25T15:51:18.562Z</time></trkpt><trkpt lat="46.245195" lon="12.809695"><ele>869.0</ele><time>2026-04-25T15:51:19.561Z</time></trkpt><trkpt lat="46.24526" lon="12.8097933"><ele>869.6</ele><time>2026-04-25T15:51:20.562Z</time></trkpt><trkpt lat="46.2453367" lon="12.8098967"><ele>870.2</ele><time>2026-04-25T15:51:21.561Z</time></trkpt><trkpt lat="46.2454117" lon="12.8100033"><ele>870.8000000000001</ele><time>2026-04-25T15:51:22.561Z</time></trkpt><trkpt lat="46.245495" lon="12.8101083"><ele>871.4000000000001</ele><time>2026-04-25T15:51:23.562Z</time></trkpt><trkpt lat="46.24557" lon="12.8102067"><ele>872.0</ele><time>2026-04-25T15:51:24.562Z</time></trkpt><trkpt lat="46.2456433" lon="12.810295"><ele>869.1666666666667</ele><time>2026-04-25T15:51:25.562Z</time></trkpt><trkpt lat="46.24571" lon="12.810385"><ele>866.3333333333334</ele><time>2026-04-25T15:51:26.562Z</time></trkpt><trkpt lat="46.24577" lon="12.8104783"><ele>863.5</ele><time>2026-04-25T15:51:27.561Z</time></trkpt><trkpt lat="46.2458133" lon="12.810575"><ele>860.6666666666667</ele><time>2026-04-25T15:51:28.561Z</time></trkpt><trkpt lat="46.245855" lon="12.8106717"><ele>857.8333333333334</ele><time>2026-04-25T15:51:29.562Z</time></trkpt><trkpt lat="46.245875" lon="12.810775"><ele>855.0</ele><time>2026-04-25T15:51:30.561Z</time></trkpt><trkpt lat="46.2459267" lon="12.8109333"><ele>855.0</ele><time>2026-04-25T15:51:32.561Z</time></trkpt><trkpt lat="46.2459833" lon="12.81107"><ele>855.0</ele><time>2026-04-25T15:51:34.562Z</time></trkpt><trkpt lat="46.246085" lon="12.811115"><ele>855.0</ele><time>2026-04-25T15:51:36.562Z</time></trkpt><trkpt lat="46.24618" lon="12.811025"><ele>855.0</ele><time>2026-04-25T15:51:38.561Z</time></trkpt><trkpt lat="46.24622" lon="12.8109367"><ele>855.0</ele><time>2026-04-25T15:51:39.562Z</time></trkpt><trkpt lat="46.2462417" lon="12.8107517"><ele>855.0</ele><time>2026-04-25T15:51:41.561Z</time></trkpt><trkpt lat="46.24623" lon="12.8106467"><ele>855.0</ele><time>2026-04-25T15:51:42.562Z</time></trkpt><trkpt lat="46.2462033" lon="12.810535"><ele>855.0</ele><time>2026-04-25T15:51:43.562Z</time></trkpt><trkpt lat="46.24618" lon="12.8104183"><ele>855.0</ele><time>2026-04-25T15:51:44.561Z</time></trkpt><trkpt lat="46.2461617" lon="12.8103033"><ele>855.0</ele><time>2026-04-25T15:51:45.562Z</time></trkpt><trkpt lat="46.246145" lon="12.81018"><ele>855.0</ele><time>2026-04-25T15:51:46.562Z</time></trkpt><trkpt lat="46.2461083" lon="12.8100617"><ele>853.2</ele><time>2026-04-25T15:51:47.561Z</time></trkpt><trkpt lat="46.24606" lon="12.809945"><ele>851.4</ele><time>2026-04-25T15:51:48.562Z</time></trkpt><trkpt lat="46.246005" lon="12.8098367"><ele>849.5999999999999</ele><time>2026-04-25T15:51:49.562Z</time></trkpt><trkpt lat="46.24595" lon="12.80973"><ele>847.8</ele><time>2026-04-25T15:51:50.561Z</time></trkpt><trkpt lat="46.2458967" lon="12.8096267"><ele>846.0</ele><time>2026-04-25T15:51:51.561Z</time></trkpt><trkpt lat="46.245855" lon="12.8095233"><ele>846.0</ele><time>2026-04-25T15:51:52.562Z</time></trkpt><trkpt lat="46.24583" lon="12.8094183"><ele>846.0</ele><time>2026-04-25T15:51:53.561Z</time></trkpt><trkpt lat="46.2458067" lon="12.80931"><ele>846.0</ele><time>2026-04-25T15:51:54.562Z</time></trkpt><trkpt lat="46.2458" lon="12.809205"><ele>846.0</ele><time>2026-04-25T15:51:55.561Z</time></trkpt><trkpt lat="46.245825" lon="12.8090983"><ele>846.0</ele><time>2026-04-25T15:51:56.561Z</time></trkpt><trkpt lat="46.245855" lon="12.8090017"><ele>846.0</ele><time>2026-04-25T15:51:57.561Z</time></trkpt><trkpt lat="46.2458867" lon="12.8089033"><ele>844.7142857142857</ele><time>2026-04-25T15:51:58.562Z</time></trkpt><trkpt lat="46.2459067" lon="12.8087967"><ele>843.4285714285714</ele><time>2026-04-25T15:51:59.562Z</time></trkpt><trkpt lat="46.2459233" lon="12.808695"><ele>842.1428571428571</ele><time>2026-04-25T15:52:00.562Z</time></trkpt><trkpt lat="46.2459183" lon="12.8085817"><ele>840.8571428571429</ele><time>2026-04-25T15:52:01.561Z</time></trkpt><trkpt lat="46.2459033" lon="12.808475"><ele>839.5714285714287</ele><time>2026-04-25T15:52:02.562Z</time></trkpt><trkpt lat="46.2458917" lon="12.808375"><ele>838.2857142857143</ele><time>2026-04-25T15:52:03.561Z</time></trkpt><trkpt lat="46.2459" lon="12.8082667"><ele>837.0</ele><time>2026-04-25T15:52:04.562Z</time></trkpt><trkpt lat="46.2459333" lon="12.8081783"><ele>836.8</ele><time>2026-04-25T15:52:05.562Z</time></trkpt><trkpt lat="46.2459933" lon="12.8081167"><ele>836.6</ele><time>2026-04-25T15:52:06.562Z</time></trkpt><trkpt lat="46.2460667" lon="12.8080717"><ele>836.4</ele><time>2026-04-25T15:52:07.562Z</time></trkpt><trkpt lat="46.2461533" lon="12.808045"><ele>836.1999999999999</ele><time>2026-04-25T15:52:08.562Z</time></trkpt><trkpt lat="46.2462517" lon="12.8080233"><ele>836.0</ele><time>2026-04-25T15:52:09.562Z</time></trkpt><trkpt lat="46.24636" lon="12.808"><ele>831.8</ele><time>2026-04-25T15:52:10.561Z</time></trkpt><trkpt lat="46.2464733" lon="12.8079883"><ele>827.5999999999999</ele><time>2026-04-25T15:52:11.562Z</time></trkpt><trkpt lat="46.2465867" lon="12.8079883"><ele>823.4</ele><time>2026-04-25T15:52:12.561Z</time></trkpt><trkpt lat="46.2466917" lon="12.8079783"><ele>819.2</ele><time>2026-04-25T15:52:13.562Z</time></trkpt><trkpt lat="46.2468" lon="12.8079633"><ele>815.0</ele><time>2026-04-25T15:52:14.562Z</time></trkpt><trkpt lat="46.2469033" lon="12.8079517"><ele>815.0</ele><time>2026-04-25T15:52:15.562Z</time></trkpt><trkpt lat="46.246995" lon="12.80793"><ele>815.0</ele><time>2026-04-25T15:52:16.561Z</time></trkpt><trkpt lat="46.2470867" lon="12.8079"><ele>815.0</ele><time>2026-04-25T15:52:17.561Z</time></trkpt><trkpt lat="46.247185" lon="12.8078633"><ele>815.0</ele><time>2026-04-25T15:52:18.562Z</time></trkpt><trkpt lat="46.2472733" lon="12.80781"><ele>815.0</ele><time>2026-04-25T15:52:19.561Z</time></trkpt><trkpt lat="46.2473567" lon="12.8077417"><ele>810.8333333333334</ele><time>2026-04-25T15:52:20.562Z</time></trkpt><trkpt lat="46.247425" lon="12.8076533"><ele>806.6666666666667</ele><time>2026-04-25T15:52:21.562Z</time></trkpt><trkpt lat="46.2474767" lon="12.8075633"><ele>802.5</ele><time>2026-04-25T15:52:22.562Z</time></trkpt><trkpt lat="46.24747" lon="12.8074283"><ele>798.3333333333333</ele><time>2026-04-25T15:52:23.561Z</time></trkpt><trkpt lat="46.2474767" lon="12.8073283"><ele>794.1666666666666</ele><time>2026-04-25T15:52:24.561Z</time></trkpt><trkpt lat="46.247475" lon="12.8072283"><ele>790.0</ele><time>2026-04-25T15:52:25.561Z</time></trkpt><trkpt lat="46.2474417" lon="12.8071083"><ele>790.0</ele><time>2026-04-25T15:52:26.561Z</time></trkpt><trkpt lat="46.2473933" lon="12.80698"><ele>790.0</ele><time>2026-04-25T15:52:27.562Z</time></trkpt><trkpt lat="46.2473467" lon="12.8068583"><ele>790.0</ele><time>2026-04-25T15:52:28.561Z</time></trkpt><trkpt lat="46.2472667" lon="12.8067367"><ele>790.0</ele><time>2026-04-25T15:52:29.562Z</time></trkpt><trkpt lat="46.2471983" lon="12.8066167"><ele>790.0</ele><time>2026-04-25T15:52:30.561Z</time></trkpt><trkpt lat="46.247095" lon="12.80651"><ele>795.75</ele><time>2026-04-25T15:52:31.562Z</time></trkpt><trkpt lat="46.2469883" lon="12.8064133"><ele>801.5</ele><time>2026-04-25T15:52:32.562Z</time></trkpt><trkpt lat="46.246875" lon="12.80632"><ele>807.25</ele><time>2026-04-25T15:52:33.562Z</time></trkpt><trkpt lat="46.2467583" lon="12.8062333"><ele>813.0</ele><time>2026-04-25T15:52:34.562Z</time></trkpt><trkpt lat="46.246645" lon="12.806135"><ele>813.0</ele><time>2026-04-25T15:52:35.561Z</time></trkpt><trkpt lat="46.2465417" lon="12.80604"><ele>813.0</ele><time>2026-04-25T15:52:36.561Z</time></trkpt><trkpt lat="46.2464383" lon="12.80594"><ele>813.0</ele><time>2026-04-25T15:52:37.562Z</time></trkpt><trkpt lat="46.2463317" lon="12.8058483"><ele>813.0</ele><time>2026-04-25T15:52:38.562Z</time></trkpt><trkpt lat="46.2462267" lon="12.80577"><ele>810.8</ele><time>2026-04-25T15:52:39.562Z</time></trkpt><trkpt lat="46.2461217" lon="12.8057033"><ele>808.5999999999999</ele><time>2026-04-25T15:52:40.561Z</time></trkpt><trkpt lat="46.2460267" lon="12.8056283"><ele>806.4000000000001</ele><time>2026-04-25T15:52:41.561Z</time></trkpt><trkpt lat="46.2459467" lon="12.8055283"><ele>804.2</ele><time>2026-04-25T15:52:42.561Z</time></trkpt><trkpt lat="46.2458583" lon="12.8054367"><ele>802.0</ele><time>2026-04-25T15:52:43.561Z</time></trkpt><trkpt lat="46.2457717" lon="12.8053433"><ele>801.9999999999999</ele><time>2026-04-25T15:52:44.561Z</time></trkpt><trkpt lat="46.24571" lon="12.8052283"><ele>802.0</ele><time>2026-04-25T15:52:45.562Z</time></trkpt><trkpt lat="46.2456617" lon="12.8051283"><ele>802.0</ele><time>2026-04-25T15:52:46.561Z</time></trkpt><trkpt lat="46.2456267" lon="12.80501"><ele>802.0</ele><time>2026-04-25T15:52:47.562Z</time></trkpt><trkpt lat="46.2455917" lon="12.8048983"><ele>801.9999999999999</ele><time>2026-04-25T15:52:48.562Z</time></trkpt><trkpt lat="46.24554" lon="12.8048033"><ele>802.0</ele><time>2026-04-25T15:52:49.562Z</time></trkpt><trkpt lat="46.2454667" lon="12.8047317"><ele>801.0</ele><time>2026-04-25T15:52:50.562Z</time></trkpt><trkpt lat="46.24538" lon="12.80468"><ele>800.0</ele><time>2026-04-25T15:52:51.562Z</time></trkpt><trkpt lat="46.2452833" lon="12.8046283"><ele>799.0</ele><time>2026-04-25T15:52:52.562Z</time></trkpt><trkpt lat="46.245185" lon="12.80456"><ele>798.0</ele><time>2026-04-25T15:52:53.562Z</time></trkpt><trkpt lat="46.2450917" lon="12.8044683"><ele>797.0</ele><time>2026-04-25T15:52:54.562Z</time></trkpt><trkpt lat="46.245" lon="12.8043667"><ele>795.4000000000001</ele><time>2026-04-25T15:52:55.561Z</time></trkpt><trkpt lat="46.24492" lon="12.8042533"><ele>793.8000000000001</ele><time>2026-04-25T15:52:56.562Z</time></trkpt><trkpt lat="46.2448367" lon="12.80414"><ele>792.2</ele><time>2026-04-25T15:52:57.561Z</time></trkpt><trkpt lat="46.244765" lon="12.8040267"><ele>790.6</ele><time>2026-04-25T15:52:58.561Z</time></trkpt><trkpt lat="46.2446883" lon="12.80391"><ele>789.0</ele><time>2026-04-25T15:52:59.561Z</time></trkpt><trkpt lat="46.2446133" lon="12.803795"><ele>789.0</ele><time>2026-04-25T15:53:00.561Z</time></trkpt><trkpt lat="46.24453" lon="12.8036867"><ele>789.0</ele><time>2026-04-25T15:53:01.562Z</time></trkpt><trkpt lat="46.244445" lon="12.8035917"><ele>789.0</ele><time>2026-04-25T15:53:02.562Z</time></trkpt><trkpt lat="46.24436" lon="12.80352"><ele>789.0</ele><time>2026-04-25T15:53:03.561Z</time></trkpt><trkpt lat="46.2442717" lon="12.8034367"><ele>789.0</ele><time>2026-04-25T15:53:04.562Z</time></trkpt><trkpt lat="46.2441733" lon="12.8033783"><ele>786.4000000000001</ele><time>2026-04-25T15:53:05.561Z</time></trkpt><trkpt lat="46.24408" lon="12.8033017"><ele>783.8</ele><time>2026-04-25T15:53:06.562Z</time></trkpt><trkpt lat="46.243985" lon="12.8032267"><ele>781.2</ele><time>2026-04-25T15:53:07.562Z</time></trkpt><trkpt lat="46.2438917" lon="12.80314"><ele>778.5999999999999</ele><time>2026-04-25T15:53:08.561Z</time></trkpt><trkpt lat="46.2438017" lon="12.8030617"><ele>776.0</ele><time>2026-04-25T15:53:09.561Z</time></trkpt><trkpt lat="46.24371" lon="12.8029683"><ele>776.0</ele><time>2026-04-25T15:53:10.561Z</time></trkpt><trkpt lat="46.2436133" lon="12.8028767"><ele>776.0</ele><time>2026-04-25T15:53:11.562Z</time></trkpt><trkpt lat="46.2435167" lon="12.8027783"><ele>776.0</ele><time>2026-04-25T15:53:12.562Z</time></trkpt><trkpt lat="46.2434317" lon="12.8026733"><ele>776.0</ele><time>2026-04-25T15:53:13.562Z</time></trkpt><trkpt lat="46.2433583" lon="12.8025617"><ele>774.75</ele><time>2026-04-25T15:53:14.561Z</time></trkpt><trkpt lat="46.2432617" lon="12.802465"><ele>773.5</ele><time>2026-04-25T15:53:15.562Z</time></trkpt><trkpt lat="46.2431633" lon="12.8023683"><ele>772.25</ele><time>2026-04-25T15:53:16.561Z</time></trkpt><trkpt lat="46.2430733" lon="12.802275"><ele>771.0</ele><time>2026-04-25T15:53:17.562Z</time></trkpt><trkpt lat="46.2429767" lon="12.8021683"><ele>771.0</ele><time>2026-04-25T15:53:18.562Z</time></trkpt><trkpt lat="46.242885" lon="12.8020617"><ele>771.0</ele><time>2026-04-25T15:53:19.561Z</time></trkpt><trkpt lat="46.2428017" lon="12.80194"><ele>771.0</ele><time>2026-04-25T15:53:20.562Z</time></trkpt><trkpt lat="46.242725" lon="12.8018"><ele>771.0</ele><time>2026-04-25T15:53:21.562Z</time></trkpt><trkpt lat="46.2426533" lon="12.8016633"><ele>763.5</ele><time>2026-04-25T15:53:22.562Z</time></trkpt><trkpt lat="46.242575" lon="12.8015283"><ele>756.0</ele><time>2026-04-25T15:53:23.562Z</time></trkpt><trkpt lat="46.2424983" lon="12.801395"><ele>748.5</ele><time>2026-04-25T15:53:24.562Z</time></trkpt><trkpt lat="46.2424133" lon="12.8012683"><ele>741.0</ele><time>2026-04-25T15:53:25.562Z</time></trkpt><trkpt lat="46.2423383" lon="12.801125"><ele>742.5</ele><time>2026-04-25T15:53:26.562Z</time></trkpt><trkpt lat="46.2422667" lon="12.8009833"><ele>744.0</ele><time>2026-04-25T15:53:27.561Z</time></trkpt><trkpt lat="46.2421967" lon="12.8008483"><ele>745.5</ele><time>2026-04-25T15:53:28.561Z</time></trkpt><trkpt lat="46.242135" lon="12.8007067"><ele>747.0</ele><time>2026-04-25T15:53:29.561Z</time></trkpt><trkpt lat="46.24207" lon="12.8005767"><ele>747.0</ele><time>2026-04-25T15:53:30.562Z</time></trkpt><trkpt lat="46.2420067" lon="12.8004383"><ele>747.0</ele><time>2026-04-25T15:53:31.561Z</time></trkpt><trkpt lat="46.2419467" lon="12.8003117"><ele>747.0</ele><time>2026-04-25T15:53:32.562Z</time></trkpt><trkpt lat="46.2418883" lon="12.8001867"><ele>747.0</ele><time>2026-04-25T15:53:33.562Z</time></trkpt><trkpt lat="46.2418317" lon="12.8000783"><ele>747.0</ele><time>2026-04-25T15:53:34.562Z</time></trkpt><trkpt lat="46.2417783" lon="12.7999683"><ele>742.6</ele><time>2026-04-25T15:53:35.561Z</time></trkpt><trkpt lat="46.2417333" lon="12.7998533"><ele>738.2</ele><time>2026-04-25T15:53:36.562Z</time></trkpt><trkpt lat="46.2416967" lon="12.79974"><ele>733.8</ele><time>2026-04-25T15:53:37.561Z</time></trkpt><trkpt lat="46.2416667" lon="12.7996133"><ele>729.4</ele><time>2026-04-25T15:53:38.562Z</time></trkpt><trkpt lat="46.24165" lon="12.7994617"><ele>725.0</ele><time>2026-04-25T15:53:39.561Z</time></trkpt><trkpt lat="46.2416283" lon="12.7993067"><ele>722.0</ele><time>2026-04-25T15:53:40.561Z</time></trkpt><trkpt lat="46.2416017" lon="12.79914"><ele>719.0</ele><time>2026-04-25T15:53:41.561Z</time></trkpt><trkpt lat="46.2415667" lon="12.7989717"><ele>716.0</ele><time>2026-04-25T15:53:42.562Z</time></trkpt><trkpt lat="46.2415367" lon="12.7988033"><ele>713.0</ele><time>2026-04-25T15:53:43.562Z</time></trkpt><trkpt lat="46.2415033" lon="12.7986383"><ele>711.4</ele><time>2026-04-25T15:53:44.562Z</time></trkpt><trkpt lat="46.241485" lon="12.79847"><ele>709.8</ele><time>2026-04-25T15:53:45.561Z</time></trkpt><trkpt lat="46.2414383" lon="12.7983517"><ele>708.2</ele><time>2026-04-25T15:53:46.561Z</time></trkpt><trkpt lat="46.2414133" lon="12.7982267"><ele>706.6</ele><time>2026-04-25T15:53:47.562Z</time></trkpt><trkpt lat="46.2414017" lon="12.7980867"><ele>705.0</ele><time>2026-04-25T15:53:48.561Z</time></trkpt><trkpt lat="46.2413883" lon="12.7979433"><ele>709.4</ele><time>2026-04-25T15:53:49.562Z</time></trkpt><trkpt lat="46.2413517" lon="12.7977983"><ele>713.8</ele><time>2026-04-25T15:53:50.561Z</time></trkpt><trkpt lat="46.2413217" lon="12.7976517"><ele>718.2</ele><time>2026-04-25T15:53:51.561Z</time></trkpt><trkpt lat="46.2412817" lon="12.7974967"><ele>722.6</ele><time>2026-04-25T15:53:52.562Z</time></trkpt><trkpt lat="46.2412483" lon="12.79734"><ele>727.0</ele><time>2026-04-25T15:53:53.561Z</time></trkpt><trkpt lat="46.2412183" lon="12.7971817"><ele>727.0</ele><time>2026-04-25T15:53:54.561Z</time></trkpt><trkpt lat="46.2411917" lon="12.797025"><ele>727.0</ele><time>2026-04-25T15:53:55.561Z</time></trkpt><trkpt lat="46.2411717" lon="12.7968617"><ele>727.0</ele><time>2026-04-25T15:53:56.561Z</time></trkpt><trkpt lat="46.2411567" lon="12.7967067"><ele>727.0</ele><time>2026-04-25T15:53:57.562Z</time></trkpt><trkpt lat="46.241145" lon="12.7965417"><ele>727.0</ele><time>2026-04-25T15:53:58.562Z</time></trkpt><trkpt lat="46.2411283" lon="12.7963817"><ele>725.4000000000001</ele><time>2026-04-25T15:53:59.562Z</time></trkpt><trkpt lat="46.2411167" lon="12.7962317"><ele>723.8000000000001</ele><time>2026-04-25T15:54:00.561Z</time></trkpt><trkpt lat="46.241115" lon="12.7960833"><ele>722.2</ele><time>2026-04-25T15:54:01.561Z</time></trkpt><trkpt lat="46.2411183" lon="12.7959317"><ele>720.6</ele><time>2026-04-25T15:54:02.562Z</time></trkpt><trkpt lat="46.241125" lon="12.795765"><ele>719.0</ele><time>2026-04-25T15:54:03.562Z</time></trkpt><trkpt lat="46.2411233" lon="12.7956083"><ele>716.6</ele><time>2026-04-25T15:54:04.562Z</time></trkpt><trkpt lat="46.2411117" lon="12.795455"><ele>714.2</ele><time>2026-04-25T15:54:05.562Z</time></trkpt><trkpt lat="46.241095" lon="12.7953033"><ele>711.8000000000001</ele><time>2026-04-25T15:54:06.561Z</time></trkpt><trkpt lat="46.2410767" lon="12.79516"><ele>709.4000000000001</ele><time>2026-04-25T15:54:07.562Z</time></trkpt><trkpt lat="46.2410517" lon="12.7950167"><ele>707.0</ele><time>2026-04-25T15:54:08.562Z</time></trkpt><trkpt lat="46.2410133" lon="12.7948717"><ele>706.0</ele><time>2026-04-25T15:54:09.562Z</time></trkpt><trkpt lat="46.2409867" lon="12.7947183"><ele>705.0</ele><time>2026-04-25T15:54:10.562Z</time></trkpt><trkpt lat="46.24096" lon="12.7945617"><ele>704.0</ele><time>2026-04-25T15:54:11.562Z</time></trkpt><trkpt lat="46.2409517" lon="12.7944"><ele>703.0</ele><time>2026-04-25T15:54:12.562Z</time></trkpt><trkpt lat="46.2409533" lon="12.7942383"><ele>702.0</ele><time>2026-04-25T15:54:13.562Z</time></trkpt><trkpt lat="46.240955" lon="12.79407"><ele>700.25</ele><time>2026-04-25T15:54:14.562Z</time></trkpt><trkpt lat="46.2409567" lon="12.7939017"><ele>698.5</ele><time>2026-04-25T15:54:15.561Z</time></trkpt><trkpt lat="46.2409667" lon="12.7937317"><ele>696.75</ele><time>2026-04-25T15:54:16.562Z</time></trkpt><trkpt lat="46.2409783" lon="12.7935617"><ele>695.0</ele><time>2026-04-25T15:54:17.562Z</time></trkpt><trkpt lat="46.240995" lon="12.793395"><ele>693.6</ele><time>2026-04-25T15:54:18.562Z</time></trkpt><trkpt lat="46.2410167" lon="12.7932367"><ele>692.2</ele><time>2026-04-25T15:54:19.561Z</time></trkpt><trkpt lat="46.2410317" lon="12.793095"><ele>690.8</ele><time>2026-04-25T15:54:20.561Z</time></trkpt><trkpt lat="46.2410483" lon="12.792965"><ele>689.4</ele><time>2026-04-25T15:54:21.561Z</time></trkpt><trkpt lat="46.2410717" lon="12.79285"><ele>688.0</ele><time>2026-04-25T15:54:22.561Z</time></trkpt><trkpt lat="46.241095" lon="12.7927533"><ele>687.4</ele><time>2026-04-25T15:54:23.561Z</time></trkpt><trkpt lat="46.2411083" lon="12.7926633"><ele>686.8</ele><time>2026-04-25T15:54:24.562Z</time></trkpt><trkpt lat="46.2411" lon="12.7924783"><ele>686.2</ele><time>2026-04-25T15:54:26.562Z</time></trkpt><trkpt lat="46.2410683" lon="12.7923767"><ele>685.6</ele><time>2026-04-25T15:54:27.562Z</time></trkpt><trkpt lat="46.24102" lon="12.7922733"><ele>685.0</ele><time>2026-04-25T15:54:28.562Z</time></trkpt><trkpt lat="46.2409667" lon="12.79216"><ele>685.0</ele><time>2026-04-25T15:54:29.562Z</time></trkpt><trkpt lat="46.24091" lon="12.7920317"><ele>685.0</ele><time>2026-04-25T15:54:30.561Z</time></trkpt><trkpt lat="46.2408533" lon="12.7918883"><ele>685.0</ele><time>2026-04-25T15:54:31.562Z</time></trkpt><trkpt lat="46.2408067" lon="12.791725"><ele>685.0</ele><time>2026-04-25T15:54:32.562Z</time></trkpt><trkpt lat="46.240765" lon="12.79155"><ele>683.5</ele><time>2026-04-25T15:54:33.562Z</time></trkpt><trkpt lat="46.2407267" lon="12.79136"><ele>682.0</ele><time>2026-04-25T15:54:34.562Z</time></trkpt><trkpt lat="46.2406817" lon="12.7911717"><ele>680.5</ele><time>2026-04-25T15:54:35.561Z</time></trkpt><trkpt lat="46.24064" lon="12.7909933"><ele>679.0</ele><time>2026-04-25T15:54:36.561Z</time></trkpt><trkpt lat="46.2405967" lon="12.7908067"><ele>679.5</ele><time>2026-04-25T15:54:37.561Z</time></trkpt><trkpt lat="46.24054" lon="12.790625"><ele>680.0</ele><time>2026-04-25T15:54:38.561Z</time></trkpt><trkpt lat="46.24048" lon="12.7904433"><ele>680.5</ele><time>2026-04-25T15:54:39.561Z</time></trkpt><trkpt lat="46.2404217" lon="12.7902683"><ele>681.0</ele><time>2026-04-25T15:54:40.561Z</time></trkpt><trkpt lat="46.24037" lon="12.7901"><ele>681.0</ele><time>2026-04-25T15:54:41.56Z</time></trkpt><trkpt lat="46.2403283" lon="12.7899383"><ele>681.0</ele><time>2026-04-25T15:54:42.561Z</time></trkpt><trkpt lat="46.2402917" lon="12.7897833"><ele>681.0</ele><time>2026-04-25T15:54:43.561Z</time></trkpt><trkpt lat="46.2402583" lon="12.7896367"><ele>681.0</ele><time>2026-04-25T15:54:44.561Z</time></trkpt><trkpt lat="46.2402233" lon="12.789505"><ele>681.0</ele><time>2026-04-25T15:54:45.561Z</time></trkpt><trkpt lat="46.2401633" lon="12.789385"><ele>678.5999999999999</ele><time>2026-04-25T15:54:46.561Z</time></trkpt><trkpt lat="46.2400917" lon="12.7892717"><ele>676.2</ele><time>2026-04-25T15:54:47.561Z</time></trkpt><trkpt lat="46.2400217" lon="12.7891533"><ele>673.8</ele><time>2026-04-25T15:54:48.561Z</time></trkpt><trkpt lat="46.239945" lon="12.7890317"><ele>671.4000000000001</ele><time>2026-04-25T15:54:49.56Z</time></trkpt><trkpt lat="46.2398683" lon="12.7889067"><ele>669.0</ele><time>2026-04-25T15:54:50.561Z</time></trkpt><trkpt lat="46.2397983" lon="12.7887783"><ele>673.5</ele><time>2026-04-25T15:54:51.56Z</time></trkpt><trkpt lat="46.239745" lon="12.7886383"><ele>678.0</ele><time>2026-04-25T15:54:52.561Z</time></trkpt><trkpt lat="46.2397017" lon="12.7884867"><ele>682.5</ele><time>2026-04-25T15:54:53.561Z</time></trkpt><trkpt lat="46.2396567" lon="12.7883233"><ele>687.0</ele><time>2026-04-25T15:54:54.561Z</time></trkpt><trkpt lat="46.239605" lon="12.7881617"><ele>687.0</ele><time>2026-04-25T15:54:55.561Z</time></trkpt><trkpt lat="46.2395467" lon="12.7879917"><ele>687.0</ele><time>2026-04-25T15:54:56.561Z</time></trkpt><trkpt lat="46.2394783" lon="12.7878233"><ele>687.0</ele><time>2026-04-25T15:54:57.56Z</time></trkpt><trkpt lat="46.239405" lon="12.78765"><ele>687.0</ele><time>2026-04-25T15:54:58.56Z</time></trkpt><trkpt lat="46.239345" lon="12.787465"><ele>681.75</ele><time>2026-04-25T15:54:59.561Z</time></trkpt><trkpt lat="46.2392817" lon="12.787285"><ele>676.5</ele><time>2026-04-25T15:55:00.561Z</time></trkpt><trkpt lat="46.2392167" lon="12.7871183"><ele>671.25</ele><time>2026-04-25T15:55:01.56Z</time></trkpt><trkpt lat="46.2391617" lon="12.78695"><ele>666.0</ele><time>2026-04-25T15:55:02.56Z</time></trkpt><trkpt lat="46.239105" lon="12.7867817"><ele>661.5</ele><time>2026-04-25T15:55:03.56Z</time></trkpt><trkpt lat="46.2390633" lon="12.786605"><ele>657.0</ele><time>2026-04-25T15:55:04.561Z</time></trkpt><trkpt lat="46.2390167" lon="12.7864467"><ele>652.5</ele><time>2026-04-25T15:55:05.561Z</time></trkpt><trkpt lat="46.23897" lon="12.786295"><ele>648.0</ele><time>2026-04-25T15:55:06.56Z</time></trkpt><trkpt lat="46.2389333" lon="12.7861367"><ele>656.0</ele><time>2026-04-25T15:55:07.561Z</time></trkpt><trkpt lat="46.23889" lon="12.7859767"><ele>664.0</ele><time>2026-04-25T15:55:08.561Z</time></trkpt><trkpt lat="46.2388633" lon="12.7858067"><ele>672.0</ele><time>2026-04-25T15:55:09.56Z</time></trkpt><trkpt lat="46.238825" lon="12.7856467"><ele>680.0</ele><time>2026-04-25T15:55:10.561Z</time></trkpt><trkpt lat="46.23878" lon="12.7855017"><ele>680.0</ele><time>2026-04-25T15:55:11.56Z</time></trkpt><trkpt lat="46.2387333" lon="12.7853483"><ele>680.0</ele><time>2026-04-25T15:55:12.561Z</time></trkpt><trkpt lat="46.2386867" lon="12.7852133"><ele>680.0</ele><time>2026-04-25T15:55:13.56Z</time></trkpt><trkpt lat="46.2386483" lon="12.7850733"><ele>680.0</ele><time>2026-04-25T15:55:14.561Z</time></trkpt><trkpt lat="46.238605" lon="12.7849283"><ele>680.0</ele><time>2026-04-25T15:55:15.561Z</time></trkpt><trkpt lat="46.2385583" lon="12.7847783"><ele>674.75</ele><time>2026-04-25T15:55:16.561Z</time></trkpt><trkpt lat="46.2384933" lon="12.78462"><ele>669.5</ele><time>2026-04-25T15:55:17.561Z</time></trkpt><trkpt lat="46.238395" lon="12.784495"><ele>664.25</ele><time>2026-04-25T15:55:18.561Z</time></trkpt><trkpt lat="46.2383117" lon="12.7843633"><ele>659.0</ele><time>2026-04-25T15:55:19.56Z</time></trkpt><trkpt lat="46.2382083" lon="12.7842367"><ele>663.75</ele><time>2026-04-25T15:55:20.56Z</time></trkpt><trkpt lat="46.2380917" lon="12.7841283"><ele>668.5</ele><time>2026-04-25T15:55:21.56Z</time></trkpt><trkpt lat="46.2379867" lon="12.783995"><ele>673.25</ele><time>2026-04-25T15:55:22.561Z</time></trkpt><trkpt lat="46.2378633" lon="12.7838933"><ele>678.0</ele><time>2026-04-25T15:55:23.56Z</time></trkpt><trkpt lat="46.2377267" lon="12.7837867"><ele>678.0</ele><time>2026-04-25T15:55:24.561Z</time></trkpt><trkpt lat="46.2376033" lon="12.7836733"><ele>678.0</ele><time>2026-04-25T15:55:25.56Z</time></trkpt><trkpt lat="46.237485" lon="12.78356"><ele>678.0</ele><time>2026-04-25T15:55:26.561Z</time></trkpt><trkpt lat="46.2373717" lon="12.78346"><ele>678.0</ele><time>2026-04-25T15:55:27.56Z</time></trkpt><trkpt lat="46.237275" lon="12.78337"><ele>674.4</ele><time>2026-04-25T15:55:28.561Z</time></trkpt><trkpt lat="46.237185" lon="12.78329"><ele>670.8</ele><time>2026-04-25T15:55:29.56Z</time></trkpt><trkpt lat="46.2370867" lon="12.7832233"><ele>667.2</ele><time>2026-04-25T15:55:30.561Z</time></trkpt><trkpt lat="46.2369783" lon="12.7831717"><ele>663.6</ele><time>2026-04-25T15:55:31.561Z</time></trkpt><trkpt lat="46.2368633" lon="12.7831333"><ele>660.0</ele><time>2026-04-25T15:55:32.561Z</time></trkpt><trkpt lat="46.2367483" lon="12.7830967"><ele>660.0</ele><time>2026-04-25T15:55:33.56Z</time></trkpt><trkpt lat="46.2366333" lon="12.783055"><ele>660.0</ele><time>2026-04-25T15:55:34.561Z</time></trkpt><trkpt lat="46.236525" lon="12.78301"><ele>660.0</ele><time>2026-04-25T15:55:35.56Z</time></trkpt><trkpt lat="46.2364267" lon="12.782985"><ele>660.0</ele><time>2026-04-25T15:55:36.56Z</time></trkpt><trkpt lat="46.2363217" lon="12.7829733"><ele>660.0</ele><time>2026-04-25T15:55:37.56Z</time></trkpt><trkpt lat="46.2362" lon="12.7829717"><ele>659.25</ele><time>2026-04-25T15:55:38.56Z</time></trkpt><trkpt lat="46.2360733" lon="12.78297"><ele>658.5</ele><time>2026-04-25T15:55:39.56Z</time></trkpt><trkpt lat="46.2359417" lon="12.7829667"><ele>657.75</ele><time>2026-04-25T15:55:40.561Z</time></trkpt><trkpt lat="46.2358167" lon="12.782975"><ele>657.0</ele><time>2026-04-25T15:55:41.561Z</time></trkpt><trkpt lat="46.2356883" lon="12.7830083"><ele>653.5</ele><time>2026-04-25T15:55:42.561Z</time></trkpt><trkpt lat="46.2355583" lon="12.7830533"><ele>650.0</ele><time>2026-04-25T15:55:43.561Z</time></trkpt><trkpt lat="46.2354217" lon="12.7830917"><ele>646.5</ele><time>2026-04-25T15:55:44.561Z</time></trkpt><trkpt lat="46.235295" lon="12.7831383"><ele>643.0</ele><time>2026-04-25T15:55:45.561Z</time></trkpt><trkpt lat="46.2351717" lon="12.7831783"><ele>643.0</ele><time>2026-04-25T15:55:46.56Z</time></trkpt><trkpt lat="46.2350567" lon="12.7832183"><ele>643.0</ele><time>2026-04-25T15:55:47.561Z</time></trkpt><trkpt lat="46.2349417" lon="12.78325"><ele>643.0</ele><time>2026-04-25T15:55:48.56Z</time></trkpt><trkpt lat="46.2348267" lon="12.78327"><ele>643.0</ele><time>2026-04-25T15:55:49.561Z</time></trkpt><trkpt lat="46.23471" lon="12.783265"><ele>642.0</ele><time>2026-04-25T15:55:50.561Z</time></trkpt><trkpt lat="46.2345917" lon="12.7832483"><ele>641.0</ele><time>2026-04-25T15:55:51.561Z</time></trkpt><trkpt lat="46.234475" lon="12.783235"><ele>640.0</ele><time>2026-04-25T15:55:52.56Z</time></trkpt><trkpt lat="46.23437" lon="12.78323"><ele>639.0</ele><time>2026-04-25T15:55:53.561Z</time></trkpt><trkpt lat="46.234275" lon="12.783245"><ele>638.0</ele><time>2026-04-25T15:55:54.561Z</time></trkpt><trkpt lat="46.2341767" lon="12.7832583"><ele>638.0</ele><time>2026-04-25T15:55:55.56Z</time></trkpt><trkpt lat="46.2340683" lon="12.7833083"><ele>638.0</ele><time>2026-04-25T15:55:56.56Z</time></trkpt><trkpt lat="46.233965" lon="12.783365"><ele>638.0</ele><time>2026-04-25T15:55:57.56Z</time></trkpt><trkpt lat="46.23387" lon="12.7834517"><ele>638.0</ele><time>2026-04-25T15:55:58.56Z</time></trkpt><trkpt lat="46.233755" lon="12.7835"><ele>640.5</ele><time>2026-04-25T15:55:59.561Z</time></trkpt><trkpt lat="46.2336383" lon="12.78355"><ele>643.0</ele><time>2026-04-25T15:56:00.561Z</time></trkpt><trkpt lat="46.2335083" lon="12.7835833"><ele>645.5</ele><time>2026-04-25T15:56:01.561Z</time></trkpt><trkpt lat="46.2333833" lon="12.7836217"><ele>648.0</ele><time>2026-04-25T15:56:02.561Z</time></trkpt><trkpt lat="46.2332617" lon="12.7836483"><ele>646.75</ele><time>2026-04-25T15:56:03.561Z</time></trkpt><trkpt lat="46.2331367" lon="12.783665"><ele>645.5</ele><time>2026-04-25T15:56:04.561Z</time></trkpt><trkpt lat="46.2330117" lon="12.783665"><ele>644.25</ele><time>2026-04-25T15:56:05.56Z</time></trkpt><trkpt lat="46.2328883" lon="12.7836567"><ele>643.0</ele><time>2026-04-25T15:56:06.561Z</time></trkpt><trkpt lat="46.232765" lon="12.7836383"><ele>643.0</ele><time>2026-04-25T15:56:07.56Z</time></trkpt><trkpt lat="46.2326467" lon="12.7836233"><ele>643.0</ele><time>2026-04-25T15:56:08.56Z</time></trkpt><trkpt lat="46.2325367" lon="12.7835983"><ele>643.0</ele><time>2026-04-25T15:56:09.56Z</time></trkpt><trkpt lat="46.2324267" lon="12.783565"><ele>643.0</ele><time>2026-04-25T15:56:10.561Z</time></trkpt><trkpt lat="46.2323233" lon="12.783525"><ele>640.6</ele><time>2026-04-25T15:56:11.56Z</time></trkpt><trkpt lat="46.2322283" lon="12.7834833"><ele>638.1999999999999</ele><time>2026-04-25T15:56:12.56Z</time></trkpt><trkpt lat="46.232135" lon="12.783455"><ele>635.8</ele><time>2026-04-25T15:56:13.56Z</time></trkpt><trkpt lat="46.2320433" lon="12.7834417"><ele>633.4</ele><time>2026-04-25T15:56:14.56Z</time></trkpt><trkpt lat="46.231955" lon="12.783455"><ele>631.0</ele><time>2026-04-25T15:56:15.561Z</time></trkpt><trkpt lat="46.231865" lon="12.7835033"><ele>632.25</ele><time>2026-04-25T15:56:16.56Z</time></trkpt><trkpt lat="46.2317767" lon="12.7835883"><ele>633.5</ele><time>2026-04-25T15:56:17.56Z</time></trkpt><trkpt lat="46.2316767" lon="12.7836817"><ele>634.75</ele><time>2026-04-25T15:56:18.56Z</time></trkpt><trkpt lat="46.23156" lon="12.7837733"><ele>636.0</ele><time>2026-04-25T15:56:19.561Z</time></trkpt><trkpt lat="46.2314383" lon="12.783865"><ele>630.0</ele><time>2026-04-25T15:56:20.561Z</time></trkpt><trkpt lat="46.231315" lon="12.7839517"><ele>624.0</ele><time>2026-04-25T15:56:21.56Z</time></trkpt><trkpt lat="46.2311883" lon="12.784055"><ele>618.0</ele><time>2026-04-25T15:56:22.561Z</time></trkpt><trkpt lat="46.2310567" lon="12.7841717"><ele>612.0</ele><time>2026-04-25T15:56:23.561Z</time></trkpt><trkpt lat="46.2309267" lon="12.784295"><ele>610.0</ele><time>2026-04-25T15:56:24.561Z</time></trkpt><trkpt lat="46.2308017" lon="12.7844167"><ele>608.0</ele><time>2026-04-25T15:56:25.561Z</time></trkpt><trkpt lat="46.2306833" lon="12.7845367"><ele>606.0</ele><time>2026-04-25T15:56:26.56Z</time></trkpt><trkpt lat="46.230575" lon="12.78463"><ele>604.0</ele><time>2026-04-25T15:56:27.561Z</time></trkpt><trkpt lat="46.230465" lon="12.7847283"><ele>604.0</ele><time>2026-04-25T15:56:28.56Z</time></trkpt><trkpt lat="46.23035" lon="12.7848217"><ele>604.0</ele><time>2026-04-25T15:56:29.56Z</time></trkpt><trkpt lat="46.2302383" lon="12.7849017"><ele>604.0</ele><time>2026-04-25T15:56:30.561Z</time></trkpt><trkpt lat="46.2301183" lon="12.784965"><ele>604.0</ele><time>2026-04-25T15:56:31.561Z</time></trkpt><trkpt lat="46.23" lon="12.785015"><ele>604.0</ele><time>2026-04-25T15:56:32.561Z</time></trkpt><trkpt lat="46.2298767" lon="12.7850717"><ele>604.0</ele><time>2026-04-25T15:56:33.561Z</time></trkpt><trkpt lat="46.2297567" lon="12.78514"><ele>604.0</ele><time>2026-04-25T15:56:34.56Z</time></trkpt><trkpt lat="46.2296383" lon="12.785215"><ele>604.0</ele><time>2026-04-25T15:56:35.56Z</time></trkpt><trkpt lat="46.2295233" lon="12.785285"><ele>604.25</ele><time>2026-04-25T15:56:36.56Z</time></trkpt><trkpt lat="46.22941" lon="12.7853533"><ele>604.5</ele><time>2026-04-25T15:56:37.56Z</time></trkpt><trkpt lat="46.2293033" lon="12.785425"><ele>604.75</ele><time>2026-04-25T15:56:38.56Z</time></trkpt><trkpt lat="46.2292083" lon="12.785505"><ele>605.0</ele><time>2026-04-25T15:56:39.561Z</time></trkpt><trkpt lat="46.2291183" lon="12.78559"><ele>605.0</ele><time>2026-04-25T15:56:40.56Z</time></trkpt><trkpt lat="46.2290183" lon="12.785675"><ele>605.0</ele><time>2026-04-25T15:56:41.561Z</time></trkpt><trkpt lat="46.2289183" lon="12.7857683"><ele>605.0</ele><time>2026-04-25T15:56:42.561Z</time></trkpt><trkpt lat="46.2288183" lon="12.7858683"><ele>605.0</ele><time>2026-04-25T15:56:43.56Z</time></trkpt><trkpt lat="46.2287217" lon="12.785975"><ele>602.75</ele><time>2026-04-25T15:56:44.56Z</time></trkpt><trkpt lat="46.228625" lon="12.7860833"><ele>600.5</ele><time>2026-04-25T15:56:45.561Z</time></trkpt><trkpt lat="46.2285283" lon="12.7861867"><ele>598.25</ele><time>2026-04-25T15:56:46.561Z</time></trkpt><trkpt lat="46.22842" lon="12.78627"><ele>596.0</ele><time>2026-04-25T15:56:47.56Z</time></trkpt><trkpt lat="46.2283267" lon="12.78637"><ele>596.0</ele><time>2026-04-25T15:56:48.561Z</time></trkpt><trkpt lat="46.2282367" lon="12.78647"><ele>596.0</ele><time>2026-04-25T15:56:49.561Z</time></trkpt><trkpt lat="46.2281517" lon="12.786575"><ele>596.0</ele><time>2026-04-25T15:56:50.561Z</time></trkpt><trkpt lat="46.2280717" lon="12.7866933"><ele>596.0</ele><time>2026-04-25T15:56:51.561Z</time></trkpt><trkpt lat="46.2279883" lon="12.7868167"><ele>592.0</ele><time>2026-04-25T15:56:52.56Z</time></trkpt><trkpt lat="46.227915" lon="12.786935"><ele>588.0</ele><time>2026-04-25T15:56:53.561Z</time></trkpt><trkpt lat="46.22784" lon="12.7870433"><ele>584.0</ele><time>2026-04-25T15:56:54.561Z</time></trkpt><trkpt lat="46.2277583" lon="12.7871367"><ele>580.0</ele><time>2026-04-25T15:56:55.56Z</time></trkpt><trkpt lat="46.227675" lon="12.7872367"><ele>576.0</ele><time>2026-04-25T15:56:56.56Z</time></trkpt><trkpt lat="46.2275967" lon="12.7873317"><ele>576.0</ele><time>2026-04-25T15:56:57.56Z</time></trkpt><trkpt lat="46.227525" lon="12.7874167"><ele>576.0</ele><time>2026-04-25T15:56:58.56Z</time></trkpt><trkpt lat="46.2274567" lon="12.7874983"><ele>576.0</ele><time>2026-04-25T15:56:59.561Z</time></trkpt><trkpt lat="46.2273917" lon="12.7875633"><ele>576.0</ele><time>2026-04-25T15:57:00.56Z</time></trkpt><trkpt lat="46.2273267" lon="12.7876167"><ele>576.0</ele><time>2026-04-25T15:57:01.56Z</time></trkpt><trkpt lat="46.22726" lon="12.7876817"><ele>576.0</ele><time>2026-04-25T15:57:02.56Z</time></trkpt><trkpt lat="46.2272183" lon="12.78777"><ele>577.2</ele><time>2026-04-25T15:57:03.561Z</time></trkpt><trkpt lat="46.2272033" lon="12.7878783"><ele>578.4000000000001</ele><time>2026-04-25T15:57:04.56Z</time></trkpt><trkpt lat="46.2272117" lon="12.7880117"><ele>579.6</ele><time>2026-04-25T15:57:05.561Z</time></trkpt><trkpt lat="46.227245" lon="12.7881467"><ele>580.8000000000001</ele><time>2026-04-25T15:57:06.56Z</time></trkpt><trkpt lat="46.227295" lon="12.78829"><ele>582.0</ele><time>2026-04-25T15:57:07.561Z</time></trkpt><trkpt lat="46.2273333" lon="12.7884433"><ele>582.2</ele><time>2026-04-25T15:57:08.56Z</time></trkpt><trkpt lat="46.22735" lon="12.7885983"><ele>582.4000000000001</ele><time>2026-04-25T15:57:09.561Z</time></trkpt><trkpt lat="46.2273483" lon="12.78875"><ele>582.5999999999999</ele><time>2026-04-25T15:57:10.561Z</time></trkpt><trkpt lat="46.2273367" lon="12.7889067"><ele>582.8</ele><time>2026-04-25T15:57:11.561Z</time></trkpt><trkpt lat="46.2273133" lon="12.7890517"><ele>583.0</ele><time>2026-04-25T15:57:12.561Z</time></trkpt><trkpt lat="46.227275" lon="12.7891817"><ele>579.1999999999999</ele><time>2026-04-25T15:57:13.561Z</time></trkpt><trkpt lat="46.2272183" lon="12.7892933"><ele>575.4</ele><time>2026-04-25T15:57:14.561Z</time></trkpt><trkpt lat="46.227145" lon="12.7893783"><ele>571.5999999999999</ele><time>2026-04-25T15:57:15.561Z</time></trkpt><trkpt lat="46.22706" lon="12.7894367"><ele>567.8</ele><time>2026-04-25T15:57:16.561Z</time></trkpt><trkpt lat="46.22697" lon="12.78949"><ele>564.0</ele><time>2026-04-25T15:57:17.56Z</time></trkpt><trkpt lat="46.226895" lon="12.7895567"><ele>564.0</ele><time>2026-04-25T15:57:18.561Z</time></trkpt><trkpt lat="46.2268233" lon="12.789615"><ele>564.0</ele><time>2026-04-25T15:57:19.561Z</time></trkpt><trkpt lat="46.22676" lon="12.7896683"><ele>564.0</ele><time>2026-04-25T15:57:20.561Z</time></trkpt><trkpt lat="46.2267033" lon="12.7897117"><ele>564.0</ele><time>2026-04-25T15:57:21.56Z</time></trkpt><trkpt lat="46.226595" lon="12.7897217"><ele>564.0</ele><time>2026-04-25T15:57:23.561Z</time></trkpt><trkpt lat="46.226535" lon="12.7896467"><ele>564.0</ele><time>2026-04-25T15:57:25.56Z</time></trkpt><trkpt lat="46.226595" lon="12.7894883"><ele>564.0</ele><time>2026-04-25T15:57:27.561Z</time></trkpt><trkpt lat="46.226655" lon="12.7893617"><ele>564.0</ele><time>2026-04-25T15:57:28.561Z</time></trkpt><trkpt lat="46.226705" lon="12.7892367"><ele>564.0</ele><time>2026-04-25T15:57:29.56Z</time></trkpt><trkpt lat="46.226745" lon="12.7890933"><ele>564.0</ele><time>2026-04-25T15:57:30.56Z</time></trkpt><trkpt lat="46.2267583" lon="12.7889067"><ele>564.0</ele><time>2026-04-25T15:57:31.56Z</time></trkpt><trkpt lat="46.22676" lon="12.7887017"><ele>560.25</ele><time>2026-04-25T15:57:32.56Z</time></trkpt><trkpt lat="46.226765" lon="12.7884983"><ele>556.5</ele><time>2026-04-25T15:57:33.561Z</time></trkpt><trkpt lat="46.2267783" lon="12.7883067"><ele>552.75</ele><time>2026-04-25T15:57:34.56Z</time></trkpt><trkpt lat="46.2268017" lon="12.7881317"><ele>549.0</ele><time>2026-04-25T15:57:35.561Z</time></trkpt><trkpt lat="46.2268183" lon="12.7879733"><ele>549.0</ele><time>2026-04-25T15:57:36.561Z</time></trkpt><trkpt lat="46.226815" lon="12.787805"><ele>549.0</ele><time>2026-04-25T15:57:37.56Z</time></trkpt><trkpt lat="46.2267983" lon="12.7876267"><ele>549.0</ele><time>2026-04-25T15:57:38.561Z</time></trkpt><trkpt lat="46.2267767" lon="12.78745"><ele>549.0</ele><time>2026-04-25T15:57:39.561Z</time></trkpt><trkpt lat="46.2267567" lon="12.7872867"><ele>548.0</ele><time>2026-04-25T15:57:40.561Z</time></trkpt><trkpt lat="46.226745" lon="12.787135"><ele>547.0</ele><time>2026-04-25T15:57:41.56Z</time></trkpt><trkpt lat="46.226735" lon="12.7870033"><ele>546.0</ele><time>2026-04-25T15:57:42.56Z</time></trkpt><trkpt lat="46.2267367" lon="12.7868683"><ele>545.0</ele><time>2026-04-25T15:57:43.561Z</time></trkpt><trkpt lat="46.22675" lon="12.7867533"><ele>544.0</ele><time>2026-04-25T15:57:44.56Z</time></trkpt><trkpt lat="46.2267817" lon="12.78666"><ele>543.0</ele><time>2026-04-25T15:57:45.561Z</time></trkpt><trkpt lat="46.2268267" lon="12.7865883"><ele>542.5</ele><time>2026-04-25T15:57:46.561Z</time></trkpt><trkpt lat="46.2268817" lon="12.78654"><ele>542.0</ele><time>2026-04-25T15:57:47.56Z</time></trkpt><trkpt lat="46.22695" lon="12.7865"><ele>541.5</ele><time>2026-04-25T15:57:48.56Z</time></trkpt><trkpt lat="46.2270267" lon="12.7864483"><ele>541.0</ele><time>2026-04-25T15:57:49.561Z</time></trkpt><trkpt lat="46.2271067" lon="12.7863733"><ele>540.5</ele><time>2026-04-25T15:57:50.561Z</time></trkpt><trkpt lat="46.22719" lon="12.78628"><ele>540.0</ele><time>2026-04-25T15:57:51.561Z</time></trkpt><trkpt lat="46.227265" lon="12.7861783"><ele>540.5</ele><time>2026-04-25T15:57:52.561Z</time></trkpt><trkpt lat="46.227345" lon="12.7860567"><ele>541.0</ele><time>2026-04-25T15:57:53.56Z</time></trkpt><trkpt lat="46.22742" lon="12.7859083"><ele>541.5</ele><time>2026-04-25T15:57:54.56Z</time></trkpt><trkpt lat="46.2274967" lon="12.7857383"><ele>542.0</ele><time>2026-04-25T15:57:55.56Z</time></trkpt><trkpt lat="46.2275783" lon="12.785575"><ele>542.0</ele><time>2026-04-25T15:57:56.561Z</time></trkpt><trkpt lat="46.2276567" lon="12.7854167"><ele>542.0</ele><time>2026-04-25T15:57:57.56Z</time></trkpt><trkpt lat="46.2277317" lon="12.78526"><ele>542.0</ele><time>2026-04-25T15:57:58.56Z</time></trkpt><trkpt lat="46.2278167" lon="12.785125"><ele>542.0</ele><time>2026-04-25T15:57:59.561Z</time></trkpt><trkpt lat="46.227895" lon="12.784995"><ele>539.2</ele><time>2026-04-25T15:58:00.561Z</time></trkpt><trkpt lat="46.2279583" lon="12.7848717"><ele>536.4000000000001</ele><time>2026-04-25T15:58:01.56Z</time></trkpt><trkpt lat="46.2280017" lon="12.78474"><ele>533.5999999999999</ele><time>2026-04-25T15:58:02.56Z</time></trkpt><trkpt lat="46.2280267" lon="12.7845983"><ele>530.8</ele><time>2026-04-25T15:58:03.561Z</time></trkpt><trkpt lat="46.2280317" lon="12.78445"><ele>528.0</ele><time>2026-04-25T15:58:04.561Z</time></trkpt><trkpt lat="46.2280167" lon="12.7843017"><ele>527.5</ele><time>2026-04-25T15:58:05.561Z</time></trkpt><trkpt lat="46.2279767" lon="12.7841583"><ele>527.0</ele><time>2026-04-25T15:58:06.56Z</time></trkpt><trkpt lat="46.22791" lon="12.7840333"><ele>526.5</ele><time>2026-04-25T15:58:07.561Z</time></trkpt><trkpt lat="46.2278233" lon="12.7839267"><ele>526.0</ele><time>2026-04-25T15:58:08.56Z</time></trkpt><trkpt lat="46.227725" lon="12.7838117"><ele>526.0</ele><time>2026-04-25T15:58:09.561Z</time></trkpt><trkpt lat="46.2276233" lon="12.78367"><ele>526.0</ele><time>2026-04-25T15:58:10.561Z</time></trkpt><trkpt lat="46.2275233" lon="12.7835067"><ele>526.0</ele><time>2026-04-25T15:58:11.561Z</time></trkpt><trkpt lat="46.2274117" lon="12.78334"><ele>522.6666666666667</ele><time>2026-04-25T15:58:12.561Z</time></trkpt><trkpt lat="46.227275" lon="12.783175"><ele>519.3333333333334</ele><time>2026-04-25T15:58:13.56Z</time></trkpt><trkpt lat="46.22712" lon="12.7830167"><ele>516.0</ele><time>2026-04-25T15:58:14.561Z</time></trkpt><trkpt lat="46.2269683" lon="12.7828583"><ele>516.0</ele><time>2026-04-25T15:58:15.561Z</time></trkpt><trkpt lat="46.2268333" lon="12.7827"><ele>516.0</ele><time>2026-04-25T15:58:16.56Z</time></trkpt><trkpt lat="46.226715" lon="12.7825567"><ele>516.0</ele><time>2026-04-25T15:58:17.56Z</time></trkpt><trkpt lat="46.2266067" lon="12.7824233"><ele>520.25</ele><time>2026-04-25T15:58:18.561Z</time></trkpt><trkpt lat="46.2264967" lon="12.7823033"><ele>524.5</ele><time>2026-04-25T15:58:19.56Z</time></trkpt><trkpt lat="46.226385" lon="12.7821783"><ele>528.75</ele><time>2026-04-25T15:58:20.56Z</time></trkpt><trkpt lat="46.2262717" lon="12.782045"><ele>533.0</ele><time>2026-04-25T15:58:21.561Z</time></trkpt><trkpt lat="46.2261533" lon="12.78189"><ele>532.5</ele><time>2026-04-25T15:58:22.561Z</time></trkpt><trkpt lat="46.226055" lon="12.78174"><ele>532.0</ele><time>2026-04-25T15:58:23.56Z</time></trkpt><trkpt lat="46.225955" lon="12.7816067"><ele>531.5</ele><time>2026-04-25T15:58:24.56Z</time></trkpt><trkpt lat="46.22585" lon="12.781495"><ele>531.0</ele><time>2026-04-25T15:58:25.561Z</time></trkpt><trkpt lat="46.2257517" lon="12.7814"><ele>531.0</ele><time>2026-04-25T15:58:26.561Z</time></trkpt><trkpt lat="46.2256567" lon="12.7812983"><ele>531.0</ele><time>2026-04-25T15:58:27.561Z</time></trkpt><trkpt lat="46.2255733" lon="12.7811717"><ele>531.0</ele><time>2026-04-25T15:58:28.561Z</time></trkpt><trkpt lat="46.2255" lon="12.7810267"><ele>531.0</ele><time>2026-04-25T15:58:29.561Z</time></trkpt><trkpt lat="46.2254217" lon="12.7808833"><ele>527.0</ele><time>2026-04-25T15:58:30.561Z</time></trkpt><trkpt lat="46.22534" lon="12.7807517"><ele>523.0</ele><time>2026-04-25T15:58:31.561Z</time></trkpt><trkpt lat="46.225245" lon="12.78064"><ele>519.0</ele><time>2026-04-25T15:58:32.56Z</time></trkpt><trkpt lat="46.2251483" lon="12.7805433"><ele>515.0</ele><time>2026-04-25T15:58:33.561Z</time></trkpt><trkpt lat="46.2250617" lon="12.7804517"><ele>515.0</ele><time>2026-04-25T15:58:34.561Z</time></trkpt><trkpt lat="46.2249883" lon="12.780355"><ele>515.0</ele><time>2026-04-25T15:58:35.56Z</time></trkpt><trkpt lat="46.2249317" lon="12.7802333"><ele>515.0</ele><time>2026-04-25T15:58:36.56Z</time></trkpt><trkpt lat="46.2248967" lon="12.7800833"><ele>515.0</ele><time>2026-04-25T15:58:37.56Z</time></trkpt><trkpt lat="46.2248717" lon="12.77992"><ele>515.0</ele><time>2026-04-25T15:58:38.56Z</time></trkpt><trkpt lat="46.22485" lon="12.7797483"><ele>514.25</ele><time>2026-04-25T15:58:39.561Z</time></trkpt><trkpt lat="46.22483" lon="12.7795667"><ele>513.5</ele><time>2026-04-25T15:58:40.561Z</time></trkpt><trkpt lat="46.2248117" lon="12.7793833"><ele>512.75</ele><time>2026-04-25T15:58:41.561Z</time></trkpt><trkpt lat="46.2247933" lon="12.7792017"><ele>512.0</ele><time>2026-04-25T15:58:42.561Z</time></trkpt><trkpt lat="46.2247717" lon="12.7790183"><ele>506.0</ele><time>2026-04-25T15:58:43.561Z</time></trkpt><trkpt lat="46.2247533" lon="12.7788367"><ele>500.0</ele><time>2026-04-25T15:58:44.56Z</time></trkpt><trkpt lat="46.2247367" lon="12.7786583"><ele>494.0</ele><time>2026-04-25T15:58:45.56Z</time></trkpt><trkpt lat="46.2247183" lon="12.77849"><ele>488.0</ele><time>2026-04-25T15:58:46.561Z</time></trkpt><trkpt lat="46.2246967" lon="12.7783317"><ele>486.2</ele><time>2026-04-25T15:58:47.561Z</time></trkpt><trkpt lat="46.2246683" lon="12.778185"><ele>484.4</ele><time>2026-04-25T15:58:48.56Z</time></trkpt><trkpt lat="46.2246433" lon="12.7780467"><ele>482.59999999999997</ele><time>2026-04-25T15:58:49.56Z</time></trkpt><trkpt lat="46.2246283" lon="12.77791"><ele>480.79999999999995</ele><time>2026-04-25T15:58:50.561Z</time></trkpt><trkpt lat="46.2246283" lon="12.777765"><ele>479.0</ele><time>2026-04-25T15:58:51.56Z</time></trkpt><trkpt lat="46.2246367" lon="12.7776033"><ele>475.5</ele><time>2026-04-25T15:58:52.56Z</time></trkpt><trkpt lat="46.2246433" lon="12.77743"><ele>472.0</ele><time>2026-04-25T15:58:53.561Z</time></trkpt><trkpt lat="46.2246367" lon="12.7772433"><ele>468.5</ele><time>2026-04-25T15:58:54.56Z</time></trkpt><trkpt lat="46.2246267" lon="12.7770583"><ele>465.0</ele><time>2026-04-25T15:58:55.561Z</time></trkpt><trkpt lat="46.224615" lon="12.7768767"><ele>461.4</ele><time>2026-04-25T15:58:56.561Z</time></trkpt><trkpt lat="46.2246083" lon="12.7767017"><ele>457.8</ele><time>2026-04-25T15:58:57.56Z</time></trkpt><trkpt lat="46.22461" lon="12.776545"><ele>454.20000000000005</ele><time>2026-04-25T15:58:58.56Z</time></trkpt><trkpt lat="46.2246267" lon="12.7764017"><ele>450.6</ele><time>2026-04-25T15:58:59.561Z</time></trkpt><trkpt lat="46.22465" lon="12.77626"><ele>447.0</ele><time>2026-04-25T15:59:00.561Z</time></trkpt><trkpt lat="46.22468" lon="12.7761283"><ele>446.99999999999994</ele><time>2026-04-25T15:59:01.56Z</time></trkpt><trkpt lat="46.224715" lon="12.7760117"><ele>447.0</ele><time>2026-04-25T15:59:02.561Z</time></trkpt><trkpt lat="46.224745" lon="12.7759033"><ele>447.0</ele><time>2026-04-25T15:59:03.561Z</time></trkpt><trkpt lat="46.2247733" lon="12.7758117"><ele>447.0</ele><time>2026-04-25T15:59:04.56Z</time></trkpt><trkpt lat="46.22475" lon="12.7757217"><ele>447.0</ele><time>2026-04-25T15:59:07.56Z</time></trkpt><trkpt lat="46.2246817" lon="12.7757617"><ele>446.99999999999994</ele><time>2026-04-25T15:59:09.561Z</time></trkpt><trkpt lat="46.224645" lon="12.7758417"><ele>447.0</ele><time>2026-04-25T15:59:10.561Z</time></trkpt><trkpt lat="46.2245733" lon="12.77604"><ele>447.0</ele><time>2026-04-25T15:59:11.561Z</time></trkpt><trkpt lat="46.2245133" lon="12.7762"><ele>447.00000000000006</ele><time>2026-04-25T15:59:12.56Z</time></trkpt><trkpt lat="46.224465" lon="12.7763317"><ele>447.00000000000006</ele><time>2026-04-25T15:59:13.56Z</time></trkpt><trkpt lat="46.224425" lon="12.7764767"><ele>447.0</ele><time>2026-04-25T15:59:14.561Z</time></trkpt><trkpt lat="46.2244117" lon="12.7766217"><ele>447.0</ele><time>2026-04-25T15:59:15.561Z</time></trkpt><trkpt lat="46.2244" lon="12.7767683"><ele>450.0</ele><time>2026-04-25T15:59:16.56Z</time></trkpt><trkpt lat="46.2243783" lon="12.7768983"><ele>453.0</ele><time>2026-04-25T15:59:17.56Z</time></trkpt><trkpt lat="46.2243433" lon="12.7770133"><ele>456.0</ele><time>2026-04-25T15:59:18.561Z</time></trkpt><trkpt lat="46.2242933" lon="12.77711"><ele>459.0</ele><time>2026-04-25T15:59:19.56Z</time></trkpt><trkpt lat="46.2242233" lon="12.77718"><ele>462.0</ele><time>2026-04-25T15:59:20.561Z</time></trkpt><trkpt lat="46.224145" lon="12.7772233"><ele>465.0</ele><time>2026-04-25T15:59:21.561Z</time></trkpt><trkpt lat="46.2240683" lon="12.7772567"><ele>465.0</ele><time>2026-04-25T15:59:22.561Z</time></trkpt><trkpt lat="46.2239983" lon="12.777305"><ele>465.0</ele><time>2026-04-25T15:59:23.561Z</time></trkpt><trkpt lat="46.2239317" lon="12.7773867"><ele>465.0</ele><time>2026-04-25T15:59:24.561Z</time></trkpt><trkpt lat="46.2238817" lon="12.7775467"><ele>465.0</ele><time>2026-04-25T15:59:25.561Z</time></trkpt><trkpt lat="46.22383" lon="12.7776967"><ele>465.0</ele><time>2026-04-25T15:59:26.56Z</time></trkpt><trkpt lat="46.223785" lon="12.777855"><ele>460.25</ele><time>2026-04-25T15:59:27.56Z</time></trkpt><trkpt lat="46.2237333" lon="12.7779983"><ele>455.5</ele><time>2026-04-25T15:59:28.56Z</time></trkpt><trkpt lat="46.22367" lon="12.778135"><ele>450.75</ele><time>2026-04-25T15:59:29.561Z</time></trkpt><trkpt lat="46.22359" lon="12.7782767"><ele>446.0</ele><time>2026-04-25T15:59:30.56Z</time></trkpt><trkpt lat="46.22349" lon="12.778405"><ele>448.25</ele><time>2026-04-25T15:59:31.56Z</time></trkpt><trkpt lat="46.2233967" lon="12.7785433"><ele>450.5</ele><time>2026-04-25T15:59:32.561Z</time></trkpt><trkpt lat="46.2233033" lon="12.7786883"><ele>452.75</ele><time>2026-04-25T15:59:33.561Z</time></trkpt><trkpt lat="46.2232067" lon="12.7788217"><ele>455.0</ele><time>2026-04-25T15:59:34.561Z</time></trkpt><trkpt lat="46.2231183" lon="12.778945"><ele>449.8</ele><time>2026-04-25T15:59:35.56Z</time></trkpt><trkpt lat="46.2230417" lon="12.7790583"><ele>444.6</ele><time>2026-04-25T15:59:36.561Z</time></trkpt><trkpt lat="46.2229717" lon="12.7791633"><ele>439.4</ele><time>2026-04-25T15:59:37.561Z</time></trkpt><trkpt lat="46.2229117" lon="12.779275"><ele>434.2</ele><time>2026-04-25T15:59:38.561Z</time></trkpt><trkpt lat="46.222855" lon="12.77937"><ele>429.0</ele><time>2026-04-25T15:59:39.561Z</time></trkpt><trkpt lat="46.2228033" lon="12.7794633"><ele>429.0</ele><time>2026-04-25T15:59:40.561Z</time></trkpt><trkpt lat="46.22276" lon="12.7795583"><ele>429.0</ele><time>2026-04-25T15:59:41.561Z</time></trkpt><trkpt lat="46.222735" lon="12.779685"><ele>429.0</ele><time>2026-04-25T15:59:42.56Z</time></trkpt><trkpt lat="46.2227317" lon="12.7798333"><ele>429.0</ele><time>2026-04-25T15:59:43.561Z</time></trkpt><trkpt lat="46.2227133" lon="12.7799817"><ele>429.0</ele><time>2026-04-25T15:59:44.561Z</time></trkpt><trkpt lat="46.2226833" lon="12.7801333"><ele>430.2</ele><time>2026-04-25T15:59:45.56Z</time></trkpt><trkpt lat="46.222645" lon="12.7802733"><ele>431.4</ele><time>2026-04-25T15:59:46.561Z</time></trkpt><trkpt lat="46.2226083" lon="12.7804067"><ele>432.6</ele><time>2026-04-25T15:59:47.561Z</time></trkpt><trkpt lat="46.2225733" lon="12.7805383"><ele>433.8</ele><time>2026-04-25T15:59:48.56Z</time></trkpt><trkpt lat="46.2225283" lon="12.780655"><ele>435.0</ele><time>2026-04-25T15:59:49.561Z</time></trkpt><trkpt lat="46.2224617" lon="12.7807517"><ele>435.0</ele><time>2026-04-25T15:59:50.561Z</time></trkpt><trkpt lat="46.2223733" lon="12.7808267"><ele>435.0</ele><time>2026-04-25T15:59:51.56Z</time></trkpt><trkpt lat="46.2222767" lon="12.7808967"><ele>435.0</ele><time>2026-04-25T15:59:52.56Z</time></trkpt><trkpt lat="46.2221733" lon="12.7809583"><ele>435.0</ele><time>2026-04-25T15:59:53.561Z</time></trkpt><trkpt lat="46.2220733" lon="12.781005"><ele>435.0</ele><time>2026-04-25T15:59:54.561Z</time></trkpt><trkpt lat="46.2219817" lon="12.7810483"><ele>432.0</ele><time>2026-04-25T15:59:55.56Z</time></trkpt><trkpt lat="46.2219167" lon="12.7811267"><ele>429.0</ele><time>2026-04-25T15:59:56.56Z</time></trkpt><trkpt lat="46.2218583" lon="12.7812267"><ele>426.0</ele><time>2026-04-25T15:59:57.561Z</time></trkpt><trkpt lat="46.2218033" lon="12.7813217"><ele>423.0</ele><time>2026-04-25T15:59:58.561Z</time></trkpt><trkpt lat="46.2217617" lon="12.78145"><ele>420.0</ele><time>2026-04-25T15:59:59.56Z</time></trkpt><trkpt lat="46.2217217" lon="12.7815967"><ele>420.0</ele><time>2026-04-25T16:00:00.56Z</time></trkpt><trkpt lat="46.2216817" lon="12.7817667"><ele>420.0</ele><time>2026-04-25T16:00:01.56Z</time></trkpt><trkpt lat="46.2216417" lon="12.7819433"><ele>420.0</ele><time>2026-04-25T16:00:02.561Z</time></trkpt><trkpt lat="46.2215967" lon="12.7821067"><ele>420.0</ele><time>2026-04-25T16:00:03.561Z</time></trkpt><trkpt lat="46.2215667" lon="12.782275"><ele>421.5</ele><time>2026-04-25T16:00:04.56Z</time></trkpt><trkpt lat="46.221545" lon="12.78245"><ele>423.0</ele><time>2026-04-25T16:00:05.561Z</time></trkpt><trkpt lat="46.221515" lon="12.7826183"><ele>424.5</ele><time>2026-04-25T16:00:06.561Z</time></trkpt><trkpt lat="46.2214867" lon="12.7827817"><ele>426.0</ele><time>2026-04-25T16:00:07.56Z</time></trkpt><trkpt lat="46.2214633" lon="12.78294"><ele>419.0</ele><time>2026-04-25T16:00:08.56Z</time></trkpt><trkpt lat="46.2214367" lon="12.7830833"><ele>412.0</ele><time>2026-04-25T16:00:09.56Z</time></trkpt><trkpt lat="46.2214317" lon="12.7832317"><ele>405.0</ele><time>2026-04-25T16:00:10.561Z</time></trkpt><trkpt lat="46.2214383" lon="12.783385"><ele>398.0</ele><time>2026-04-25T16:00:11.561Z</time></trkpt><trkpt lat="46.22144" lon="12.7835267"><ele>391.0</ele><time>2026-04-25T16:00:12.561Z</time></trkpt><trkpt lat="46.2214217" lon="12.7836433"><ele>391.0</ele><time>2026-04-25T16:00:13.561Z</time></trkpt><trkpt lat="46.2213983" lon="12.7837667"><ele>391.0</ele><time>2026-04-25T16:00:14.561Z</time></trkpt><trkpt lat="46.221345" lon="12.7838633"><ele>391.0</ele><time>2026-04-25T16:00:15.56Z</time></trkpt><trkpt lat="46.2212683" lon="12.7839483"><ele>391.0</ele><time>2026-04-25T16:00:16.561Z</time></trkpt><trkpt lat="46.2211883" lon="12.7840483"><ele>391.0</ele><time>2026-04-25T16:00:17.56Z</time></trkpt><trkpt lat="46.2211067" lon="12.7841417"><ele>391.00000000000006</ele><time>2026-04-25T16:00:18.561Z</time></trkpt><trkpt lat="46.22104" lon="12.7842283"><ele>391.0</ele><time>2026-04-25T16:00:19.561Z</time></trkpt><trkpt lat="46.2209883" lon="12.784315"><ele>391.0</ele><time>2026-04-25T16:00:20.56Z</time></trkpt><trkpt lat="46.22094" lon="12.7844"><ele>391.0</ele><time>2026-04-25T16:00:21.561Z</time></trkpt><trkpt lat="46.22091" lon="12.78449"><ele>391.00000000000006</ele><time>2026-04-25T16:00:22.561Z</time></trkpt><trkpt lat="46.2208967" lon="12.7845883"><ele>391.0</ele><time>2026-04-25T16:00:23.56Z</time></trkpt><trkpt lat="46.2209033" lon="12.78471"><ele>391.33333333333337</ele><time>2026-04-25T16:00:24.561Z</time></trkpt><trkpt lat="46.2208917" lon="12.7848217"><ele>391.6666666666667</ele><time>2026-04-25T16:00:25.561Z</time></trkpt><trkpt lat="46.22088" lon="12.78494"><ele>392.0</ele><time>2026-04-25T16:00:26.561Z</time></trkpt><trkpt lat="46.2208783" lon="12.7850533"><ele>392.33333333333337</ele><time>2026-04-25T16:00:27.56Z</time></trkpt><trkpt lat="46.2208967" lon="12.7851683"><ele>392.6666666666667</ele><time>2026-04-25T16:00:28.56Z</time></trkpt><trkpt lat="46.2209183" lon="12.7852783"><ele>393.0</ele><time>2026-04-25T16:00:29.56Z</time></trkpt><trkpt lat="46.2209617" lon="12.785395"><ele>391.79999999999995</ele><time>2026-04-25T16:00:30.561Z</time></trkpt><trkpt lat="46.2210233" lon="12.7854983"><ele>390.6</ele><time>2026-04-25T16:00:31.561Z</time></trkpt><trkpt lat="46.2211067" lon="12.7855967"><ele>389.4</ele><time>2026-04-25T16:00:32.56Z</time></trkpt><trkpt lat="46.2212" lon="12.7856683"><ele>388.20000000000005</ele><time>2026-04-25T16:00:33.561Z</time></trkpt><trkpt lat="46.2212767" lon="12.785745"><ele>387.0</ele><time>2026-04-25T16:00:34.56Z</time></trkpt><trkpt lat="46.22133" lon="12.7858267"><ele>387.0</ele><time>2026-04-25T16:00:35.561Z</time></trkpt><trkpt lat="46.221365" lon="12.7859117"><ele>387.0</ele><time>2026-04-25T16:00:36.56Z</time></trkpt><trkpt lat="46.221375" lon="12.7860183"><ele>387.0</ele><time>2026-04-25T16:00:37.561Z</time></trkpt><trkpt lat="46.2213633" lon="12.78614"><ele>387.0</ele><time>2026-04-25T16:00:38.56Z</time></trkpt><trkpt lat="46.2213433" lon="12.7862733"><ele>387.0</ele><time>2026-04-25T16:00:39.562Z</time></trkpt><trkpt lat="46.22131" lon="12.78641"><ele>387.0</ele><time>2026-04-25T16:00:40.561Z</time></trkpt><trkpt lat="46.22126" lon="12.786545"><ele>386.75</ele><time>2026-04-25T16:00:41.561Z</time></trkpt><trkpt lat="46.2211917" lon="12.78667"><ele>386.5</ele><time>2026-04-25T16:00:42.562Z</time></trkpt><trkpt lat="46.2211083" lon="12.7867783"><ele>386.25</ele><time>2026-04-25T16:00:43.562Z</time></trkpt><trkpt lat="46.221015" lon="12.7868783"><ele>386.0</ele><time>2026-04-25T16:00:44.562Z</time></trkpt><trkpt lat="46.22091" lon="12.78697"><ele>384.5</ele><time>2026-04-25T16:00:45.562Z</time></trkpt><trkpt lat="46.2207967" lon="12.7870517"><ele>383.0</ele><time>2026-04-25T16:00:46.562Z</time></trkpt><trkpt lat="46.220685" lon="12.7871083"><ele>381.5</ele><time>2026-04-25T16:00:47.561Z</time></trkpt><trkpt lat="46.2205767" lon="12.78715"><ele>380.0</ele><time>2026-04-25T16:00:48.562Z</time></trkpt><trkpt lat="46.220485" lon="12.7871883"><ele>379.33333333333337</ele><time>2026-04-25T16:00:49.562Z</time></trkpt><trkpt lat="46.2204083" lon="12.7872383"><ele>378.6666666666667</ele><time>2026-04-25T16:00:50.562Z</time></trkpt><trkpt lat="46.2203433" lon="12.7873067"><ele>378.0</ele><time>2026-04-25T16:00:51.562Z</time></trkpt><trkpt lat="46.2202983" lon="12.7873933"><ele>377.3333333333333</ele><time>2026-04-25T16:00:52.562Z</time></trkpt><trkpt lat="46.2202083" lon="12.7874967"><ele>376.66666666666663</ele><time>2026-04-25T16:00:54.562Z</time></trkpt><trkpt lat="46.220145" lon="12.7875167"><ele>376.0</ele><time>2026-04-25T16:00:55.562Z</time></trkpt><trkpt lat="46.2200817" lon="12.7874983"><ele>376.0</ele><time>2026-04-25T16:00:56.561Z</time></trkpt><trkpt lat="46.2200167" lon="12.7874417"><ele>376.0</ele><time>2026-04-25T16:00:57.561Z</time></trkpt><trkpt lat="46.2199483" lon="12.7873833"><ele>376.0</ele><time>2026-04-25T16:00:58.561Z</time></trkpt><trkpt lat="46.2198667" lon="12.7873383"><ele>376.0</ele><time>2026-04-25T16:00:59.562Z</time></trkpt><trkpt lat="46.2197767" lon="12.7873133"><ele>376.0</ele><time>2026-04-25T16:01:00.562Z</time></trkpt><trkpt lat="46.2196967" lon="12.787295"><ele>376.0</ele><time>2026-04-25T16:01:01.562Z</time></trkpt><trkpt lat="46.2196217" lon="12.7872833"><ele>372.0</ele><time>2026-04-25T16:01:02.561Z</time></trkpt><trkpt lat="46.2195567" lon="12.7873933"><ele>368.0</ele><time>2026-04-25T16:01:04.561Z</time></trkpt><trkpt lat="46.21956" lon="12.787485"><ele>364.0</ele><time>2026-04-25T16:01:05.562Z</time></trkpt><trkpt lat="46.2195967" lon="12.7875867"><ele>360.0</ele><time>2026-04-25T16:01:06.561Z</time></trkpt><trkpt lat="46.2196417" lon="12.7876933"><ele>356.0</ele><time>2026-04-25T16:01:07.562Z</time></trkpt><trkpt lat="46.2196933" lon="12.7878133"><ele>352.0</ele><time>2026-04-25T16:01:08.561Z</time></trkpt><trkpt lat="46.2197483" lon="12.7879233"><ele>354.0</ele><time>2026-04-25T16:01:09.562Z</time></trkpt><trkpt lat="46.219805" lon="12.7880167"><ele>356.0</ele><time>2026-04-25T16:01:10.562Z</time></trkpt><trkpt lat="46.219875" lon="12.7880933"><ele>358.0</ele><time>2026-04-25T16:01:11.561Z</time></trkpt><trkpt lat="46.219935" lon="12.7881467"><ele>360.0</ele><time>2026-04-25T16:01:12.562Z</time></trkpt><trkpt lat="46.2199867" lon="12.7882367"><ele>362.0</ele><time>2026-04-25T16:01:14.561Z</time></trkpt><trkpt lat="46.219905" lon="12.7882733"><ele>364.0</ele><time>2026-04-25T16:01:16.561Z</time></trkpt><trkpt lat="46.2198383" lon="12.7882617"><ele>358.79999999999995</ele><time>2026-04-25T16:01:17.561Z</time></trkpt><trkpt lat="46.2197567" lon="12.7882217"><ele>353.59999999999997</ele><time>2026-04-25T16:01:18.561Z</time></trkpt><trkpt lat="46.2196567" lon="12.7881433"><ele>348.4</ele><time>2026-04-25T16:01:19.562Z</time></trkpt><trkpt lat="46.2195617" lon="12.788055"><ele>343.2</ele><time>2026-04-25T16:01:20.561Z</time></trkpt><trkpt lat="46.2194783" lon="12.78794"><ele>338.0</ele><time>2026-04-25T16:01:21.561Z</time></trkpt><trkpt lat="46.21941" lon="12.7878133"><ele>338.0</ele><time>2026-04-25T16:01:22.561Z</time></trkpt><trkpt lat="46.21935" lon="12.7876783"><ele>338.0</ele><time>2026-04-25T16:01:23.562Z</time></trkpt><trkpt lat="46.219295" lon="12.787535"><ele>338.0</ele><time>2026-04-25T16:01:24.562Z</time></trkpt><trkpt lat="46.2192417" lon="12.7873817"><ele>338.0</ele><time>2026-04-25T16:01:25.561Z</time></trkpt><trkpt lat="46.219185" lon="12.78722"><ele>335.0</ele><time>2026-04-25T16:01:26.561Z</time></trkpt><trkpt lat="46.219115" lon="12.7870567"><ele>332.0</ele><time>2026-04-25T16:01:27.562Z</time></trkpt><trkpt lat="46.2190383" lon="12.7868933"><ele>329.0</ele><time>2026-04-25T16:01:28.562Z</time></trkpt><trkpt lat="46.21896" lon="12.786735"><ele>326.0</ele><time>2026-04-25T16:01:29.562Z</time></trkpt><trkpt lat="46.218885" lon="12.7865717"><ele>326.0</ele><time>2026-04-25T16:01:30.562Z</time></trkpt><trkpt lat="46.21881" lon="12.786415"><ele>326.0</ele><time>2026-04-25T16:01:31.561Z</time></trkpt><trkpt lat="46.218735" lon="12.7862733"><ele>326.0</ele><time>2026-04-25T16:01:32.562Z</time></trkpt><trkpt lat="46.21866" lon="12.7861383"><ele>326.0</ele><time>2026-04-25T16:01:33.562Z</time></trkpt><trkpt lat="46.2185883" lon="12.785995"><ele>329.25</ele><time>2026-04-25T16:01:34.561Z</time></trkpt><trkpt lat="46.2185167" lon="12.78585"><ele>332.5</ele><time>2026-04-25T16:01:35.562Z</time></trkpt><trkpt lat="46.2184567" lon="12.7856883"><ele>335.75</ele><time>2026-04-25T16:01:36.561Z</time></trkpt><trkpt lat="46.218405" lon="12.78552"><ele>339.0</ele><time>2026-04-25T16:01:37.561Z</time></trkpt><trkpt lat="46.2183533" lon="12.7853483"><ele>340.75</ele><time>2026-04-25T16:01:38.561Z</time></trkpt><trkpt lat="46.2183017" lon="12.7851767"><ele>342.5</ele><time>2026-04-25T16:01:39.561Z</time></trkpt><trkpt lat="46.21825" lon="12.7850033"><ele>344.25</ele><time>2026-04-25T16:01:40.561Z</time></trkpt><trkpt lat="46.2182033" lon="12.7848233"><ele>346.0</ele><time>2026-04-25T16:01:41.562Z</time></trkpt><trkpt lat="46.21816" lon="12.78464"><ele>337.75</ele><time>2026-04-25T16:01:42.562Z</time></trkpt><trkpt lat="46.2181133" lon="12.78446"><ele>329.5</ele><time>2026-04-25T16:01:43.562Z</time></trkpt><trkpt lat="46.21806" lon="12.784285"><ele>321.25</ele><time>2026-04-25T16:01:44.561Z</time></trkpt><trkpt lat="46.2180167" lon="12.7841167"><ele>313.0</ele><time>2026-04-25T16:01:45.562Z</time></trkpt><trkpt lat="46.2179867" lon="12.783955"><ele>313.0</ele><time>2026-04-25T16:01:46.561Z</time></trkpt><trkpt lat="46.2179617" lon="12.7837933"><ele>313.0</ele><time>2026-04-25T16:01:47.561Z</time></trkpt><trkpt lat="46.2179383" lon="12.783645"><ele>313.0</ele><time>2026-04-25T16:01:48.562Z</time></trkpt><trkpt lat="46.2179133" lon="12.7835083"><ele>313.0</ele><time>2026-04-25T16:01:49.562Z</time></trkpt><trkpt lat="46.2178967" lon="12.7833817"><ele>313.0</ele><time>2026-04-25T16:01:50.562Z</time></trkpt><trkpt lat="46.217895" lon="12.7832683"><ele>313.3333333333333</ele><time>2026-04-25T16:01:51.562Z</time></trkpt><trkpt lat="46.2179067" lon="12.7831633"><ele>313.66666666666663</ele><time>2026-04-25T16:01:52.561Z</time></trkpt><trkpt lat="46.2179417" lon="12.7830667"><ele>314.0</ele><time>2026-04-25T16:01:53.562Z</time></trkpt><trkpt lat="46.2179933" lon="12.7829817"><ele>314.3333333333333</ele><time>2026-04-25T16:01:54.562Z</time></trkpt><trkpt lat="46.218055" lon="12.782915"><ele>314.6666666666667</ele><time>2026-04-25T16:01:55.562Z</time></trkpt><trkpt lat="46.2181267" lon="12.782885"><ele>315.0</ele><time>2026-04-25T16:01:56.562Z</time></trkpt><trkpt lat="46.2181983" lon="12.7828867"><ele>315.0</ele><time>2026-04-25T16:01:57.561Z</time></trkpt><trkpt lat="46.2182717" lon="12.7829033"><ele>315.0</ele><time>2026-04-25T16:01:58.562Z</time></trkpt><trkpt lat="46.2183383" lon="12.7829133"><ele>315.0</ele><time>2026-04-25T16:01:59.561Z</time></trkpt><trkpt lat="46.2184017" lon="12.7828933"><ele>315.0</ele><time>2026-04-25T16:02:00.561Z</time></trkpt><trkpt lat="46.21848" lon="12.78278"><ele>315.0</ele><time>2026-04-25T16:02:02.562Z</time></trkpt><trkpt lat="46.2184517" lon="12.78263"><ele>315.0</ele><time>2026-04-25T16:02:04.562Z</time></trkpt><trkpt lat="46.218405" lon="12.7825667"><ele>315.0</ele><time>2026-04-25T16:02:05.561Z</time></trkpt><trkpt lat="46.2183483" lon="12.7825233"><ele>315.0</ele><time>2026-04-25T16:02:06.561Z</time></trkpt><trkpt lat="46.218235" lon="12.782525"><ele>315.0</ele><time>2026-04-25T16:02:08.562Z</time></trkpt><trkpt lat="46.2181767" lon="12.7825683"><ele>315.0</ele><time>2026-04-25T16:02:09.562Z</time></trkpt><trkpt lat="46.21811" lon="12.78263"><ele>315.0</ele><time>2026-04-25T16:02:10.562Z</time></trkpt><trkpt lat="46.21804" lon="12.7826917"><ele>315.0</ele><time>2026-04-25T16:02:11.561Z</time></trkpt><trkpt lat="46.2179617" lon="12.7827467"><ele>315.0</ele><time>2026-04-25T16:02:12.561Z</time></trkpt><trkpt lat="46.2178767" lon="12.7827867"><ele>315.0</ele><time>2026-04-25T16:02:13.562Z</time></trkpt><trkpt lat="46.2177867" lon="12.78282"><ele>315.0</ele><time>2026-04-25T16:02:14.561Z</time></trkpt><trkpt lat="46.2176983" lon="12.7828517"><ele>315.0</ele><time>2026-04-25T16:02:15.561Z</time></trkpt><trkpt lat="46.2176167" lon="12.7828783"><ele>315.0</ele><time>2026-04-25T16:02:16.562Z</time></trkpt><trkpt lat="46.2175383" lon="12.782895"><ele>315.0</ele><time>2026-04-25T16:02:17.562Z</time></trkpt><trkpt lat="46.2174667" lon="12.7829083"><ele>315.0</ele><time>2026-04-25T16:02:18.562Z</time></trkpt><trkpt lat="46.2174017" lon="12.782925"><ele>315.0</ele><time>2026-04-25T16:02:19.561Z</time></trkpt><trkpt lat="46.2173167" lon="12.782965"><ele>315.0</ele><time>2026-04-25T16:02:21.562Z</time></trkpt><trkpt lat="46.2172667" lon="12.7830217"><ele>315.0</ele><time>2026-04-25T16:02:25.562Z</time></trkpt><trkpt lat="46.2172033" lon="12.783095"><ele>315.0</ele><time>2026-04-25T16:02:27.562Z</time></trkpt><trkpt lat="46.2171667" lon="12.78318"><ele>315.0</ele><time>2026-04-25T16:02:28.561Z</time></trkpt><trkpt lat="46.2171367" lon="12.7832867"><ele>315.0</ele><time>2026-04-25T16:02:29.561Z</time></trkpt><trkpt lat="46.2171167" lon="12.7834083"><ele>314.0</ele><time>2026-04-25T16:02:30.562Z</time></trkpt><trkpt lat="46.2170917" lon="12.7835183"><ele>313.0</ele><time>2026-04-25T16:02:31.562Z</time></trkpt><trkpt lat="46.2170733" lon="12.783635"><ele>312.0</ele><time>2026-04-25T16:02:32.562Z</time></trkpt><trkpt lat="46.2170617" lon="12.7837617"><ele>311.0</ele><time>2026-04-25T16:02:33.562Z</time></trkpt><trkpt lat="46.2170583" lon="12.7838883"><ele>310.0</ele><time>2026-04-25T16:02:34.562Z</time></trkpt><trkpt lat="46.2170633" lon="12.78401"><ele>309.0</ele><time>2026-04-25T16:02:35.562Z</time></trkpt><trkpt lat="46.2170683" lon="12.7841267"><ele>309.0</ele><time>2026-04-25T16:02:36.562Z</time></trkpt><trkpt lat="46.2170667" lon="12.7842417"><ele>309.0</ele><time>2026-04-25T16:02:37.562Z</time></trkpt><trkpt lat="46.2170467" lon="12.784355"><ele>309.0</ele><time>2026-04-25T16:02:38.562Z</time></trkpt><trkpt lat="46.2170117" lon="12.7844717"><ele>309.0</ele><time>2026-04-25T16:02:39.562Z</time></trkpt><trkpt lat="46.21697" lon="12.7845967"><ele>309.0</ele><time>2026-04-25T16:02:40.562Z</time></trkpt><trkpt lat="46.2169417" lon="12.7847367"><ele>309.0</ele><time>2026-04-25T16:02:41.562Z</time></trkpt><trkpt lat="46.2169067" lon="12.784875"><ele>308.4</ele><time>2026-04-25T16:02:42.562Z</time></trkpt><trkpt lat="46.2168717" lon="12.7850117"><ele>307.79999999999995</ele><time>2026-04-25T16:02:43.561Z</time></trkpt><trkpt lat="46.2168267" lon="12.7851417"><ele>307.20000000000005</ele><time>2026-04-25T16:02:44.562Z</time></trkpt><trkpt lat="46.2167933" lon="12.7852817"><ele>306.6</ele><time>2026-04-25T16:02:45.561Z</time></trkpt><trkpt lat="46.21677" lon="12.7854217"><ele>306.0</ele><time>2026-04-25T16:02:46.562Z</time></trkpt><trkpt lat="46.2167583" lon="12.7855633"><ele>305.8</ele><time>2026-04-25T16:02:47.562Z</time></trkpt><trkpt lat="46.21675" lon="12.7857033"><ele>305.6</ele><time>2026-04-25T16:02:48.562Z</time></trkpt><trkpt lat="46.216755" lon="12.7858433"><ele>305.4</ele><time>2026-04-25T16:02:49.561Z</time></trkpt><trkpt lat="46.2167617" lon="12.7859817"><ele>305.2</ele><time>2026-04-25T16:02:50.562Z</time></trkpt><trkpt lat="46.21677" lon="12.786135"><ele>305.0</ele><time>2026-04-25T16:02:51.561Z</time></trkpt><trkpt lat="46.21678" lon="12.7863017"><ele>304.75</ele><time>2026-04-25T16:02:52.562Z</time></trkpt><trkpt lat="46.2167933" lon="12.7864717"><ele>304.5</ele><time>2026-04-25T16:02:53.562Z</time></trkpt><trkpt lat="46.216805" lon="12.7866383"><ele>304.25</ele><time>2026-04-25T16:02:54.561Z</time></trkpt><trkpt lat="46.2168183" lon="12.7868067"><ele>304.0</ele><time>2026-04-25T16:02:55.561Z</time></trkpt><trkpt lat="46.2168367" lon="12.7869733"><ele>302.75</ele><time>2026-04-25T16:02:56.562Z</time></trkpt><trkpt lat="46.2168617" lon="12.7871383"><ele>301.5</ele><time>2026-04-25T16:02:57.562Z</time></trkpt><trkpt lat="46.21689" lon="12.787295"><ele>300.25</ele><time>2026-04-25T16:02:58.562Z</time></trkpt><trkpt lat="46.2169233" lon="12.78745"><ele>299.0</ele><time>2026-04-25T16:02:59.561Z</time></trkpt><trkpt lat="46.216965" lon="12.7876033"><ele>298.75</ele><time>2026-04-25T16:03:00.562Z</time></trkpt><trkpt lat="46.217015" lon="12.7877567"><ele>298.5</ele><time>2026-04-25T16:03:01.562Z</time></trkpt><trkpt lat="46.2170667" lon="12.78791"><ele>298.25</ele><time>2026-04-25T16:03:02.561Z</time></trkpt><trkpt lat="46.217125" lon="12.7880683"><ele>298.0</ele><time>2026-04-25T16:03:03.562Z</time></trkpt><trkpt lat="46.2171817" lon="12.7882317"><ele>298.0</ele><time>2026-04-25T16:03:04.562Z</time></trkpt><trkpt lat="46.2172383" lon="12.7883967"><ele>298.0</ele><time>2026-04-25T16:03:05.562Z</time></trkpt><trkpt lat="46.217295" lon="12.7885583"><ele>298.0</ele><time>2026-04-25T16:03:06.562Z</time></trkpt><trkpt lat="46.2173517" lon="12.7887117"><ele>298.0</ele><time>2026-04-25T16:03:07.561Z</time></trkpt><trkpt lat="46.2174067" lon="12.7888617"><ele>298.25</ele><time>2026-04-25T16:03:08.561Z</time></trkpt><trkpt lat="46.21746" lon="12.7890167"><ele>298.5</ele><time>2026-04-25T16:03:09.561Z</time></trkpt><trkpt lat="46.2175067" lon="12.789175"><ele>298.75</ele><time>2026-04-25T16:03:10.562Z</time></trkpt><trkpt lat="46.2175433" lon="12.7893383"><ele>299.0</ele><time>2026-04-25T16:03:11.562Z</time></trkpt><trkpt lat="46.217565" lon="12.7895083"><ele>299.0</ele><time>2026-04-25T16:03:12.562Z</time></trkpt><trkpt lat="46.2175733" lon="12.7896767"><ele>299.0</ele><time>2026-04-25T16:03:13.561Z</time></trkpt><trkpt lat="46.2175667" lon="12.7898467"><ele>299.0</ele><time>2026-04-25T16:03:14.561Z</time></trkpt><trkpt lat="46.2175617" lon="12.790015"><ele>299.0</ele><time>2026-04-25T16:03:15.562Z</time></trkpt><trkpt lat="46.2175583" lon="12.7901767"><ele>299.0</ele><time>2026-04-25T16:03:16.562Z</time></trkpt><trkpt lat="46.2175567" lon="12.790335"><ele>299.0</ele><time>2026-04-25T16:03:17.561Z</time></trkpt><trkpt lat="46.2175583" lon="12.7904867"><ele>299.0</ele><time>2026-04-25T16:03:18.562Z</time></trkpt><trkpt lat="46.2175533" lon="12.79063"><ele>299.0</ele><time>2026-04-25T16:03:19.562Z</time></trkpt><trkpt lat="46.2175533" lon="12.7907733"><ele>299.0</ele><time>2026-04-25T16:03:20.562Z</time></trkpt><trkpt lat="46.21755" lon="12.7909117"><ele>298.59999999999997</ele><time>2026-04-25T16:03:21.561Z</time></trkpt><trkpt lat="46.2175517" lon="12.7910533"><ele>298.2</ele><time>2026-04-25T16:03:22.562Z</time></trkpt><trkpt lat="46.217555" lon="12.7911833"><ele>297.79999999999995</ele><time>2026-04-25T16:03:23.562Z</time></trkpt><trkpt lat="46.2175667" lon="12.791305"><ele>297.4</ele><time>2026-04-25T16:03:24.561Z</time></trkpt><trkpt lat="46.2175983" lon="12.79142"><ele>297.0</ele><time>2026-04-25T16:03:25.562Z</time></trkpt><trkpt lat="46.2176517" lon="12.79154"><ele>297.0</ele><time>2026-04-25T16:03:26.562Z</time></trkpt><trkpt lat="46.2177283" lon="12.7916767"><ele>297.0</ele><time>2026-04-25T16:03:27.562Z</time></trkpt><trkpt lat="46.2178133" lon="12.79182"><ele>297.0</ele><time>2026-04-25T16:03:28.562Z</time></trkpt><trkpt lat="46.217895" lon="12.79196"><ele>297.0</ele><time>2026-04-25T16:03:29.562Z</time></trkpt><trkpt lat="46.2179733" lon="12.792095"><ele>296.5</ele><time>2026-04-25T16:03:30.562Z</time></trkpt><trkpt lat="46.21805" lon="12.7922267"><ele>296.0</ele><time>2026-04-25T16:03:31.561Z</time></trkpt><trkpt lat="46.2181283" lon="12.7923533"><ele>295.5</ele><time>2026-04-25T16:03:32.561Z</time></trkpt><trkpt lat="46.218205" lon="12.7924783"><ele>295.0</ele><time>2026-04-25T16:03:33.561Z</time></trkpt><trkpt lat="46.21828" lon="12.7925967"><ele>296.2</ele><time>2026-04-25T16:03:34.562Z</time></trkpt><trkpt lat="46.21835" lon="12.7927067"><ele>297.4</ele><time>2026-04-25T16:03:35.561Z</time></trkpt><trkpt lat="46.21841" lon="12.7928183"><ele>298.6</ele><time>2026-04-25T16:03:36.562Z</time></trkpt><trkpt lat="46.2184567" lon="12.7929417"><ele>299.8</ele><time>2026-04-25T16:03:37.561Z</time></trkpt><trkpt lat="46.2184867" lon="12.7930833"><ele>301.0</ele><time>2026-04-25T16:03:38.561Z</time></trkpt><trkpt lat="46.218505" lon="12.7932367"><ele>301.0</ele><time>2026-04-25T16:03:39.561Z</time></trkpt><trkpt lat="46.2185183" lon="12.7934017"><ele>301.0</ele><time>2026-04-25T16:03:40.561Z</time></trkpt><trkpt lat="46.2185267" lon="12.793575"><ele>301.0</ele><time>2026-04-25T16:03:41.561Z</time></trkpt><trkpt lat="46.2185283" lon="12.7937533"><ele>301.0</ele><time>2026-04-25T16:03:42.562Z</time></trkpt><trkpt lat="46.2185283" lon="12.79393"><ele>302.0</ele><time>2026-04-25T16:03:43.562Z</time></trkpt><trkpt lat="46.2185267" lon="12.7941033"><ele>303.0</ele><time>2026-04-25T16:03:44.561Z</time></trkpt><trkpt lat="46.2185267" lon="12.7942683"><ele>304.0</ele><time>2026-04-25T16:03:45.562Z</time></trkpt><trkpt lat="46.21853" lon="12.7944317"><ele>305.0</ele><time>2026-04-25T16:03:46.562Z</time></trkpt><trkpt lat="46.2185367" lon="12.7945883"><ele>305.0</ele><time>2026-04-25T16:03:47.562Z</time></trkpt><trkpt lat="46.2185517" lon="12.794745"><ele>305.0</ele><time>2026-04-25T16:03:48.562Z</time></trkpt><trkpt lat="46.2185767" lon="12.7948967"><ele>305.0</ele><time>2026-04-25T16:03:49.561Z</time></trkpt><trkpt lat="46.2186133" lon="12.7950317"><ele>305.0</ele><time>2026-04-25T16:03:50.562Z</time></trkpt><trkpt lat="46.2186483" lon="12.7951517"><ele>305.0</ele><time>2026-04-25T16:03:51.562Z</time></trkpt><trkpt lat="46.2186783" lon="12.7952567"><ele>304.83333333333337</ele><time>2026-04-25T16:03:52.561Z</time></trkpt><trkpt lat="46.2187017" lon="12.79535"><ele>304.6666666666667</ele><time>2026-04-25T16:03:53.561Z</time></trkpt><trkpt lat="46.2187167" lon="12.79545"><ele>304.5</ele><time>2026-04-25T16:03:54.561Z</time></trkpt><trkpt lat="46.2187167" lon="12.795565"><ele>304.3333333333333</ele><time>2026-04-25T16:03:55.562Z</time></trkpt><trkpt lat="46.2187183" lon="12.7956933"><ele>304.16666666666663</ele><time>2026-04-25T16:03:56.562Z</time></trkpt><trkpt lat="46.2187283" lon="12.7958533"><ele>304.0</ele><time>2026-04-25T16:03:57.562Z</time></trkpt><trkpt lat="46.21874" lon="12.7960133"><ele>303.2</ele><time>2026-04-25T16:03:58.562Z</time></trkpt><trkpt lat="46.21875" lon="12.796165"><ele>302.4</ele><time>2026-04-25T16:03:59.561Z</time></trkpt><trkpt lat="46.2187633" lon="12.7963117"><ele>301.6</ele><time>2026-04-25T16:04:00.562Z</time></trkpt><trkpt lat="46.2187783" lon="12.79646"><ele>300.8</ele><time>2026-04-25T16:04:01.561Z</time></trkpt><trkpt lat="46.218795" lon="12.796595"><ele>300.0</ele><time>2026-04-25T16:04:02.562Z</time></trkpt><trkpt lat="46.2188117" lon="12.7967167"><ele>299.8</ele><time>2026-04-25T16:04:03.561Z</time></trkpt><trkpt lat="46.2188133" lon="12.7968383"><ele>299.6</ele><time>2026-04-25T16:04:04.561Z</time></trkpt><trkpt lat="46.2187967" lon="12.7969633"><ele>299.4</ele><time>2026-04-25T16:04:05.562Z</time></trkpt><trkpt lat="46.218755" lon="12.7970817"><ele>299.2</ele><time>2026-04-25T16:04:06.562Z</time></trkpt><trkpt lat="46.2186883" lon="12.7971967"><ele>299.0</ele><time>2026-04-25T16:04:07.561Z</time></trkpt><trkpt lat="46.2186283" lon="12.7973167"><ele>299.0</ele><time>2026-04-25T16:04:08.561Z</time></trkpt><trkpt lat="46.2185783" lon="12.7974483"><ele>299.0</ele><time>2026-04-25T16:04:09.562Z</time></trkpt><trkpt lat="46.2185383" lon="12.79758"><ele>299.0</ele><time>2026-04-25T16:04:10.561Z</time></trkpt><trkpt lat="46.218505" lon="12.7977167"><ele>299.0</ele><time>2026-04-25T16:04:11.562Z</time></trkpt><trkpt lat="46.2184667" lon="12.7978433"><ele>299.0</ele><time>2026-04-25T16:04:12.562Z</time></trkpt><trkpt lat="46.2184167" lon="12.7979617"><ele>299.2</ele><time>2026-04-25T16:04:13.562Z</time></trkpt><trkpt lat="46.2183583" lon="12.7980733"><ele>299.4</ele><time>2026-04-25T16:04:14.561Z</time></trkpt><trkpt lat="46.2182917" lon="12.7981767"><ele>299.6</ele><time>2026-04-25T16:04:15.561Z</time></trkpt><trkpt lat="46.218215" lon="12.79827"><ele>299.8</ele><time>2026-04-25T16:04:16.561Z</time></trkpt><trkpt lat="46.218135" lon="12.7983617"><ele>300.0</ele><time>2026-04-25T16:04:17.561Z</time></trkpt><trkpt lat="46.2180583" lon="12.7984533"><ele>299.4</ele><time>2026-04-25T16:04:18.561Z</time></trkpt><trkpt lat="46.2179883" lon="12.7985383"><ele>298.8</ele><time>2026-04-25T16:04:19.562Z</time></trkpt><trkpt lat="46.2179283" lon="12.798605"><ele>298.2</ele><time>2026-04-25T16:04:20.562Z</time></trkpt><trkpt lat="46.2178467" lon="12.7986767"><ele>297.6</ele><time>2026-04-25T16:04:22.561Z</time></trkpt><trkpt lat="46.2177883" lon="12.7987933"><ele>297.0</ele><time>2026-04-25T16:04:25.562Z</time></trkpt><trkpt lat="46.2177417" lon="12.79897"><ele>297.0</ele><time>2026-04-25T16:04:27.561Z</time></trkpt><trkpt lat="46.217695" lon="12.7990733"><ele>297.0</ele><time>2026-04-25T16:04:28.562Z</time></trkpt><trkpt lat="46.2176433" lon="12.7991883"><ele>297.0</ele><time>2026-04-25T16:04:29.561Z</time></trkpt><trkpt lat="46.217585" lon="12.7993067"><ele>297.0</ele><time>2026-04-25T16:04:30.562Z</time></trkpt><trkpt lat="46.2175317" lon="12.79943"><ele>297.0</ele><time>2026-04-25T16:04:31.562Z</time></trkpt><trkpt lat="46.217475" lon="12.799555"><ele>297.1666666666667</ele><time>2026-04-25T16:04:32.561Z</time></trkpt><trkpt lat="46.217415" lon="12.799665"><ele>297.3333333333333</ele><time>2026-04-25T16:04:33.561Z</time></trkpt><trkpt lat="46.2173533" lon="12.7997583"><ele>297.5</ele><time>2026-04-25T16:04:34.561Z</time></trkpt><trkpt lat="46.2173017" lon="12.7998583"><ele>297.66666666666663</ele><time>2026-04-25T16:04:35.561Z</time></trkpt><trkpt lat="46.217265" lon="12.79997"><ele>297.8333333333333</ele><time>2026-04-25T16:04:36.562Z</time></trkpt><trkpt lat="46.2172367" lon="12.8000917"><ele>298.0</ele><time>2026-04-25T16:04:37.562Z</time></trkpt><trkpt lat="46.21723" lon="12.80024"><ele>295.5</ele><time>2026-04-25T16:04:38.561Z</time></trkpt><trkpt lat="46.2172283" lon="12.8003983"><ele>293.0</ele><time>2026-04-25T16:04:39.562Z</time></trkpt><trkpt lat="46.2172267" lon="12.8005533"><ele>290.5</ele><time>2026-04-25T16:04:40.562Z</time></trkpt><trkpt lat="46.217225" lon="12.8007167"><ele>288.0</ele><time>2026-04-25T16:04:41.562Z</time></trkpt><trkpt lat="46.217225" lon="12.80089"><ele>287.8</ele><time>2026-04-25T16:04:42.561Z</time></trkpt><trkpt lat="46.2172183" lon="12.801065"><ele>287.6</ele><time>2026-04-25T16:04:43.561Z</time></trkpt><trkpt lat="46.2172117" lon="12.8012267"><ele>287.4</ele><time>2026-04-25T16:04:44.561Z</time></trkpt><trkpt lat="46.217205" lon="12.80138"><ele>287.2</ele><time>2026-04-25T16:04:45.562Z</time></trkpt><trkpt lat="46.2171933" lon="12.8015267"><ele>287.0</ele><time>2026-04-25T16:04:46.562Z</time></trkpt><trkpt lat="46.2171733" lon="12.8016733"><ele>287.0</ele><time>2026-04-25T16:04:47.561Z</time></trkpt><trkpt lat="46.217135" lon="12.8018083"><ele>287.0</ele><time>2026-04-25T16:04:48.562Z</time></trkpt><trkpt lat="46.2171083" lon="12.8019467"><ele>287.0</ele><time>2026-04-25T16:04:49.562Z</time></trkpt><trkpt lat="46.2170917" lon="12.8020917"><ele>287.0</ele><time>2026-04-25T16:04:50.562Z</time></trkpt><trkpt lat="46.2170867" lon="12.8022383"><ele>287.0</ele><time>2026-04-25T16:04:51.561Z</time></trkpt><trkpt lat="46.21709" lon="12.8023883"><ele>287.5</ele><time>2026-04-25T16:04:52.562Z</time></trkpt><trkpt lat="46.2171" lon="12.8025383"><ele>288.0</ele><time>2026-04-25T16:04:53.561Z</time></trkpt><trkpt lat="46.2171017" lon="12.8026983"><ele>288.5</ele><time>2026-04-25T16:04:54.562Z</time></trkpt><trkpt lat="46.2170933" lon="12.802865"><ele>289.0</ele><time>2026-04-25T16:04:55.562Z</time></trkpt><trkpt lat="46.217075" lon="12.8030367"><ele>289.8</ele><time>2026-04-25T16:04:56.562Z</time></trkpt><trkpt lat="46.2170467" lon="12.8031933"><ele>290.59999999999997</ele><time>2026-04-25T16:04:57.562Z</time></trkpt><trkpt lat="46.2170233" lon="12.8033233"><ele>291.4</ele><time>2026-04-25T16:04:58.561Z</time></trkpt><trkpt lat="46.2170033" lon="12.8034333"><ele>292.2</ele><time>2026-04-25T16:04:59.562Z</time></trkpt><trkpt lat="46.21698" lon="12.803525"><ele>293.0</ele><time>2026-04-25T16:05:00.561Z</time></trkpt><trkpt lat="46.21689" lon="12.8036417"><ele>293.0</ele><time>2026-04-25T16:05:02.562Z</time></trkpt><trkpt lat="46.2168217" lon="12.8036517"><ele>293.0</ele><time>2026-04-25T16:05:03.562Z</time></trkpt><trkpt lat="46.2167333" lon="12.8036383"><ele>293.0</ele><time>2026-04-25T16:05:04.562Z</time></trkpt><trkpt lat="46.2166283" lon="12.8036133"><ele>293.0</ele><time>2026-04-25T16:05:05.562Z</time></trkpt><trkpt lat="46.2165033" lon="12.8035917"><ele>293.0</ele><time>2026-04-25T16:05:06.561Z</time></trkpt><trkpt lat="46.21637" lon="12.80358"><ele>291.25</ele><time>2026-04-25T16:05:07.562Z</time></trkpt><trkpt lat="46.21624" lon="12.80358"><ele>289.5</ele><time>2026-04-25T16:05:08.562Z</time></trkpt><trkpt lat="46.216115" lon="12.8035767"><ele>287.75</ele><time>2026-04-25T16:05:09.561Z</time></trkpt><trkpt lat="46.215995" lon="12.803575"><ele>286.0</ele><time>2026-04-25T16:05:10.562Z</time></trkpt><trkpt lat="46.2158833" lon="12.8035817"><ele>286.0</ele><time>2026-04-25T16:05:11.562Z</time></trkpt><trkpt lat="46.2157767" lon="12.8035917"><ele>286.0</ele><time>2026-04-25T16:05:12.562Z</time></trkpt><trkpt lat="46.2156733" lon="12.8036117"><ele>286.0</ele><time>2026-04-25T16:05:13.562Z</time></trkpt><trkpt lat="46.21557" lon="12.8036433"><ele>286.0</ele><time>2026-04-25T16:05:14.561Z</time></trkpt><trkpt lat="46.21547" lon="12.8037"><ele>286.0</ele><time>2026-04-25T16:05:15.562Z</time></trkpt><trkpt lat="46.2153683" lon="12.8037717"><ele>285.5</ele><time>2026-04-25T16:05:16.561Z</time></trkpt><trkpt lat="46.2152683" lon="12.8038533"><ele>285.0</ele><time>2026-04-25T16:05:17.562Z</time></trkpt><trkpt lat="46.2151633" lon="12.80394"><ele>284.5</ele><time>2026-04-25T16:05:18.561Z</time></trkpt><trkpt lat="46.21506" lon="12.8040233"><ele>284.0</ele><time>2026-04-25T16:05:19.562Z</time></trkpt><trkpt lat="46.2149617" lon="12.8041017"><ele>284.0</ele><time>2026-04-25T16:05:20.562Z</time></trkpt><trkpt lat="46.21487" lon="12.8041867"><ele>284.0</ele><time>2026-04-25T16:05:21.562Z</time></trkpt><trkpt lat="46.214785" lon="12.8042767"><ele>284.0</ele><time>2026-04-25T16:05:22.562Z</time></trkpt><trkpt lat="46.214715" lon="12.8043717"><ele>284.0</ele><time>2026-04-25T16:05:23.562Z</time></trkpt><trkpt lat="46.21466" lon="12.8044667"><ele>284.0</ele><time>2026-04-25T16:05:24.562Z</time></trkpt><trkpt lat="46.2146183" lon="12.80456"><ele>283.0</ele><time>2026-04-25T16:05:25.562Z</time></trkpt><trkpt lat="46.2145733" lon="12.8047"><ele>282.0</ele><time>2026-04-25T16:05:27.562Z</time></trkpt><trkpt lat="46.2146133" lon="12.8049817"><ele>281.0</ele><time>2026-04-25T16:05:31.561Z</time></trkpt><trkpt lat="46.2145967" lon="12.805085"><ele>280.0</ele><time>2026-04-25T16:05:32.562Z</time></trkpt><trkpt lat="46.2145683" lon="12.805205"><ele>280.0</ele><time>2026-04-25T16:05:33.562Z</time></trkpt><trkpt lat="46.2145333" lon="12.8053417"><ele>280.0</ele><time>2026-04-25T16:05:34.562Z</time></trkpt><trkpt lat="46.2144933" lon="12.8054833"><ele>280.0</ele><time>2026-04-25T16:05:35.562Z</time></trkpt><trkpt lat="46.2144583" lon="12.80562"><ele>280.0</ele><time>2026-04-25T16:05:36.562Z</time></trkpt><trkpt lat="46.2144333" lon="12.805755"><ele>280.0</ele><time>2026-04-25T16:05:37.562Z</time></trkpt><trkpt lat="46.2144167" lon="12.8059033"><ele>280.0</ele><time>2026-04-25T16:05:38.562Z</time></trkpt><trkpt lat="46.2144033" lon="12.80606"><ele>280.0</ele><time>2026-04-25T16:05:39.561Z</time></trkpt><trkpt lat="46.21439" lon="12.8062067"><ele>280.0</ele><time>2026-04-25T16:05:40.561Z</time></trkpt><trkpt lat="46.2143817" lon="12.80634"><ele>280.0</ele><time>2026-04-25T16:05:41.561Z</time></trkpt><trkpt lat="46.214375" lon="12.8064617"><ele>280.0</ele><time>2026-04-25T16:05:42.562Z</time></trkpt><trkpt lat="46.2143767" lon="12.8065733"><ele>280.0</ele><time>2026-04-25T16:05:43.562Z</time></trkpt><trkpt lat="46.2143967" lon="12.806665"><ele>280.0</ele><time>2026-04-25T16:05:44.562Z</time></trkpt><trkpt lat="46.21444" lon="12.8067433"><ele>280.0</ele><time>2026-04-25T16:05:45.562Z</time></trkpt><trkpt lat="46.2144933" lon="12.80681"><ele>280.0</ele><time>2026-04-25T16:05:46.562Z</time></trkpt><trkpt lat="46.2145483" lon="12.8068767"><ele>280.0</ele><time>2026-04-25T16:05:47.562Z</time></trkpt><trkpt lat="46.2146067" lon="12.8069483"><ele>280.0</ele><time>2026-04-25T16:05:48.561Z</time></trkpt><trkpt lat="46.21467" lon="12.807025"><ele>280.0</ele><time>2026-04-25T16:05:49.562Z</time></trkpt><trkpt lat="46.2147317" lon="12.80711"><ele>280.0</ele><time>2026-04-25T16:05:50.561Z</time></trkpt><trkpt lat="46.214795" lon="12.807205"><ele>280.0</ele><time>2026-04-25T16:05:51.561Z</time></trkpt><trkpt lat="46.214855" lon="12.8073033"><ele>280.0</ele><time>2026-04-25T16:05:52.561Z</time></trkpt><trkpt lat="46.2149133" lon="12.8074"><ele>280.0</ele><time>2026-04-25T16:05:53.562Z</time></trkpt><trkpt lat="46.214965" lon="12.80749"><ele>280.0</ele><time>2026-04-25T16:05:54.562Z</time></trkpt><trkpt lat="46.2150167" lon="12.8075767"><ele>280.0</ele><time>2026-04-25T16:05:55.561Z</time></trkpt><trkpt lat="46.21507" lon="12.8076633"><ele>280.0</ele><time>2026-04-25T16:05:56.562Z</time></trkpt><trkpt lat="46.2151283" lon="12.8077467"><ele>280.0</ele><time>2026-04-25T16:05:57.562Z</time></trkpt><trkpt lat="46.21518" lon="12.807825"><ele>280.0</ele><time>2026-04-25T16:05:58.561Z</time></trkpt><trkpt lat="46.2152317" lon="12.8078917"><ele>280.0</ele><time>2026-04-25T16:05:59.562Z</time></trkpt><trkpt lat="46.21532" lon="12.807995"><ele>280.0</ele><time>2026-04-25T16:06:01.561Z</time></trkpt><trkpt lat="46.2154" lon="12.8080667"><ele>280.0</ele><time>2026-04-25T16:06:03.562Z</time></trkpt><trkpt lat="46.2154767" lon="12.8080667"><ele>280.0</ele><time>2026-04-25T16:06:05.561Z</time></trkpt><trkpt lat="46.215515" lon="12.8079583"><ele>280.0</ele><time>2026-04-25T16:06:07.562Z</time></trkpt><trkpt lat="46.2155517" lon="12.8078183"><ele>280.0</ele><time>2026-04-25T16:06:09.561Z</time></trkpt><trkpt lat="46.2155967" lon="12.80767"><ele>280.0</ele><time>2026-04-25T16:06:11.561Z</time></trkpt><trkpt lat="46.2156517" lon="12.8075017"><ele>280.0</ele><time>2026-04-25T16:06:13.561Z</time></trkpt><trkpt lat="46.2156833" lon="12.8074"><ele>296.0</ele><time>2026-04-25T16:06:14.561Z</time></trkpt><trkpt lat="46.215715" lon="12.8073017"><ele>296.0</ele><time>2026-04-25T16:06:15.562Z</time></trkpt><trkpt lat="46.2157417" lon="12.8072117"><ele>296.0</ele><time>2026-04-25T16:06:16.562Z</time></trkpt><trkpt lat="46.21579" lon="12.8070683"><ele>296.0</ele><time>2026-04-25T16:06:18.561Z</time></trkpt><trkpt lat="46.2158367" lon="12.8069633"><ele>296.0</ele><time>2026-04-25T16:06:20.562Z</time></trkpt></trkseg></trk></gpx>